<?xml version='1.0' encoding='UTF-8'?><gpx version="1.1" creator="JPX - https://github.com/jenetics/jpx" xmlns="http://www.topografix.com/GPX/1/1"><trk><trkseg><trkpt lat="44.479631944006165" lon="7.872818203573883"><ele>363.1666666666667</ele><time>2026-04-15T16:13:23.907Z</time></trkpt><trkpt lat="44.47959126958983" lon="7.8727312428572835"><ele>363.3333333333333</ele><time>2026-04-15T16:13:25.88Z</time></trkpt><trkpt lat="44.47952884935188" lon="7.872847108920767"><ele>363.5</ele><time>2026-04-15T16:13:46.022Z</time></trkpt><trkpt lat="44.479482226188566" lon="7.872725921397718"><ele>363.66666666666663</ele><time>2026-04-15T16:13:52.003Z</time></trkpt><trkpt lat="44.47941230171828" lon="7.872766002025206"><ele>363.8333333333333</ele><time>2026-04-15T16:13:57.002Z</time></trkpt><trkpt lat="44.47933979755799" lon="7.872793260876988"><ele>364.0</ele><time>2026-04-15T16:13:59.002Z</time></trkpt><trkpt lat="44.47906923583668" lon="7.872872781246793"><ele>364.0</ele><time>2026-04-15T16:14:04.002Z</time></trkpt><trkpt lat="44.479111138433" lon="7.8731683307448845"><ele>364.0</ele><time>2026-04-15T16:14:27Z</time></trkpt><trkpt lat="44.47914761340509" lon="7.873257569583673"><ele>364.0</ele><time>2026-04-15T16:14:28Z</time></trkpt><trkpt lat="44.47918477870766" lon="7.873357870202929"><ele>364.0</ele><time>2026-04-15T16:14:29Z</time></trkpt><trkpt lat="44.4792275048303" lon="7.873445843330834"><ele>364.0</ele><time>2026-04-15T16:14:30Z</time></trkpt><trkpt lat="44.479271113870155" lon="7.873553760095245"><ele>363.66666666666663</ele><time>2026-04-15T16:14:31Z</time></trkpt><trkpt lat="44.47931174759651" lon="7.873665772611493"><ele>363.3333333333333</ele><time>2026-04-15T16:14:32Z</time></trkpt><trkpt lat="44.479332169501454" lon="7.873788605479902"><ele>363.0</ele><time>2026-04-15T16:14:33Z</time></trkpt><trkpt lat="44.479349086449716" lon="7.873913911345611"><ele>362.6666666666667</ele><time>2026-04-15T16:14:34Z</time></trkpt><trkpt lat="44.47936814098015" lon="7.874031679294166"><ele>362.33333333333337</ele><time>2026-04-15T16:14:35Z</time></trkpt><trkpt lat="44.47938257383266" lon="7.874146744901977"><ele>362.0</ele><time>2026-04-15T16:14:36Z</time></trkpt><trkpt lat="44.47940131645376" lon="7.874275196285166"><ele>361.83333333333337</ele><time>2026-04-15T16:14:37Z</time></trkpt><trkpt lat="44.47942367454954" lon="7.874396340809262"><ele>361.6666666666667</ele><time>2026-04-15T16:14:38Z</time></trkpt><trkpt lat="44.47943223244248" lon="7.874516566237931"><ele>361.5</ele><time>2026-04-15T16:14:39Z</time></trkpt><trkpt lat="44.479432795859005" lon="7.874614330602121"><ele>361.3333333333333</ele><time>2026-04-15T16:14:40Z</time></trkpt><trkpt lat="44.47944230209853" lon="7.874720026017591"><ele>361.16666666666663</ele><time>2026-04-15T16:14:41Z</time></trkpt><trkpt lat="44.47944871279115" lon="7.874822252550234"><ele>361.0</ele><time>2026-04-15T16:14:42Z</time></trkpt><trkpt lat="44.47945564954823" lon="7.874918742515774"><ele>361.0</ele><time>2026-04-15T16:14:42.999Z</time></trkpt><trkpt lat="44.47947816539197" lon="7.875023171856605"><ele>361.0</ele><time>2026-04-15T16:14:44.999Z</time></trkpt><trkpt lat="44.47953978168573" lon="7.875054411315796"><ele>361.0</ele><time>2026-04-15T16:14:48.999Z</time></trkpt><trkpt lat="44.47966712007969" lon="7.874980567830088"><ele>361.0</ele><time>2026-04-15T16:14:50.999Z</time></trkpt><trkpt lat="44.47973980437304" lon="7.874957502686233"><ele>361.0</ele><time>2026-04-15T16:14:51.999Z</time></trkpt><trkpt lat="44.4798172698724" lon="7.874946394348432"><ele>361.0</ele><time>2026-04-15T16:14:52.999Z</time></trkpt><trkpt lat="44.479909557522085" lon="7.874913320279198"><ele>361.20000000000005</ele><time>2026-04-15T16:14:53.999Z</time></trkpt><trkpt lat="44.47999904931432" lon="7.874881331366155"><ele>361.40000000000003</ele><time>2026-04-15T16:14:54.999Z</time></trkpt><trkpt lat="44.48008376198413" lon="7.874830045253771"><ele>361.6</ele><time>2026-04-15T16:14:55.999Z</time></trkpt><trkpt lat="44.48017946912131" lon="7.874799490051343"><ele>361.8</ele><time>2026-04-15T16:14:56.999Z</time></trkpt><trkpt lat="44.480289577273126" lon="7.874791344361226"><ele>362.0</ele><time>2026-04-15T16:14:57.999Z</time></trkpt><trkpt lat="44.48040369263035" lon="7.874761651249045"><ele>362.1666666666667</ele><time>2026-04-15T16:14:58.999Z</time></trkpt><trkpt lat="44.480502649158254" lon="7.87473650160405"><ele>362.33333333333337</ele><time>2026-04-15T16:14:59.999Z</time></trkpt><trkpt lat="44.48060051418696" lon="7.874712160813332"><ele>362.5</ele><time>2026-04-15T16:15:00.999Z</time></trkpt><trkpt lat="44.4806834995159" lon="7.8746862753948585"><ele>362.6666666666667</ele><time>2026-04-15T16:15:01.999Z</time></trkpt><trkpt lat="44.48076407657405" lon="7.874654282812053"><ele>362.8333333333333</ele><time>2026-04-15T16:15:02.999Z</time></trkpt><trkpt lat="44.48082361013112" lon="7.874613569524764"><ele>363.0</ele><time>2026-04-15T16:15:03.999Z</time></trkpt><trkpt lat="44.480933460960955" lon="7.874566715689049"><ele>363.0</ele><time>2026-04-15T16:15:04.999Z</time></trkpt><trkpt lat="44.48101403679131" lon="7.874528759937889"><ele>363.0</ele><time>2026-04-15T16:15:05.999Z</time></trkpt><trkpt lat="44.481099544884444" lon="7.874447117057756"><ele>363.0</ele><time>2026-04-15T16:15:06.999Z</time></trkpt><trkpt lat="44.4811848596433" lon="7.874373365639102"><ele>363.0</ele><time>2026-04-15T16:15:07.999Z</time></trkpt><trkpt lat="44.48126733215075" lon="7.87433413597338"><ele>363.0</ele><time>2026-04-15T16:15:08.999Z</time></trkpt><trkpt lat="44.481352093855364" lon="7.874270076603257"><ele>362.6666666666667</ele><time>2026-04-15T16:15:09.999Z</time></trkpt><trkpt lat="44.48141495338826" lon="7.8742224987963665"><ele>362.3333333333333</ele><time>2026-04-15T16:15:10.999Z</time></trkpt><trkpt lat="44.48150192866308" lon="7.874156109159734"><ele>362.0</ele><time>2026-04-15T16:15:11.999Z</time></trkpt><trkpt lat="44.481560187408824" lon="7.874109158019663"><ele>361.66666666666663</ele><time>2026-04-15T16:15:12.999Z</time></trkpt><trkpt lat="44.48161811757247" lon="7.874062082102408"><ele>361.3333333333333</ele><time>2026-04-15T16:15:13.999Z</time></trkpt><trkpt lat="44.481693788123756" lon="7.87399951518842"><ele>361.0</ele><time>2026-04-15T16:15:14.999Z</time></trkpt><trkpt lat="44.48177692438765" lon="7.87393077537107"><ele>361.0</ele><time>2026-04-15T16:15:15.999Z</time></trkpt><trkpt lat="44.4818529803766" lon="7.873866288522293"><ele>361.0</ele><time>2026-04-15T16:15:16.999Z</time></trkpt><trkpt lat="44.48193321018108" lon="7.873798925369246"><ele>361.0</ele><time>2026-04-15T16:15:17.999Z</time></trkpt><trkpt lat="44.482027892329825" lon="7.873718809277426"><ele>361.0</ele><time>2026-04-15T16:15:18.999Z</time></trkpt><trkpt lat="44.48209778609057" lon="7.873659719475962"><ele>361.0</ele><time>2026-04-15T16:15:19.999Z</time></trkpt><trkpt lat="44.48216555963538" lon="7.873577757793946"><ele>360.8333333333333</ele><time>2026-04-15T16:15:20.999Z</time></trkpt><trkpt lat="44.48224039995666" lon="7.873520479607828"><ele>360.66666666666663</ele><time>2026-04-15T16:15:21.999Z</time></trkpt><trkpt lat="44.48232289746995" lon="7.873459446101417"><ele>360.5</ele><time>2026-04-15T16:15:22.999Z</time></trkpt><trkpt lat="44.48238256926683" lon="7.873410181076306"><ele>360.3333333333333</ele><time>2026-04-15T16:15:23.999Z</time></trkpt><trkpt lat="44.4824367589178" lon="7.873356030753393"><ele>360.1666666666667</ele><time>2026-04-15T16:15:24.999Z</time></trkpt><trkpt lat="44.48251006149174" lon="7.873316839453432"><ele>360.0</ele><time>2026-04-15T16:15:25.999Z</time></trkpt><trkpt lat="44.48259136019134" lon="7.873284748316851"><ele>360.0</ele><time>2026-04-15T16:15:26.999Z</time></trkpt><trkpt lat="44.482677028112676" lon="7.87322079035614"><ele>360.0</ele><time>2026-04-15T16:15:28.999Z</time></trkpt><trkpt lat="44.482747778894" lon="7.87316644855239"><ele>360.0</ele><time>2026-04-15T16:15:32.999Z</time></trkpt><trkpt lat="44.48293098391335" lon="7.873022156080005"><ele>360.0</ele><time>2026-04-15T16:15:50.998Z</time></trkpt><trkpt lat="44.48303826823601" lon="7.872933708592822"><ele>360.0</ele><time>2026-04-15T16:15:52.998Z</time></trkpt><trkpt lat="44.48311564620698" lon="7.872869916581533"><ele>360.0</ele><time>2026-04-15T16:15:53.998Z</time></trkpt><trkpt lat="44.48319263987342" lon="7.872831440032965"><ele>360.0</ele><time>2026-04-15T16:15:54.998Z</time></trkpt><trkpt lat="44.483259679628055" lon="7.872747869539782"><ele>360.0</ele><time>2026-04-15T16:15:55.998Z</time></trkpt><trkpt lat="44.483352352135945" lon="7.8726484018388945"><ele>360.0</ele><time>2026-04-15T16:15:57Z</time></trkpt><trkpt lat="44.48345485728356" lon="7.872578911968265"><ele>360.0</ele><time>2026-04-15T16:15:58Z</time></trkpt><trkpt lat="44.48355848244382" lon="7.872503828411548"><ele>360.0</ele><time>2026-04-15T16:15:59Z</time></trkpt><trkpt lat="44.48365997920711" lon="7.87242492392363"><ele>360.0</ele><time>2026-04-15T16:16:00Z</time></trkpt><trkpt lat="44.483757188266374" lon="7.872371977966884"><ele>360.0</ele><time>2026-04-15T16:16:01Z</time></trkpt><trkpt lat="44.483852987327495" lon="7.872314818723046"><ele>360.0</ele><time>2026-04-15T16:16:02Z</time></trkpt><trkpt lat="44.483959074609594" lon="7.872290277635841"><ele>359.8</ele><time>2026-04-15T16:16:03Z</time></trkpt><trkpt lat="44.48407124136053" lon="7.872248770828073"><ele>359.6</ele><time>2026-04-15T16:16:04Z</time></trkpt><trkpt lat="44.484184925489664" lon="7.872211341918972"><ele>359.4</ele><time>2026-04-15T16:16:05Z</time></trkpt><trkpt lat="44.48428528534908" lon="7.872178989093608"><ele>359.2</ele><time>2026-04-15T16:16:06Z</time></trkpt><trkpt lat="44.484391441283925" lon="7.872144765886516"><ele>359.0</ele><time>2026-04-15T16:16:07Z</time></trkpt><trkpt lat="44.48449643532857" lon="7.872095456574903"><ele>359.0</ele><time>2026-04-15T16:16:08Z</time></trkpt><trkpt lat="44.48459182030171" lon="7.872073645900964"><ele>359.0</ele><time>2026-04-15T16:16:09Z</time></trkpt><trkpt lat="44.48470199474807" lon="7.872048273947409"><ele>359.0</ele><time>2026-04-15T16:16:10Z</time></trkpt><trkpt lat="44.48481246085562" lon="7.872012619605231"><ele>359.0</ele><time>2026-04-15T16:16:11Z</time></trkpt><trkpt lat="44.4849121842053" lon="7.871972273632731"><ele>359.0</ele><time>2026-04-15T16:16:12Z</time></trkpt><trkpt lat="44.485017009790354" lon="7.871936976821635"><ele>359.25</ele><time>2026-04-15T16:16:13Z</time></trkpt><trkpt lat="44.485128005353324" lon="7.871909202365547"><ele>359.5</ele><time>2026-04-15T16:16:14Z</time></trkpt><trkpt lat="44.48523721416563" lon="7.871870596958701"><ele>359.75</ele><time>2026-04-15T16:16:15Z</time></trkpt><trkpt lat="44.48535128754435" lon="7.87183577984938"><ele>360.0</ele><time>2026-04-15T16:16:16Z</time></trkpt><trkpt lat="44.48545615090565" lon="7.8718016932577735"><ele>359.8</ele><time>2026-04-15T16:16:17Z</time></trkpt><trkpt lat="44.48556665670083" lon="7.871771537572316"><ele>359.6</ele><time>2026-04-15T16:16:18Z</time></trkpt><trkpt lat="44.485670820873814" lon="7.871754450178156"><ele>359.4</ele><time>2026-04-15T16:16:19Z</time></trkpt><trkpt lat="44.485775046660926" lon="7.871699199768228"><ele>359.2</ele><time>2026-04-15T16:16:20Z</time></trkpt><trkpt lat="44.48587841398388" lon="7.871670135809973"><ele>359.0</ele><time>2026-04-15T16:16:21Z</time></trkpt><trkpt lat="44.48598748253144" lon="7.871665071127797"><ele>359.0</ele><time>2026-04-15T16:16:22Z</time></trkpt><trkpt lat="44.48609948736657" lon="7.871641082772044"><ele>359.0</ele><time>2026-04-15T16:16:23Z</time></trkpt><trkpt lat="44.48620836873435" lon="7.871617947514571"><ele>359.0</ele><time>2026-04-15T16:16:24Z</time></trkpt><trkpt lat="44.48632940724066" lon="7.871597413933836"><ele>359.0</ele><time>2026-04-15T16:16:25Z</time></trkpt><trkpt lat="44.48645760175805" lon="7.871575163929082"><ele>359.0</ele><time>2026-04-15T16:16:26Z</time></trkpt><trkpt lat="44.48657715880347" lon="7.871554413082807"><ele>359.0</ele><time>2026-04-15T16:16:27Z</time></trkpt><trkpt lat="44.48671531548422" lon="7.871531786481023"><ele>359.0</ele><time>2026-04-15T16:16:28Z</time></trkpt><trkpt lat="44.48684882039299" lon="7.871509974216403"><ele>359.0</ele><time>2026-04-15T16:16:29Z</time></trkpt><trkpt lat="44.48699180795351" lon="7.871486600214528"><ele>358.6666666666667</ele><time>2026-04-15T16:16:30Z</time></trkpt><trkpt lat="44.4871512022204" lon="7.8714604746057715"><ele>358.3333333333333</ele><time>2026-04-15T16:16:31Z</time></trkpt><trkpt lat="44.487295793217584" lon="7.871436775345991"><ele>358.0</ele><time>2026-04-15T16:16:32Z</time></trkpt><trkpt lat="44.487448463711196" lon="7.871411751810162"><ele>358.0</ele><time>2026-04-15T16:16:33Z</time></trkpt><trkpt lat="44.487614358299275" lon="7.8713845607709825"><ele>358.0</ele><time>2026-04-15T16:16:34Z</time></trkpt><trkpt lat="44.4877795199539" lon="7.871357489863369"><ele>358.0</ele><time>2026-04-15T16:16:35Z</time></trkpt><trkpt lat="44.487942996312945" lon="7.871330695183815"><ele>358.0</ele><time>2026-04-15T16:16:36Z</time></trkpt><trkpt lat="44.4881217373707" lon="7.8713013985342855"><ele>358.0</ele><time>2026-04-15T16:16:37Z</time></trkpt><trkpt lat="44.4882874879296" lon="7.871274231097473"><ele>358.0</ele><time>2026-04-15T16:16:38Z</time></trkpt><trkpt lat="44.48844239508665" lon="7.871248840960611"><ele>358.0</ele><time>2026-04-15T16:16:39Z</time></trkpt><trkpt lat="44.48859196534078" lon="7.871224325566558"><ele>358.0</ele><time>2026-04-15T16:16:40Z</time></trkpt><trkpt lat="44.488729905350326" lon="7.87118564981159"><ele>358.0</ele><time>2026-04-15T16:16:41Z</time></trkpt><trkpt lat="44.48888799482916" lon="7.871146549825593"><ele>358.3333333333333</ele><time>2026-04-15T16:16:42Z</time></trkpt><trkpt lat="44.48904193889339" lon="7.871108070896321"><ele>358.6666666666667</ele><time>2026-04-15T16:16:43Z</time></trkpt><trkpt lat="44.48918889772452" lon="7.871064597466403"><ele>359.0</ele><time>2026-04-15T16:16:44Z</time></trkpt><trkpt lat="44.48933626788608" lon="7.871009800701915"><ele>359.0</ele><time>2026-04-15T16:16:44.999Z</time></trkpt><trkpt lat="44.48948143045816" lon="7.870944816353357"><ele>359.0</ele><time>2026-04-15T16:16:45.999Z</time></trkpt><trkpt lat="44.48961873231108" lon="7.870867618287974"><ele>359.0</ele><time>2026-04-15T16:16:46.999Z</time></trkpt><trkpt lat="44.48976107285055" lon="7.870786700051768"><ele>358.0</ele><time>2026-04-15T16:16:47.999Z</time></trkpt><trkpt lat="44.48989278597553" lon="7.870690116119467"><ele>357.0</ele><time>2026-04-15T16:16:48.999Z</time></trkpt><trkpt lat="44.49002250547358" lon="7.870584070651162"><ele>356.0</ele><time>2026-04-15T16:16:49.999Z</time></trkpt><trkpt lat="44.49015578967365" lon="7.870479795218176"><ele>356.0</ele><time>2026-04-15T16:16:50.999Z</time></trkpt><trkpt lat="44.490285998764364" lon="7.870374397661808"><ele>356.0</ele><time>2026-04-15T16:16:51.999Z</time></trkpt><trkpt lat="44.49040355701822" lon="7.8702712802920685"><ele>356.0</ele><time>2026-04-15T16:16:52.999Z</time></trkpt><trkpt lat="44.49050444917386" lon="7.870168245865922"><ele>356.0</ele><time>2026-04-15T16:16:53.999Z</time></trkpt><trkpt lat="44.4906233176634" lon="7.87006527273892"><ele>356.25</ele><time>2026-04-15T16:16:54.999Z</time></trkpt><trkpt lat="44.49074494711735" lon="7.869962645460326"><ele>356.5</ele><time>2026-04-15T16:16:55.999Z</time></trkpt><trkpt lat="44.490858731617365" lon="7.8698650382152175"><ele>356.75</ele><time>2026-04-15T16:16:56.999Z</time></trkpt><trkpt lat="44.49097711096165" lon="7.869763623255608"><ele>357.0</ele><time>2026-04-15T16:16:57.999Z</time></trkpt><trkpt lat="44.49109672766967" lon="7.869664908952518"><ele>357.0</ele><time>2026-04-15T16:16:58.999Z</time></trkpt><trkpt lat="44.49120831323235" lon="7.869569312688419"><ele>357.0</ele><time>2026-04-15T16:16:59.999Z</time></trkpt><trkpt lat="44.491313538718416" lon="7.86948474210133"><ele>357.0</ele><time>2026-04-15T16:17:00.999Z</time></trkpt><trkpt lat="44.491413820957845" lon="7.869393561730232"><ele>357.0</ele><time>2026-04-15T16:17:01.999Z</time></trkpt><trkpt lat="44.491512973218796" lon="7.869301313595957"><ele>357.5</ele><time>2026-04-15T16:17:02.999Z</time></trkpt><trkpt lat="44.49161998137928" lon="7.869206820981625"><ele>358.0</ele><time>2026-04-15T16:17:03.999Z</time></trkpt><trkpt lat="44.4917325922405" lon="7.869115053123174"><ele>358.5</ele><time>2026-04-15T16:17:04.999Z</time></trkpt><trkpt lat="44.49184873566823" lon="7.869011327631881"><ele>359.0</ele><time>2026-04-15T16:17:05.999Z</time></trkpt><trkpt lat="44.49196058049481" lon="7.868894081799034"><ele>359.0</ele><time>2026-04-15T16:17:06.999Z</time></trkpt><trkpt lat="44.49208310340993" lon="7.868790394334241"><ele>359.0</ele><time>2026-04-15T16:17:07.999Z</time></trkpt><trkpt lat="44.492202118580934" lon="7.868679879016589"><ele>359.0</ele><time>2026-04-15T16:17:08.999Z</time></trkpt><trkpt lat="44.4923290729293" lon="7.8685707123847335"><ele>359.0</ele><time>2026-04-15T16:17:09.999Z</time></trkpt><trkpt lat="44.4924541246688" lon="7.8684640666026455"><ele>359.75</ele><time>2026-04-15T16:17:10.999Z</time></trkpt><trkpt lat="44.49257479661459" lon="7.868364402537781"><ele>360.5</ele><time>2026-04-15T16:17:11.999Z</time></trkpt><trkpt lat="44.49267815621448" lon="7.868267426887237"><ele>361.25</ele><time>2026-04-15T16:17:12.999Z</time></trkpt><trkpt lat="44.4927810020448" lon="7.8681765810082736"><ele>362.0</ele><time>2026-04-15T16:17:13.999Z</time></trkpt><trkpt lat="44.492884644556916" lon="7.868085340429753"><ele>362.0</ele><time>2026-04-15T16:17:14.999Z</time></trkpt><trkpt lat="44.49299924931003" lon="7.867984167049016"><ele>362.0</ele><time>2026-04-15T16:17:15.999Z</time></trkpt><trkpt lat="44.49309907964878" lon="7.8678624205251175"><ele>362.0</ele><time>2026-04-15T16:17:16.999Z</time></trkpt><trkpt lat="44.49318961440991" lon="7.867716820214043"><ele>362.0</ele><time>2026-04-15T16:17:17.999Z</time></trkpt><trkpt lat="44.49329018681298" lon="7.867566991626409"><ele>362.0</ele><time>2026-04-15T16:17:18.999Z</time></trkpt><trkpt lat="44.49338485852668" lon="7.867403414318829"><ele>362.0</ele><time>2026-04-15T16:17:19.999Z</time></trkpt><trkpt lat="44.493481835131085" lon="7.867248854501967"><ele>362.0</ele><time>2026-04-15T16:17:20.999Z</time></trkpt><trkpt lat="44.49356178817141" lon="7.867104240079672"><ele>362.0</ele><time>2026-04-15T16:17:21.999Z</time></trkpt><trkpt lat="44.493653399831274" lon="7.866942046922865"><ele>362.0</ele><time>2026-04-15T16:17:22.999Z</time></trkpt><trkpt lat="44.493748863298244" lon="7.866777902565366"><ele>362.0</ele><time>2026-04-15T16:17:23.999Z</time></trkpt><trkpt lat="44.49383296385076" lon="7.866623295521834"><ele>362.0</ele><time>2026-04-15T16:17:24.999Z</time></trkpt><trkpt lat="44.493924787137296" lon="7.86647069798574"><ele>362.0</ele><time>2026-04-15T16:17:25.999Z</time></trkpt><trkpt lat="44.49400422308128" lon="7.866340529223777"><ele>362.0</ele><time>2026-04-15T16:17:26.999Z</time></trkpt><trkpt lat="44.49409234357972" lon="7.866203729416241"><ele>362.0</ele><time>2026-04-15T16:17:27.999Z</time></trkpt><trkpt lat="44.49419439609419" lon="7.8660767795332305"><ele>362.0</ele><time>2026-04-15T16:17:28.999Z</time></trkpt><trkpt lat="44.49428276923526" lon="7.865974149716307"><ele>362.0</ele><time>2026-04-15T16:17:29.999Z</time></trkpt><trkpt lat="44.49438010541024" lon="7.865869376062531"><ele>362.6</ele><time>2026-04-15T16:17:30.999Z</time></trkpt><trkpt lat="44.4944795880078" lon="7.865771752309003"><ele>363.20000000000005</ele><time>2026-04-15T16:17:31.999Z</time></trkpt><trkpt lat="44.49456079297742" lon="7.865683436972202"><ele>363.8</ele><time>2026-04-15T16:17:32.999Z</time></trkpt><trkpt lat="44.494646000257646" lon="7.865596693356661"><ele>364.4</ele><time>2026-04-15T16:17:33.999Z</time></trkpt><trkpt lat="44.49473065269295" lon="7.865515701642255"><ele>365.0</ele><time>2026-04-15T16:17:34.999Z</time></trkpt><trkpt lat="44.49480699528364" lon="7.865435244042973"><ele>365.0</ele><time>2026-04-15T16:17:35.999Z</time></trkpt><trkpt lat="44.49489409505402" lon="7.865353266516973"><ele>365.0</ele><time>2026-04-15T16:17:36.999Z</time></trkpt><trkpt lat="44.49497278678127" lon="7.865247738650691"><ele>365.0</ele><time>2026-04-15T16:17:37.999Z</time></trkpt><trkpt lat="44.49504040232593" lon="7.865154410285673"><ele>365.0</ele><time>2026-04-15T16:17:38.999Z</time></trkpt><trkpt lat="44.49510349369795" lon="7.865082955016594"><ele>365.0</ele><time>2026-04-15T16:17:39.999Z</time></trkpt><trkpt lat="44.49516179923899" lon="7.865001199936009"><ele>365.5</ele><time>2026-04-15T16:17:40.999Z</time></trkpt><trkpt lat="44.49520310311316" lon="7.864919977150517"><ele>366.0</ele><time>2026-04-15T16:17:41.999Z</time></trkpt><trkpt lat="44.49523290437147" lon="7.864808607287507"><ele>366.5</ele><time>2026-04-15T16:17:42.999Z</time></trkpt><trkpt lat="44.49522745896961" lon="7.864682942847242"><ele>367.0</ele><time>2026-04-15T16:17:43.999Z</time></trkpt><trkpt lat="44.49522668498863" lon="7.8645510620495855"><ele>367.5</ele><time>2026-04-15T16:17:44.999Z</time></trkpt><trkpt lat="44.49521505610587" lon="7.864413684657174"><ele>368.0</ele><time>2026-04-15T16:17:45.999Z</time></trkpt><trkpt lat="44.49518805658998" lon="7.8642464238660255"><ele>368.0</ele><time>2026-04-15T16:17:46.999Z</time></trkpt><trkpt lat="44.49514665321825" lon="7.864079632728288"><ele>368.0</ele><time>2026-04-15T16:17:47.999Z</time></trkpt><trkpt lat="44.495105309833924" lon="7.863932738337511"><ele>368.0</ele><time>2026-04-15T16:17:48.999Z</time></trkpt><trkpt lat="44.495066232583056" lon="7.863792822601803"><ele>368.0</ele><time>2026-04-15T16:17:49.999Z</time></trkpt><trkpt lat="44.49502831983604" lon="7.863655849925792"><ele>368.0</ele><time>2026-04-15T16:17:50.999Z</time></trkpt><trkpt lat="44.49498686151362" lon="7.863506392464202"><ele>368.0</ele><time>2026-04-15T16:17:51.999Z</time></trkpt><trkpt lat="44.494961995398114" lon="7.863340873173476"><ele>368.0</ele><time>2026-04-15T16:17:52.999Z</time></trkpt><trkpt lat="44.49492374670786" lon="7.8631977903229515"><ele>368.0</ele><time>2026-04-15T16:17:53.999Z</time></trkpt><trkpt lat="44.494880534813404" lon="7.863054644823264"><ele>367.75</ele><time>2026-04-15T16:17:54.999Z</time></trkpt><trkpt lat="44.4948355436939" lon="7.86292503138362"><ele>367.5</ele><time>2026-04-15T16:17:55.999Z</time></trkpt><trkpt lat="44.49478319255432" lon="7.8627869014756335"><ele>367.25</ele><time>2026-04-15T16:17:56.999Z</time></trkpt><trkpt lat="44.494717754417685" lon="7.862655740117901"><ele>367.0</ele><time>2026-04-15T16:17:57.998Z</time></trkpt><trkpt lat="44.494635890508675" lon="7.8625275678809246"><ele>368.5</ele><time>2026-04-15T16:17:58.998Z</time></trkpt><trkpt lat="44.494535071107144" lon="7.862415700446407"><ele>370.0</ele><time>2026-04-15T16:17:59.998Z</time></trkpt><trkpt lat="44.49445530778884" lon="7.862280865485512"><ele>371.5</ele><time>2026-04-15T16:18:00.998Z</time></trkpt><trkpt lat="44.494356810201154" lon="7.862150429489522"><ele>373.0</ele><time>2026-04-15T16:18:01.998Z</time></trkpt><trkpt lat="44.49426858786938" lon="7.862006706538558"><ele>373.0</ele><time>2026-04-15T16:18:03Z</time></trkpt><trkpt lat="44.49417566189251" lon="7.861862470013609"><ele>373.0</ele><time>2026-04-15T16:18:04Z</time></trkpt><trkpt lat="44.494089947293645" lon="7.861716680173183"><ele>373.0</ele><time>2026-04-15T16:18:05Z</time></trkpt><trkpt lat="44.494022669243655" lon="7.8615673467318095"><ele>373.0</ele><time>2026-04-15T16:18:06Z</time></trkpt><trkpt lat="44.493961322280164" lon="7.861401945568837"><ele>373.25</ele><time>2026-04-15T16:18:07Z</time></trkpt><trkpt lat="44.49389989822879" lon="7.861218069571915"><ele>373.5</ele><time>2026-04-15T16:18:08Z</time></trkpt><trkpt lat="44.49385537610914" lon="7.861023025312424"><ele>373.75</ele><time>2026-04-15T16:18:09Z</time></trkpt><trkpt lat="44.49381439751519" lon="7.860862191581379"><ele>374.0</ele><time>2026-04-15T16:18:10Z</time></trkpt><trkpt lat="44.49378011185374" lon="7.860686528171665"><ele>376.25</ele><time>2026-04-15T16:18:11Z</time></trkpt><trkpt lat="44.493748766882774" lon="7.860506522973415"><ele>378.5</ele><time>2026-04-15T16:18:12Z</time></trkpt><trkpt lat="44.4937221423257" lon="7.86033165517481"><ele>380.75</ele><time>2026-04-15T16:18:13Z</time></trkpt><trkpt lat="44.49369179102577" lon="7.86017099275773"><ele>383.0</ele><time>2026-04-15T16:18:14Z</time></trkpt><trkpt lat="44.4936653223917" lon="7.860035538615955"><ele>383.33333333333337</ele><time>2026-04-15T16:18:15Z</time></trkpt><trkpt lat="44.49364415072693" lon="7.859906551766918"><ele>383.6666666666667</ele><time>2026-04-15T16:18:16Z</time></trkpt><trkpt lat="44.493615008653315" lon="7.859770920182147"><ele>384.0</ele><time>2026-04-15T16:18:17Z</time></trkpt><trkpt lat="44.49360153571857" lon="7.859674601095334"><ele>384.33333333333337</ele><time>2026-04-15T16:18:18Z</time></trkpt><trkpt lat="44.49358758020466" lon="7.859564559279119"><ele>384.6666666666667</ele><time>2026-04-15T16:18:19Z</time></trkpt><trkpt lat="44.49358884485374" lon="7.85945519231303"><ele>385.0</ele><time>2026-04-15T16:18:20Z</time></trkpt><trkpt lat="44.49360514607936" lon="7.859347569783628"><ele>385.2</ele><time>2026-04-15T16:18:21Z</time></trkpt><trkpt lat="44.4936366142348" lon="7.859241375710702"><ele>385.4</ele><time>2026-04-15T16:18:22Z</time></trkpt><trkpt lat="44.49368252199591" lon="7.8591286329040075"><ele>385.6</ele><time>2026-04-15T16:18:23Z</time></trkpt><trkpt lat="44.493745188640986" lon="7.859025009115981"><ele>385.8</ele><time>2026-04-15T16:18:24Z</time></trkpt><trkpt lat="44.49382344136104" lon="7.858943747385295"><ele>386.0</ele><time>2026-04-15T16:18:25Z</time></trkpt><trkpt lat="44.493896163350655" lon="7.858853677897004"><ele>387.75</ele><time>2026-04-15T16:18:26Z</time></trkpt><trkpt lat="44.493989468275146" lon="7.8587476233973215"><ele>389.5</ele><time>2026-04-15T16:18:27Z</time></trkpt><trkpt lat="44.49408380058396" lon="7.8586472320326815"><ele>391.25</ele><time>2026-04-15T16:18:28Z</time></trkpt><trkpt lat="44.49417414600534" lon="7.858556172215122"><ele>393.0</ele><time>2026-04-15T16:18:29Z</time></trkpt><trkpt lat="44.49427748262489" lon="7.858448828965507"><ele>394.0</ele><time>2026-04-15T16:18:30Z</time></trkpt><trkpt lat="44.4943877896607" lon="7.8583481756941"><ele>395.0</ele><time>2026-04-15T16:18:31Z</time></trkpt><trkpt lat="44.494485659339595" lon="7.858254755087579"><ele>396.0</ele><time>2026-04-15T16:18:32Z</time></trkpt><trkpt lat="44.494587197262966" lon="7.8581429849225035"><ele>397.0</ele><time>2026-04-15T16:18:33Z</time></trkpt><trkpt lat="44.494707105145885" lon="7.858038370998832"><ele>398.0</ele><time>2026-04-15T16:18:34Z</time></trkpt><trkpt lat="44.494800528217354" lon="7.857922875909479"><ele>399.0</ele><time>2026-04-15T16:18:35Z</time></trkpt><trkpt lat="44.49492155052112" lon="7.857809122992286"><ele>400.0</ele><time>2026-04-15T16:18:36Z</time></trkpt><trkpt lat="44.4950136289073" lon="7.857712801771553"><ele>401.0</ele><time>2026-04-15T16:18:37Z</time></trkpt><trkpt lat="44.4951075408717" lon="7.857600465012538"><ele>401.0</ele><time>2026-04-15T16:18:38Z</time></trkpt><trkpt lat="44.49520860101546" lon="7.857496845642615"><ele>401.0</ele><time>2026-04-15T16:18:39Z</time></trkpt><trkpt lat="44.49529681934153" lon="7.857397978290399"><ele>401.0</ele><time>2026-04-15T16:18:40Z</time></trkpt><trkpt lat="44.49539293725032" lon="7.8572920832404725"><ele>401.0</ele><time>2026-04-15T16:18:41Z</time></trkpt><trkpt lat="44.495492072124605" lon="7.857175538119488"><ele>401.0</ele><time>2026-04-15T16:18:42Z</time></trkpt><trkpt lat="44.49558624875385" lon="7.857057695293941"><ele>401.0</ele><time>2026-04-15T16:18:43Z</time></trkpt><trkpt lat="44.495682797058414" lon="7.856925761285611"><ele>401.0</ele><time>2026-04-15T16:18:44Z</time></trkpt><trkpt lat="44.4957711149603" lon="7.856803273258978"><ele>401.0</ele><time>2026-04-15T16:18:45Z</time></trkpt><trkpt lat="44.495856644102886" lon="7.85668198746738"><ele>401.0</ele><time>2026-04-15T16:18:46Z</time></trkpt><trkpt lat="44.495939001640906" lon="7.856558391362399"><ele>401.0</ele><time>2026-04-15T16:18:47Z</time></trkpt><trkpt lat="44.49603490212209" lon="7.856437707339792"><ele>401.0</ele><time>2026-04-15T16:18:48Z</time></trkpt><trkpt lat="44.496129801058565" lon="7.856317088026956"><ele>401.0</ele><time>2026-04-15T16:18:49Z</time></trkpt><trkpt lat="44.49621629688953" lon="7.856198803136829"><ele>400.75</ele><time>2026-04-15T16:18:50Z</time></trkpt><trkpt lat="44.49630058757284" lon="7.856093367241271"><ele>400.5</ele><time>2026-04-15T16:18:51Z</time></trkpt><trkpt lat="44.49640203263771" lon="7.855989069290904"><ele>400.25</ele><time>2026-04-15T16:18:52Z</time></trkpt><trkpt lat="44.49650307857914" lon="7.855886399079114"><ele>400.0</ele><time>2026-04-15T16:18:53Z</time></trkpt><trkpt lat="44.496622719461335" lon="7.8557917195329345"><ele>400.0</ele><time>2026-04-15T16:18:53.999Z</time></trkpt><trkpt lat="44.496747919565394" lon="7.85569954895412"><ele>400.0</ele><time>2026-04-15T16:18:54.999Z</time></trkpt><trkpt lat="44.49688283351948" lon="7.855604902908516"><ele>400.0</ele><time>2026-04-15T16:18:55.999Z</time></trkpt><trkpt lat="44.497014003419544" lon="7.855505890268327"><ele>400.0</ele><time>2026-04-15T16:18:56.999Z</time></trkpt><trkpt lat="44.49713271729316" lon="7.8553920721978745"><ele>400.5</ele><time>2026-04-15T16:18:57.999Z</time></trkpt><trkpt lat="44.497245459708864" lon="7.855261402419634"><ele>401.0</ele><time>2026-04-15T16:18:58.999Z</time></trkpt><trkpt lat="44.49735871424555" lon="7.855135091809787"><ele>401.5</ele><time>2026-04-15T16:18:59.999Z</time></trkpt><trkpt lat="44.497478666164625" lon="7.855005867397801"><ele>402.0</ele><time>2026-04-15T16:19:00.999Z</time></trkpt><trkpt lat="44.49759285239173" lon="7.85487541411719"><ele>402.0</ele><time>2026-04-15T16:19:01.999Z</time></trkpt><trkpt lat="44.49770621833777" lon="7.854744492850462"><ele>402.0</ele><time>2026-04-15T16:19:02.999Z</time></trkpt><trkpt lat="44.49781941604775" lon="7.854614362934588"><ele>402.0</ele><time>2026-04-15T16:19:03.999Z</time></trkpt><trkpt lat="44.497910440164105" lon="7.854493661773325"><ele>402.0</ele><time>2026-04-15T16:19:04.999Z</time></trkpt><trkpt lat="44.49801299448118" lon="7.854369670044403"><ele>401.75</ele><time>2026-04-15T16:19:05.999Z</time></trkpt><trkpt lat="44.498116446071684" lon="7.8542266621651535"><ele>401.5</ele><time>2026-04-15T16:19:06.999Z</time></trkpt><trkpt lat="44.498217779672274" lon="7.854082240618035"><ele>401.25</ele><time>2026-04-15T16:19:07.999Z</time></trkpt><trkpt lat="44.4982927050276" lon="7.853905265314529"><ele>401.0</ele><time>2026-04-15T16:19:08.999Z</time></trkpt><trkpt lat="44.49837134851274" lon="7.853738198201349"><ele>401.0</ele><time>2026-04-15T16:19:09.999Z</time></trkpt><trkpt lat="44.49846696765042" lon="7.853550585536342"><ele>401.0</ele><time>2026-04-15T16:19:10.999Z</time></trkpt><trkpt lat="44.4985553325154" lon="7.8533434999968215"><ele>401.0</ele><time>2026-04-15T16:19:11.999Z</time></trkpt><trkpt lat="44.498645871720115" lon="7.853139537994391"><ele>401.3333333333333</ele><time>2026-04-15T16:19:12.999Z</time></trkpt><trkpt lat="44.49873424269122" lon="7.852941051933817"><ele>401.66666666666663</ele><time>2026-04-15T16:19:13.999Z</time></trkpt><trkpt lat="44.49881916922409" lon="7.8527232533516"><ele>402.0</ele><time>2026-04-15T16:19:14.999Z</time></trkpt><trkpt lat="44.49891184305896" lon="7.852523624943686"><ele>402.33333333333337</ele><time>2026-04-15T16:19:15.999Z</time></trkpt><trkpt lat="44.498999553756306" lon="7.852311640715223"><ele>402.6666666666667</ele><time>2026-04-15T16:19:16.999Z</time></trkpt><trkpt lat="44.4991112303634" lon="7.852099998727559"><ele>403.0</ele><time>2026-04-15T16:19:17.999Z</time></trkpt><trkpt lat="44.499227244469935" lon="7.8518934179304605"><ele>403.6666666666667</ele><time>2026-04-15T16:19:18.999Z</time></trkpt><trkpt lat="44.499324758674156" lon="7.851682446102348"><ele>404.33333333333337</ele><time>2026-04-15T16:19:19.999Z</time></trkpt><trkpt lat="44.499418266937" lon="7.851502854464621"><ele>405.0</ele><time>2026-04-15T16:19:20.999Z</time></trkpt><trkpt lat="44.4995332314288" lon="7.8513136955155085"><ele>405.33333333333337</ele><time>2026-04-15T16:19:21.999Z</time></trkpt><trkpt lat="44.49963532154984" lon="7.851117259722316"><ele>405.6666666666667</ele><time>2026-04-15T16:19:22.999Z</time></trkpt><trkpt lat="44.49973451212593" lon="7.850928134159423"><ele>406.0</ele><time>2026-04-15T16:19:23.999Z</time></trkpt><trkpt lat="44.49983699629794" lon="7.850734206578329"><ele>406.0</ele><time>2026-04-15T16:19:24.999Z</time></trkpt><trkpt lat="44.49993812494602" lon="7.850544369456482"><ele>406.0</ele><time>2026-04-15T16:19:25.999Z</time></trkpt><trkpt lat="44.50002844666276" lon="7.850360952649466"><ele>406.0</ele><time>2026-04-15T16:19:26.999Z</time></trkpt><trkpt lat="44.50011650312119" lon="7.850185644755803"><ele>406.0</ele><time>2026-04-15T16:19:27.999Z</time></trkpt><trkpt lat="44.500211783754445" lon="7.850000627406078"><ele>406.0</ele><time>2026-04-15T16:19:28.999Z</time></trkpt><trkpt lat="44.50032086505852" lon="7.849812955976891"><ele>406.0</ele><time>2026-04-15T16:19:29.999Z</time></trkpt><trkpt lat="44.500420867860974" lon="7.849613568205884"><ele>405.6666666666667</ele><time>2026-04-15T16:19:30.999Z</time></trkpt><trkpt lat="44.50052284555155" lon="7.849425401687651"><ele>405.33333333333337</ele><time>2026-04-15T16:19:31.999Z</time></trkpt><trkpt lat="44.50061970924305" lon="7.84921213625302"><ele>405.0</ele><time>2026-04-15T16:19:32.999Z</time></trkpt><trkpt lat="44.50071599556519" lon="7.849026903386598"><ele>404.5</ele><time>2026-04-15T16:19:33.999Z</time></trkpt><trkpt lat="44.50080560140339" lon="7.848843060878828"><ele>404.0</ele><time>2026-04-15T16:19:34.999Z</time></trkpt><trkpt lat="44.50087785075389" lon="7.848704955239385"><ele>403.5</ele><time>2026-04-15T16:19:35.999Z</time></trkpt><trkpt lat="44.50095332384768" lon="7.848586372890151"><ele>403.0</ele><time>2026-04-15T16:19:36.999Z</time></trkpt><trkpt lat="44.50102762247894" lon="7.848480068146688"><ele>402.75</ele><time>2026-04-15T16:19:37.999Z</time></trkpt><trkpt lat="44.50111397544605" lon="7.848389352828443"><ele>402.5</ele><time>2026-04-15T16:19:38.999Z</time></trkpt><trkpt lat="44.50122376162707" lon="7.848297483418124"><ele>402.25</ele><time>2026-04-15T16:19:39.999Z</time></trkpt><trkpt lat="44.50134004927725" lon="7.848227366098174"><ele>402.0</ele><time>2026-04-15T16:19:40.999Z</time></trkpt><trkpt lat="44.50147342922855" lon="7.848161247602306"><ele>402.5</ele><time>2026-04-15T16:19:41.999Z</time></trkpt><trkpt lat="44.501603292288266" lon="7.848100215556309"><ele>403.0</ele><time>2026-04-15T16:19:42.999Z</time></trkpt><trkpt lat="44.50174920007984" lon="7.848059960644716"><ele>403.5</ele><time>2026-04-15T16:19:43.999Z</time></trkpt><trkpt lat="44.501891971615336" lon="7.847998142729311"><ele>404.0</ele><time>2026-04-15T16:19:44.999Z</time></trkpt><trkpt lat="44.50204652653211" lon="7.8479312228586515"><ele>404.0</ele><time>2026-04-15T16:19:45.999Z</time></trkpt><trkpt lat="44.5021976035758" lon="7.847842775419695"><ele>404.0</ele><time>2026-04-15T16:19:46.999Z</time></trkpt><trkpt lat="44.50235307034045" lon="7.84779862833409"><ele>404.0</ele><time>2026-04-15T16:19:47.999Z</time></trkpt><trkpt lat="44.50249307970622" lon="7.847738098133738"><ele>404.0</ele><time>2026-04-15T16:19:48.999Z</time></trkpt><trkpt lat="44.5026385898867" lon="7.847675418684586"><ele>404.0</ele><time>2026-04-15T16:19:49.999Z</time></trkpt><trkpt lat="44.50278951639794" lon="7.8476106711097415"><ele>404.0</ele><time>2026-04-15T16:19:50.999Z</time></trkpt><trkpt lat="44.50294590140265" lon="7.847543581808593"><ele>404.0</ele><time>2026-04-15T16:19:51.999Z</time></trkpt><trkpt lat="44.503092968826294" lon="7.847480489761678"><ele>404.0</ele><time>2026-04-15T16:19:52.999Z</time></trkpt><trkpt lat="44.50323955265958" lon="7.847417605189225"><ele>404.0</ele><time>2026-04-15T16:19:53.999Z</time></trkpt><trkpt lat="44.50338461560564" lon="7.847355373086016"><ele>404.0</ele><time>2026-04-15T16:19:54.999Z</time></trkpt><trkpt lat="44.50352405183878" lon="7.847296355627652"><ele>404.0</ele><time>2026-04-15T16:19:55.999Z</time></trkpt><trkpt lat="44.50365597850921" lon="7.847244402620466"><ele>404.0</ele><time>2026-04-15T16:19:56.999Z</time></trkpt><trkpt lat="44.50379611278126" lon="7.847187041656344"><ele>404.0</ele><time>2026-04-15T16:19:57.999Z</time></trkpt><trkpt lat="44.503915629479074" lon="7.847128468980811"><ele>404.0</ele><time>2026-04-15T16:19:58.999Z</time></trkpt><trkpt lat="44.50403591233668" lon="7.847061005098739"><ele>404.0</ele><time>2026-04-15T16:19:59.999Z</time></trkpt><trkpt lat="44.5041467220647" lon="7.846965084626752"><ele>404.0</ele><time>2026-04-15T16:20:00.999Z</time></trkpt><trkpt lat="44.50426029277131" lon="7.846864971237883"><ele>404.0</ele><time>2026-04-15T16:20:01.999Z</time></trkpt><trkpt lat="44.50438021352643" lon="7.846751627498945"><ele>404.0</ele><time>2026-04-15T16:20:02.999Z</time></trkpt><trkpt lat="44.50449893146438" lon="7.8466199838072175"><ele>404.0</ele><time>2026-04-15T16:20:03.999Z</time></trkpt><trkpt lat="44.50462033923071" lon="7.846478179478658"><ele>404.0</ele><time>2026-04-15T16:20:04.999Z</time></trkpt><trkpt lat="44.50474403946737" lon="7.846334558113682"><ele>403.66666666666663</ele><time>2026-04-15T16:20:05.998Z</time></trkpt><trkpt lat="44.50486793138242" lon="7.846191011054877"><ele>403.33333333333337</ele><time>2026-04-15T16:20:06.999Z</time></trkpt><trkpt lat="44.50499603922985" lon="7.846046018958453"><ele>403.0</ele><time>2026-04-15T16:20:07.998Z</time></trkpt><trkpt lat="44.505129833060444" lon="7.845906276829132"><ele>403.0</ele><time>2026-04-15T16:20:09Z</time></trkpt><trkpt lat="44.50525127211137" lon="7.8457709649426555"><ele>403.0</ele><time>2026-04-15T16:20:10Z</time></trkpt><trkpt lat="44.505362627529536" lon="7.8456444382382715"><ele>403.0</ele><time>2026-04-15T16:20:11Z</time></trkpt><trkpt lat="44.50547250241004" lon="7.845513372079905"><ele>403.0</ele><time>2026-04-15T16:20:12Z</time></trkpt><trkpt lat="44.505588300812974" lon="7.845385586593332"><ele>403.0</ele><time>2026-04-15T16:20:13Z</time></trkpt><trkpt lat="44.5056936268272" lon="7.845258445489006"><ele>403.0</ele><time>2026-04-15T16:20:14Z</time></trkpt><trkpt lat="44.505802203568386" lon="7.845116083298877"><ele>403.0</ele><time>2026-04-15T16:20:15Z</time></trkpt><trkpt lat="44.50590563171556" lon="7.844964535513805"><ele>403.0</ele><time>2026-04-15T16:20:16Z</time></trkpt><trkpt lat="44.50598021668227" lon="7.84477723272241"><ele>403.33333333333337</ele><time>2026-04-15T16:20:17Z</time></trkpt><trkpt lat="44.50605657524092" lon="7.844578706941663"><ele>403.66666666666663</ele><time>2026-04-15T16:20:18Z</time></trkpt><trkpt lat="44.506141398809525" lon="7.844388909318593"><ele>404.0</ele><time>2026-04-15T16:20:19Z</time></trkpt><trkpt lat="44.50621701626382" lon="7.844172655592855"><ele>404.3333333333333</ele><time>2026-04-15T16:20:20Z</time></trkpt><trkpt lat="44.506299018573266" lon="7.843958477815694"><ele>404.66666666666663</ele><time>2026-04-15T16:20:21Z</time></trkpt><trkpt lat="44.50637568502222" lon="7.843727368485442"><ele>405.0</ele><time>2026-04-15T16:20:22Z</time></trkpt><trkpt lat="44.50645459058083" lon="7.84350222922169"><ele>405.33333333333337</ele><time>2026-04-15T16:20:23Z</time></trkpt><trkpt lat="44.50653153671783" lon="7.843276005502001"><ele>405.6666666666667</ele><time>2026-04-15T16:20:24Z</time></trkpt><trkpt lat="44.50661098386022" lon="7.843059444944284"><ele>406.0</ele><time>2026-04-15T16:20:25Z</time></trkpt><trkpt lat="44.506684450314516" lon="7.842863449757758"><ele>406.0</ele><time>2026-04-15T16:20:26Z</time></trkpt><trkpt lat="44.50675286514818" lon="7.842671881493603"><ele>406.0</ele><time>2026-04-15T16:20:27Z</time></trkpt><trkpt lat="44.50682614195895" lon="7.8424739662919976"><ele>406.0</ele><time>2026-04-15T16:20:28Z</time></trkpt><trkpt lat="44.506895239351216" lon="7.842290250175954"><ele>405.75</ele><time>2026-04-15T16:20:29Z</time></trkpt><trkpt lat="44.50696018499435" lon="7.842099093492827"><ele>405.5</ele><time>2026-04-15T16:20:30Z</time></trkpt><trkpt lat="44.5070150769895" lon="7.841915310322357"><ele>405.25</ele><time>2026-04-15T16:20:31Z</time></trkpt><trkpt lat="44.50707649384789" lon="7.841732002748308"><ele>405.0</ele><time>2026-04-15T16:20:32Z</time></trkpt><trkpt lat="44.50713499697835" lon="7.84156779683831"><ele>404.75</ele><time>2026-04-15T16:20:33Z</time></trkpt><trkpt lat="44.50718741693775" lon="7.841404180252442"><ele>404.5</ele><time>2026-04-15T16:20:34Z</time></trkpt><trkpt lat="44.507245534164156" lon="7.841230029113584"><ele>404.25</ele><time>2026-04-15T16:20:35Z</time></trkpt><trkpt lat="44.507304426984746" lon="7.841048260021394"><ele>404.0</ele><time>2026-04-15T16:20:36Z</time></trkpt><trkpt lat="44.507372600243" lon="7.840866740419037"><ele>403.3333333333333</ele><time>2026-04-15T16:20:37Z</time></trkpt><trkpt lat="44.507455807539344" lon="7.840684477635522"><ele>402.66666666666663</ele><time>2026-04-15T16:20:38Z</time></trkpt><trkpt lat="44.507546209039056" lon="7.840504553518201"><ele>402.0</ele><time>2026-04-15T16:20:39Z</time></trkpt><trkpt lat="44.507646220879764" lon="7.840335653525504"><ele>402.0</ele><time>2026-04-15T16:20:40Z</time></trkpt><trkpt lat="44.50774345338025" lon="7.840162271023792"><ele>402.0</ele><time>2026-04-15T16:20:41Z</time></trkpt><trkpt lat="44.50784476202001" lon="7.839980887378156"><ele>402.0</ele><time>2026-04-15T16:20:42Z</time></trkpt><trkpt lat="44.50794296726139" lon="7.839793736438098"><ele>402.0</ele><time>2026-04-15T16:20:43Z</time></trkpt><trkpt lat="44.50804769620972" lon="7.839605449691545"><ele>402.0</ele><time>2026-04-15T16:20:44Z</time></trkpt><trkpt lat="44.508144264632584" lon="7.839423080416366"><ele>402.0</ele><time>2026-04-15T16:20:45Z</time></trkpt><trkpt lat="44.50824144580905" lon="7.839244912710725"><ele>402.66666666666663</ele><time>2026-04-15T16:20:46Z</time></trkpt><trkpt lat="44.50834100713574" lon="7.839068542907687"><ele>403.3333333333333</ele><time>2026-04-15T16:20:47Z</time></trkpt><trkpt lat="44.50844026031794" lon="7.838905459017742"><ele>404.0</ele><time>2026-04-15T16:20:48Z</time></trkpt><trkpt lat="44.508550050863704" lon="7.838749010679867"><ele>404.0</ele><time>2026-04-15T16:20:49Z</time></trkpt><trkpt lat="44.50866445268484" lon="7.838583491386494"><ele>404.0</ele><time>2026-04-15T16:20:50Z</time></trkpt><trkpt lat="44.508779959599245" lon="7.838427425135983"><ele>404.0</ele><time>2026-04-15T16:20:51Z</time></trkpt><trkpt lat="44.508898751277364" lon="7.8382670739863896"><ele>404.0</ele><time>2026-04-15T16:20:52Z</time></trkpt><trkpt lat="44.5090216207292" lon="7.838107627446067"><ele>404.0</ele><time>2026-04-15T16:20:53Z</time></trkpt><trkpt lat="44.509146267573044" lon="7.837947317428972"><ele>404.0</ele><time>2026-04-15T16:20:54Z</time></trkpt><trkpt lat="44.50927576833451" lon="7.837784833965747"><ele>404.0</ele><time>2026-04-15T16:20:55Z</time></trkpt><trkpt lat="44.50939925168812" lon="7.837634379598081"><ele>404.0</ele><time>2026-04-15T16:20:56Z</time></trkpt><trkpt lat="44.509513979995155" lon="7.837483925368069"><ele>404.0</ele><time>2026-04-15T16:20:57Z</time></trkpt><trkpt lat="44.509631424195085" lon="7.8373324761059635"><ele>403.66666666666663</ele><time>2026-04-15T16:20:58Z</time></trkpt><trkpt lat="44.50975920904263" lon="7.837180851362922"><ele>403.33333333333337</ele><time>2026-04-15T16:20:59Z</time></trkpt><trkpt lat="44.50989963811893" lon="7.837031523957536"><ele>403.0</ele><time>2026-04-15T16:21:00Z</time></trkpt><trkpt lat="44.51003935309757" lon="7.836885470314852"><ele>403.33333333333337</ele><time>2026-04-15T16:21:00.999Z</time></trkpt><trkpt lat="44.51018745139681" lon="7.83673042594591"><ele>403.66666666666663</ele><time>2026-04-15T16:21:01.999Z</time></trkpt><trkpt lat="44.510342257496085" lon="7.836579305087888"><ele>404.0</ele><time>2026-04-15T16:21:02.999Z</time></trkpt><trkpt lat="44.510496057027254" lon="7.836435040817697"><ele>404.0</ele><time>2026-04-15T16:21:03.999Z</time></trkpt><trkpt lat="44.510651884082854" lon="7.836287110085984"><ele>404.0</ele><time>2026-04-15T16:21:04.999Z</time></trkpt><trkpt lat="44.510794571571495" lon="7.836149227965422"><ele>404.0</ele><time>2026-04-15T16:21:05.999Z</time></trkpt><trkpt lat="44.51093394158458" lon="7.836001037338281"><ele>404.0</ele><time>2026-04-15T16:21:06.999Z</time></trkpt><trkpt lat="44.51108055375001" lon="7.83586103766461"><ele>404.0</ele><time>2026-04-15T16:21:07.999Z</time></trkpt><trkpt lat="44.511225545116844" lon="7.835718374087831"><ele>404.0</ele><time>2026-04-15T16:21:08.999Z</time></trkpt><trkpt lat="44.51135866043946" lon="7.835582216985447"><ele>404.0</ele><time>2026-04-15T16:21:09.999Z</time></trkpt><trkpt lat="44.5114822069341" lon="7.8354578770557195"><ele>404.0</ele><time>2026-04-15T16:21:10.999Z</time></trkpt><trkpt lat="44.511599779356715" lon="7.83534336406033"><ele>404.0</ele><time>2026-04-15T16:21:11.999Z</time></trkpt><trkpt lat="44.51171518539981" lon="7.83524335929477"><ele>404.0</ele><time>2026-04-15T16:21:12.999Z</time></trkpt><trkpt lat="44.51182762155973" lon="7.835149769218697"><ele>403.75</ele><time>2026-04-15T16:21:13.999Z</time></trkpt><trkpt lat="44.51195347274552" lon="7.835055812731931"><ele>403.5</ele><time>2026-04-15T16:21:14.999Z</time></trkpt><trkpt lat="44.51208660332509" lon="7.834969238709581"><ele>403.25</ele><time>2026-04-15T16:21:15.999Z</time></trkpt><trkpt lat="44.512222152989864" lon="7.834888798302546"><ele>403.0</ele><time>2026-04-15T16:21:16.999Z</time></trkpt><trkpt lat="44.51235860404877" lon="7.8348161989966325"><ele>403.5</ele><time>2026-04-15T16:21:17.999Z</time></trkpt><trkpt lat="44.51249036171075" lon="7.8347447115232525"><ele>404.0</ele><time>2026-04-15T16:21:18.999Z</time></trkpt><trkpt lat="44.512621168978136" lon="7.834672263937451"><ele>404.5</ele><time>2026-04-15T16:21:19.999Z</time></trkpt><trkpt lat="44.51274573332627" lon="7.834586777077814"><ele>405.0</ele><time>2026-04-15T16:21:20.999Z</time></trkpt><trkpt lat="44.5128746839162" lon="7.834483231059553"><ele>404.75</ele><time>2026-04-15T16:21:21.999Z</time></trkpt><trkpt lat="44.51299722796803" lon="7.8343641016885455"><ele>404.5</ele><time>2026-04-15T16:21:22.999Z</time></trkpt><trkpt lat="44.513111770444496" lon="7.8342427491027555"><ele>404.25</ele><time>2026-04-15T16:21:23.999Z</time></trkpt><trkpt lat="44.51322349850257" lon="7.834134599434338"><ele>404.0</ele><time>2026-04-15T16:21:24.999Z</time></trkpt><trkpt lat="44.51333979743891" lon="7.834025263285342"><ele>404.0</ele><time>2026-04-15T16:21:25.999Z</time></trkpt><trkpt lat="44.51344795936093" lon="7.833911499552175"><ele>404.0</ele><time>2026-04-15T16:21:26.999Z</time></trkpt><trkpt lat="44.513557225761886" lon="7.833789616095762"><ele>404.0</ele><time>2026-04-15T16:21:27.999Z</time></trkpt><trkpt lat="44.51366286824251" lon="7.833668006811948"><ele>404.0</ele><time>2026-04-15T16:21:28.999Z</time></trkpt><trkpt lat="44.513764023318565" lon="7.8335494563449215"><ele>403.75</ele><time>2026-04-15T16:21:29.999Z</time></trkpt><trkpt lat="44.5138578076512" lon="7.833434708744379"><ele>403.5</ele><time>2026-04-15T16:21:30.999Z</time></trkpt><trkpt lat="44.51395000475921" lon="7.833318520585526"><ele>403.25</ele><time>2026-04-15T16:21:31.999Z</time></trkpt><trkpt lat="44.51403937586327" lon="7.8332043610015125"><ele>403.0</ele><time>2026-04-15T16:21:32.999Z</time></trkpt><trkpt lat="44.51413341153587" lon="7.833093623493797"><ele>403.0</ele><time>2026-04-15T16:21:33.999Z</time></trkpt><trkpt lat="44.514215794876826" lon="7.8329864032902625"><ele>403.0</ele><time>2026-04-15T16:21:34.999Z</time></trkpt><trkpt lat="44.514298771206285" lon="7.8328811962347835"><ele>403.0</ele><time>2026-04-15T16:21:35.999Z</time></trkpt><trkpt lat="44.51437578016096" lon="7.832775797558566"><ele>403.0</ele><time>2026-04-15T16:21:36.999Z</time></trkpt><trkpt lat="44.51444740145802" lon="7.83267748549346"><ele>403.0</ele><time>2026-04-15T16:21:37.999Z</time></trkpt><trkpt lat="44.51452244997919" lon="7.832572263142946"><ele>402.25</ele><time>2026-04-15T16:21:38.999Z</time></trkpt><trkpt lat="44.514601501468725" lon="7.832460036353632"><ele>401.5</ele><time>2026-04-15T16:21:39.999Z</time></trkpt><trkpt lat="44.51467493008604" lon="7.832344438501428"><ele>400.75</ele><time>2026-04-15T16:21:40.999Z</time></trkpt><trkpt lat="44.51474049535269" lon="7.832206653160225"><ele>400.0</ele><time>2026-04-15T16:21:41.999Z</time></trkpt><trkpt lat="44.514807549842935" lon="7.832066822387466"><ele>400.0</ele><time>2026-04-15T16:21:42.999Z</time></trkpt><trkpt lat="44.514867339146164" lon="7.831928884686146"><ele>400.0</ele><time>2026-04-15T16:21:43.999Z</time></trkpt><trkpt lat="44.51492873087525" lon="7.831776413482063"><ele>400.0</ele><time>2026-04-15T16:21:44.999Z</time></trkpt><trkpt lat="44.514990859744984" lon="7.831627087303095"><ele>400.0</ele><time>2026-04-15T16:21:45.999Z</time></trkpt><trkpt lat="44.515060647187056" lon="7.831469202638898"><ele>399.75</ele><time>2026-04-15T16:21:46.999Z</time></trkpt><trkpt lat="44.51512407581975" lon="7.831312839950211"><ele>399.5</ele><time>2026-04-15T16:21:47.999Z</time></trkpt><trkpt lat="44.51518848380839" lon="7.831154698948733"><ele>399.25</ele><time>2026-04-15T16:21:48.999Z</time></trkpt><trkpt lat="44.51525583653872" lon="7.830990918865086"><ele>399.0</ele><time>2026-04-15T16:21:49.999Z</time></trkpt><trkpt lat="44.51532113827384" lon="7.830832394087403"><ele>399.5</ele><time>2026-04-15T16:21:50.999Z</time></trkpt><trkpt lat="44.51539888951695" lon="7.830665723043475"><ele>400.0</ele><time>2026-04-15T16:21:51.999Z</time></trkpt><trkpt lat="44.51546592443975" lon="7.830494126823048"><ele>400.5</ele><time>2026-04-15T16:21:52.999Z</time></trkpt><trkpt lat="44.515529453726835" lon="7.830329425597275"><ele>401.0</ele><time>2026-04-15T16:21:53.999Z</time></trkpt><trkpt lat="44.51558900240338" lon="7.830168858778291"><ele>400.75</ele><time>2026-04-15T16:21:54.999Z</time></trkpt><trkpt lat="44.51566094592287" lon="7.830000390960405"><ele>400.5</ele><time>2026-04-15T16:21:55.999Z</time></trkpt><trkpt lat="44.51573590099904" lon="7.8298231396934055"><ele>400.25</ele><time>2026-04-15T16:21:56.999Z</time></trkpt><trkpt lat="44.51581407771073" lon="7.829637240708186"><ele>400.0</ele><time>2026-04-15T16:21:57.999Z</time></trkpt><trkpt lat="44.515883049003875" lon="7.8294592929651925"><ele>400.25</ele><time>2026-04-15T16:21:58.999Z</time></trkpt><trkpt lat="44.515952397831846" lon="7.829283127231961"><ele>400.5</ele><time>2026-04-15T16:21:59.999Z</time></trkpt><trkpt lat="44.51602500135209" lon="7.829108712289456"><ele>400.75</ele><time>2026-04-15T16:22:00.999Z</time></trkpt><trkpt lat="44.516101256657606" lon="7.828932919005868"><ele>401.0</ele><time>2026-04-15T16:22:01.999Z</time></trkpt><trkpt lat="44.51618129823671" lon="7.8287457571356285"><ele>400.75</ele><time>2026-04-15T16:22:02.999Z</time></trkpt><trkpt lat="44.5162650689809" lon="7.828558137876227"><ele>400.5</ele><time>2026-04-15T16:22:03.999Z</time></trkpt><trkpt lat="44.51632931341998" lon="7.828393616408466"><ele>400.25</ele><time>2026-04-15T16:22:04.999Z</time></trkpt><trkpt lat="44.51640636684205" lon="7.828212522906794"><ele>400.0</ele><time>2026-04-15T16:22:05.999Z</time></trkpt><trkpt lat="44.51648797576945" lon="7.828027349278945"><ele>399.6666666666667</ele><time>2026-04-15T16:22:06.999Z</time></trkpt><trkpt lat="44.516569432658294" lon="7.827839552746368"><ele>399.33333333333337</ele><time>2026-04-15T16:22:07.999Z</time></trkpt><trkpt lat="44.51665104927934" lon="7.827648647061334"><ele>399.0</ele><time>2026-04-15T16:22:08.999Z</time></trkpt><trkpt lat="44.51673163513677" lon="7.827456560196512"><ele>399.0</ele><time>2026-04-15T16:22:09.999Z</time></trkpt><trkpt lat="44.51680935647603" lon="7.8272655072754995"><ele>399.0</ele><time>2026-04-15T16:22:10.999Z</time></trkpt><trkpt lat="44.51689420301519" lon="7.827071566209698"><ele>399.0</ele><time>2026-04-15T16:22:11.998Z</time></trkpt><trkpt lat="44.516976232071904" lon="7.826874705458449"><ele>398.0</ele><time>2026-04-15T16:22:12.998Z</time></trkpt><trkpt lat="44.51705219852323" lon="7.826673420049174"><ele>397.0</ele><time>2026-04-15T16:22:13.998Z</time></trkpt><trkpt lat="44.517133899261275" lon="7.826474664587509"><ele>396.0</ele><time>2026-04-15T16:22:15Z</time></trkpt><trkpt lat="44.51722393781217" lon="7.826269871421344"><ele>396.0</ele><time>2026-04-15T16:22:16Z</time></trkpt><trkpt lat="44.51731003657622" lon="7.826073043102366"><ele>396.0</ele><time>2026-04-15T16:22:17Z</time></trkpt><trkpt lat="44.517398081910216" lon="7.825875742553285"><ele>396.0</ele><time>2026-04-15T16:22:18Z</time></trkpt><trkpt lat="44.51748505958377" lon="7.825677782505362"><ele>396.0</ele><time>2026-04-15T16:22:19Z</time></trkpt><trkpt lat="44.51757083481218" lon="7.825473911901578"><ele>396.0</ele><time>2026-04-15T16:22:20Z</time></trkpt><trkpt lat="44.51765522866707" lon="7.825283202571567"><ele>396.0</ele><time>2026-04-15T16:22:21Z</time></trkpt><trkpt lat="44.51773485202204" lon="7.825052681401272"><ele>396.0</ele><time>2026-04-15T16:22:22Z</time></trkpt><trkpt lat="44.51783315026776" lon="7.824851046058232"><ele>396.0</ele><time>2026-04-15T16:22:23Z</time></trkpt><trkpt lat="44.51791196755448" lon="7.82465432617868"><ele>396.0</ele><time>2026-04-15T16:22:24Z</time></trkpt><trkpt lat="44.517991575604576" lon="7.824453332615101"><ele>395.66666666666663</ele><time>2026-04-15T16:22:25Z</time></trkpt><trkpt lat="44.51808587072507" lon="7.824238648624625"><ele>395.3333333333333</ele><time>2026-04-15T16:22:26Z</time></trkpt><trkpt lat="44.51818047034358" lon="7.8240433024486755"><ele>395.0</ele><time>2026-04-15T16:22:27Z</time></trkpt><trkpt lat="44.518252993388735" lon="7.82382894144145"><ele>395.0</ele><time>2026-04-15T16:22:28Z</time></trkpt><trkpt lat="44.518350074100724" lon="7.823641810578988"><ele>395.0</ele><time>2026-04-15T16:22:29Z</time></trkpt><trkpt lat="44.518425647591805" lon="7.823421949436096"><ele>395.0</ele><time>2026-04-15T16:22:30Z</time></trkpt><trkpt lat="44.51851097990518" lon="7.8232164349987805"><ele>394.66666666666663</ele><time>2026-04-15T16:22:31Z</time></trkpt><trkpt lat="44.51860027822029" lon="7.823011450985952"><ele>394.33333333333337</ele><time>2026-04-15T16:22:32Z</time></trkpt><trkpt lat="44.51868684337743" lon="7.822808691417228"><ele>394.0</ele><time>2026-04-15T16:22:33Z</time></trkpt><trkpt lat="44.51877045402673" lon="7.822611169903091"><ele>394.5</ele><time>2026-04-15T16:22:34Z</time></trkpt><trkpt lat="44.51884672225742" lon="7.8224382146241815"><ele>395.0</ele><time>2026-04-15T16:22:35Z</time></trkpt><trkpt lat="44.51891818446944" lon="7.8222672120878824"><ele>395.5</ele><time>2026-04-15T16:22:36Z</time></trkpt><trkpt lat="44.51898443333372" lon="7.822105251180363"><ele>396.0</ele><time>2026-04-15T16:22:37Z</time></trkpt><trkpt lat="44.519058839040504" lon="7.821951740824686"><ele>396.75</ele><time>2026-04-15T16:22:38Z</time></trkpt><trkpt lat="44.519133227002605" lon="7.821793859332086"><ele>397.5</ele><time>2026-04-15T16:22:39Z</time></trkpt><trkpt lat="44.51919953651464" lon="7.821644736595246"><ele>398.25</ele><time>2026-04-15T16:22:40Z</time></trkpt><trkpt lat="44.51926007793825" lon="7.821499389515201"><ele>399.0</ele><time>2026-04-15T16:22:41Z</time></trkpt><trkpt lat="44.519334248237435" lon="7.82134760069408"><ele>399.0</ele><time>2026-04-15T16:22:42Z</time></trkpt><trkpt lat="44.51940690141772" lon="7.821187685822148"><ele>399.0</ele><time>2026-04-15T16:22:43Z</time></trkpt><trkpt lat="44.519473021931894" lon="7.821021829622924"><ele>399.0</ele><time>2026-04-15T16:22:44Z</time></trkpt><trkpt lat="44.51954338116615" lon="7.820852690149434"><ele>399.0</ele><time>2026-04-15T16:22:45Z</time></trkpt><trkpt lat="44.51960715852063" lon="7.820692664537312"><ele>398.75</ele><time>2026-04-15T16:22:46Z</time></trkpt><trkpt lat="44.519672486958655" lon="7.820540852398123"><ele>398.5</ele><time>2026-04-15T16:22:47Z</time></trkpt><trkpt lat="44.519730469040645" lon="7.820391210537603"><ele>398.25</ele><time>2026-04-15T16:22:48Z</time></trkpt><trkpt lat="44.519789093950244" lon="7.820246992147508"><ele>398.0</ele><time>2026-04-15T16:22:49Z</time></trkpt><trkpt lat="44.51984603675124" lon="7.820105981548307"><ele>398.0</ele><time>2026-04-15T16:22:50Z</time></trkpt><trkpt lat="44.51990784952367" lon="7.8199752130961695"><ele>398.0</ele><time>2026-04-15T16:22:51Z</time></trkpt><trkpt lat="44.51995468689978" lon="7.819851269717603"><ele>398.0</ele><time>2026-04-15T16:22:52Z</time></trkpt><trkpt lat="44.520006770436694" lon="7.819728259227825"><ele>398.0</ele><time>2026-04-15T16:22:53Z</time></trkpt><trkpt lat="44.520060968439466" lon="7.81959966116057"><ele>398.0</ele><time>2026-04-15T16:22:54Z</time></trkpt><trkpt lat="44.5201113564134" lon="7.8194784207765435"><ele>397.99999999999994</ele><time>2026-04-15T16:22:55Z</time></trkpt><trkpt lat="44.52016329377392" lon="7.819360281536385"><ele>398.0</ele><time>2026-04-15T16:22:56Z</time></trkpt><trkpt lat="44.5202143884206" lon="7.819242055510805"><ele>398.0</ele><time>2026-04-15T16:22:57Z</time></trkpt><trkpt lat="44.520262685366355" lon="7.819135832252565"><ele>398.0</ele><time>2026-04-15T16:22:58Z</time></trkpt><trkpt lat="44.520305329039026" lon="7.819046534422579"><ele>397.99999999999994</ele><time>2026-04-15T16:22:59Z</time></trkpt><trkpt lat="44.52035085655108" lon="7.81895347780896"><ele>398.0</ele><time>2026-04-15T16:23:00Z</time></trkpt><trkpt lat="44.52041369519442" lon="7.818888576137048"><ele>396.5</ele><time>2026-04-15T16:23:01Z</time></trkpt><trkpt lat="44.52047922679628" lon="7.818835476958137"><ele>395.0</ele><time>2026-04-15T16:23:02Z</time></trkpt><trkpt lat="44.5205553110216" lon="7.818824978709056"><ele>393.5</ele><time>2026-04-15T16:23:03Z</time></trkpt><trkpt lat="44.52077153581434" lon="7.818840016965374"><ele>392.0</ele><time>2026-04-15T16:23:05Z</time></trkpt><trkpt lat="44.52089368266791" lon="7.818845509108941"><ele>392.0</ele><time>2026-04-15T16:23:06Z</time></trkpt><trkpt lat="44.521018957423756" lon="7.818848526888063"><ele>392.0</ele><time>2026-04-15T16:23:06.999Z</time></trkpt><trkpt lat="44.52116059786079" lon="7.818829631333157"><ele>392.0</ele><time>2026-04-15T16:23:07.999Z</time></trkpt><trkpt lat="44.52148905251112" lon="7.818843164954864"><ele>391.0</ele><time>2026-04-15T16:23:09.999Z</time></trkpt><trkpt lat="44.521654889084694" lon="7.818862483366693"><ele>390.0</ele><time>2026-04-15T16:23:10.999Z</time></trkpt><trkpt lat="44.521817971077056" lon="7.818864822171718"><ele>389.0</ele><time>2026-04-15T16:23:11.999Z</time></trkpt><trkpt lat="44.52197439982221" lon="7.818872993305383"><ele>388.0</ele><time>2026-04-15T16:23:12.999Z</time></trkpt><trkpt lat="44.522123214338656" lon="7.81888384602557"><ele>387.0</ele><time>2026-04-15T16:23:13.999Z</time></trkpt><trkpt lat="44.52226702971561" lon="7.81891313342785"><ele>386.0</ele><time>2026-04-15T16:23:14.999Z</time></trkpt><trkpt lat="44.5224021142128" lon="7.818901301771336"><ele>385.0</ele><time>2026-04-15T16:23:15.999Z</time></trkpt><trkpt lat="44.522517588479516" lon="7.81891308423328"><ele>385.0</ele><time>2026-04-15T16:23:16.999Z</time></trkpt><trkpt lat="44.522651586967925" lon="7.81893295988507"><ele>385.0</ele><time>2026-04-15T16:23:17.999Z</time></trkpt><trkpt lat="44.522787949271105" lon="7.818938622420005"><ele>385.0</ele><time>2026-04-15T16:23:18.999Z</time></trkpt><trkpt lat="44.52291474494822" lon="7.818928754971431"><ele>385.0</ele><time>2026-04-15T16:23:19.999Z</time></trkpt><trkpt lat="44.52302127241441" lon="7.818946326501785"><ele>384.33333333333337</ele><time>2026-04-15T16:23:20.999Z</time></trkpt><trkpt lat="44.52311139610688" lon="7.818957169499023"><ele>383.6666666666667</ele><time>2026-04-15T16:23:21.999Z</time></trkpt><trkpt lat="44.52320002739485" lon="7.8189690923572215"><ele>383.0</ele><time>2026-04-15T16:23:22.999Z</time></trkpt><trkpt lat="44.52329457775719" lon="7.818979178165428"><ele>382.33333333333337</ele><time>2026-04-15T16:23:23.999Z</time></trkpt><trkpt lat="44.523371158309125" lon="7.818992611516758"><ele>381.6666666666667</ele><time>2026-04-15T16:23:24.999Z</time></trkpt><trkpt lat="44.52345280117739" lon="7.819011298343351"><ele>381.0</ele><time>2026-04-15T16:23:25.999Z</time></trkpt><trkpt lat="44.52353446703549" lon="7.819050031374948"><ele>381.0</ele><time>2026-04-15T16:23:26.999Z</time></trkpt><trkpt lat="44.52362336524242" lon="7.819104441330939"><ele>381.0</ele><time>2026-04-15T16:23:27.999Z</time></trkpt><trkpt lat="44.523702268117496" lon="7.819192516795773"><ele>381.0</ele><time>2026-04-15T16:23:28.999Z</time></trkpt><trkpt lat="44.52380428486016" lon="7.819291159986893"><ele>381.0</ele><time>2026-04-15T16:23:29.999Z</time></trkpt><trkpt lat="44.52388555608352" lon="7.819394855028794"><ele>381.0</ele><time>2026-04-15T16:23:30.999Z</time></trkpt><trkpt lat="44.523964182051024" lon="7.819502120841252"><ele>379.5</ele><time>2026-04-15T16:23:31.999Z</time></trkpt><trkpt lat="44.524036354031914" lon="7.819613903084466"><ele>378.0</ele><time>2026-04-15T16:23:32.999Z</time></trkpt><trkpt lat="44.5241124117419" lon="7.819722987553651"><ele>376.5</ele><time>2026-04-15T16:23:33.999Z</time></trkpt><trkpt lat="44.524191213245" lon="7.819837101852744"><ele>375.0</ele><time>2026-04-15T16:23:34.999Z</time></trkpt><trkpt lat="44.52427297278645" lon="7.819974035345118"><ele>375.0</ele><time>2026-04-15T16:23:35.999Z</time></trkpt><trkpt lat="44.524362188591354" lon="7.820113645271334"><ele>375.0</ele><time>2026-04-15T16:23:36.999Z</time></trkpt><trkpt lat="44.52445599524171" lon="7.820284843562122"><ele>375.0</ele><time>2026-04-15T16:23:37.999Z</time></trkpt><trkpt lat="44.52455258048618" lon="7.820452226716884"><ele>375.0</ele><time>2026-04-15T16:23:38.999Z</time></trkpt><trkpt lat="44.52465344791771" lon="7.820627152854119"><ele>373.5</ele><time>2026-04-15T16:23:39.999Z</time></trkpt><trkpt lat="44.524749603628585" lon="7.82078939671451"><ele>372.0</ele><time>2026-04-15T16:23:40.999Z</time></trkpt><trkpt lat="44.524842300208" lon="7.82092912384984"><ele>370.5</ele><time>2026-04-15T16:23:41.999Z</time></trkpt><trkpt lat="44.524943153656686" lon="7.821062262431825"><ele>369.0</ele><time>2026-04-15T16:23:42.999Z</time></trkpt><trkpt lat="44.52502532528636" lon="7.8211985740398475"><ele>369.0</ele><time>2026-04-15T16:23:43.999Z</time></trkpt><trkpt lat="44.52510811381539" lon="7.821333318267573"><ele>369.0</ele><time>2026-04-15T16:23:44.999Z</time></trkpt><trkpt lat="44.525192786857865" lon="7.821466780696187"><ele>369.0</ele><time>2026-04-15T16:23:45.999Z</time></trkpt><trkpt lat="44.525280802170556" lon="7.821608753987867"><ele>369.0</ele><time>2026-04-15T16:23:46.999Z</time></trkpt><trkpt lat="44.52536010340158" lon="7.821740852706222"><ele>366.4</ele><time>2026-04-15T16:23:47.999Z</time></trkpt><trkpt lat="44.5254288555182" lon="7.821867858538055"><ele>363.79999999999995</ele><time>2026-04-15T16:23:48.999Z</time></trkpt><trkpt lat="44.52550256631703" lon="7.821987322863852"><ele>361.20000000000005</ele><time>2026-04-15T16:23:49.999Z</time></trkpt><trkpt lat="44.52557439336548" lon="7.82211405541923"><ele>358.6</ele><time>2026-04-15T16:23:50.999Z</time></trkpt><trkpt lat="44.525641960413715" lon="7.8222310736878"><ele>356.0</ele><time>2026-04-15T16:23:51.999Z</time></trkpt><trkpt lat="44.52572846456745" lon="7.822347517854753"><ele>356.0</ele><time>2026-04-15T16:23:52.999Z</time></trkpt><trkpt lat="44.52582324005875" lon="7.822447737187647"><ele>356.0</ele><time>2026-04-15T16:23:53.999Z</time></trkpt><trkpt lat="44.525923302849996" lon="7.822544065601535"><ele>356.0</ele><time>2026-04-15T16:23:54.999Z</time></trkpt><trkpt lat="44.52603426762994" lon="7.822633468262156"><ele>356.0</ele><time>2026-04-15T16:23:55.999Z</time></trkpt><trkpt lat="44.52614374499069" lon="7.822704271871303"><ele>353.33333333333337</ele><time>2026-04-15T16:23:56.999Z</time></trkpt><trkpt lat="44.52627862894409" lon="7.822781996229114"><ele>350.6666666666667</ele><time>2026-04-15T16:23:57.999Z</time></trkpt><trkpt lat="44.52642741568589" lon="7.822832449654169"><ele>348.0</ele><time>2026-04-15T16:23:58.999Z</time></trkpt><trkpt lat="44.52658310790076" lon="7.8228645459332915"><ele>348.0</ele><time>2026-04-15T16:23:59.999Z</time></trkpt><trkpt lat="44.52673075611971" lon="7.82289566394166"><ele>348.0</ele><time>2026-04-15T16:24:00.999Z</time></trkpt><trkpt lat="44.52688536517517" lon="7.822933069557778"><ele>348.0</ele><time>2026-04-15T16:24:01.999Z</time></trkpt><trkpt lat="44.52703671097432" lon="7.822971668422678"><ele>347.3333333333333</ele><time>2026-04-15T16:24:02.999Z</time></trkpt><trkpt lat="44.5271866355394" lon="7.823016895542401"><ele>346.66666666666663</ele><time>2026-04-15T16:24:03.999Z</time></trkpt><trkpt lat="44.52733108226325" lon="7.823049269496297"><ele>346.0</ele><time>2026-04-15T16:24:04.999Z</time></trkpt><trkpt lat="44.52748871178544" lon="7.823085872052752"><ele>346.0</ele><time>2026-04-15T16:24:05.999Z</time></trkpt><trkpt lat="44.52763002992511" lon="7.823118363440245"><ele>346.0</ele><time>2026-04-15T16:24:06.999Z</time></trkpt><trkpt lat="44.52777665039492" lon="7.823162388321696"><ele>346.0</ele><time>2026-04-15T16:24:07.999Z</time></trkpt><trkpt lat="44.527926074805265" lon="7.8232157693434115"><ele>346.0</ele><time>2026-04-15T16:24:08.999Z</time></trkpt><trkpt lat="44.52806801967073" lon="7.82325725099901"><ele>346.25</ele><time>2026-04-15T16:24:09.999Z</time></trkpt><trkpt lat="44.52821666871066" lon="7.823289010580549"><ele>346.5</ele><time>2026-04-15T16:24:10.999Z</time></trkpt><trkpt lat="44.52836964714284" lon="7.8233311497124225"><ele>346.75</ele><time>2026-04-15T16:24:11.999Z</time></trkpt><trkpt lat="44.528510514654194" lon="7.823364832735449"><ele>347.0</ele><time>2026-04-15T16:24:12.999Z</time></trkpt><trkpt lat="44.52866471005421" lon="7.823405978173608"><ele>347.75</ele><time>2026-04-15T16:24:13.999Z</time></trkpt><trkpt lat="44.528811360304324" lon="7.823448019389997"><ele>348.5</ele><time>2026-04-15T16:24:14.999Z</time></trkpt><trkpt lat="44.52896192153148" lon="7.823498966074946"><ele>349.25</ele><time>2026-04-15T16:24:15.998Z</time></trkpt><trkpt lat="44.52910453301812" lon="7.823535225508938"><ele>350.0</ele><time>2026-04-15T16:24:16.998Z</time></trkpt><trkpt lat="44.52924943483194" lon="7.823577314951766"><ele>350.0</ele><time>2026-04-15T16:24:17.998Z</time></trkpt><trkpt lat="44.52939697399692" lon="7.8236192270658265"><ele>350.0</ele><time>2026-04-15T16:24:18.998Z</time></trkpt><trkpt lat="44.52954255534632" lon="7.823649843203543"><ele>350.0</ele><time>2026-04-15T16:24:19.998Z</time></trkpt><trkpt lat="44.529693747098854" lon="7.823690631864435"><ele>350.25</ele><time>2026-04-15T16:24:21Z</time></trkpt><trkpt lat="44.52983606894738" lon="7.823727096074131"><ele>350.5</ele><time>2026-04-15T16:24:22Z</time></trkpt><trkpt lat="44.5299819201213" lon="7.823772020987258"><ele>350.75</ele><time>2026-04-15T16:24:23Z</time></trkpt><trkpt lat="44.530127033661906" lon="7.8238098148028214"><ele>351.0</ele><time>2026-04-15T16:24:24Z</time></trkpt><trkpt lat="44.5302786305794" lon="7.823855086719056"><ele>350.6666666666667</ele><time>2026-04-15T16:24:25Z</time></trkpt><trkpt lat="44.53042804675009" lon="7.823891221499835"><ele>350.33333333333337</ele><time>2026-04-15T16:24:26Z</time></trkpt><trkpt lat="44.53057506478954" lon="7.823955673711993"><ele>350.0</ele><time>2026-04-15T16:24:27Z</time></trkpt><trkpt lat="44.53073158188054" lon="7.8239980410647005"><ele>350.0</ele><time>2026-04-15T16:24:28Z</time></trkpt><trkpt lat="44.53088078144253" lon="7.824020913956276"><ele>350.0</ele><time>2026-04-15T16:24:29Z</time></trkpt><trkpt lat="44.53103220047846" lon="7.824057868460229"><ele>350.0</ele><time>2026-04-15T16:24:30Z</time></trkpt><trkpt lat="44.531182264881394" lon="7.824120793408178"><ele>350.33333333333337</ele><time>2026-04-15T16:24:31Z</time></trkpt><trkpt lat="44.53133169303888" lon="7.824161493121452"><ele>350.6666666666667</ele><time>2026-04-15T16:24:32Z</time></trkpt><trkpt lat="44.53148079972931" lon="7.824203561375017"><ele>351.0</ele><time>2026-04-15T16:24:33Z</time></trkpt><trkpt lat="44.531635613286674" lon="7.824247319393539"><ele>351.0</ele><time>2026-04-15T16:24:34Z</time></trkpt><trkpt lat="44.5317885868579" lon="7.824290557389089"><ele>351.0</ele><time>2026-04-15T16:24:35Z</time></trkpt><trkpt lat="44.53193522105749" lon="7.824331613311592"><ele>351.0</ele><time>2026-04-15T16:24:36Z</time></trkpt><trkpt lat="44.53208618723374" lon="7.824373433655297"><ele>351.0</ele><time>2026-04-15T16:24:37Z</time></trkpt><trkpt lat="44.53223600084737" lon="7.824414934717469"><ele>351.0</ele><time>2026-04-15T16:24:38Z</time></trkpt><trkpt lat="44.53238828312092" lon="7.8244563467877155"><ele>351.0</ele><time>2026-04-15T16:24:39Z</time></trkpt><trkpt lat="44.532533421811465" lon="7.824495802002488"><ele>351.0</ele><time>2026-04-15T16:24:40Z</time></trkpt><trkpt lat="44.532688374363474" lon="7.8245379249618265"><ele>351.0</ele><time>2026-04-15T16:24:41Z</time></trkpt><trkpt lat="44.5328370212698" lon="7.82457833350512"><ele>351.0</ele><time>2026-04-15T16:24:42Z</time></trkpt><trkpt lat="44.53298845391515" lon="7.8245979021844425"><ele>351.0</ele><time>2026-04-15T16:24:43Z</time></trkpt><trkpt lat="44.533133799514786" lon="7.824653246507846"><ele>351.0</ele><time>2026-04-15T16:24:44Z</time></trkpt><trkpt lat="44.53327761087228" lon="7.824692745309487"><ele>351.0</ele><time>2026-04-15T16:24:45Z</time></trkpt><trkpt lat="44.53342494799516" lon="7.8247334988252515"><ele>351.0</ele><time>2026-04-15T16:24:46Z</time></trkpt><trkpt lat="44.53356869480957" lon="7.824775195814391"><ele>351.0</ele><time>2026-04-15T16:24:47Z</time></trkpt><trkpt lat="44.53371078812249" lon="7.824812920284423"><ele>351.0</ele><time>2026-04-15T16:24:48Z</time></trkpt><trkpt lat="44.533856768533575" lon="7.824859654558089"><ele>351.0</ele><time>2026-04-15T16:24:49Z</time></trkpt><trkpt lat="44.534002919109014" lon="7.824902336974221"><ele>351.0</ele><time>2026-04-15T16:24:50Z</time></trkpt><trkpt lat="44.53413901270575" lon="7.824933648261355"><ele>351.0</ele><time>2026-04-15T16:24:51Z</time></trkpt><trkpt lat="44.534278041274995" lon="7.824974833429356"><ele>351.0</ele><time>2026-04-15T16:24:52Z</time></trkpt><trkpt lat="44.53441567023753" lon="7.825016501415423"><ele>351.0</ele><time>2026-04-15T16:24:53Z</time></trkpt><trkpt lat="44.53455310129065" lon="7.8250529546055265"><ele>351.0</ele><time>2026-04-15T16:24:54Z</time></trkpt><trkpt lat="44.53468857328545" lon="7.825084268776865"><ele>350.75</ele><time>2026-04-15T16:24:55Z</time></trkpt><trkpt lat="44.5348278293478" lon="7.825122129277769"><ele>350.5</ele><time>2026-04-15T16:24:56Z</time></trkpt><trkpt lat="44.53496285692943" lon="7.825158822911969"><ele>350.25</ele><time>2026-04-15T16:24:57Z</time></trkpt><trkpt lat="44.53509480087308" lon="7.825190863863643"><ele>350.0</ele><time>2026-04-15T16:24:58Z</time></trkpt><trkpt lat="44.535219142815016" lon="7.8252250837221276"><ele>350.0</ele><time>2026-04-15T16:24:59Z</time></trkpt><trkpt lat="44.535346201826826" lon="7.825262856099755"><ele>350.0</ele><time>2026-04-15T16:25:00Z</time></trkpt><trkpt lat="44.53547028626707" lon="7.8253000630293235"><ele>350.0</ele><time>2026-04-15T16:25:01Z</time></trkpt><trkpt lat="44.535579754838416" lon="7.825331617565898"><ele>350.0</ele><time>2026-04-15T16:25:02Z</time></trkpt><trkpt lat="44.53568256496755" lon="7.825360621588896"><ele>350.2</ele><time>2026-04-15T16:25:03Z</time></trkpt><trkpt lat="44.53578987827739" lon="7.8253925678144745"><ele>350.4</ele><time>2026-04-15T16:25:04Z</time></trkpt><trkpt lat="44.5358952932205" lon="7.825418933223901"><ele>350.6</ele><time>2026-04-15T16:25:05Z</time></trkpt><trkpt lat="44.53599442134926" lon="7.825445090523475"><ele>350.8</ele><time>2026-04-15T16:25:06Z</time></trkpt><trkpt lat="44.536098523995584" lon="7.825470203123583"><ele>351.0</ele><time>2026-04-15T16:25:07Z</time></trkpt><trkpt lat="44.5361968769837" lon="7.825497335556615"><ele>350.6</ele><time>2026-04-15T16:25:08Z</time></trkpt><trkpt lat="44.536287762418866" lon="7.825524162903564"><ele>350.20000000000005</ele><time>2026-04-15T16:25:09Z</time></trkpt><trkpt lat="44.53638408305087" lon="7.82554760623224"><ele>349.79999999999995</ele><time>2026-04-15T16:25:10Z</time></trkpt><trkpt lat="44.53648319722044" lon="7.825581176182679"><ele>349.4</ele><time>2026-04-15T16:25:11Z</time></trkpt><trkpt lat="44.53657921242674" lon="7.82560399640739"><ele>349.0</ele><time>2026-04-15T16:25:11.999Z</time></trkpt><trkpt lat="44.53666986437585" lon="7.825629420155675"><ele>349.0</ele><time>2026-04-15T16:25:12.999Z</time></trkpt><trkpt lat="44.536764058306154" lon="7.825653332909431"><ele>349.0</ele><time>2026-04-15T16:25:13.999Z</time></trkpt><trkpt lat="44.536862197269215" lon="7.825677362332319"><ele>349.0</ele><time>2026-04-15T16:25:14.999Z</time></trkpt><trkpt lat="44.53695687623126" lon="7.825702318429376"><ele>349.0</ele><time>2026-04-15T16:25:15.999Z</time></trkpt><trkpt lat="44.53705614801713" lon="7.825733040160792"><ele>349.0</ele><time>2026-04-15T16:25:16.999Z</time></trkpt><trkpt lat="44.53714925024448" lon="7.8257661223334685"><ele>349.4</ele><time>2026-04-15T16:25:17.999Z</time></trkpt><trkpt lat="44.53724882771345" lon="7.825791877322369"><ele>349.79999999999995</ele><time>2026-04-15T16:25:18.999Z</time></trkpt><trkpt lat="44.53733974956408" lon="7.825815388945179"><ele>350.20000000000005</ele><time>2026-04-15T16:25:19.999Z</time></trkpt><trkpt lat="44.53742842085406" lon="7.825839341916444"><ele>350.6</ele><time>2026-04-15T16:25:20.999Z</time></trkpt><trkpt lat="44.53751406692746" lon="7.825870315802872"><ele>351.0</ele><time>2026-04-15T16:25:21.999Z</time></trkpt><trkpt lat="44.537617048650475" lon="7.825903048358486"><ele>351.0</ele><time>2026-04-15T16:25:22.999Z</time></trkpt><trkpt lat="44.537696761316475" lon="7.825924571979908"><ele>351.0</ele><time>2026-04-15T16:25:23.999Z</time></trkpt><trkpt lat="44.537795716192115" lon="7.825964290396492"><ele>351.0</ele><time>2026-04-15T16:25:24.999Z</time></trkpt><trkpt lat="44.53789445218014" lon="7.825980731691839"><ele>351.0</ele><time>2026-04-15T16:25:25.999Z</time></trkpt><trkpt lat="44.53800230186467" lon="7.826007789996683"><ele>351.0</ele><time>2026-04-15T16:25:26.999Z</time></trkpt><trkpt lat="44.53810768520814" lon="7.826042290421344"><ele>351.20000000000005</ele><time>2026-04-15T16:25:27.999Z</time></trkpt><trkpt lat="44.53821563639796" lon="7.826071009758158"><ele>351.40000000000003</ele><time>2026-04-15T16:25:28.999Z</time></trkpt><trkpt lat="44.53832449892953" lon="7.826101194376152"><ele>351.6</ele><time>2026-04-15T16:25:29.999Z</time></trkpt><trkpt lat="44.53843567922152" lon="7.8261317448289445"><ele>351.8</ele><time>2026-04-15T16:25:30.999Z</time></trkpt><trkpt lat="44.538538701218805" lon="7.826163590647584"><ele>352.0</ele><time>2026-04-15T16:25:31.999Z</time></trkpt><trkpt lat="44.53865845555686" lon="7.826195876203943"><ele>351.8</ele><time>2026-04-15T16:25:32.999Z</time></trkpt><trkpt lat="44.53877091205572" lon="7.826231047105084"><ele>351.6</ele><time>2026-04-15T16:25:33.999Z</time></trkpt><trkpt lat="44.53887094813252" lon="7.826253723977257"><ele>351.40000000000003</ele><time>2026-04-15T16:25:34.999Z</time></trkpt><trkpt lat="44.53897387920756" lon="7.826284891337226"><ele>351.20000000000005</ele><time>2026-04-15T16:25:35.999Z</time></trkpt><trkpt lat="44.539075588103884" lon="7.826298937407007"><ele>351.0</ele><time>2026-04-15T16:25:36.999Z</time></trkpt><trkpt lat="44.539181939356595" lon="7.826335175033941"><ele>351.0</ele><time>2026-04-15T16:25:37.999Z</time></trkpt><trkpt lat="44.53927917149848" lon="7.826356445030867"><ele>351.0</ele><time>2026-04-15T16:25:38.999Z</time></trkpt><trkpt lat="44.539390833296125" lon="7.826385334025043"><ele>351.0</ele><time>2026-04-15T16:25:39.999Z</time></trkpt><trkpt lat="44.53949334284662" lon="7.826408620963263"><ele>351.0</ele><time>2026-04-15T16:25:40.999Z</time></trkpt><trkpt lat="44.53959894609658" lon="7.826442153719134"><ele>351.0</ele><time>2026-04-15T16:25:41.999Z</time></trkpt><trkpt lat="44.53969226094125" lon="7.826470734187423"><ele>351.25</ele><time>2026-04-15T16:25:42.999Z</time></trkpt><trkpt lat="44.53979115705139" lon="7.826506103942507"><ele>351.5</ele><time>2026-04-15T16:25:43.999Z</time></trkpt><trkpt lat="44.53991670355531" lon="7.826539395754036"><ele>351.75</ele><time>2026-04-15T16:25:44.999Z</time></trkpt><trkpt lat="44.54003423006658" lon="7.826579996374399"><ele>352.0</ele><time>2026-04-15T16:25:45.999Z</time></trkpt><trkpt lat="44.54014524403776" lon="7.826601133275364"><ele>352.0</ele><time>2026-04-15T16:25:46.999Z</time></trkpt><trkpt lat="44.540258062071885" lon="7.826630027989374"><ele>352.0</ele><time>2026-04-15T16:25:47.999Z</time></trkpt><trkpt lat="44.54035114071593" lon="7.826652031604651"><ele>352.0</ele><time>2026-04-15T16:25:48.999Z</time></trkpt><trkpt lat="44.54045056873808" lon="7.826675605035116"><ele>352.0</ele><time>2026-04-15T16:25:49.999Z</time></trkpt><trkpt lat="44.540567629112466" lon="7.826704895895632"><ele>352.0</ele><time>2026-04-15T16:25:50.999Z</time></trkpt><trkpt lat="44.54065637943338" lon="7.826755695079242"><ele>351.8</ele><time>2026-04-15T16:25:51.999Z</time></trkpt><trkpt lat="44.54075105509895" lon="7.826778315921346"><ele>351.6</ele><time>2026-04-15T16:25:52.999Z</time></trkpt><trkpt lat="44.540851335401854" lon="7.826804618745854"><ele>351.40000000000003</ele><time>2026-04-15T16:25:53.999Z</time></trkpt><trkpt lat="44.54095960295946" lon="7.826830048512194"><ele>351.20000000000005</ele><time>2026-04-15T16:25:54.999Z</time></trkpt><trkpt lat="44.54107882456888" lon="7.8268733037206575"><ele>351.0</ele><time>2026-04-15T16:25:55.999Z</time></trkpt><trkpt lat="44.54117531039914" lon="7.826898655389511"><ele>351.25</ele><time>2026-04-15T16:25:56.999Z</time></trkpt><trkpt lat="44.54129201889062" lon="7.82693369160182"><ele>351.5</ele><time>2026-04-15T16:25:57.999Z</time></trkpt><trkpt lat="44.54140089571904" lon="7.8269590905618545"><ele>351.75</ele><time>2026-04-15T16:25:58.999Z</time></trkpt><trkpt lat="44.54151851743564" lon="7.8270000071133"><ele>352.0</ele><time>2026-04-15T16:25:59.999Z</time></trkpt><trkpt lat="44.541614821536854" lon="7.827034659649471"><ele>352.0</ele><time>2026-04-15T16:26:00.999Z</time></trkpt><trkpt lat="44.5417185346133" lon="7.8270592437348006"><ele>352.0</ele><time>2026-04-15T16:26:01.999Z</time></trkpt><trkpt lat="44.54182709690194" lon="7.8270867116044665"><ele>352.0</ele><time>2026-04-15T16:26:02.999Z</time></trkpt><trkpt lat="44.54191948463285" lon="7.827108618321693"><ele>352.0</ele><time>2026-04-15T16:26:03.999Z</time></trkpt><trkpt lat="44.54200742523494" lon="7.827130138573466"><ele>352.0</ele><time>2026-04-15T16:26:04.999Z</time></trkpt><trkpt lat="44.5420870118388" lon="7.827152148236099"><ele>352.0</ele><time>2026-04-15T16:26:05.999Z</time></trkpt><trkpt lat="44.54215715179655" lon="7.827166674129526"><ele>352.0</ele><time>2026-04-15T16:26:06.999Z</time></trkpt><trkpt lat="44.54223355640745" lon="7.827186641270059"><ele>352.0</ele><time>2026-04-15T16:26:07.999Z</time></trkpt><trkpt lat="44.54229876555259" lon="7.827206777916302"><ele>352.0</ele><time>2026-04-15T16:26:08.999Z</time></trkpt><trkpt lat="44.542418711443894" lon="7.827240884953833"><ele>352.0</ele><time>2026-04-15T16:26:10.999Z</time></trkpt><trkpt lat="44.54251668867284" lon="7.827267656921293"><ele>352.0</ele><time>2026-04-15T16:26:12.999Z</time></trkpt><trkpt lat="44.54263288630445" lon="7.8273262966125365"><ele>352.0</ele><time>2026-04-15T16:26:14.999Z</time></trkpt><trkpt lat="44.54270761106786" lon="7.82735292272719"><ele>352.0</ele><time>2026-04-15T16:26:15.999Z</time></trkpt><trkpt lat="44.54277742544534" lon="7.827392258390895"><ele>352.0</ele><time>2026-04-15T16:26:16.999Z</time></trkpt><trkpt lat="44.54288915621822" lon="7.827412436287043"><ele>352.0</ele><time>2026-04-15T16:26:18.999Z</time></trkpt><trkpt lat="44.54293393732355" lon="7.827521843229491"><ele>352.0</ele><time>2026-04-15T16:26:19.998Z</time></trkpt><trkpt lat="44.543011144701836" lon="7.827675183152657"><ele>352.0</ele><time>2026-04-15T16:26:21.998Z</time></trkpt><trkpt lat="44.5430506192816" lon="7.827763783576534"><ele>352.0</ele><time>2026-04-15T16:26:22.998Z</time></trkpt><trkpt lat="44.54306110444494" lon="7.827927293043745"><ele>352.0</ele><time>2026-04-15T16:26:23.998Z</time></trkpt><trkpt lat="44.54309978282105" lon="7.828055040926576"><ele>352.0</ele><time>2026-04-15T16:26:24.998Z</time></trkpt><trkpt lat="44.54314684556534" lon="7.828151732132759"><ele>352.0</ele><time>2026-04-15T16:26:25.998Z</time></trkpt><trkpt lat="44.54316273961748" lon="7.828262979337546"><ele>352.0</ele><time>2026-04-15T16:26:27Z</time></trkpt><trkpt lat="44.54320878101426" lon="7.828363783390468"><ele>352.0</ele><time>2026-04-15T16:26:28Z</time></trkpt><trkpt lat="44.543230382895835" lon="7.828455851899961"><ele>352.0</ele><time>2026-04-15T16:26:29Z</time></trkpt><trkpt lat="44.54326065178837" lon="7.828549379767296"><ele>352.0</ele><time>2026-04-15T16:26:30Z</time></trkpt><trkpt lat="44.54328780636808" lon="7.828654561687091"><ele>352.0</ele><time>2026-04-15T16:26:31Z</time></trkpt><trkpt lat="44.543315445883295" lon="7.828759722034938"><ele>352.0</ele><time>2026-04-15T16:26:32Z</time></trkpt><trkpt lat="44.54334139178311" lon="7.828871720925065"><ele>352.20000000000005</ele><time>2026-04-15T16:26:33Z</time></trkpt><trkpt lat="44.54336844739807" lon="7.828996220470522"><ele>352.4</ele><time>2026-04-15T16:26:34Z</time></trkpt><trkpt lat="44.543410368571074" lon="7.829111943194132"><ele>352.6</ele><time>2026-04-15T16:26:35Z</time></trkpt><trkpt lat="44.54345312170279" lon="7.829229752492168"><ele>352.79999999999995</ele><time>2026-04-15T16:26:36Z</time></trkpt><trkpt lat="44.54348769606671" lon="7.829328850770687"><ele>353.0</ele><time>2026-04-15T16:26:37Z</time></trkpt><trkpt lat="44.54352499131728" lon="7.829447409366193"><ele>352.6666666666667</ele><time>2026-04-15T16:26:38Z</time></trkpt><trkpt lat="44.543553484493195" lon="7.829541824137713"><ele>352.33333333333337</ele><time>2026-04-15T16:26:39Z</time></trkpt><trkpt lat="44.54358783949374" lon="7.829660665840235"><ele>352.0</ele><time>2026-04-15T16:26:40Z</time></trkpt><trkpt lat="44.54361280568581" lon="7.8297847548673785"><ele>351.6666666666667</ele><time>2026-04-15T16:26:41Z</time></trkpt><trkpt lat="44.54364121801097" lon="7.829895815987195"><ele>351.3333333333333</ele><time>2026-04-15T16:26:42Z</time></trkpt><trkpt lat="44.54368237004569" lon="7.8299969673192935"><ele>351.0</ele><time>2026-04-15T16:26:43Z</time></trkpt><trkpt lat="44.54372453434179" lon="7.830101915111559"><ele>350.8333333333333</ele><time>2026-04-15T16:26:44Z</time></trkpt><trkpt lat="44.54376204115675" lon="7.830214164289735"><ele>350.6666666666667</ele><time>2026-04-15T16:26:45Z</time></trkpt><trkpt lat="44.54379591870449" lon="7.83030328243993"><ele>350.5</ele><time>2026-04-15T16:26:46Z</time></trkpt><trkpt lat="44.543809810426" lon="7.8304158735910905"><ele>350.33333333333337</ele><time>2026-04-15T16:26:47Z</time></trkpt><trkpt lat="44.54384375840271" lon="7.830506350613923"><ele>350.1666666666667</ele><time>2026-04-15T16:26:48Z</time></trkpt><trkpt lat="44.543897111937696" lon="7.830648284330652"><ele>350.0</ele><time>2026-04-15T16:26:50Z</time></trkpt><trkpt lat="44.54394966289877" lon="7.830803771646028"><ele>350.1666666666667</ele><time>2026-04-15T16:26:52Z</time></trkpt><trkpt lat="44.54398298979676" lon="7.830976325383382"><ele>350.33333333333337</ele><time>2026-04-15T16:26:54Z</time></trkpt><trkpt lat="44.54402116370149" lon="7.831088136260124"><ele>350.5</ele><time>2026-04-15T16:26:56Z</time></trkpt><trkpt lat="44.544060249672064" lon="7.831180068760742"><ele>350.6666666666667</ele><time>2026-04-15T16:26:58Z</time></trkpt><trkpt lat="44.544108216154434" lon="7.831256537861779"><ele>350.8333333333333</ele><time>2026-04-15T16:27:00Z</time></trkpt><trkpt lat="44.544154126555206" lon="7.831344108385076"><ele>351.0</ele><time>2026-04-15T16:27:02Z</time></trkpt><trkpt lat="44.54419732801345" lon="7.831430167168939"><ele>351.0</ele><time>2026-04-15T16:27:05Z</time></trkpt><trkpt lat="44.544083692278086" lon="7.831502466708957"><ele>351.0</ele><time>2026-04-15T16:27:27.999Z</time></trkpt><trkpt lat="44.54410632811961" lon="7.831649369675868"><ele>351.0</ele><time>2026-04-15T16:27:30.999Z</time></trkpt><trkpt lat="44.54413609076135" lon="7.831767479860315"><ele>351.0</ele><time>2026-04-15T16:27:31.999Z</time></trkpt><trkpt lat="44.544160811556125" lon="7.831911230163125"><ele>351.0</ele><time>2026-04-15T16:27:32.999Z</time></trkpt><trkpt lat="44.54417211721866" lon="7.832017620979395"><ele>351.3333333333333</ele><time>2026-04-15T16:27:33.999Z</time></trkpt><trkpt lat="44.54418941208367" lon="7.832108340049535"><ele>351.6666666666667</ele><time>2026-04-15T16:27:34.999Z</time></trkpt><trkpt lat="44.54421290274974" lon="7.832224290304289"><ele>352.0</ele><time>2026-04-15T16:27:35.999Z</time></trkpt><trkpt lat="44.54424579076304" lon="7.83233131278532"><ele>352.33333333333337</ele><time>2026-04-15T16:27:36.999Z</time></trkpt><trkpt lat="44.544278983348526" lon="7.8324544582741655"><ele>352.6666666666667</ele><time>2026-04-15T16:27:37.999Z</time></trkpt><trkpt lat="44.54430951603179" lon="7.832568558849962"><ele>353.0</ele><time>2026-04-15T16:27:38.999Z</time></trkpt><trkpt lat="44.54433047739156" lon="7.832672346357289"><ele>352.2</ele><time>2026-04-15T16:27:39.999Z</time></trkpt><trkpt lat="44.54435175899189" lon="7.832780370699162"><ele>351.4</ele><time>2026-04-15T16:27:40.999Z</time></trkpt><trkpt lat="44.544412397554474" lon="7.832852115642681"><ele>350.59999999999997</ele><time>2026-04-15T16:27:43.999Z</time></trkpt><trkpt lat="44.544430678689686" lon="7.832986828691186"><ele>349.79999999999995</ele><time>2026-04-15T16:27:45.999Z</time></trkpt><trkpt lat="44.54441344787144" lon="7.833129254149285"><ele>349.0</ele><time>2026-04-15T16:27:47.999Z</time></trkpt><trkpt lat="44.54446163771814" lon="7.833257504486247"><ele>349.0</ele><time>2026-04-15T16:27:49.999Z</time></trkpt><trkpt lat="44.544507509392815" lon="7.833392330138582"><ele>349.0</ele><time>2026-04-15T16:27:51.999Z</time></trkpt><trkpt lat="44.54456273080268" lon="7.833502791277525"><ele>349.0</ele><time>2026-04-15T16:27:53.999Z</time></trkpt><trkpt lat="44.54459588377044" lon="7.833597672309688"><ele>349.0</ele><time>2026-04-15T16:27:55.999Z</time></trkpt><trkpt lat="44.54462791979659" lon="7.833675264694442"><ele>349.0</ele><time>2026-04-15T16:27:57.999Z</time></trkpt><trkpt lat="44.54469216942901" lon="7.833792130712091"><ele>349.0</ele><time>2026-04-15T16:27:59.999Z</time></trkpt><trkpt lat="44.54473628888133" lon="7.833864616019719"><ele>348.8333333333333</ele><time>2026-04-15T16:28:00.999Z</time></trkpt><trkpt lat="44.544767062165704" lon="7.833957008342141"><ele>348.66666666666663</ele><time>2026-04-15T16:28:01.999Z</time></trkpt><trkpt lat="44.54481293914088" lon="7.834068616914906"><ele>348.5</ele><time>2026-04-15T16:28:02.999Z</time></trkpt><trkpt lat="44.544860789483806" lon="7.834204700114945"><ele>348.3333333333333</ele><time>2026-04-15T16:28:03.999Z</time></trkpt><trkpt lat="44.544907007738054" lon="7.834296849145949"><ele>348.1666666666667</ele><time>2026-04-15T16:28:04.999Z</time></trkpt><trkpt lat="44.54494165140711" lon="7.83439503059614"><ele>348.0</ele><time>2026-04-15T16:28:05.999Z</time></trkpt><trkpt lat="44.544991635137045" lon="7.834474605384741"><ele>348.0</ele><time>2026-04-15T16:28:06.999Z</time></trkpt><trkpt lat="44.545041906089104" lon="7.834549030595707"><ele>348.0</ele><time>2026-04-15T16:28:07.999Z</time></trkpt><trkpt lat="44.545081456108825" lon="7.834657417456133"><ele>348.0</ele><time>2026-04-15T16:28:09.999Z</time></trkpt><trkpt lat="44.5451496028659" lon="7.8347728686640785"><ele>348.0</ele><time>2026-04-15T16:28:14.999Z</time></trkpt><trkpt lat="44.545193488841036" lon="7.834859364965665"><ele>348.0</ele><time>2026-04-15T16:28:15.999Z</time></trkpt><trkpt lat="44.54524201240515" lon="7.834947505046464"><ele>348.0</ele><time>2026-04-15T16:28:16.999Z</time></trkpt><trkpt lat="44.54531290080103" lon="7.835068626654929"><ele>348.0</ele><time>2026-04-15T16:28:17.999Z</time></trkpt><trkpt lat="44.54535654457857" lon="7.835142664955376"><ele>348.0</ele><time>2026-04-15T16:28:18.999Z</time></trkpt><trkpt lat="44.54539387835063" lon="7.8352292603892"><ele>348.0</ele><time>2026-04-15T16:28:19.999Z</time></trkpt><trkpt lat="44.54544264103074" lon="7.835290908471021"><ele>348.0</ele><time>2026-04-15T16:28:20.999Z</time></trkpt><trkpt lat="44.545477519384804" lon="7.835384332637622"><ele>348.0</ele><time>2026-04-15T16:28:21.999Z</time></trkpt><trkpt lat="44.54556207221217" lon="7.835473838113302"><ele>348.0</ele><time>2026-04-15T16:28:23.999Z</time></trkpt><trkpt lat="44.54561156680323" lon="7.835576699215265"><ele>347.6666666666667</ele><time>2026-04-15T16:28:25.998Z</time></trkpt><trkpt lat="44.54574017972836" lon="7.835650919417141"><ele>347.3333333333333</ele><time>2026-04-15T16:28:27.998Z</time></trkpt><trkpt lat="44.545792300985674" lon="7.835701679344079"><ele>347.0</ele><time>2026-04-15T16:28:28.998Z</time></trkpt><trkpt lat="44.545845765631306" lon="7.835779989590938"><ele>346.66666666666663</ele><time>2026-04-15T16:28:29.998Z</time></trkpt><trkpt lat="44.545912447918674" lon="7.835828560436193"><ele>346.3333333333333</ele><time>2026-04-15T16:28:30.998Z</time></trkpt><trkpt lat="44.54596991204421" lon="7.835898593823703"><ele>346.0</ele><time>2026-04-15T16:28:31.998Z</time></trkpt><trkpt lat="44.54604419664718" lon="7.835984325142686"><ele>345.0</ele><time>2026-04-15T16:28:34Z</time></trkpt><trkpt lat="44.546077729647166" lon="7.83607701657482"><ele>344.0</ele><time>2026-04-15T16:28:36Z</time></trkpt><trkpt lat="44.54609045257851" lon="7.836166466135095"><ele>343.0</ele><time>2026-04-15T16:28:37Z</time></trkpt><trkpt lat="44.546121745395055" lon="7.836336746236646"><ele>342.0</ele><time>2026-04-15T16:28:39Z</time></trkpt><trkpt lat="44.54616726094858" lon="7.8365251784724865"><ele>341.0</ele><time>2026-04-15T16:28:41Z</time></trkpt><trkpt lat="44.546190850176416" lon="7.836615047813539"><ele>341.0</ele><time>2026-04-15T16:28:42Z</time></trkpt><trkpt lat="44.546199225801175" lon="7.836703485770507"><ele>341.0</ele><time>2026-04-15T16:28:43Z</time></trkpt><trkpt lat="44.54621161524782" lon="7.836858279690509"><ele>341.0</ele><time>2026-04-15T16:28:45Z</time></trkpt><trkpt lat="44.54618804837198" lon="7.8369826029454215"><ele>341.0</ele><time>2026-04-15T16:28:47Z</time></trkpt><trkpt lat="44.546133681214876" lon="7.837129709697521"><ele>341.0</ele><time>2026-04-15T16:28:49Z</time></trkpt><trkpt lat="44.546029248149615" lon="7.837201345211901"><ele>337.6</ele><time>2026-04-15T16:28:51Z</time></trkpt><trkpt lat="44.54590743274156" lon="7.837235272648062"><ele>334.20000000000005</ele><time>2026-04-15T16:28:53Z</time></trkpt><trkpt lat="44.54578602848483" lon="7.83720118249143"><ele>330.79999999999995</ele><time>2026-04-15T16:28:55Z</time></trkpt><trkpt lat="44.545709322797876" lon="7.837155271665756"><ele>327.4</ele><time>2026-04-15T16:28:56Z</time></trkpt><trkpt lat="44.5456342775957" lon="7.837101922319493"><ele>324.0</ele><time>2026-04-15T16:28:57Z</time></trkpt><trkpt lat="44.54554736971738" lon="7.837052798725942"><ele>324.0</ele><time>2026-04-15T16:28:58Z</time></trkpt><trkpt lat="44.54544110583148" lon="7.8370027016888155"><ele>324.0</ele><time>2026-04-15T16:28:59Z</time></trkpt><trkpt lat="44.54532793717972" lon="7.8369482100604975"><ele>324.0</ele><time>2026-04-15T16:29:00Z</time></trkpt><trkpt lat="44.545217483448305" lon="7.836894517115401"><ele>324.0</ele><time>2026-04-15T16:29:01Z</time></trkpt><trkpt lat="44.54512950559542" lon="7.836842777136337"><ele>324.0</ele><time>2026-04-15T16:29:02Z</time></trkpt><trkpt lat="44.54503452850699" lon="7.836798881600523"><ele>323.3333333333333</ele><time>2026-04-15T16:29:03Z</time></trkpt><trkpt lat="44.54495772118057" lon="7.83674926639224"><ele>322.6666666666667</ele><time>2026-04-15T16:29:04Z</time></trkpt><trkpt lat="44.54488210558109" lon="7.836725917383761"><ele>322.0</ele><time>2026-04-15T16:29:05Z</time></trkpt><trkpt lat="44.54477272304537" lon="7.836748018884335"><ele>321.33333333333337</ele><time>2026-04-15T16:29:07Z</time></trkpt><trkpt lat="44.54470739428042" lon="7.836836791470689"><ele>320.6666666666667</ele><time>2026-04-15T16:29:09Z</time></trkpt><trkpt lat="44.54468685690471" lon="7.836926082916926"><ele>320.0</ele><time>2026-04-15T16:29:19Z</time></trkpt><trkpt lat="44.5446172027847" lon="7.8369194223591885"><ele>319.0</ele><time>2026-04-15T16:29:34.999Z</time></trkpt><trkpt lat="44.54453694149368" lon="7.836921636799305"><ele>318.0</ele><time>2026-04-15T16:29:38.999Z</time></trkpt><trkpt lat="44.54441928894788" lon="7.836916975029681"><ele>317.0</ele><time>2026-04-15T16:29:40.999Z</time></trkpt><trkpt lat="44.544312688044" lon="7.836899124722906"><ele>316.0</ele><time>2026-04-15T16:29:42.999Z</time></trkpt><trkpt lat="44.54422862749569" lon="7.836898558859679"><ele>315.0</ele><time>2026-04-15T16:29:43.999Z</time></trkpt><trkpt lat="44.54412630691762" lon="7.836871194574175"><ele>315.0</ele><time>2026-04-15T16:29:44.999Z</time></trkpt><trkpt lat="44.544041307628284" lon="7.836871522363003"><ele>315.0</ele><time>2026-04-15T16:29:45.999Z</time></trkpt><trkpt lat="44.543960228868" lon="7.836870843669899"><ele>315.0</ele><time>2026-04-15T16:29:46.999Z</time></trkpt><trkpt lat="44.54389296872232" lon="7.836868783106168"><ele>315.0</ele><time>2026-04-15T16:29:47.999Z</time></trkpt><trkpt lat="44.543828755685674" lon="7.836866815875561"><ele>315.0</ele><time>2026-04-15T16:29:48.999Z</time></trkpt><trkpt lat="44.543764577540074" lon="7.836862966128443"><ele>315.0</ele><time>2026-04-15T16:29:49.999Z</time></trkpt><trkpt lat="44.543698404830735" lon="7.836857566202106"><ele>315.0</ele><time>2026-04-15T16:29:50.999Z</time></trkpt><trkpt lat="44.543632870073814" lon="7.836873499536717"><ele>315.5</ele><time>2026-04-15T16:29:51.999Z</time></trkpt><trkpt lat="44.54357152523319" lon="7.836811960051155"><ele>316.0</ele><time>2026-04-15T16:29:53.999Z</time></trkpt><trkpt lat="44.54349541455456" lon="7.836748539267543"><ele>316.5</ele><time>2026-04-15T16:29:56.999Z</time></trkpt><trkpt lat="44.54343100112731" lon="7.836688275726741"><ele>317.0</ele><time>2026-04-15T16:29:58.999Z</time></trkpt><trkpt lat="44.54335938085664" lon="7.836705986265672"><ele>317.5</ele><time>2026-04-15T16:30:00.999Z</time></trkpt><trkpt lat="44.54335016031525" lon="7.836801771246737"><ele>318.0</ele><time>2026-04-15T16:30:02.999Z</time></trkpt><trkpt lat="44.54333166901141" lon="7.836990817138127"><ele>316.6</ele><time>2026-04-15T16:30:04.999Z</time></trkpt><trkpt lat="44.54331978297324" lon="7.837124013033121"><ele>315.20000000000005</ele><time>2026-04-15T16:30:05.999Z</time></trkpt><trkpt lat="44.543310532947025" lon="7.837252542776797"><ele>313.8</ele><time>2026-04-15T16:30:06.999Z</time></trkpt><trkpt lat="44.543294510897326" lon="7.837414678570288"><ele>312.40000000000003</ele><time>2026-04-15T16:30:07.999Z</time></trkpt><trkpt lat="44.54328877364355" lon="7.837587181592844"><ele>311.0</ele><time>2026-04-15T16:30:08.999Z</time></trkpt><trkpt lat="44.543283506266114" lon="7.837765227767363"><ele>311.0</ele><time>2026-04-15T16:30:09.999Z</time></trkpt><trkpt lat="44.5432805038458" lon="7.837952690323032"><ele>311.0</ele><time>2026-04-15T16:30:10.999Z</time></trkpt><trkpt lat="44.54327419100365" lon="7.838173180423279"><ele>311.0</ele><time>2026-04-15T16:30:11.999Z</time></trkpt><trkpt lat="44.5432664567134" lon="7.8383718488728045"><ele>311.0</ele><time>2026-04-15T16:30:12.999Z</time></trkpt><trkpt lat="44.54324528559158" lon="7.838610548869826"><ele>314.0</ele><time>2026-04-15T16:30:13.999Z</time></trkpt><trkpt lat="44.54323374032291" lon="7.838787555450869"><ele>317.0</ele><time>2026-04-15T16:30:14.999Z</time></trkpt><trkpt lat="44.54322499499203" lon="7.838951583168936"><ele>320.0</ele><time>2026-04-15T16:30:15.999Z</time></trkpt><trkpt lat="44.54322226275579" lon="7.839116679228739"><ele>323.0</ele><time>2026-04-15T16:30:16.999Z</time></trkpt><trkpt lat="44.5432116792802" lon="7.839300449322363"><ele>325.25</ele><time>2026-04-15T16:30:17.999Z</time></trkpt><trkpt lat="44.543200839651426" lon="7.839477959719651"><ele>327.5</ele><time>2026-04-15T16:30:18.999Z</time></trkpt><trkpt lat="44.54318743653601" lon="7.839654011884146"><ele>329.75</ele><time>2026-04-15T16:30:19.999Z</time></trkpt><trkpt lat="44.54317870198734" lon="7.839828973189808"><ele>332.0</ele><time>2026-04-15T16:30:20.999Z</time></trkpt><trkpt lat="44.54318259463854" lon="7.839999546618414"><ele>332.40000000000003</ele><time>2026-04-15T16:30:21.999Z</time></trkpt><trkpt lat="44.543191798455304" lon="7.840136337754603"><ele>332.8</ele><time>2026-04-15T16:30:22.999Z</time></trkpt><trkpt lat="44.54321941893106" lon="7.8403041650480665"><ele>333.2</ele><time>2026-04-15T16:30:23.999Z</time></trkpt><trkpt lat="44.54323476813406" lon="7.840443585116036"><ele>333.6</ele><time>2026-04-15T16:30:24.999Z</time></trkpt><trkpt lat="44.543240703102576" lon="7.840596916320126"><ele>334.0</ele><time>2026-04-15T16:30:25.999Z</time></trkpt><trkpt lat="44.54326241884998" lon="7.840741183750573"><ele>334.0</ele><time>2026-04-15T16:30:26.999Z</time></trkpt><trkpt lat="44.54327031706049" lon="7.840882449079945"><ele>334.0</ele><time>2026-04-15T16:30:27.998Z</time></trkpt><trkpt lat="44.54327849729935" lon="7.841034301919576"><ele>334.0</ele><time>2026-04-15T16:30:28.998Z</time></trkpt><trkpt lat="44.54329228038632" lon="7.841199149710249"><ele>334.0</ele><time>2026-04-15T16:30:29.998Z</time></trkpt><trkpt lat="44.543304367071705" lon="7.841359279815911"><ele>334.0</ele><time>2026-04-15T16:30:30.998Z</time></trkpt><trkpt lat="44.54332887424268" lon="7.841506176761861"><ele>334.2</ele><time>2026-04-15T16:30:31.998Z</time></trkpt><trkpt lat="44.54332160347081" lon="7.841662341624507"><ele>334.4</ele><time>2026-04-15T16:30:32.998Z</time></trkpt><trkpt lat="44.54333773925029" lon="7.841811247135431"><ele>334.6</ele><time>2026-04-15T16:30:33.998Z</time></trkpt><trkpt lat="44.54335224662823" lon="7.841966746865442"><ele>334.8</ele><time>2026-04-15T16:30:34.998Z</time></trkpt><trkpt lat="44.543366171123495" lon="7.842128839182761"><ele>335.0</ele><time>2026-04-15T16:30:35.998Z</time></trkpt><trkpt lat="44.54337821787542" lon="7.842302195227578"><ele>336.0</ele><time>2026-04-15T16:30:36.998Z</time></trkpt><trkpt lat="44.54338995690582" lon="7.842475283405588"><ele>337.0</ele><time>2026-04-15T16:30:37.998Z</time></trkpt><trkpt lat="44.54340643687996" lon="7.8426389638246095"><ele>338.0</ele><time>2026-04-15T16:30:39Z</time></trkpt><trkpt lat="44.543423184288955" lon="7.8427795839108745"><ele>339.0</ele><time>2026-04-15T16:30:40Z</time></trkpt><trkpt lat="44.543439764374405" lon="7.842939527552323"><ele>339.5</ele><time>2026-04-15T16:30:41Z</time></trkpt><trkpt lat="44.54345656944105" lon="7.843100329202492"><ele>340.0</ele><time>2026-04-15T16:30:42Z</time></trkpt><trkpt lat="44.54347459930066" lon="7.843268286388104"><ele>340.5</ele><time>2026-04-15T16:30:43Z</time></trkpt><trkpt lat="44.54349546695949" lon="7.8434445391231105"><ele>341.0</ele><time>2026-04-15T16:30:44Z</time></trkpt><trkpt lat="44.54351944411792" lon="7.843613735898034"><ele>341.25</ele><time>2026-04-15T16:30:45Z</time></trkpt><trkpt lat="44.54354983390309" lon="7.843790987254224"><ele>341.5</ele><time>2026-04-15T16:30:46Z</time></trkpt><trkpt lat="44.54358410616595" lon="7.843961797477391"><ele>341.75</ele><time>2026-04-15T16:30:47Z</time></trkpt><trkpt lat="44.5436279874309" lon="7.844144866418749"><ele>342.0</ele><time>2026-04-15T16:30:48Z</time></trkpt><trkpt lat="44.543684575017096" lon="7.844332677958053"><ele>342.3333333333333</ele><time>2026-04-15T16:30:49Z</time></trkpt><trkpt lat="44.54374832144513" lon="7.844531077075313"><ele>342.66666666666663</ele><time>2026-04-15T16:30:50Z</time></trkpt><trkpt lat="44.54380921125439" lon="7.844722055309391"><ele>343.0</ele><time>2026-04-15T16:30:51Z</time></trkpt><trkpt lat="44.54387419447928" lon="7.844926904239545"><ele>343.0</ele><time>2026-04-15T16:30:52Z</time></trkpt><trkpt lat="44.54394185891045" lon="7.845139765963506"><ele>343.0</ele><time>2026-04-15T16:30:53Z</time></trkpt><trkpt lat="44.544008326830735" lon="7.845347544534281"><ele>343.0</ele><time>2026-04-15T16:30:54Z</time></trkpt><trkpt lat="44.544071763367725" lon="7.845535615183327"><ele>343.0</ele><time>2026-04-15T16:30:55Z</time></trkpt><trkpt lat="44.54412969133787" lon="7.845714174067143"><ele>343.0</ele><time>2026-04-15T16:30:56Z</time></trkpt><trkpt lat="44.544186923948615" lon="7.8458847911394"><ele>343.0</ele><time>2026-04-15T16:30:57Z</time></trkpt><trkpt lat="44.54423317385555" lon="7.846045096258178"><ele>343.0</ele><time>2026-04-15T16:30:58Z</time></trkpt><trkpt lat="44.544278167298344" lon="7.846193832820536"><ele>343.0</ele><time>2026-04-15T16:30:59Z</time></trkpt><trkpt lat="44.54431612064554" lon="7.846331653852275"><ele>343.0</ele><time>2026-04-15T16:31:00Z</time></trkpt><trkpt lat="44.544346715546574" lon="7.846490986262312"><ele>343.0</ele><time>2026-04-15T16:31:01Z</time></trkpt><trkpt lat="44.54436568294188" lon="7.846662856752965"><ele>343.0</ele><time>2026-04-15T16:31:02Z</time></trkpt><trkpt lat="44.544361922083866" lon="7.846825196343587"><ele>342.5</ele><time>2026-04-15T16:31:03Z</time></trkpt><trkpt lat="44.544346735434964" lon="7.846994481470094"><ele>342.0</ele><time>2026-04-15T16:31:04Z</time></trkpt><trkpt lat="44.54431866314481" lon="7.84716607470139"><ele>341.5</ele><time>2026-04-15T16:31:05Z</time></trkpt><trkpt lat="44.54427943016274" lon="7.847338127428728"><ele>341.0</ele><time>2026-04-15T16:31:06Z</time></trkpt><trkpt lat="44.544226231738755" lon="7.847516792453476"><ele>341.25</ele><time>2026-04-15T16:31:07Z</time></trkpt><trkpt lat="44.54415765888445" lon="7.847690244094963"><ele>341.5</ele><time>2026-04-15T16:31:08Z</time></trkpt><trkpt lat="44.544078080186544" lon="7.847865859001584"><ele>341.75</ele><time>2026-04-15T16:31:09Z</time></trkpt><trkpt lat="44.543996444077145" lon="7.848049203648989"><ele>342.0</ele><time>2026-04-15T16:31:10Z</time></trkpt><trkpt lat="44.54391670131412" lon="7.848237788396664"><ele>342.0</ele><time>2026-04-15T16:31:11Z</time></trkpt><trkpt lat="44.543828150622396" lon="7.848423840249898"><ele>342.0</ele><time>2026-04-15T16:31:12Z</time></trkpt><trkpt lat="44.54374109961761" lon="7.848615533106818"><ele>342.0</ele><time>2026-04-15T16:31:13Z</time></trkpt><trkpt lat="44.54363699441605" lon="7.84880609716695"><ele>342.3333333333333</ele><time>2026-04-15T16:31:14Z</time></trkpt><trkpt lat="44.54353545660117" lon="7.848999162709545"><ele>342.66666666666663</ele><time>2026-04-15T16:31:15Z</time></trkpt><trkpt lat="44.54342761838178" lon="7.849194018772389"><ele>343.0</ele><time>2026-04-15T16:31:16Z</time></trkpt><trkpt lat="44.5433171458047" lon="7.8493945202990565"><ele>343.66666666666663</ele><time>2026-04-15T16:31:17Z</time></trkpt><trkpt lat="44.54319560191723" lon="7.849594543838911"><ele>344.3333333333333</ele><time>2026-04-15T16:31:18Z</time></trkpt><trkpt lat="44.54308308075439" lon="7.849800101525014"><ele>345.0</ele><time>2026-04-15T16:31:19Z</time></trkpt><trkpt lat="44.542967819653185" lon="7.850001006574083"><ele>347.3333333333333</ele><time>2026-04-15T16:31:20Z</time></trkpt><trkpt lat="44.542855576566176" lon="7.850196296093535"><ele>349.66666666666663</ele><time>2026-04-15T16:31:21Z</time></trkpt><trkpt lat="44.54274165583128" lon="7.850401570102848"><ele>352.0</ele><time>2026-04-15T16:31:22Z</time></trkpt><trkpt lat="44.54263676895629" lon="7.850578129428492"><ele>352.0</ele><time>2026-04-15T16:31:23Z</time></trkpt><trkpt lat="44.54254125801494" lon="7.850733538227035"><ele>352.0</ele><time>2026-04-15T16:31:24Z</time></trkpt><trkpt lat="44.542450212713064" lon="7.850877656419621"><ele>352.0</ele><time>2026-04-15T16:31:25Z</time></trkpt><trkpt lat="44.542380645317" lon="7.851001476023134"><ele>352.0</ele><time>2026-04-15T16:31:26Z</time></trkpt><trkpt lat="44.54231018354326" lon="7.8511089049134775"><ele>352.6</ele><time>2026-04-15T16:31:26.999Z</time></trkpt><trkpt lat="44.542237452362656" lon="7.851208577538066"><ele>353.20000000000005</ele><time>2026-04-15T16:31:27.999Z</time></trkpt><trkpt lat="44.54215882606402" lon="7.8513020149142285"><ele>353.8</ele><time>2026-04-15T16:31:28.999Z</time></trkpt><trkpt lat="44.54208623386439" lon="7.851380877248099"><ele>354.4</ele><time>2026-04-15T16:31:29.999Z</time></trkpt><trkpt lat="44.54200568714756" lon="7.851457064529672"><ele>355.0</ele><time>2026-04-15T16:31:30.999Z</time></trkpt><trkpt lat="44.54192398884639" lon="7.851537096883721"><ele>355.5</ele><time>2026-04-15T16:31:31.999Z</time></trkpt><trkpt lat="44.541833400139915" lon="7.8516161922071515"><ele>356.0</ele><time>2026-04-15T16:31:32.999Z</time></trkpt><trkpt lat="44.54173869058162" lon="7.851702809922719"><ele>356.5</ele><time>2026-04-15T16:31:33.999Z</time></trkpt><trkpt lat="44.54163212596533" lon="7.851800703258572"><ele>357.0</ele><time>2026-04-15T16:31:34.999Z</time></trkpt><trkpt lat="44.541540011457606" lon="7.851889980335086"><ele>357.0</ele><time>2026-04-15T16:31:35.999Z</time></trkpt><trkpt lat="44.5414456110068" lon="7.851978751449633"><ele>357.0</ele><time>2026-04-15T16:31:36.999Z</time></trkpt><trkpt lat="44.541353947950945" lon="7.852057686202168"><ele>357.0</ele><time>2026-04-15T16:31:37.999Z</time></trkpt><trkpt lat="44.541266850167844" lon="7.852141278135328"><ele>357.0</ele><time>2026-04-15T16:31:38.999Z</time></trkpt><trkpt lat="44.54117412056539" lon="7.852227470473532"><ele>357.0</ele><time>2026-04-15T16:31:39.999Z</time></trkpt><trkpt lat="44.54108510202261" lon="7.852310755052466"><ele>357.20000000000005</ele><time>2026-04-15T16:31:40.999Z</time></trkpt><trkpt lat="44.54100560967595" lon="7.852394518781817"><ele>357.4</ele><time>2026-04-15T16:31:41.999Z</time></trkpt><trkpt lat="44.54092647281941" lon="7.852490467042165"><ele>357.6</ele><time>2026-04-15T16:31:42.999Z</time></trkpt><trkpt lat="44.54086147812128" lon="7.852609581005743"><ele>357.79999999999995</ele><time>2026-04-15T16:31:43.999Z</time></trkpt><trkpt lat="44.540805692713164" lon="7.852748097844298"><ele>358.0</ele><time>2026-04-15T16:31:44.999Z</time></trkpt><trkpt lat="44.54074078489244" lon="7.852901728275641"><ele>358.0</ele><time>2026-04-15T16:31:45.999Z</time></trkpt><trkpt lat="44.54068674690376" lon="7.8530627054026345"><ele>358.0</ele><time>2026-04-15T16:31:46.999Z</time></trkpt><trkpt lat="44.540627094916246" lon="7.85323596211622"><ele>358.0</ele><time>2026-04-15T16:31:47.999Z</time></trkpt><trkpt lat="44.54057111673323" lon="7.853404195331405"><ele>358.0</ele><time>2026-04-15T16:31:48.999Z</time></trkpt><trkpt lat="44.540522820003545" lon="7.853544378939047"><ele>358.0</ele><time>2026-04-15T16:31:49.999Z</time></trkpt><trkpt lat="44.54047313625744" lon="7.853674020213042"><ele>358.0</ele><time>2026-04-15T16:31:50.999Z</time></trkpt><trkpt lat="44.54041686996919" lon="7.853800130823189"><ele>358.0</ele><time>2026-04-15T16:31:51.999Z</time></trkpt><trkpt lat="44.540357727283876" lon="7.853923084776112"><ele>358.0</ele><time>2026-04-15T16:31:52.999Z</time></trkpt><trkpt lat="44.540288412777834" lon="7.854044877045935"><ele>358.0</ele><time>2026-04-15T16:31:53.999Z</time></trkpt><trkpt lat="44.540199359975425" lon="7.854158941961834"><ele>358.0</ele><time>2026-04-15T16:31:54.999Z</time></trkpt><trkpt lat="44.54010255892044" lon="7.8542745981276"><ele>358.0</ele><time>2026-04-15T16:31:55.999Z</time></trkpt><trkpt lat="44.53998131480473" lon="7.854368505763374"><ele>358.0</ele><time>2026-04-15T16:31:56.999Z</time></trkpt><trkpt lat="44.53986447205041" lon="7.85448252221614"><ele>358.0</ele><time>2026-04-15T16:31:57.999Z</time></trkpt><trkpt lat="44.53974376339254" lon="7.854599212614619"><ele>358.0</ele><time>2026-04-15T16:31:58.999Z</time></trkpt><trkpt lat="44.53962758707702" lon="7.8547103168895"><ele>358.0</ele><time>2026-04-15T16:31:59.999Z</time></trkpt><trkpt lat="44.539523866566036" lon="7.854808083539391"><ele>358.0</ele><time>2026-04-15T16:32:00.999Z</time></trkpt><trkpt lat="44.539430240889004" lon="7.854902514672531"><ele>358.0</ele><time>2026-04-15T16:32:01.999Z</time></trkpt><trkpt lat="44.539346850277695" lon="7.855018588307941"><ele>358.0</ele><time>2026-04-15T16:32:02.999Z</time></trkpt><trkpt lat="44.53927099944137" lon="7.855112184311533"><ele>358.0</ele><time>2026-04-15T16:32:03.999Z</time></trkpt><trkpt lat="44.5392024057229" lon="7.855222837221942"><ele>358.0</ele><time>2026-04-15T16:32:04.999Z</time></trkpt><trkpt lat="44.539144305254595" lon="7.8553440382506325"><ele>358.0</ele><time>2026-04-15T16:32:05.999Z</time></trkpt><trkpt lat="44.53909576302753" lon="7.855464564886365"><ele>358.0</ele><time>2026-04-15T16:32:06.999Z</time></trkpt><trkpt lat="44.53904950154529" lon="7.855585913311003"><ele>357.79999999999995</ele><time>2026-04-15T16:32:07.999Z</time></trkpt><trkpt lat="44.53901724553722" lon="7.855716872399331"><ele>357.6</ele><time>2026-04-15T16:32:08.999Z</time></trkpt><trkpt lat="44.538990692037025" lon="7.855854045318382"><ele>357.4</ele><time>2026-04-15T16:32:09.999Z</time></trkpt><trkpt lat="44.53896439448146" lon="7.855988272017384"><ele>357.20000000000005</ele><time>2026-04-15T16:32:10.999Z</time></trkpt><trkpt lat="44.53896227992248" lon="7.85612281398589"><ele>357.0</ele><time>2026-04-15T16:32:11.999Z</time></trkpt><trkpt lat="44.538964479517084" lon="7.856256234782533"><ele>356.8</ele><time>2026-04-15T16:32:12.999Z</time></trkpt><trkpt lat="44.53897885211667" lon="7.856380005733416"><ele>356.6</ele><time>2026-04-15T16:32:13.999Z</time></trkpt><trkpt lat="44.53899738234884" lon="7.856510581367299"><ele>356.40000000000003</ele><time>2026-04-15T16:32:14.999Z</time></trkpt><trkpt lat="44.53902744826475" lon="7.8566584820147005"><ele>356.20000000000005</ele><time>2026-04-15T16:32:15.999Z</time></trkpt><trkpt lat="44.53906799517913" lon="7.856818393303833"><ele>356.0</ele><time>2026-04-15T16:32:16.999Z</time></trkpt><trkpt lat="44.539104946125335" lon="7.856979503026172"><ele>356.0</ele><time>2026-04-15T16:32:17.999Z</time></trkpt><trkpt lat="44.53913960867205" lon="7.857115473635237"><ele>356.0</ele><time>2026-04-15T16:32:18.999Z</time></trkpt><trkpt lat="44.53917669279958" lon="7.857259085026408"><ele>356.0</ele><time>2026-04-15T16:32:19.999Z</time></trkpt><trkpt lat="44.53920534438325" lon="7.857388837920999"><ele>356.0</ele><time>2026-04-15T16:32:20.999Z</time></trkpt><trkpt lat="44.53923607072999" lon="7.857515773601837"><ele>356.0</ele><time>2026-04-15T16:32:21.999Z</time></trkpt><trkpt lat="44.53926202464669" lon="7.857642672160566"><ele>355.0</ele><time>2026-04-15T16:32:22.999Z</time></trkpt><trkpt lat="44.53927966587691" lon="7.857777015327528"><ele>354.0</ele><time>2026-04-15T16:32:23.999Z</time></trkpt><trkpt lat="44.53928074869305" lon="7.857933402798082"><ele>353.0</ele><time>2026-04-15T16:32:24.999Z</time></trkpt><trkpt lat="44.53928392346116" lon="7.85810110699298"><ele>352.0</ele><time>2026-04-15T16:32:25.999Z</time></trkpt><trkpt lat="44.53928688143593" lon="7.8582976139315805"><ele>351.66666666666663</ele><time>2026-04-15T16:32:26.999Z</time></trkpt><trkpt lat="44.53926707832671" lon="7.858511079844988"><ele>351.3333333333333</ele><time>2026-04-15T16:32:27.999Z</time></trkpt><trkpt lat="44.539255969242774" lon="7.858726922285383"><ele>351.0</ele><time>2026-04-15T16:32:28.999Z</time></trkpt><trkpt lat="44.53924525048916" lon="7.8589473441876665"><ele>351.0</ele><time>2026-04-15T16:32:29.998Z</time></trkpt><trkpt lat="44.53923360407345" lon="7.859172079082369"><ele>351.0</ele><time>2026-04-15T16:32:30.998Z</time></trkpt><trkpt lat="44.53922777813747" lon="7.859413853374627"><ele>351.0</ele><time>2026-04-15T16:32:31.998Z</time></trkpt><trkpt lat="44.5392204018841" lon="7.859645067832623"><ele>350.6666666666667</ele><time>2026-04-15T16:32:32.998Z</time></trkpt><trkpt lat="44.5392065695226" lon="7.859869628025926"><ele>350.33333333333337</ele><time>2026-04-15T16:32:33.998Z</time></trkpt><trkpt lat="44.539198348288956" lon="7.8600826946843245"><ele>350.0</ele><time>2026-04-15T16:32:34.998Z</time></trkpt><trkpt lat="44.539195490453736" lon="7.860287860212931"><ele>349.75</ele><time>2026-04-15T16:32:35.998Z</time></trkpt><trkpt lat="44.5391898774944" lon="7.860483868132801"><ele>349.5</ele><time>2026-04-15T16:32:36.998Z</time></trkpt><trkpt lat="44.53918171543801" lon="7.860677154571128"><ele>349.25</ele><time>2026-04-15T16:32:37.998Z</time></trkpt><trkpt lat="44.53916945839808" lon="7.860850625703678"><ele>349.0</ele><time>2026-04-15T16:32:38.998Z</time></trkpt><trkpt lat="44.53916224840864" lon="7.861039334443563"><ele>348.75</ele><time>2026-04-15T16:32:39.998Z</time></trkpt><trkpt lat="44.53915292358906" lon="7.861223851665283"><ele>348.5</ele><time>2026-04-15T16:32:40.998Z</time></trkpt><trkpt lat="44.53914485118082" lon="7.8613878103659625"><ele>348.25</ele><time>2026-04-15T16:32:41.998Z</time></trkpt><trkpt lat="44.539142635900156" lon="7.861543148482166"><ele>348.0</ele><time>2026-04-15T16:32:42.998Z</time></trkpt><trkpt lat="44.53913997869622" lon="7.861697971175662"><ele>348.0</ele><time>2026-04-15T16:32:43.998Z</time></trkpt><trkpt lat="44.53913579954146" lon="7.861837179134267"><ele>348.0</ele><time>2026-04-15T16:32:45Z</time></trkpt><trkpt lat="44.539131644288574" lon="7.8619645360783705"><ele>348.0</ele><time>2026-04-15T16:32:46Z</time></trkpt><trkpt lat="44.53913329451027" lon="7.8621006176550505"><ele>348.0</ele><time>2026-04-15T16:32:47Z</time></trkpt><trkpt lat="44.53914536500644" lon="7.862235060929348"><ele>348.0</ele><time>2026-04-15T16:32:48Z</time></trkpt><trkpt lat="44.539168498583706" lon="7.86236826284914"><ele>348.0</ele><time>2026-04-15T16:32:49Z</time></trkpt><trkpt lat="44.53921082132842" lon="7.862492058075069"><ele>348.0</ele><time>2026-04-15T16:32:50Z</time></trkpt><trkpt lat="44.539274235741495" lon="7.8626088007938035"><ele>348.0</ele><time>2026-04-15T16:32:51Z</time></trkpt><trkpt lat="44.53933694165307" lon="7.862728340017094"><ele>348.0</ele><time>2026-04-15T16:32:52Z</time></trkpt><trkpt lat="44.53941564512732" lon="7.8628448708154774"><ele>348.0</ele><time>2026-04-15T16:32:53Z</time></trkpt><trkpt lat="44.53949694253257" lon="7.862945388566322"><ele>348.4</ele><time>2026-04-15T16:32:54Z</time></trkpt><trkpt lat="44.53958046632925" lon="7.863035392156629"><ele>348.79999999999995</ele><time>2026-04-15T16:32:55Z</time></trkpt><trkpt lat="44.53967221858045" lon="7.863081588015477"><ele>349.2</ele><time>2026-04-15T16:32:56Z</time></trkpt><trkpt lat="44.5397665331007" lon="7.863113921122583"><ele>349.6</ele><time>2026-04-15T16:32:57Z</time></trkpt><trkpt lat="44.539866379946204" lon="7.863134347428032"><ele>350.0</ele><time>2026-04-15T16:32:58Z</time></trkpt><trkpt lat="44.53997460046929" lon="7.863170683219883"><ele>350.0</ele><time>2026-04-15T16:32:59Z</time></trkpt><trkpt lat="44.54007530736802" lon="7.863171501778283"><ele>350.0</ele><time>2026-04-15T16:33:00Z</time></trkpt><trkpt lat="44.5401885935118" lon="7.863171803830642"><ele>350.0</ele><time>2026-04-15T16:33:01Z</time></trkpt><trkpt lat="44.54030595342855" lon="7.8631707055317035"><ele>350.0</ele><time>2026-04-15T16:33:02Z</time></trkpt><trkpt lat="44.54041576595537" lon="7.863163978214865"><ele>350.0</ele><time>2026-04-15T16:33:03Z</time></trkpt><trkpt lat="44.540519282263745" lon="7.86316314450951"><ele>349.25</ele><time>2026-04-15T16:33:04Z</time></trkpt><trkpt lat="44.540636843894745" lon="7.863158123404489"><ele>348.5</ele><time>2026-04-15T16:33:05Z</time></trkpt><trkpt lat="44.540750912875936" lon="7.8631546301744"><ele>347.75</ele><time>2026-04-15T16:33:06Z</time></trkpt><trkpt lat="44.54086184524746" lon="7.863152438389232"><ele>347.0</ele><time>2026-04-15T16:33:07Z</time></trkpt><trkpt lat="44.54097802625429" lon="7.863151435211145"><ele>347.0</ele><time>2026-04-15T16:33:08Z</time></trkpt><trkpt lat="44.541091638192704" lon="7.863156097558339"><ele>347.0</ele><time>2026-04-15T16:33:09Z</time></trkpt><trkpt lat="44.54122100756424" lon="7.863148045571047"><ele>347.0</ele><time>2026-04-15T16:33:10Z</time></trkpt><trkpt lat="44.54134131594802" lon="7.863152494668838"><ele>347.0</ele><time>2026-04-15T16:33:11Z</time></trkpt><trkpt lat="44.54145873993044" lon="7.863152209307183"><ele>347.0</ele><time>2026-04-15T16:33:12Z</time></trkpt><trkpt lat="44.541591917005555" lon="7.863142224055435"><ele>347.0</ele><time>2026-04-15T16:33:13Z</time></trkpt><trkpt lat="44.54173248474645" lon="7.863144527298562"><ele>347.0</ele><time>2026-04-15T16:33:14Z</time></trkpt><trkpt lat="44.5418667156514" lon="7.86314145715435"><ele>347.0</ele><time>2026-04-15T16:33:15Z</time></trkpt><trkpt lat="44.54201544776692" lon="7.863137562184522"><ele>347.33333333333337</ele><time>2026-04-15T16:33:16Z</time></trkpt><trkpt lat="44.542173753152575" lon="7.863126908689688"><ele>347.6666666666667</ele><time>2026-04-15T16:33:17Z</time></trkpt><trkpt lat="44.54232983585184" lon="7.863122144687179"><ele>348.0</ele><time>2026-04-15T16:33:18Z</time></trkpt><trkpt lat="44.54248706004812" lon="7.863118735377672"><ele>348.0</ele><time>2026-04-15T16:33:19Z</time></trkpt><trkpt lat="44.542636093928664" lon="7.863110078165399"><ele>348.0</ele><time>2026-04-15T16:33:20Z</time></trkpt><trkpt lat="44.54277659013314" lon="7.863117678492833"><ele>348.0</ele><time>2026-04-15T16:33:21Z</time></trkpt><trkpt lat="44.54290329930156" lon="7.863125509977503"><ele>348.0</ele><time>2026-04-15T16:33:22Z</time></trkpt><trkpt lat="44.543023793169894" lon="7.863143840093621"><ele>348.25</ele><time>2026-04-15T16:33:23Z</time></trkpt><trkpt lat="44.5431373273037" lon="7.86317122586817"><ele>348.5</ele><time>2026-04-15T16:33:24Z</time></trkpt><trkpt lat="44.543246666319455" lon="7.8632103723918"><ele>348.75</ele><time>2026-04-15T16:33:25Z</time></trkpt><trkpt lat="44.54336518171679" lon="7.863272443832485"><ele>349.0</ele><time>2026-04-15T16:33:26Z</time></trkpt><trkpt lat="44.54346437689603" lon="7.863352393222514"><ele>349.0</ele><time>2026-04-15T16:33:27Z</time></trkpt><trkpt lat="44.54357475685086" lon="7.863456096711413"><ele>349.0</ele><time>2026-04-15T16:33:28Z</time></trkpt><trkpt lat="44.54368168356762" lon="7.863563148183034"><ele>349.0</ele><time>2026-04-15T16:33:29Z</time></trkpt><trkpt lat="44.54379230769807" lon="7.8636860950668135"><ele>349.0</ele><time>2026-04-15T16:33:30Z</time></trkpt><trkpt lat="44.54390300077737" lon="7.863813760131307"><ele>349.0</ele><time>2026-04-15T16:33:30.999Z</time></trkpt><trkpt lat="44.54401257732656" lon="7.863947641570193"><ele>349.0</ele><time>2026-04-15T16:33:31.999Z</time></trkpt><trkpt lat="44.54413056812707" lon="7.864085603640773"><ele>349.0</ele><time>2026-04-15T16:33:32.999Z</time></trkpt><trkpt lat="44.54424662517481" lon="7.864218052201338"><ele>349.0</ele><time>2026-04-15T16:33:33.999Z</time></trkpt><trkpt lat="44.54435441540674" lon="7.8643612760594825"><ele>349.0</ele><time>2026-04-15T16:33:34.999Z</time></trkpt><trkpt lat="44.54445807513855" lon="7.864483478215012"><ele>349.0</ele><time>2026-04-15T16:33:35.999Z</time></trkpt><trkpt lat="44.54456303610021" lon="7.8646049972764995"><ele>349.0</ele><time>2026-04-15T16:33:36.999Z</time></trkpt><trkpt lat="44.54466754861193" lon="7.8647354068215405"><ele>349.0</ele><time>2026-04-15T16:33:37.999Z</time></trkpt><trkpt lat="44.54477519421847" lon="7.864851021224614"><ele>349.0</ele><time>2026-04-15T16:33:38.999Z</time></trkpt><trkpt lat="44.54487606618907" lon="7.8649735719028735"><ele>349.0</ele><time>2026-04-15T16:33:39.999Z</time></trkpt><trkpt lat="44.544986094828936" lon="7.865092318467465"><ele>349.0</ele><time>2026-04-15T16:33:40.999Z</time></trkpt><trkpt lat="44.54509388559886" lon="7.8652198661722"><ele>349.0</ele><time>2026-04-15T16:33:41.999Z</time></trkpt><trkpt lat="44.54520568369359" lon="7.865330695932109"><ele>349.0</ele><time>2026-04-15T16:33:42.999Z</time></trkpt><trkpt lat="44.545314424758395" lon="7.865437463967116"><ele>349.0</ele><time>2026-04-15T16:33:43.999Z</time></trkpt><trkpt lat="44.54544105744679" lon="7.865528208217713"><ele>349.0</ele><time>2026-04-15T16:33:44.999Z</time></trkpt><trkpt lat="44.54556859752006" lon="7.865621586673892"><ele>349.0</ele><time>2026-04-15T16:33:45.999Z</time></trkpt><trkpt lat="44.54570181623886" lon="7.865712749957555"><ele>349.0</ele><time>2026-04-15T16:33:46.999Z</time></trkpt><trkpt lat="44.54584337691444" lon="7.865790130470733"><ele>349.0</ele><time>2026-04-15T16:33:47.999Z</time></trkpt><trkpt lat="44.54598406490686" lon="7.865893375919223"><ele>349.0</ele><time>2026-04-15T16:33:48.999Z</time></trkpt><trkpt lat="44.546129017336035" lon="7.865984784502644"><ele>348.3333333333333</ele><time>2026-04-15T16:33:49.999Z</time></trkpt><trkpt lat="44.54626738528502" lon="7.866078530059995"><ele>347.6666666666667</ele><time>2026-04-15T16:33:50.999Z</time></trkpt><trkpt lat="44.546411337065976" lon="7.8661796663851105"><ele>347.0</ele><time>2026-04-15T16:33:51.999Z</time></trkpt><trkpt lat="44.54655069837158" lon="7.866277098982075"><ele>347.0</ele><time>2026-04-15T16:33:52.999Z</time></trkpt><trkpt lat="44.54669923562724" lon="7.8663860566521855"><ele>347.0</ele><time>2026-04-15T16:33:53.999Z</time></trkpt><trkpt lat="44.54684807971238" lon="7.866482084019903"><ele>347.0</ele><time>2026-04-15T16:33:54.999Z</time></trkpt><trkpt lat="44.546992889341254" lon="7.8665801609484465"><ele>347.0</ele><time>2026-04-15T16:33:55.999Z</time></trkpt><trkpt lat="44.547132228794105" lon="7.866681844682904"><ele>347.0</ele><time>2026-04-15T16:33:56.999Z</time></trkpt><trkpt lat="44.547274917966654" lon="7.86678644635361"><ele>347.0</ele><time>2026-04-15T16:33:57.999Z</time></trkpt><trkpt lat="44.54741843496831" lon="7.866887708954244"><ele>347.0</ele><time>2026-04-15T16:33:58.999Z</time></trkpt><trkpt lat="44.54756316925218" lon="7.8669700621330385"><ele>347.0</ele><time>2026-04-15T16:33:59.999Z</time></trkpt><trkpt lat="44.547697688336626" lon="7.867056701982614"><ele>347.0</ele><time>2026-04-15T16:34:00.999Z</time></trkpt><trkpt lat="44.547835078242414" lon="7.867154669815196"><ele>347.0</ele><time>2026-04-15T16:34:01.999Z</time></trkpt><trkpt lat="44.5479697790739" lon="7.867253640699317"><ele>347.0</ele><time>2026-04-15T16:34:02.999Z</time></trkpt><trkpt lat="44.5481077137015" lon="7.867351714165943"><ele>347.0</ele><time>2026-04-15T16:34:03.999Z</time></trkpt><trkpt lat="44.54824902159255" lon="7.867448835474945"><ele>347.0</ele><time>2026-04-15T16:34:04.999Z</time></trkpt><trkpt lat="44.54838371120973" lon="7.867540156752753"><ele>347.0</ele><time>2026-04-15T16:34:05.999Z</time></trkpt><trkpt lat="44.54851692521842" lon="7.86763292431435"><ele>347.0</ele><time>2026-04-15T16:34:06.999Z</time></trkpt><trkpt lat="44.54865753568133" lon="7.86772554766361"><ele>347.0</ele><time>2026-04-15T16:34:07.999Z</time></trkpt><trkpt lat="44.5487957929025" lon="7.867812290761134"><ele>347.0</ele><time>2026-04-15T16:34:08.999Z</time></trkpt><trkpt lat="44.54892790353441" lon="7.8679131245394185"><ele>347.0</ele><time>2026-04-15T16:34:09.999Z</time></trkpt><trkpt lat="44.54905511019675" lon="7.867998616092609"><ele>347.0</ele><time>2026-04-15T16:34:10.999Z</time></trkpt><trkpt lat="44.54919278893828" lon="7.868095294404228"><ele>347.0</ele><time>2026-04-15T16:34:11.999Z</time></trkpt><trkpt lat="44.5493288579408" lon="7.868182472028738"><ele>347.0</ele><time>2026-04-15T16:34:12.999Z</time></trkpt><trkpt lat="44.549451682193734" lon="7.868267970997393"><ele>347.0</ele><time>2026-04-15T16:34:13.999Z</time></trkpt><trkpt lat="44.5495736985793" lon="7.868346899545619"><ele>347.0</ele><time>2026-04-15T16:34:14.999Z</time></trkpt><trkpt lat="44.549699939743746" lon="7.8684286860426385"><ele>346.75</ele><time>2026-04-15T16:34:15.999Z</time></trkpt><trkpt lat="44.54983771061853" lon="7.868508905705496"><ele>346.5</ele><time>2026-04-15T16:34:16.999Z</time></trkpt><trkpt lat="44.54997104511483" lon="7.868577752279325"><ele>346.25</ele><time>2026-04-15T16:34:17.999Z</time></trkpt><trkpt lat="44.550088506171704" lon="7.86864756372096"><ele>346.0</ele><time>2026-04-15T16:34:18.999Z</time></trkpt><trkpt lat="44.550202109585165" lon="7.868709028777292"><ele>346.0</ele><time>2026-04-15T16:34:19.999Z</time></trkpt><trkpt lat="44.5502992803299" lon="7.868765854842932"><ele>346.0</ele><time>2026-04-15T16:34:20.999Z</time></trkpt><trkpt lat="44.5503990929985" lon="7.868816605501972"><ele>346.0</ele><time>2026-04-15T16:34:21.999Z</time></trkpt><trkpt lat="44.55049749303597" lon="7.868870663485456"><ele>346.0</ele><time>2026-04-15T16:34:22.999Z</time></trkpt><trkpt lat="44.55060073377342" lon="7.868925585757268"><ele>346.0</ele><time>2026-04-15T16:34:23.999Z</time></trkpt><trkpt lat="44.55069860991315" lon="7.8689735916758545"><ele>346.20000000000005</ele><time>2026-04-15T16:34:24.999Z</time></trkpt><trkpt lat="44.5508076619634" lon="7.869035001939725"><ele>346.40000000000003</ele><time>2026-04-15T16:34:25.999Z</time></trkpt><trkpt lat="44.550903461005596" lon="7.869089427576481"><ele>346.6</ele><time>2026-04-15T16:34:26.999Z</time></trkpt><trkpt lat="44.55100755131293" lon="7.86914872279905"><ele>346.8</ele><time>2026-04-15T16:34:27.999Z</time></trkpt><trkpt lat="44.55111442589635" lon="7.869207107687509"><ele>347.0</ele><time>2026-04-15T16:34:28.999Z</time></trkpt><trkpt lat="44.551225067158114" lon="7.869268112546169"><ele>346.8</ele><time>2026-04-15T16:34:29.999Z</time></trkpt><trkpt lat="44.551333410127626" lon="7.869329628265185"><ele>346.6</ele><time>2026-04-15T16:34:30.999Z</time></trkpt><trkpt lat="44.55143154827132" lon="7.869377867114536"><ele>346.40000000000003</ele><time>2026-04-15T16:34:31.999Z</time></trkpt><trkpt lat="44.55153537805737" lon="7.86943230360609"><ele>346.20000000000005</ele><time>2026-04-15T16:34:32.999Z</time></trkpt><trkpt lat="44.551638703612404" lon="7.869487259757619"><ele>346.0</ele><time>2026-04-15T16:34:33.998Z</time></trkpt><trkpt lat="44.551739214727604" lon="7.869527010667864"><ele>346.0</ele><time>2026-04-15T16:34:34.998Z</time></trkpt><trkpt lat="44.551839734544885" lon="7.869582339568875"><ele>346.0</ele><time>2026-04-15T16:34:35.998Z</time></trkpt><trkpt lat="44.55193971649237" lon="7.869646587971121"><ele>346.0</ele><time>2026-04-15T16:34:36.998Z</time></trkpt><trkpt lat="44.5520324827472" lon="7.8697136619975145"><ele>346.0</ele><time>2026-04-15T16:34:37.998Z</time></trkpt><trkpt lat="44.55212996194882" lon="7.869783286199822"><ele>346.0</ele><time>2026-04-15T16:34:38.998Z</time></trkpt><trkpt lat="44.5522220581313" lon="7.869847071935207"><ele>345.8</ele><time>2026-04-15T16:34:39.998Z</time></trkpt><trkpt lat="44.55230412666532" lon="7.869907553894723"><ele>345.6</ele><time>2026-04-15T16:34:40.998Z</time></trkpt><trkpt lat="44.55239370418774" lon="7.869988111013877"><ele>345.4</ele><time>2026-04-15T16:34:41.998Z</time></trkpt><trkpt lat="44.55248234647996" lon="7.87007011990129"><ele>345.2</ele><time>2026-04-15T16:34:42.998Z</time></trkpt><trkpt lat="44.55257060160525" lon="7.870154977106971"><ele>345.0</ele><time>2026-04-15T16:34:43.998Z</time></trkpt><trkpt lat="44.55264754782139" lon="7.870233980229343"><ele>345.0</ele><time>2026-04-15T16:34:44.998Z</time></trkpt><trkpt lat="44.552722742876604" lon="7.870318916723167"><ele>345.0</ele><time>2026-04-15T16:34:45.998Z</time></trkpt><trkpt lat="44.55279386269138" lon="7.870401172738312"><ele>345.0</ele><time>2026-04-15T16:34:46.998Z</time></trkpt><trkpt lat="44.552871893218615" lon="7.870521204202883"><ele>345.0</ele><time>2026-04-15T16:34:47.998Z</time></trkpt><trkpt lat="44.55296105077342" lon="7.870632896481339"><ele>345.0</ele><time>2026-04-15T16:34:48.998Z</time></trkpt><trkpt lat="44.55303855572612" lon="7.870739441489347"><ele>344.6</ele><time>2026-04-15T16:34:49.998Z</time></trkpt><trkpt lat="44.55312100736029" lon="7.8708477633680065"><ele>344.2</ele><time>2026-04-15T16:34:51Z</time></trkpt><trkpt lat="44.55319425333216" lon="7.8709591687189455"><ele>343.79999999999995</ele><time>2026-04-15T16:34:52Z</time></trkpt><trkpt lat="44.55326344361755" lon="7.8710320259948805"><ele>343.4</ele><time>2026-04-15T16:34:53Z</time></trkpt><trkpt lat="44.55334648822802" lon="7.871138344448153"><ele>343.0</ele><time>2026-04-15T16:34:54Z</time></trkpt><trkpt lat="44.553437001732654" lon="7.871265106999731"><ele>343.0</ele><time>2026-04-15T16:34:55Z</time></trkpt><trkpt lat="44.55352696236139" lon="7.87139371854104"><ele>343.0</ele><time>2026-04-15T16:34:56Z</time></trkpt><trkpt lat="44.55361369697308" lon="7.8714774876346905"><ele>343.0</ele><time>2026-04-15T16:34:57Z</time></trkpt><trkpt lat="44.553712976621306" lon="7.871577242557532"><ele>343.0</ele><time>2026-04-15T16:34:58Z</time></trkpt><trkpt lat="44.55381360853831" lon="7.871692042671394"><ele>342.79999999999995</ele><time>2026-04-15T16:34:59Z</time></trkpt><trkpt lat="44.55390702288538" lon="7.871800547042969"><ele>342.6</ele><time>2026-04-15T16:35:00Z</time></trkpt><trkpt lat="44.55399047290947" lon="7.8719043548307575"><ele>342.4</ele><time>2026-04-15T16:35:01Z</time></trkpt><trkpt lat="44.55407728586995" lon="7.872001094887421"><ele>342.20000000000005</ele><time>2026-04-15T16:35:02Z</time></trkpt><trkpt lat="44.554157321805995" lon="7.872087947718733"><ele>342.0</ele><time>2026-04-15T16:35:03Z</time></trkpt><trkpt lat="44.554235074934596" lon="7.872192078019021"><ele>342.0</ele><time>2026-04-15T16:35:04Z</time></trkpt><trkpt lat="44.55431637962457" lon="7.872285221140294"><ele>342.0</ele><time>2026-04-15T16:35:05Z</time></trkpt><trkpt lat="44.55440101380274" lon="7.872383811559591"><ele>342.0</ele><time>2026-04-15T16:35:06Z</time></trkpt><trkpt lat="44.55448776529506" lon="7.872497770426864"><ele>342.0</ele><time>2026-04-15T16:35:07Z</time></trkpt><trkpt lat="44.55458134282887" lon="7.872605097637377"><ele>341.40000000000003</ele><time>2026-04-15T16:35:08Z</time></trkpt><trkpt lat="44.55466787414801" lon="7.872706757479224"><ele>340.8</ele><time>2026-04-15T16:35:09Z</time></trkpt><trkpt lat="44.55475095132029" lon="7.872808520186173"><ele>340.2</ele><time>2026-04-15T16:35:10Z</time></trkpt><trkpt lat="44.55482851692892" lon="7.872901627236734"><ele>339.6</ele><time>2026-04-15T16:35:11Z</time></trkpt><trkpt lat="44.554910249994506" lon="7.8730087037741825"><ele>339.0</ele><time>2026-04-15T16:35:12Z</time></trkpt><trkpt lat="44.55498682105966" lon="7.873105345134531"><ele>339.0</ele><time>2026-04-15T16:35:13Z</time></trkpt><trkpt lat="44.55506909273812" lon="7.8731998648045005"><ele>339.0</ele><time>2026-04-15T16:35:14Z</time></trkpt><trkpt lat="44.55514928446612" lon="7.873321834085183"><ele>339.0</ele><time>2026-04-15T16:35:15Z</time></trkpt><trkpt lat="44.55523267500536" lon="7.873432407941096"><ele>339.0</ele><time>2026-04-15T16:35:16Z</time></trkpt><trkpt lat="44.5553108907061" lon="7.873540797032222"><ele>339.0</ele><time>2026-04-15T16:35:17Z</time></trkpt><trkpt lat="44.555404267955815" lon="7.8736452965406505"><ele>338.25</ele><time>2026-04-15T16:35:18Z</time></trkpt><trkpt lat="44.55550254851819" lon="7.873746972616695"><ele>337.5</ele><time>2026-04-15T16:35:19Z</time></trkpt><trkpt lat="44.555593031425694" lon="7.873855142452145"><ele>336.75</ele><time>2026-04-15T16:35:20Z</time></trkpt><trkpt lat="44.55567788434399" lon="7.873947873405208"><ele>336.0</ele><time>2026-04-15T16:35:21Z</time></trkpt><trkpt lat="44.55576360457301" lon="7.874041822044395"><ele>336.0</ele><time>2026-04-15T16:35:22Z</time></trkpt><trkpt lat="44.55584712982319" lon="7.8741411879303875"><ele>336.0</ele><time>2026-04-15T16:35:23Z</time></trkpt><trkpt lat="44.55593591381186" lon="7.874232250077868"><ele>336.0</ele><time>2026-04-15T16:35:24Z</time></trkpt><trkpt lat="44.5560250666177" lon="7.874325581757225"><ele>336.0</ele><time>2026-04-15T16:35:25Z</time></trkpt><trkpt lat="44.55611300955265" lon="7.874416513038005"><ele>336.0</ele><time>2026-04-15T16:35:26Z</time></trkpt><trkpt lat="44.55619436851405" lon="7.874510652522366"><ele>336.0</ele><time>2026-04-15T16:35:27Z</time></trkpt><trkpt lat="44.5562868969433" lon="7.874605892495272"><ele>336.0</ele><time>2026-04-15T16:35:28Z</time></trkpt><trkpt lat="44.55637837582396" lon="7.874699011678492"><ele>336.0</ele><time>2026-04-15T16:35:29Z</time></trkpt><trkpt lat="44.55645947643816" lon="7.874793401838193"><ele>336.0</ele><time>2026-04-15T16:35:30Z</time></trkpt><trkpt lat="44.556545187007615" lon="7.874876380914163"><ele>336.0</ele><time>2026-04-15T16:35:31Z</time></trkpt><trkpt lat="44.55662071724372" lon="7.874960101793466"><ele>336.0</ele><time>2026-04-15T16:35:32Z</time></trkpt><trkpt lat="44.55670415867726" lon="7.8750439476263745"><ele>336.0</ele><time>2026-04-15T16:35:33Z</time></trkpt><trkpt lat="44.55678407193603" lon="7.875135478590242"><ele>336.0</ele><time>2026-04-15T16:35:34Z</time></trkpt><trkpt lat="44.55686965228278" lon="7.875224237688979"><ele>336.0</ele><time>2026-04-15T16:35:35Z</time></trkpt><trkpt lat="44.55695304690101" lon="7.8753191289220155"><ele>336.0</ele><time>2026-04-15T16:35:36Z</time></trkpt><trkpt lat="44.557038866689304" lon="7.8754062930875115"><ele>335.8</ele><time>2026-04-15T16:35:36.999Z</time></trkpt><trkpt lat="44.55711680486532" lon="7.875491996464303"><ele>335.6</ele><time>2026-04-15T16:35:37.999Z</time></trkpt><trkpt lat="44.557196541851255" lon="7.875582514071404"><ele>335.4</ele><time>2026-04-15T16:35:38.999Z</time></trkpt><trkpt lat="44.55727416101719" lon="7.875685471718613"><ele>335.2</ele><time>2026-04-15T16:35:39.999Z</time></trkpt><trkpt lat="44.5573490487065" lon="7.875799577295188"><ele>335.0</ele><time>2026-04-15T16:35:40.999Z</time></trkpt><trkpt lat="44.55738426701749" lon="7.8759365236838805"><ele>335.2</ele><time>2026-04-15T16:35:41.999Z</time></trkpt><trkpt lat="44.55744319197218" lon="7.87608083904869"><ele>335.4</ele><time>2026-04-15T16:35:42.999Z</time></trkpt><trkpt lat="44.5574996299121" lon="7.87621189278125"><ele>335.6</ele><time>2026-04-15T16:35:43.999Z</time></trkpt><trkpt lat="44.5575511835325" lon="7.876338764865619"><ele>335.8</ele><time>2026-04-15T16:35:44.999Z</time></trkpt><trkpt lat="44.557603860545655" lon="7.876470922587236"><ele>336.0</ele><time>2026-04-15T16:35:45.999Z</time></trkpt><trkpt lat="44.55766790350734" lon="7.8766119595530535"><ele>336.0</ele><time>2026-04-15T16:35:46.999Z</time></trkpt><trkpt lat="44.557718778243526" lon="7.876740101444231"><ele>336.0</ele><time>2026-04-15T16:35:47.999Z</time></trkpt><trkpt lat="44.557767434560134" lon="7.876877494904884"><ele>336.0</ele><time>2026-04-15T16:35:48.999Z</time></trkpt><trkpt lat="44.55780794026352" lon="7.877008876955738"><ele>336.0</ele><time>2026-04-15T16:35:49.999Z</time></trkpt><trkpt lat="44.55784792726394" lon="7.877139152769368"><ele>336.0</ele><time>2026-04-15T16:35:50.999Z</time></trkpt><trkpt lat="44.55789617935422" lon="7.87726994357918"><ele>336.0</ele><time>2026-04-15T16:35:51.999Z</time></trkpt><trkpt lat="44.55793560850932" lon="7.877394856869071"><ele>336.0</ele><time>2026-04-15T16:35:52.999Z</time></trkpt><trkpt lat="44.55797408860308" lon="7.877516937936596"><ele>336.0</ele><time>2026-04-15T16:35:53.999Z</time></trkpt><trkpt lat="44.5580104251804" lon="7.877642304147099"><ele>336.0</ele><time>2026-04-15T16:35:54.999Z</time></trkpt><trkpt lat="44.55804975430733" lon="7.87777059492678"><ele>336.0</ele><time>2026-04-15T16:35:55.999Z</time></trkpt><trkpt lat="44.55808600051927" lon="7.877894452714962"><ele>336.0</ele><time>2026-04-15T16:35:56.999Z</time></trkpt><trkpt lat="44.558128472290925" lon="7.878020183721477"><ele>336.0</ele><time>2026-04-15T16:35:57.999Z</time></trkpt><trkpt lat="44.55816655760492" lon="7.878146781512816"><ele>336.0</ele><time>2026-04-15T16:35:58.999Z</time></trkpt><trkpt lat="44.55821236803644" lon="7.878282936213331"><ele>336.0</ele><time>2026-04-15T16:35:59.999Z</time></trkpt><trkpt lat="44.5582521482016" lon="7.878406661254739"><ele>336.0</ele><time>2026-04-15T16:36:00.999Z</time></trkpt><trkpt lat="44.558295707762234" lon="7.878535206153834"><ele>335.8</ele><time>2026-04-15T16:36:01.999Z</time></trkpt><trkpt lat="44.558334166794324" lon="7.878678451380425"><ele>335.6</ele><time>2026-04-15T16:36:02.999Z</time></trkpt><trkpt lat="44.55837407849682" lon="7.878797838696929"><ele>335.4</ele><time>2026-04-15T16:36:03.999Z</time></trkpt><trkpt lat="44.55841266730459" lon="7.878930261179034"><ele>335.2</ele><time>2026-04-15T16:36:04.999Z</time></trkpt><trkpt lat="44.55845429512774" lon="7.879043555017993"><ele>335.0</ele><time>2026-04-15T16:36:05.999Z</time></trkpt><trkpt lat="44.55849427829908" lon="7.8791788576754795"><ele>335.0</ele><time>2026-04-15T16:36:06.999Z</time></trkpt><trkpt lat="44.55853312422715" lon="7.87931303075691"><ele>335.0</ele><time>2026-04-15T16:36:07.999Z</time></trkpt><trkpt lat="44.558574464484074" lon="7.8794426393587225"><ele>335.0</ele><time>2026-04-15T16:36:08.999Z</time></trkpt><trkpt lat="44.55861690021593" lon="7.879572915061094"><ele>335.0</ele><time>2026-04-15T16:36:09.999Z</time></trkpt><trkpt lat="44.55865891082507" lon="7.8797067291218905"><ele>335.0</ele><time>2026-04-15T16:36:10.999Z</time></trkpt><trkpt lat="44.55870108270746" lon="7.879839413277587"><ele>334.6</ele><time>2026-04-15T16:36:11.999Z</time></trkpt><trkpt lat="44.55874072665413" lon="7.879961295623124"><ele>334.2</ele><time>2026-04-15T16:36:12.999Z</time></trkpt><trkpt lat="44.558778614358765" lon="7.880085854287858"><ele>333.79999999999995</ele><time>2026-04-15T16:36:13.999Z</time></trkpt><trkpt lat="44.5588180039302" lon="7.880209842813986"><ele>333.4</ele><time>2026-04-15T16:36:14.999Z</time></trkpt><trkpt lat="44.558852812040584" lon="7.880327081018703"><ele>333.0</ele><time>2026-04-15T16:36:15.999Z</time></trkpt><trkpt lat="44.55888722256886" lon="7.880440109278579"><ele>333.0</ele><time>2026-04-15T16:36:16.999Z</time></trkpt><trkpt lat="44.55892025104873" lon="7.880550663897951"><ele>333.0</ele><time>2026-04-15T16:36:17.999Z</time></trkpt><trkpt lat="44.55895243521213" lon="7.880660262084263"><ele>333.0</ele><time>2026-04-15T16:36:18.999Z</time></trkpt><trkpt lat="44.55898778018943" lon="7.880758989991184"><ele>333.0</ele><time>2026-04-15T16:36:19.999Z</time></trkpt><trkpt lat="44.55902175934507" lon="7.880852779103311"><ele>333.0</ele><time>2026-04-15T16:36:20.999Z</time></trkpt><trkpt lat="44.55904712680537" lon="7.880940460576669"><ele>333.0</ele><time>2026-04-15T16:36:21.999Z</time></trkpt><trkpt lat="44.559087484923005" lon="7.8810795855706495"><ele>332.79999999999995</ele><time>2026-04-15T16:36:23.999Z</time></trkpt><trkpt lat="44.5591119859946" lon="7.881224590343348"><ele>332.6</ele><time>2026-04-15T16:36:25.999Z</time></trkpt><trkpt lat="44.559117785824" lon="7.8813726842422085"><ele>332.4</ele><time>2026-04-15T16:36:27.999Z</time></trkpt><trkpt lat="44.55911927540146" lon="7.8814738106678215"><ele>332.20000000000005</ele><time>2026-04-15T16:36:29.999Z</time></trkpt><trkpt lat="44.5591981748236" lon="7.881605891515263"><ele>332.0</ele><time>2026-04-15T16:36:31.999Z</time></trkpt><trkpt lat="44.559259056390644" lon="7.881663958064322"><ele>332.0</ele><time>2026-04-15T16:36:32.999Z</time></trkpt><trkpt lat="44.55932482365373" lon="7.881713001855669"><ele>332.0</ele><time>2026-04-15T16:36:33.999Z</time></trkpt><trkpt lat="44.5593854322594" lon="7.881761093477975"><ele>332.0</ele><time>2026-04-15T16:36:34.999Z</time></trkpt><trkpt lat="44.55944190038068" lon="7.881817811228507"><ele>332.0</ele><time>2026-04-15T16:36:35.999Z</time></trkpt><trkpt lat="44.55952878586956" lon="7.881890242131943"><ele>332.0</ele><time>2026-04-15T16:36:36.999Z</time></trkpt><trkpt lat="44.55961025476904" lon="7.881968905347239"><ele>332.0</ele><time>2026-04-15T16:36:37.999Z</time></trkpt><trkpt lat="44.55970222253196" lon="7.882053218806428"><ele>331.40000000000003</ele><time>2026-04-15T16:36:38.999Z</time></trkpt><trkpt lat="44.559791594615696" lon="7.882130732987634"><ele>330.8</ele><time>2026-04-15T16:36:39.998Z</time></trkpt><trkpt lat="44.55987073863347" lon="7.8822058591928394"><ele>330.2</ele><time>2026-04-15T16:36:40.998Z</time></trkpt><trkpt lat="44.559954252287135" lon="7.882265290263664"><ele>329.6</ele><time>2026-04-15T16:36:41.998Z</time></trkpt><trkpt lat="44.56003614772476" lon="7.882340167258865"><ele>329.0</ele><time>2026-04-15T16:36:42.998Z</time></trkpt><trkpt lat="44.56011895429066" lon="7.882414645729905"><ele>329.0</ele><time>2026-04-15T16:36:43.998Z</time></trkpt><trkpt lat="44.56017710434642" lon="7.8824917940682235"><ele>329.0</ele><time>2026-04-15T16:36:44.998Z</time></trkpt><trkpt lat="44.560252140095976" lon="7.882569816419014"><ele>329.0</ele><time>2026-04-15T16:36:45.998Z</time></trkpt><trkpt lat="44.56032275784084" lon="7.882647039351461"><ele>329.0</ele><time>2026-04-15T16:36:46.998Z</time></trkpt><trkpt lat="44.56039566120641" lon="7.8827345848904145"><ele>329.0</ele><time>2026-04-15T16:36:47.998Z</time></trkpt><trkpt lat="44.5604803025169" lon="7.882817362988051"><ele>328.0</ele><time>2026-04-15T16:36:48.998Z</time></trkpt><trkpt lat="44.560551511555" lon="7.882897982061096"><ele>327.0</ele><time>2026-04-15T16:36:49.998Z</time></trkpt><trkpt lat="44.56061050926859" lon="7.88301047114513"><ele>326.0</ele><time>2026-04-15T16:36:50.998Z</time></trkpt><trkpt lat="44.56067540098846" lon="7.883119274663342"><ele>325.0</ele><time>2026-04-15T16:36:51.998Z</time></trkpt><trkpt lat="44.56072211345883" lon="7.883232662217732"><ele>324.0</ele><time>2026-04-15T16:36:52.998Z</time></trkpt><trkpt lat="44.56077414091939" lon="7.88336113817705"><ele>323.2</ele><time>2026-04-15T16:36:53.998Z</time></trkpt><trkpt lat="44.56081253620585" lon="7.88347420720979"><ele>322.4</ele><time>2026-04-15T16:36:54.998Z</time></trkpt><trkpt lat="44.56085457561285" lon="7.883597838653315"><ele>321.6</ele><time>2026-04-15T16:36:55.998Z</time></trkpt><trkpt lat="44.56086310497056" lon="7.8837548549879335"><ele>320.8</ele><time>2026-04-15T16:36:57Z</time></trkpt><trkpt lat="44.56089639145998" lon="7.883866760784194"><ele>320.0</ele><time>2026-04-15T16:36:58Z</time></trkpt><trkpt lat="44.56091434448975" lon="7.884000200090192"><ele>320.0</ele><time>2026-04-15T16:36:59Z</time></trkpt><trkpt lat="44.560925036678775" lon="7.884142485092425"><ele>320.0</ele><time>2026-04-15T16:37:00Z</time></trkpt><trkpt lat="44.56093180619552" lon="7.884285757168171"><ele>320.0</ele><time>2026-04-15T16:37:01Z</time></trkpt><trkpt lat="44.56092821005493" lon="7.884431235183244"><ele>320.0</ele><time>2026-04-15T16:37:02Z</time></trkpt><trkpt lat="44.560924584684116" lon="7.884586580694948"><ele>320.0</ele><time>2026-04-15T16:37:03Z</time></trkpt><trkpt lat="44.5609119333637" lon="7.884710555313949"><ele>319.6</ele><time>2026-04-15T16:37:04Z</time></trkpt><trkpt lat="44.56090491667701" lon="7.884834785837184"><ele>319.2</ele><time>2026-04-15T16:37:05Z</time></trkpt><trkpt lat="44.56089411627421" lon="7.884975135930633"><ele>318.8</ele><time>2026-04-15T16:37:06Z</time></trkpt><trkpt lat="44.560882729269835" lon="7.885094954507182"><ele>318.4</ele><time>2026-04-15T16:37:07Z</time></trkpt><trkpt lat="44.560873463452154" lon="7.885239808174016"><ele>318.0</ele><time>2026-04-15T16:37:08Z</time></trkpt><trkpt lat="44.56085836992683" lon="7.885376241627047"><ele>317.6</ele><time>2026-04-15T16:37:09Z</time></trkpt><trkpt lat="44.560853736906076" lon="7.885494488189761"><ele>317.20000000000005</ele><time>2026-04-15T16:37:10Z</time></trkpt><trkpt lat="44.56084890521715" lon="7.885633070769938"><ele>316.8</ele><time>2026-04-15T16:37:11Z</time></trkpt><trkpt lat="44.56084166777628" lon="7.885778538980937"><ele>316.40000000000003</ele><time>2026-04-15T16:37:12Z</time></trkpt><trkpt lat="44.56084433731776" lon="7.885894320318521"><ele>316.0</ele><time>2026-04-15T16:37:13Z</time></trkpt><trkpt lat="44.56083881396053" lon="7.8860313563264"><ele>315.3333333333333</ele><time>2026-04-15T16:37:14Z</time></trkpt><trkpt lat="44.560824109012195" lon="7.886142687882094"><ele>314.66666666666663</ele><time>2026-04-15T16:37:15Z</time></trkpt><trkpt lat="44.56080582332345" lon="7.886257226282233"><ele>314.0</ele><time>2026-04-15T16:37:16Z</time></trkpt><trkpt lat="44.56079726805383" lon="7.8863823435226195"><ele>313.3333333333333</ele><time>2026-04-15T16:37:17Z</time></trkpt><trkpt lat="44.56078680381966" lon="7.886491283307682"><ele>312.6666666666667</ele><time>2026-04-15T16:37:18Z</time></trkpt><trkpt lat="44.560779307794384" lon="7.8866057987712095"><ele>312.0</ele><time>2026-04-15T16:37:19Z</time></trkpt><trkpt lat="44.56077363863182" lon="7.88672631457933"><ele>311.3333333333333</ele><time>2026-04-15T16:37:20Z</time></trkpt><trkpt lat="44.56077579953225" lon="7.886838472392484"><ele>310.6666666666667</ele><time>2026-04-15T16:37:21Z</time></trkpt><trkpt lat="44.56078922560563" lon="7.886973317105677"><ele>310.0</ele><time>2026-04-15T16:37:22Z</time></trkpt><trkpt lat="44.56080260247761" lon="7.887093801870204"><ele>309.33333333333337</ele><time>2026-04-15T16:37:23Z</time></trkpt><trkpt lat="44.56081639376081" lon="7.887194138661389"><ele>308.6666666666667</ele><time>2026-04-15T16:37:24Z</time></trkpt><trkpt lat="44.56085053312031" lon="7.887294811090286"><ele>308.0</ele><time>2026-04-15T16:37:25Z</time></trkpt><trkpt lat="44.56088194774371" lon="7.887394975803779"><ele>308.0</ele><time>2026-04-15T16:37:26Z</time></trkpt><trkpt lat="44.560926269358745" lon="7.88749029150094"><ele>308.0</ele><time>2026-04-15T16:37:27Z</time></trkpt><trkpt lat="44.56098795607584" lon="7.887555450777638"><ele>308.0</ele><time>2026-04-15T16:37:28Z</time></trkpt><trkpt lat="44.56105161540481" lon="7.887602057742775"><ele>308.0</ele><time>2026-04-15T16:37:29Z</time></trkpt><trkpt lat="44.56112135089154" lon="7.887626465334815"><ele>308.0</ele><time>2026-04-15T16:37:30Z</time></trkpt><trkpt lat="44.561480761863024" lon="7.88762455061138"><ele>308.1666666666667</ele><time>2026-04-15T16:37:34Z</time></trkpt><trkpt lat="44.56155970617249" lon="7.887615909929217"><ele>308.33333333333337</ele><time>2026-04-15T16:37:35Z</time></trkpt><trkpt lat="44.56164212727463" lon="7.887605740329582"><ele>308.5</ele><time>2026-04-15T16:37:36Z</time></trkpt><trkpt lat="44.56171166637549" lon="7.887576117298835"><ele>308.6666666666667</ele><time>2026-04-15T16:37:37Z</time></trkpt><trkpt lat="44.561779744360805" lon="7.887573122371975"><ele>308.8333333333333</ele><time>2026-04-15T16:37:38Z</time></trkpt><trkpt lat="44.56189386085191" lon="7.887566623154994"><ele>309.0</ele><time>2026-04-15T16:37:40Z</time></trkpt><trkpt lat="44.56196282596701" lon="7.887595055754876"><ele>306.3333333333333</ele><time>2026-04-15T16:37:41.999Z</time></trkpt><trkpt lat="44.561969132588146" lon="7.887699268465413"><ele>303.6666666666667</ele><time>2026-04-15T16:37:43.999Z</time></trkpt><trkpt lat="44.56191466500079" lon="7.887775431743103"><ele>301.0</ele><time>2026-04-15T16:37:44.999Z</time></trkpt><trkpt lat="44.5618295963234" lon="7.88786068590642"><ele>298.33333333333337</ele><time>2026-04-15T16:37:46.999Z</time></trkpt><trkpt lat="44.56176045500037" lon="7.887880443019327"><ele>295.6666666666667</ele><time>2026-04-15T16:37:47.999Z</time></trkpt><trkpt lat="44.56164729724884" lon="7.887869091974791"><ele>293.0</ele><time>2026-04-15T16:37:48.999Z</time></trkpt><trkpt lat="44.56155283143156" lon="7.887897989166695"><ele>293.0</ele><time>2026-04-15T16:37:49.999Z</time></trkpt><trkpt lat="44.561451262925324" lon="7.887935353462494"><ele>293.0</ele><time>2026-04-15T16:37:50.999Z</time></trkpt><trkpt lat="44.56132595736859" lon="7.8879724492135885"><ele>293.0</ele><time>2026-04-15T16:37:51.999Z</time></trkpt><trkpt lat="44.56119391443424" lon="7.888009582263649"><ele>293.0</ele><time>2026-04-15T16:37:52.999Z</time></trkpt><trkpt lat="44.56107479849567" lon="7.888042463140375"><ele>292.6</ele><time>2026-04-15T16:37:53.999Z</time></trkpt><trkpt lat="44.560959989940805" lon="7.888067875775033"><ele>292.20000000000005</ele><time>2026-04-15T16:37:54.999Z</time></trkpt><trkpt lat="44.560851825362704" lon="7.888089250654763"><ele>291.8</ele><time>2026-04-15T16:37:55.999Z</time></trkpt><trkpt lat="44.5607520067935" lon="7.888114124607988"><ele>291.40000000000003</ele><time>2026-04-15T16:37:56.999Z</time></trkpt><trkpt lat="44.56065459950135" lon="7.888133810688066"><ele>291.0</ele><time>2026-04-15T16:37:57.999Z</time></trkpt><trkpt lat="44.56057324910075" lon="7.8881460915153685"><ele>291.0</ele><time>2026-04-15T16:37:58.999Z</time></trkpt><trkpt lat="44.560503312636" lon="7.8881600515011945"><ele>291.0</ele><time>2026-04-15T16:37:59.999Z</time></trkpt><trkpt lat="44.5604354582319" lon="7.888134423039807"><ele>291.0</ele><time>2026-04-15T16:38:00.999Z</time></trkpt><trkpt lat="44.56036323408109" lon="7.888109124635207"><ele>291.0</ele><time>2026-04-15T16:38:01.999Z</time></trkpt><trkpt lat="44.5602476429424" lon="7.888018979378507"><ele>291.0</ele><time>2026-04-15T16:38:03.999Z</time></trkpt><trkpt lat="44.56019331509232" lon="7.887942260157632"><ele>291.0</ele><time>2026-04-15T16:38:04.999Z</time></trkpt><trkpt lat="44.560169282960416" lon="7.887825806931811"><ele>291.8</ele><time>2026-04-15T16:38:05.999Z</time></trkpt><trkpt lat="44.56014096500781" lon="7.88769459308515"><ele>292.6</ele><time>2026-04-15T16:38:06.999Z</time></trkpt><trkpt lat="44.5601102583293" lon="7.887569672170766"><ele>293.4</ele><time>2026-04-15T16:38:07.999Z</time></trkpt><trkpt lat="44.56009449798333" lon="7.887451073408922"><ele>294.2</ele><time>2026-04-15T16:38:08.999Z</time></trkpt><trkpt lat="44.56006293277391" lon="7.887335100159658"><ele>295.0</ele><time>2026-04-15T16:38:09.999Z</time></trkpt><trkpt lat="44.56003792280357" lon="7.8872213614891065"><ele>295.0</ele><time>2026-04-15T16:38:10.999Z</time></trkpt><trkpt lat="44.56000048430317" lon="7.887111457772904"><ele>295.0</ele><time>2026-04-15T16:38:11.999Z</time></trkpt><trkpt lat="44.559961286174996" lon="7.8870017150382195"><ele>295.0</ele><time>2026-04-15T16:38:12.999Z</time></trkpt><trkpt lat="44.55991127866522" lon="7.886875626671593"><ele>295.0</ele><time>2026-04-15T16:38:13.999Z</time></trkpt><trkpt lat="44.559858832125414" lon="7.886763399073839"><ele>295.0</ele><time>2026-04-15T16:38:14.999Z</time></trkpt><trkpt lat="44.559808453156656" lon="7.88666174941308"><ele>296.0</ele><time>2026-04-15T16:38:15.999Z</time></trkpt><trkpt lat="44.559755876004814" lon="7.886574282789478"><ele>297.0</ele><time>2026-04-15T16:38:16.999Z</time></trkpt><trkpt lat="44.55968225551745" lon="7.886499600659175"><ele>298.0</ele><time>2026-04-15T16:38:17.999Z</time></trkpt><trkpt lat="44.55960137927904" lon="7.886413587920278"><ele>299.0</ele><time>2026-04-15T16:38:18.999Z</time></trkpt><trkpt lat="44.55951401619448" lon="7.886332157433086"><ele>300.0</ele><time>2026-04-15T16:38:19.999Z</time></trkpt><trkpt lat="44.55941683112936" lon="7.886240378013136"><ele>299.0</ele><time>2026-04-15T16:38:20.999Z</time></trkpt><trkpt lat="44.55932196640789" lon="7.886169203632703"><ele>298.0</ele><time>2026-04-15T16:38:21.999Z</time></trkpt><trkpt lat="44.55923566856152" lon="7.886099252754161"><ele>297.0</ele><time>2026-04-15T16:38:22.999Z</time></trkpt><trkpt lat="44.55914145868992" lon="7.8860216564815175"><ele>296.0</ele><time>2026-04-15T16:38:23.999Z</time></trkpt><trkpt lat="44.5590549940716" lon="7.885950764901197"><ele>295.0</ele><time>2026-04-15T16:38:24.999Z</time></trkpt><trkpt lat="44.55897596781392" lon="7.8858770244015135"><ele>295.0</ele><time>2026-04-15T16:38:25.999Z</time></trkpt><trkpt lat="44.55890848082247" lon="7.885817124709136"><ele>295.0</ele><time>2026-04-15T16:38:26.999Z</time></trkpt><trkpt lat="44.55884178278276" lon="7.88575961315049"><ele>295.0</ele><time>2026-04-15T16:38:27.999Z</time></trkpt><trkpt lat="44.55873917520426" lon="7.885652733233639"><ele>295.0</ele><time>2026-04-15T16:38:29.999Z</time></trkpt><trkpt lat="44.558683737777514" lon="7.8856055487916015"><ele>295.0</ele><time>2026-04-15T16:38:30.999Z</time></trkpt><trkpt lat="44.55858091498006" lon="7.88554735529177"><ele>293.3333333333333</ele><time>2026-04-15T16:38:32.999Z</time></trkpt><trkpt lat="44.558489990325015" lon="7.885585939797074"><ele>291.66666666666663</ele><time>2026-04-15T16:38:34.999Z</time></trkpt><trkpt lat="44.55841229965637" lon="7.885694125618752"><ele>290.0</ele><time>2026-04-15T16:38:36.999Z</time></trkpt><trkpt lat="44.558400052033505" lon="7.885780808300044"><ele>288.3333333333333</ele><time>2026-04-15T16:38:37.999Z</time></trkpt><trkpt lat="44.55839991547036" lon="7.885876922601584"><ele>286.6666666666667</ele><time>2026-04-15T16:38:38.999Z</time></trkpt><trkpt lat="44.55843049912491" lon="7.885992971138096"><ele>285.0</ele><time>2026-04-15T16:38:39.999Z</time></trkpt><trkpt lat="44.55848941245414" lon="7.886079956248496"><ele>285.0</ele><time>2026-04-15T16:38:40.999Z</time></trkpt><trkpt lat="44.5585307614523" lon="7.886176640639125"><ele>285.0</ele><time>2026-04-15T16:38:41.999Z</time></trkpt><trkpt lat="44.558563844741435" lon="7.8862971210889246"><ele>285.0</ele><time>2026-04-15T16:38:42.999Z</time></trkpt><trkpt lat="44.55862496652505" lon="7.886428856839216"><ele>285.0</ele><time>2026-04-15T16:38:43.999Z</time></trkpt><trkpt lat="44.55868185090588" lon="7.886562959998871"><ele>285.0</ele><time>2026-04-15T16:38:44.998Z</time></trkpt><trkpt lat="44.55874261199976" lon="7.886706943804874"><ele>283.5</ele><time>2026-04-15T16:38:45.998Z</time></trkpt><trkpt lat="44.55882112861416" lon="7.886863818774476"><ele>282.0</ele><time>2026-04-15T16:38:46.998Z</time></trkpt><trkpt lat="44.558883910009484" lon="7.887017208932489"><ele>280.5</ele><time>2026-04-15T16:38:47.998Z</time></trkpt><trkpt lat="44.5589491845674" lon="7.887165673970704"><ele>279.0</ele><time>2026-04-15T16:38:48.998Z</time></trkpt><trkpt lat="44.55900488489047" lon="7.887300390551162"><ele>279.0</ele><time>2026-04-15T16:38:49.998Z</time></trkpt><trkpt lat="44.55906594294324" lon="7.887444041131056"><ele>279.0</ele><time>2026-04-15T16:38:50.998Z</time></trkpt><trkpt lat="44.55913264985212" lon="7.887589755999298"><ele>279.0</ele><time>2026-04-15T16:38:51.998Z</time></trkpt><trkpt lat="44.55919192202892" lon="7.887744375048249"><ele>279.0</ele><time>2026-04-15T16:38:52.998Z</time></trkpt><trkpt lat="44.559243879642466" lon="7.887875017273013"><ele>278.0</ele><time>2026-04-15T16:38:53.998Z</time></trkpt><trkpt lat="44.55930571468767" lon="7.888005491965641"><ele>277.0</ele><time>2026-04-15T16:38:54.998Z</time></trkpt><trkpt lat="44.55935940813385" lon="7.888127526515942"><ele>276.0</ele><time>2026-04-15T16:38:55.998Z</time></trkpt><trkpt lat="44.559415232367805" lon="7.888258871287164"><ele>275.0</ele><time>2026-04-15T16:38:56.998Z</time></trkpt><trkpt lat="44.55946799151598" lon="7.888396886043435"><ele>274.0</ele><time>2026-04-15T16:38:57.998Z</time></trkpt><trkpt lat="44.55952190586507" lon="7.888515267768434"><ele>272.8</ele><time>2026-04-15T16:38:58.998Z</time></trkpt><trkpt lat="44.559571277444135" lon="7.888613842515245"><ele>271.59999999999997</ele><time>2026-04-15T16:38:59.998Z</time></trkpt><trkpt lat="44.559614570650886" lon="7.888737162375928"><ele>270.4</ele><time>2026-04-15T16:39:00.998Z</time></trkpt><trkpt lat="44.55965976930177" lon="7.888857875865751"><ele>269.2</ele><time>2026-04-15T16:39:01.998Z</time></trkpt><trkpt lat="44.559704141058525" lon="7.889003035429257"><ele>268.0</ele><time>2026-04-15T16:39:03Z</time></trkpt><trkpt lat="44.55973807161445" lon="7.889140465176138"><ele>266.5</ele><time>2026-04-15T16:39:04Z</time></trkpt><trkpt lat="44.55977236760392" lon="7.889281245631629"><ele>265.0</ele><time>2026-04-15T16:39:05Z</time></trkpt><trkpt lat="44.5598001867336" lon="7.889445138494475"><ele>263.5</ele><time>2026-04-15T16:39:06Z</time></trkpt><trkpt lat="44.55982198379052" lon="7.889590615475163"><ele>262.0</ele><time>2026-04-15T16:39:07Z</time></trkpt><trkpt lat="44.5598326506442" lon="7.88975544428319"><ele>262.0</ele><time>2026-04-15T16:39:08Z</time></trkpt><trkpt lat="44.55983871170952" lon="7.889918828625532"><ele>262.0</ele><time>2026-04-15T16:39:09Z</time></trkpt><trkpt lat="44.55984211659756" lon="7.890092620253615"><ele>262.0</ele><time>2026-04-15T16:39:10Z</time></trkpt><trkpt lat="44.55984905355008" lon="7.890269320887216"><ele>262.0</ele><time>2026-04-15T16:39:11Z</time></trkpt><trkpt lat="44.55985447745642" lon="7.890453301243749"><ele>261.5</ele><time>2026-04-15T16:39:12Z</time></trkpt><trkpt lat="44.559852139338375" lon="7.890658533883366"><ele>261.0</ele><time>2026-04-15T16:39:13Z</time></trkpt><trkpt lat="44.559848159104234" lon="7.890861425108438"><ele>260.5</ele><time>2026-04-15T16:39:14Z</time></trkpt><trkpt lat="44.5598493908622" lon="7.891052615735514"><ele>260.0</ele><time>2026-04-15T16:39:15Z</time></trkpt><trkpt lat="44.55984150960939" lon="7.891252702862361"><ele>259.75</ele><time>2026-04-15T16:39:16Z</time></trkpt><trkpt lat="44.559835347649795" lon="7.891450885713229"><ele>259.5</ele><time>2026-04-15T16:39:17Z</time></trkpt><trkpt lat="44.559836944674366" lon="7.8916362893001875"><ele>259.25</ele><time>2026-04-15T16:39:18Z</time></trkpt><trkpt lat="44.55983427255525" lon="7.891822328615677"><ele>259.0</ele><time>2026-04-15T16:39:19Z</time></trkpt><trkpt lat="44.55982817580876" lon="7.891996294109786"><ele>258.75</ele><time>2026-04-15T16:39:20Z</time></trkpt><trkpt lat="44.55982608871041" lon="7.892165474941818"><ele>258.5</ele><time>2026-04-15T16:39:21Z</time></trkpt><trkpt lat="44.5598244002046" lon="7.892342437003626"><ele>258.25</ele><time>2026-04-15T16:39:22Z</time></trkpt><trkpt lat="44.55982304018423" lon="7.892503348583324"><ele>258.0</ele><time>2026-04-15T16:39:23Z</time></trkpt><trkpt lat="44.559814513744236" lon="7.8926606454905865"><ele>257.8</ele><time>2026-04-15T16:39:24Z</time></trkpt><trkpt lat="44.55980986812481" lon="7.8928139435697675"><ele>257.6</ele><time>2026-04-15T16:39:25Z</time></trkpt><trkpt lat="44.55981592457536" lon="7.892979007621473"><ele>257.4</ele><time>2026-04-15T16:39:26Z</time></trkpt><trkpt lat="44.559817860530096" lon="7.893123142181857"><ele>257.2</ele><time>2026-04-15T16:39:27Z</time></trkpt><trkpt lat="44.55981652184738" lon="7.893264588033431"><ele>257.0</ele><time>2026-04-15T16:39:28Z</time></trkpt><trkpt lat="44.55981640474349" lon="7.893403942831653"><ele>256.5</ele><time>2026-04-15T16:39:29Z</time></trkpt><trkpt lat="44.55981591363485" lon="7.893539407476814"><ele>256.0</ele><time>2026-04-15T16:39:30Z</time></trkpt><trkpt lat="44.55982392017412" lon="7.893666460750477"><ele>255.5</ele><time>2026-04-15T16:39:31Z</time></trkpt><trkpt lat="44.55982819093785" lon="7.893777368611034"><ele>255.0</ele><time>2026-04-15T16:39:32Z</time></trkpt><trkpt lat="44.55983008973512" lon="7.893879818487143"><ele>254.50000000000003</ele><time>2026-04-15T16:39:33Z</time></trkpt><trkpt lat="44.55984810600847" lon="7.893989980702114"><ele>254.0</ele><time>2026-04-15T16:39:34Z</time></trkpt><trkpt lat="44.559877937317125" lon="7.894100760769026"><ele>254.00000000000003</ele><time>2026-04-15T16:39:35Z</time></trkpt><trkpt lat="44.55991179869636" lon="7.89420322819878"><ele>254.0</ele><time>2026-04-15T16:39:36Z</time></trkpt><trkpt lat="44.559946711582455" lon="7.8943096452673"><ele>254.0</ele><time>2026-04-15T16:39:37Z</time></trkpt><trkpt lat="44.5599980453517" lon="7.8943942512085234"><ele>254.0</ele><time>2026-04-15T16:39:38Z</time></trkpt><trkpt lat="44.56004785386309" lon="7.894481741530982"><ele>254.00000000000003</ele><time>2026-04-15T16:39:39Z</time></trkpt><trkpt lat="44.56009439562659" lon="7.894566079658688"><ele>254.0</ele><time>2026-04-15T16:39:40Z</time></trkpt><trkpt lat="44.56015666232161" lon="7.8946167143264825"><ele>252.6</ele><time>2026-04-15T16:39:41Z</time></trkpt><trkpt lat="44.56022814926517" lon="7.894632960064893"><ele>251.2</ele><time>2026-04-15T16:39:42Z</time></trkpt><trkpt lat="44.56031080821408" lon="7.894665981539165"><ele>249.79999999999998</ele><time>2026-04-15T16:39:43Z</time></trkpt><trkpt lat="44.56042834288613" lon="7.894706408186415"><ele>248.39999999999998</ele><time>2026-04-15T16:39:44Z</time></trkpt><trkpt lat="44.56053448668562" lon="7.894714192349814"><ele>247.0</ele><time>2026-04-15T16:39:45Z</time></trkpt><trkpt lat="44.56067140919042" lon="7.894725568563417"><ele>245.33333333333331</ele><time>2026-04-15T16:39:46Z</time></trkpt><trkpt lat="44.56080645483998" lon="7.894754292658271"><ele>243.66666666666669</ele><time>2026-04-15T16:39:47Z</time></trkpt><trkpt lat="44.56096663965508" lon="7.894798022131953"><ele>242.0</ele><time>2026-04-15T16:39:48Z</time></trkpt><trkpt lat="44.56111789572511" lon="7.894818005817016"><ele>242.0</ele><time>2026-04-15T16:39:48.999Z</time></trkpt><trkpt lat="44.56129129490401" lon="7.894850588293164"><ele>242.0</ele><time>2026-04-15T16:39:49.999Z</time></trkpt><trkpt lat="44.56144352151607" lon="7.894867917016625"><ele>242.0</ele><time>2026-04-15T16:39:50.999Z</time></trkpt><trkpt lat="44.56159693775837" lon="7.894893447219233"><ele>242.0</ele><time>2026-04-15T16:39:51.999Z</time></trkpt><trkpt lat="44.56174762190163" lon="7.894917385055581"><ele>242.0</ele><time>2026-04-15T16:39:52.999Z</time></trkpt><trkpt lat="44.561889716193306" lon="7.894936518539875"><ele>242.0</ele><time>2026-04-15T16:39:53.999Z</time></trkpt><trkpt lat="44.562011431572365" lon="7.89494235790296"><ele>242.0</ele><time>2026-04-15T16:39:54.999Z</time></trkpt><trkpt lat="44.56214100880632" lon="7.894955780137278"><ele>240.5</ele><time>2026-04-15T16:39:55.999Z</time></trkpt><trkpt lat="44.56225636967766" lon="7.894997437488095"><ele>239.0</ele><time>2026-04-15T16:39:56.999Z</time></trkpt><trkpt lat="44.56238080623092" lon="7.895026337978736"><ele>237.5</ele><time>2026-04-15T16:39:57.999Z</time></trkpt><trkpt lat="44.562507677232055" lon="7.895070971954263"><ele>236.0</ele><time>2026-04-15T16:39:58.999Z</time></trkpt><trkpt lat="44.56262348704745" lon="7.895119856068664"><ele>235.20000000000002</ele><time>2026-04-15T16:39:59.999Z</time></trkpt><trkpt lat="44.56271718950185" lon="7.895174017026818"><ele>234.40000000000003</ele><time>2026-04-15T16:40:00.999Z</time></trkpt><trkpt lat="44.562802715868386" lon="7.895226147984327"><ele>233.6</ele><time>2026-04-15T16:40:01.999Z</time></trkpt><trkpt lat="44.562898323103646" lon="7.8952934228409335"><ele>232.8</ele><time>2026-04-15T16:40:02.999Z</time></trkpt><trkpt lat="44.5629795482498" lon="7.895338711840534"><ele>232.0</ele><time>2026-04-15T16:40:03.999Z</time></trkpt><trkpt lat="44.5630616128803" lon="7.895396103846076"><ele>231.2</ele><time>2026-04-15T16:40:04.999Z</time></trkpt><trkpt lat="44.5631465461736" lon="7.89546391459354"><ele>230.39999999999998</ele><time>2026-04-15T16:40:05.999Z</time></trkpt><trkpt lat="44.5632197967513" lon="7.895529587410257"><ele>229.60000000000002</ele><time>2026-04-15T16:40:06.999Z</time></trkpt><trkpt lat="44.56328893138094" lon="7.895597171568199"><ele>228.8</ele><time>2026-04-15T16:40:07.999Z</time></trkpt><trkpt lat="44.563362886568534" lon="7.895665690178179"><ele>228.0</ele><time>2026-04-15T16:40:08.999Z</time></trkpt><trkpt lat="44.56344455576613" lon="7.895742860416704"><ele>228.0</ele><time>2026-04-15T16:40:09.999Z</time></trkpt><trkpt lat="44.56352856158792" lon="7.8957976973321085"><ele>228.0</ele><time>2026-04-15T16:40:10.999Z</time></trkpt><trkpt lat="44.56360729002544" lon="7.895853073085468"><ele>228.0</ele><time>2026-04-15T16:40:11.999Z</time></trkpt><trkpt lat="44.563675829001774" lon="7.89590199706927"><ele>228.0</ele><time>2026-04-15T16:40:12.999Z</time></trkpt><trkpt lat="44.56374757119128" lon="7.895955093995376"><ele>228.0</ele><time>2026-04-15T16:40:13.999Z</time></trkpt><trkpt lat="44.56381314070525" lon="7.8960107412577845"><ele>228.0</ele><time>2026-04-15T16:40:14.999Z</time></trkpt><trkpt lat="44.56386827633814" lon="7.896077030050851"><ele>228.14285714285714</ele><time>2026-04-15T16:40:15.999Z</time></trkpt><trkpt lat="44.563913287067464" lon="7.896139126862142"><ele>228.28571428571428</ele><time>2026-04-15T16:40:16.999Z</time></trkpt><trkpt lat="44.56395333873673" lon="7.896211328634946"><ele>228.42857142857142</ele><time>2026-04-15T16:40:17.999Z</time></trkpt><trkpt lat="44.563998248429925" lon="7.896283337928206"><ele>228.57142857142856</ele><time>2026-04-15T16:40:18.999Z</time></trkpt><trkpt lat="44.56401536897" lon="7.896376682563612"><ele>228.71428571428572</ele><time>2026-04-15T16:40:19.999Z</time></trkpt><trkpt lat="44.564009625994615" lon="7.896466996163235"><ele>228.85714285714283</ele><time>2026-04-15T16:40:20.999Z</time></trkpt><trkpt lat="44.56400197971659" lon="7.896569504824944"><ele>229.0</ele><time>2026-04-15T16:40:21.999Z</time></trkpt><trkpt lat="44.56399169737421" lon="7.896664656152235"><ele>228.49999999999997</ele><time>2026-04-15T16:40:22.999Z</time></trkpt><trkpt lat="44.563991728068714" lon="7.8967576014173435"><ele>228.0</ele><time>2026-04-15T16:40:23.999Z</time></trkpt><trkpt lat="44.56402161028021" lon="7.896932155321802"><ele>227.5</ele><time>2026-04-15T16:40:25.999Z</time></trkpt><trkpt lat="44.564096394995495" lon="7.897059738182483"><ele>227.0</ele><time>2026-04-15T16:40:27.999Z</time></trkpt><trkpt lat="44.56414605167137" lon="7.8971192790066915"><ele>226.49999999999997</ele><time>2026-04-15T16:40:28.999Z</time></trkpt><trkpt lat="44.56421353742657" lon="7.897119492222017"><ele>226.0</ele><time>2026-04-15T16:40:29.999Z</time></trkpt><trkpt lat="44.564314840788924" lon="7.897157243675338"><ele>226.0</ele><time>2026-04-15T16:40:31.999Z</time></trkpt><trkpt lat="44.564399074551616" lon="7.897023692362739"><ele>226.00000000000003</ele><time>2026-04-15T16:40:32.999Z</time></trkpt><trkpt lat="44.56444983821417" lon="7.896967040194606"><ele>226.00000000000003</ele><time>2026-04-15T16:40:33.999Z</time></trkpt><trkpt lat="44.56448952169869" lon="7.896867851387433"><ele>226.0</ele><time>2026-04-15T16:40:34.999Z</time></trkpt><trkpt lat="44.56454050716067" lon="7.8967580336602285"><ele>226.0</ele><time>2026-04-15T16:40:36.999Z</time></trkpt><trkpt lat="44.564461300656816" lon="7.896562392923615"><ele>226.60000000000002</ele><time>2026-04-15T16:40:37.999Z</time></trkpt><trkpt lat="44.564398412185696" lon="7.896465984530709"><ele>227.20000000000002</ele><time>2026-04-15T16:40:38.999Z</time></trkpt><trkpt lat="44.56430839339098" lon="7.89641433110608"><ele>227.79999999999998</ele><time>2026-04-15T16:40:39.999Z</time></trkpt><trkpt lat="44.564223506814876" lon="7.896350473280785"><ele>228.39999999999998</ele><time>2026-04-15T16:40:40.999Z</time></trkpt><trkpt lat="44.564143447055535" lon="7.896302869445573"><ele>229.0</ele><time>2026-04-15T16:40:41.999Z</time></trkpt><trkpt lat="44.56407586382162" lon="7.896238878060658"><ele>228.99999999999997</ele><time>2026-04-15T16:40:42.999Z</time></trkpt><trkpt lat="44.564012028743264" lon="7.896147907283492"><ele>229.0</ele><time>2026-04-15T16:40:43.999Z</time></trkpt><trkpt lat="44.56395911938801" lon="7.896059401480141"><ele>229.0</ele><time>2026-04-15T16:40:44.999Z</time></trkpt><trkpt lat="44.56389752164054" lon="7.895961113272687"><ele>229.0</ele><time>2026-04-15T16:40:45.999Z</time></trkpt><trkpt lat="44.563828064249705" lon="7.895905679840872"><ele>228.99999999999997</ele><time>2026-04-15T16:40:46.999Z</time></trkpt><trkpt lat="44.563764717165135" lon="7.89591193345796"><ele>229.0</ele><time>2026-04-15T16:40:47.999Z</time></trkpt><trkpt lat="44.563717284346204" lon="7.895773099904017"><ele>228.66666666666666</ele><time>2026-04-15T16:40:48.999Z</time></trkpt><trkpt lat="44.563609918065836" lon="7.895708518290004"><ele>228.33333333333331</ele><time>2026-04-15T16:40:50.999Z</time></trkpt><trkpt lat="44.56354359715885" lon="7.895659768698593"><ele>228.0</ele><time>2026-04-15T16:40:52.998Z</time></trkpt><trkpt lat="44.563629190500045" lon="7.8953160310345964"><ele>228.0</ele><time>2026-04-15T16:40:55.998Z</time></trkpt><trkpt lat="44.563677848821165" lon="7.89525032656577"><ele>228.0</ele><time>2026-04-15T16:40:56.998Z</time></trkpt><trkpt lat="44.56377005198042" lon="7.8951210098338205"><ele>228.0</ele><time>2026-04-15T16:40:58.998Z</time></trkpt><trkpt lat="44.56382871932682" lon="7.89507090181221"><ele>228.0</ele><time>2026-04-15T16:40:59.998Z</time></trkpt><trkpt lat="44.56386750114261" lon="7.894997971982306"><ele>228.0</ele><time>2026-04-15T16:41:00.998Z</time></trkpt><trkpt lat="44.56393087045741" lon="7.894945391002726"><ele>228.0</ele><time>2026-04-15T16:41:01.998Z</time></trkpt><trkpt lat="44.56398921961942" lon="7.894893881815179"><ele>228.0</ele><time>2026-04-15T16:41:02.998Z</time></trkpt><trkpt lat="44.564141126825284" lon="7.89481559388998"><ele>228.0</ele><time>2026-04-15T16:41:05.998Z</time></trkpt><trkpt lat="44.56420453676123" lon="7.89477607462382"><ele>228.0</ele><time>2026-04-15T16:41:06.998Z</time></trkpt><trkpt lat="44.564274295850055" lon="7.894772907226608"><ele>228.0</ele><time>2026-04-15T16:41:07.998Z</time></trkpt><trkpt lat="44.56448605668999" lon="7.894770529794705"><ele>227.75</ele><time>2026-04-15T16:41:12Z</time></trkpt><trkpt lat="44.56458963503117" lon="7.894726483433476"><ele>227.5</ele><time>2026-04-15T16:41:14Z</time></trkpt><trkpt lat="44.56460532434771" lon="7.894623355758678"><ele>227.25</ele><time>2026-04-15T16:41:15Z</time></trkpt><trkpt lat="44.56465874940253" lon="7.894552528884491"><ele>227.0</ele><time>2026-04-15T16:41:17Z</time></trkpt><trkpt lat="44.56496929969847" lon="7.894482310040285"><ele>227.00000000000003</ele><time>2026-04-15T16:41:22Z</time></trkpt><trkpt lat="44.56504740590288" lon="7.894488549582009"><ele>227.0</ele><time>2026-04-15T16:41:23Z</time></trkpt><trkpt lat="44.56513982507248" lon="7.894505103502098"><ele>227.0</ele><time>2026-04-15T16:41:24Z</time></trkpt><trkpt lat="44.56523782875941" lon="7.894517590966489"><ele>227.0</ele><time>2026-04-15T16:41:25Z</time></trkpt><trkpt lat="44.565333570013294" lon="7.8945270610825595"><ele>227.00000000000003</ele><time>2026-04-15T16:41:26Z</time></trkpt><trkpt lat="44.56540949395388" lon="7.894533015630591"><ele>227.0</ele><time>2026-04-15T16:41:27Z</time></trkpt><trkpt lat="44.5654738172567" lon="7.894539325665103"><ele>226.83333333333334</ele><time>2026-04-15T16:41:28Z</time></trkpt><trkpt lat="44.565537716295836" lon="7.89454249571838"><ele>226.66666666666669</ele><time>2026-04-15T16:41:29Z</time></trkpt><trkpt lat="44.565629754427796" lon="7.894554656379821"><ele>226.5</ele><time>2026-04-15T16:41:31Z</time></trkpt><trkpt lat="44.565721591330835" lon="7.894561380128889"><ele>226.33333333333331</ele><time>2026-04-15T16:41:33Z</time></trkpt><trkpt lat="44.56583192710231" lon="7.89458912052415"><ele>226.16666666666666</ele><time>2026-04-15T16:41:35Z</time></trkpt><trkpt lat="44.56578615154649" lon="7.894524048717246"><ele>226.0</ele><time>2026-04-15T16:41:52Z</time></trkpt><trkpt lat="44.56571258875089" lon="7.894507451939076"><ele>226.0</ele><time>2026-04-15T16:41:54Z</time></trkpt><trkpt lat="44.56559389910451" lon="7.89448649578992"><ele>226.00000000000003</ele><time>2026-04-15T16:41:55.999Z</time></trkpt><trkpt lat="44.565520041683655" lon="7.894484175004683"><ele>226.00000000000003</ele><time>2026-04-15T16:41:56.999Z</time></trkpt><trkpt lat="44.56542478915885" lon="7.894489441115598"><ele>226.0</ele><time>2026-04-15T16:41:57.999Z</time></trkpt><trkpt lat="44.56533213390139" lon="7.894494510918678"><ele>226.0</ele><time>2026-04-15T16:41:58.999Z</time></trkpt><trkpt lat="44.56525949013014" lon="7.894494823298093"><ele>226.16666666666666</ele><time>2026-04-15T16:41:59.999Z</time></trkpt><trkpt lat="44.56519074621801" lon="7.894494632101646"><ele>226.33333333333331</ele><time>2026-04-15T16:42:00.999Z</time></trkpt><trkpt lat="44.56510805701586" lon="7.894483897280229"><ele>226.5</ele><time>2026-04-15T16:42:01.999Z</time></trkpt><trkpt lat="44.565034044682946" lon="7.894474389677188"><ele>226.66666666666669</ele><time>2026-04-15T16:42:02.999Z</time></trkpt><trkpt lat="44.56490776001057" lon="7.894461965344402"><ele>226.83333333333334</ele><time>2026-04-15T16:42:04.999Z</time></trkpt><trkpt lat="44.56483443253528" lon="7.894451136619189"><ele>227.0</ele><time>2026-04-15T16:42:05.999Z</time></trkpt><trkpt lat="44.56476537371716" lon="7.894448035681206"><ele>227.00000000000003</ele><time>2026-04-15T16:42:06.999Z</time></trkpt><trkpt lat="44.56469589027017" lon="7.894456349205289"><ele>227.0</ele><time>2026-04-15T16:42:07.999Z</time></trkpt><trkpt lat="44.564581550754625" lon="7.894473003161662"><ele>227.0</ele><time>2026-04-15T16:42:09.999Z</time></trkpt><trkpt lat="44.56451612238721" lon="7.894459967006275"><ele>227.0</ele><time>2026-04-15T16:42:10.999Z</time></trkpt><trkpt lat="44.56443070613974" lon="7.894473997217553"><ele>227.00000000000003</ele><time>2026-04-15T16:42:12.999Z</time></trkpt><trkpt lat="44.56441014515655" lon="7.894562294333276"><ele>227.0</ele><time>2026-04-15T16:42:14.999Z</time></trkpt><trkpt lat="44.56435685466531" lon="7.894636986620745"><ele>227.2</ele><time>2026-04-15T16:42:15.999Z</time></trkpt><trkpt lat="44.564297790027844" lon="7.894691382026087"><ele>227.39999999999998</ele><time>2026-04-15T16:42:16.999Z</time></trkpt><trkpt lat="44.56421544170256" lon="7.894760286280726"><ele>227.60000000000002</ele><time>2026-04-15T16:42:17.999Z</time></trkpt><trkpt lat="44.564113759920474" lon="7.89481877927879"><ele>227.8</ele><time>2026-04-15T16:42:18.999Z</time></trkpt><trkpt lat="44.56401117437587" lon="7.894883605760511"><ele>228.0</ele><time>2026-04-15T16:42:19.999Z</time></trkpt><trkpt lat="44.56391448357246" lon="7.894961699917248"><ele>228.0</ele><time>2026-04-15T16:42:20.999Z</time></trkpt><trkpt lat="44.56383419894983" lon="7.895042504249728"><ele>228.0</ele><time>2026-04-15T16:42:21.999Z</time></trkpt><trkpt lat="44.56376467856898" lon="7.895107504848661"><ele>228.0</ele><time>2026-04-15T16:42:22.999Z</time></trkpt><trkpt lat="44.563700367197434" lon="7.895165729609803"><ele>228.0</ele><time>2026-04-15T16:42:23.999Z</time></trkpt><trkpt lat="44.56364245080856" lon="7.895229020061512"><ele>228.0</ele><time>2026-04-15T16:42:24.999Z</time></trkpt><trkpt lat="44.56354154200568" lon="7.895336959216282"><ele>228.0</ele><time>2026-04-15T16:42:26.999Z</time></trkpt><trkpt lat="44.56348790479642" lon="7.8953921742865925"><ele>228.0</ele><time>2026-04-15T16:42:27.999Z</time></trkpt><trkpt lat="44.56340626745959" lon="7.895445334969124"><ele>228.0</ele><time>2026-04-15T16:42:29.999Z</time></trkpt><trkpt lat="44.56343490123281" lon="7.895545260008916"><ele>228.0</ele><time>2026-04-15T16:42:30.999Z</time></trkpt><trkpt lat="44.5634299720846" lon="7.8956667973342824"><ele>228.0</ele><time>2026-04-15T16:42:34.999Z</time></trkpt><trkpt lat="44.56348742122679" lon="7.895736882054211"><ele>228.0</ele><time>2026-04-15T16:42:35.999Z</time></trkpt><trkpt lat="44.563551728344194" lon="7.895805450609898"><ele>228.0</ele><time>2026-04-15T16:42:36.999Z</time></trkpt><trkpt lat="44.563619747076004" lon="7.895871647131024"><ele>228.0</ele><time>2026-04-15T16:42:37.999Z</time></trkpt><trkpt lat="44.563705946100754" lon="7.895943196511049"><ele>228.0</ele><time>2026-04-15T16:42:38.999Z</time></trkpt><trkpt lat="44.5637853404282" lon="7.895999242414664"><ele>228.0</ele><time>2026-04-15T16:42:39.999Z</time></trkpt><trkpt lat="44.563855342269804" lon="7.896067997521972"><ele>228.0</ele><time>2026-04-15T16:42:40.999Z</time></trkpt><trkpt lat="44.56391139930395" lon="7.896124754734335"><ele>228.0</ele><time>2026-04-15T16:42:41.999Z</time></trkpt><trkpt lat="44.56397970583988" lon="7.896242963456807"><ele>228.25</ele><time>2026-04-15T16:42:43.999Z</time></trkpt><trkpt lat="44.564006819628254" lon="7.896406635533532"><ele>228.5</ele><time>2026-04-15T16:42:45.999Z</time></trkpt><trkpt lat="44.56399524775213" lon="7.896599799161772"><ele>228.75</ele><time>2026-04-15T16:42:47.999Z</time></trkpt><trkpt lat="44.56398237677225" lon="7.8966896907652435"><ele>229.0</ele><time>2026-04-15T16:42:48.999Z</time></trkpt><trkpt lat="44.56398843172931" lon="7.896867032944008"><ele>228.49999999999997</ele><time>2026-04-15T16:42:50.999Z</time></trkpt><trkpt lat="44.564051842103986" lon="7.897016984115716"><ele>228.0</ele><time>2026-04-15T16:42:52.999Z</time></trkpt><trkpt lat="44.56410868219526" lon="7.897092738507516"><ele>227.5</ele><time>2026-04-15T16:42:53.999Z</time></trkpt><trkpt lat="44.56418160711552" lon="7.897115469158188"><ele>227.0</ele><time>2026-04-15T16:42:54.999Z</time></trkpt><trkpt lat="44.56425774369478" lon="7.897138043092119"><ele>226.49999999999997</ele><time>2026-04-15T16:42:55.999Z</time></trkpt><trkpt lat="44.564314478775145" lon="7.897083718863567"><ele>226.0</ele><time>2026-04-15T16:42:56.999Z</time></trkpt><trkpt lat="44.564347188849986" lon="7.897171138385024"><ele>226.0</ele><time>2026-04-15T16:42:57.998Z</time></trkpt><trkpt lat="44.564443575943045" lon="7.896980591776218"><ele>226.00000000000003</ele><time>2026-04-15T16:42:58.998Z</time></trkpt><trkpt lat="44.56451403470679" lon="7.89689358665038"><ele>226.00000000000003</ele><time>2026-04-15T16:42:59.998Z</time></trkpt><trkpt lat="44.56459405524136" lon="7.896829843599436"><ele>226.0</ele><time>2026-04-15T16:43:00.998Z</time></trkpt><trkpt lat="44.56466262788513" lon="7.896808425458914"><ele>226.0</ele><time>2026-04-15T16:43:01.998Z</time></trkpt><trkpt lat="44.56474862655272" lon="7.89679624959392"><ele>226.25</ele><time>2026-04-15T16:43:02.998Z</time></trkpt><trkpt lat="44.56485166283007" lon="7.896821180183454"><ele>226.5</ele><time>2026-04-15T16:43:03.998Z</time></trkpt><trkpt lat="44.564955102759875" lon="7.896902627621627"><ele>226.75</ele><time>2026-04-15T16:43:04.998Z</time></trkpt><trkpt lat="44.565065662110584" lon="7.89697665265618"><ele>227.0</ele><time>2026-04-15T16:43:05.998Z</time></trkpt><trkpt lat="44.56519862824121" lon="7.897065434595144"><ele>227.0</ele><time>2026-04-15T16:43:06.998Z</time></trkpt><trkpt lat="44.565337106840765" lon="7.897131581802263"><ele>227.0</ele><time>2026-04-15T16:43:07.998Z</time></trkpt><trkpt lat="44.56547242912863" lon="7.897282165898669"><ele>227.0</ele><time>2026-04-15T16:43:08.998Z</time></trkpt><trkpt lat="44.56562286470481" lon="7.897387224623478"><ele>226.33333333333334</ele><time>2026-04-15T16:43:09.998Z</time></trkpt><trkpt lat="44.56576848415793" lon="7.897501015002704"><ele>225.66666666666669</ele><time>2026-04-15T16:43:10.998Z</time></trkpt><trkpt lat="44.565914250054284" lon="7.897615272685295"><ele>225.0</ele><time>2026-04-15T16:43:11.998Z</time></trkpt><trkpt lat="44.566067920804116" lon="7.897745144290105"><ele>225.0</ele><time>2026-04-15T16:43:12.998Z</time></trkpt><trkpt lat="44.566217139248515" lon="7.89787027349599"><ele>225.0</ele><time>2026-04-15T16:43:13.998Z</time></trkpt><trkpt lat="44.5663730874471" lon="7.898017384260675"><ele>225.0</ele><time>2026-04-15T16:43:15Z</time></trkpt><trkpt lat="44.566527439162364" lon="7.8981552758403595"><ele>225.0</ele><time>2026-04-15T16:43:16Z</time></trkpt><trkpt lat="44.56669224799717" lon="7.898339230186798"><ele>225.0</ele><time>2026-04-15T16:43:17Z</time></trkpt><trkpt lat="44.5668305247858" lon="7.898501395292161"><ele>225.0</ele><time>2026-04-15T16:43:18Z</time></trkpt><trkpt lat="44.56697082606586" lon="7.898667438508746"><ele>224.33333333333331</ele><time>2026-04-15T16:43:19Z</time></trkpt><trkpt lat="44.56710361070083" lon="7.898849434568464"><ele>223.66666666666666</ele><time>2026-04-15T16:43:20Z</time></trkpt><trkpt lat="44.56723632644298" lon="7.899028492940205"><ele>223.0</ele><time>2026-04-15T16:43:21Z</time></trkpt><trkpt lat="44.56737291403814" lon="7.899214605383096"><ele>222.66666666666666</ele><time>2026-04-15T16:43:22Z</time></trkpt><trkpt lat="44.567492592102596" lon="7.899427242300852"><ele>222.33333333333331</ele><time>2026-04-15T16:43:23Z</time></trkpt><trkpt lat="44.56761870407747" lon="7.899624244771812"><ele>222.0</ele><time>2026-04-15T16:43:24Z</time></trkpt><trkpt lat="44.567765588901786" lon="7.8998227045472404"><ele>222.33333333333331</ele><time>2026-04-15T16:43:25Z</time></trkpt><trkpt lat="44.56789836955952" lon="7.900021655947864"><ele>222.66666666666666</ele><time>2026-04-15T16:43:26Z</time></trkpt><trkpt lat="44.56801937257732" lon="7.900224222162574"><ele>223.0</ele><time>2026-04-15T16:43:27Z</time></trkpt><trkpt lat="44.56814165545204" lon="7.900415229324222"><ele>223.33333333333331</ele><time>2026-04-15T16:43:28Z</time></trkpt><trkpt lat="44.568258563636164" lon="7.900614995402254"><ele>223.66666666666669</ele><time>2026-04-15T16:43:29Z</time></trkpt><trkpt lat="44.568387492378235" lon="7.900808222018915"><ele>224.0</ele><time>2026-04-15T16:43:30Z</time></trkpt><trkpt lat="44.56851113870805" lon="7.900994947169541"><ele>224.0</ele><time>2026-04-15T16:43:31Z</time></trkpt><trkpt lat="44.56862504936785" lon="7.901169482454153"><ele>224.0</ele><time>2026-04-15T16:43:32Z</time></trkpt><trkpt lat="44.568742313253075" lon="7.901354614856748"><ele>224.0</ele><time>2026-04-15T16:43:33Z</time></trkpt><trkpt lat="44.56885923730928" lon="7.9015433161027575"><ele>224.0</ele><time>2026-04-15T16:43:34Z</time></trkpt><trkpt lat="44.56896928094151" lon="7.901710723712705"><ele>224.0</ele><time>2026-04-15T16:43:35Z</time></trkpt><trkpt lat="44.569084010617495" lon="7.901874888647004"><ele>224.0</ele><time>2026-04-15T16:43:36Z</time></trkpt><trkpt lat="44.56920065725914" lon="7.902069365701079"><ele>223.0</ele><time>2026-04-15T16:43:37Z</time></trkpt><trkpt lat="44.56931254761117" lon="7.902248579890775"><ele>222.0</ele><time>2026-04-15T16:43:38Z</time></trkpt><trkpt lat="44.56943554514557" lon="7.902427923108514"><ele>221.0</ele><time>2026-04-15T16:43:39Z</time></trkpt><trkpt lat="44.569558601418905" lon="7.90263061184242"><ele>221.0</ele><time>2026-04-15T16:43:40Z</time></trkpt><trkpt lat="44.569688039788986" lon="7.902820616904479"><ele>221.0</ele><time>2026-04-15T16:43:41Z</time></trkpt><trkpt lat="44.569808970411216" lon="7.903005208376224"><ele>221.0</ele><time>2026-04-15T16:43:42Z</time></trkpt><trkpt lat="44.569933923613036" lon="7.903208779127814"><ele>221.0</ele><time>2026-04-15T16:43:43Z</time></trkpt><trkpt lat="44.570061907304634" lon="7.90341194513783"><ele>221.0</ele><time>2026-04-15T16:43:44Z</time></trkpt><trkpt lat="44.57018448115837" lon="7.903610423878043"><ele>221.0</ele><time>2026-04-15T16:43:45Z</time></trkpt><trkpt lat="44.57029811784654" lon="7.903794341529837"><ele>220.66666666666669</ele><time>2026-04-15T16:43:46Z</time></trkpt><trkpt lat="44.57040209342981" lon="7.903967626079503"><ele>220.33333333333331</ele><time>2026-04-15T16:43:47Z</time></trkpt><trkpt lat="44.57051237971032" lon="7.904138192454786"><ele>220.0</ele><time>2026-04-15T16:43:48Z</time></trkpt><trkpt lat="44.57062377454449" lon="7.904305561984496"><ele>219.0</ele><time>2026-04-15T16:43:49Z</time></trkpt><trkpt lat="44.570742741898" lon="7.904476218133627"><ele>218.0</ele><time>2026-04-15T16:43:50Z</time></trkpt><trkpt lat="44.57085737062567" lon="7.904656135092338"><ele>217.0</ele><time>2026-04-15T16:43:51Z</time></trkpt><trkpt lat="44.57096853248974" lon="7.9048348411469505"><ele>217.0</ele><time>2026-04-15T16:43:52Z</time></trkpt><trkpt lat="44.57109067569054" lon="7.904999735393944"><ele>217.0</ele><time>2026-04-15T16:43:53Z</time></trkpt><trkpt lat="44.571204723304184" lon="7.905163128068431"><ele>217.0</ele><time>2026-04-15T16:43:54Z</time></trkpt><trkpt lat="44.57132112684701" lon="7.90533100123963"><ele>217.33333333333331</ele><time>2026-04-15T16:43:55Z</time></trkpt><trkpt lat="44.571440393760675" lon="7.905513717211048"><ele>217.66666666666669</ele><time>2026-04-15T16:43:56Z</time></trkpt><trkpt lat="44.57156408688837" lon="7.9056873478517184"><ele>218.0</ele><time>2026-04-15T16:43:57Z</time></trkpt><trkpt lat="44.57168590141861" lon="7.905878795231062"><ele>218.0</ele><time>2026-04-15T16:43:58Z</time></trkpt><trkpt lat="44.5718034392568" lon="7.906055467735723"><ele>218.0</ele><time>2026-04-15T16:43:59Z</time></trkpt><trkpt lat="44.571925406485256" lon="7.906244436133872"><ele>218.0</ele><time>2026-04-15T16:44:00Z</time></trkpt><trkpt lat="44.572046408242265" lon="7.906438962754356"><ele>218.0</ele><time>2026-04-15T16:44:01Z</time></trkpt><trkpt lat="44.57216290929212" lon="7.906635234080546"><ele>218.0</ele><time>2026-04-15T16:44:01.999Z</time></trkpt><trkpt lat="44.57228717859867" lon="7.90683264523692"><ele>218.0</ele><time>2026-04-15T16:44:02.999Z</time></trkpt><trkpt lat="44.572415787350494" lon="7.9070293745129465"><ele>218.0</ele><time>2026-04-15T16:44:03.999Z</time></trkpt><trkpt lat="44.57254097824162" lon="7.907213352616382"><ele>218.0</ele><time>2026-04-15T16:44:04.999Z</time></trkpt><trkpt lat="44.572654520761716" lon="7.9073933591908565"><ele>218.0</ele><time>2026-04-15T16:44:05.999Z</time></trkpt><trkpt lat="44.572769896575544" lon="7.907571377609765"><ele>218.33333333333334</ele><time>2026-04-15T16:44:06.999Z</time></trkpt><trkpt lat="44.57289288359154" lon="7.907754043830937"><ele>218.66666666666669</ele><time>2026-04-15T16:44:07.999Z</time></trkpt><trkpt lat="44.57302350895628" lon="7.9079214570124465"><ele>219.0</ele><time>2026-04-15T16:44:08.999Z</time></trkpt><trkpt lat="44.573157180333546" lon="7.908086848329315"><ele>219.0</ele><time>2026-04-15T16:44:09.999Z</time></trkpt><trkpt lat="44.573303192306334" lon="7.908253676685989"><ele>219.0</ele><time>2026-04-15T16:44:10.999Z</time></trkpt><trkpt lat="44.57344415401264" lon="7.908402190800393"><ele>219.0</ele><time>2026-04-15T16:44:11.999Z</time></trkpt><trkpt lat="44.573590581698774" lon="7.908527851125089"><ele>218.33333333333331</ele><time>2026-04-15T16:44:12.999Z</time></trkpt><trkpt lat="44.57374273183699" lon="7.908660903590269"><ele>217.66666666666666</ele><time>2026-04-15T16:44:13.999Z</time></trkpt><trkpt lat="44.573896226933" lon="7.908768768807178"><ele>217.0</ele><time>2026-04-15T16:44:14.999Z</time></trkpt><trkpt lat="44.57405209595367" lon="7.908868409607846"><ele>217.0</ele><time>2026-04-15T16:44:15.999Z</time></trkpt><trkpt lat="44.57420625557392" lon="7.908970925996242"><ele>217.0</ele><time>2026-04-15T16:44:16.999Z</time></trkpt><trkpt lat="44.5743711241836" lon="7.909071570696908"><ele>217.0</ele><time>2026-04-15T16:44:17.999Z</time></trkpt><trkpt lat="44.57454064837006" lon="7.909156439923082"><ele>217.33333333333331</ele><time>2026-04-15T16:44:18.999Z</time></trkpt><trkpt lat="44.574717013353826" lon="7.909250442135507"><ele>217.66666666666669</ele><time>2026-04-15T16:44:19.999Z</time></trkpt><trkpt lat="44.57489178186486" lon="7.909332658559574"><ele>218.0</ele><time>2026-04-15T16:44:20.999Z</time></trkpt><trkpt lat="44.57507500028328" lon="7.9093940482470995"><ele>218.0</ele><time>2026-04-15T16:44:21.999Z</time></trkpt><trkpt lat="44.575251216318435" lon="7.909452595025137"><ele>218.0</ele><time>2026-04-15T16:44:22.999Z</time></trkpt><trkpt lat="44.57542798158359" lon="7.909491662262417"><ele>218.0</ele><time>2026-04-15T16:44:23.999Z</time></trkpt><trkpt lat="44.575613611291196" lon="7.909518731936487"><ele>218.0</ele><time>2026-04-15T16:44:24.999Z</time></trkpt><trkpt lat="44.57580376465696" lon="7.909548793532568"><ele>218.0</ele><time>2026-04-15T16:44:25.999Z</time></trkpt><trkpt lat="44.5759981192569" lon="7.909559998881726"><ele>218.0</ele><time>2026-04-15T16:44:26.999Z</time></trkpt><trkpt lat="44.576194061729346" lon="7.909552031291169"><ele>218.0</ele><time>2026-04-15T16:44:27.999Z</time></trkpt><trkpt lat="44.576388388443156" lon="7.909543719996437"><ele>218.0</ele><time>2026-04-15T16:44:28.999Z</time></trkpt><trkpt lat="44.57658531139069" lon="7.90953266857079"><ele>218.0</ele><time>2026-04-15T16:44:29.999Z</time></trkpt><trkpt lat="44.57676578331747" lon="7.90951511308527"><ele>218.0</ele><time>2026-04-15T16:44:30.999Z</time></trkpt><trkpt lat="44.57693509970492" lon="7.909517741391532"><ele>218.0</ele><time>2026-04-15T16:44:31.999Z</time></trkpt><trkpt lat="44.577112786392554" lon="7.90951494231457"><ele>218.0</ele><time>2026-04-15T16:44:32.999Z</time></trkpt><trkpt lat="44.57729965792079" lon="7.909511156173101"><ele>217.66666666666669</ele><time>2026-04-15T16:44:33.999Z</time></trkpt><trkpt lat="44.57748443741149" lon="7.909510694353346"><ele>217.33333333333331</ele><time>2026-04-15T16:44:34.999Z</time></trkpt><trkpt lat="44.57764548755977" lon="7.909506080693203"><ele>217.0</ele><time>2026-04-15T16:44:35.999Z</time></trkpt><trkpt lat="44.57780918912224" lon="7.9095025383649755"><ele>216.33333333333331</ele><time>2026-04-15T16:44:36.999Z</time></trkpt><trkpt lat="44.57795429497691" lon="7.9094811675451595"><ele>215.66666666666669</ele><time>2026-04-15T16:44:37.999Z</time></trkpt><trkpt lat="44.578110204004496" lon="7.909472618274052"><ele>215.0</ele><time>2026-04-15T16:44:38.999Z</time></trkpt><trkpt lat="44.57826508854593" lon="7.909476881357359"><ele>215.0</ele><time>2026-04-15T16:44:39.999Z</time></trkpt><trkpt lat="44.578430598721326" lon="7.909477052056553"><ele>215.0</ele><time>2026-04-15T16:44:40.999Z</time></trkpt><trkpt lat="44.57858287776615" lon="7.909467141029367"><ele>215.0</ele><time>2026-04-15T16:44:41.999Z</time></trkpt><trkpt lat="44.578749874255934" lon="7.9094633046282485"><ele>216.75</ele><time>2026-04-15T16:44:42.999Z</time></trkpt><trkpt lat="44.578894972914874" lon="7.909445391324912"><ele>218.5</ele><time>2026-04-15T16:44:43.999Z</time></trkpt><trkpt lat="44.57903236465193" lon="7.909425355517655"><ele>220.25</ele><time>2026-04-15T16:44:44.999Z</time></trkpt><trkpt lat="44.579167936738706" lon="7.909408403503549"><ele>222.0</ele><time>2026-04-15T16:44:45.999Z</time></trkpt><trkpt lat="44.579301424107236" lon="7.909382581665823"><ele>222.0</ele><time>2026-04-15T16:44:46.999Z</time></trkpt><trkpt lat="44.57943185840812" lon="7.909360517971758"><ele>222.0</ele><time>2026-04-15T16:44:47.999Z</time></trkpt><trkpt lat="44.579554198041514" lon="7.909335061867792"><ele>222.0</ele><time>2026-04-15T16:44:48.999Z</time></trkpt><trkpt lat="44.579666262679034" lon="7.90930215023475"><ele>222.0</ele><time>2026-04-15T16:44:49.999Z</time></trkpt><trkpt lat="44.57977611928335" lon="7.909273071786084"><ele>221.8</ele><time>2026-04-15T16:44:50.999Z</time></trkpt><trkpt lat="44.57988776196339" lon="7.909241388482652"><ele>221.6</ele><time>2026-04-15T16:44:51.999Z</time></trkpt><trkpt lat="44.5800028142716" lon="7.909213401891384"><ele>221.40000000000003</ele><time>2026-04-15T16:44:52.999Z</time></trkpt><trkpt lat="44.58009538271125" lon="7.909171147894343"><ele>221.20000000000002</ele><time>2026-04-15T16:44:53.999Z</time></trkpt><trkpt lat="44.58019000239478" lon="7.909139415569285"><ele>221.0</ele><time>2026-04-15T16:44:54.999Z</time></trkpt><trkpt lat="44.58027773458227" lon="7.9091105631430985"><ele>221.66666666666669</ele><time>2026-04-15T16:44:55.999Z</time></trkpt><trkpt lat="44.58036775495908" lon="7.909087814534697"><ele>222.33333333333334</ele><time>2026-04-15T16:44:56.999Z</time></trkpt><trkpt lat="44.58044765585321" lon="7.909068435622887"><ele>223.0</ele><time>2026-04-15T16:44:57.999Z</time></trkpt><trkpt lat="44.58052646346657" lon="7.909055544769733"><ele>223.66666666666669</ele><time>2026-04-15T16:44:58.999Z</time></trkpt><trkpt lat="44.580590790674584" lon="7.9090511784793245"><ele>224.33333333333334</ele><time>2026-04-15T16:44:59.999Z</time></trkpt><trkpt lat="44.58065706594742" lon="7.909070157035001"><ele>225.0</ele><time>2026-04-15T16:45:00.999Z</time></trkpt><trkpt lat="44.58072425425238" lon="7.9091075762148755"><ele>225.00000000000003</ele><time>2026-04-15T16:45:01.999Z</time></trkpt><trkpt lat="44.5807888492368" lon="7.909145499870788"><ele>225.0</ele><time>2026-04-15T16:45:02.999Z</time></trkpt><trkpt lat="44.580852613188036" lon="7.909175186320929"><ele>225.00000000000003</ele><time>2026-04-15T16:45:03.998Z</time></trkpt><trkpt lat="44.580925307137946" lon="7.909172498335778"><ele>225.00000000000003</ele><time>2026-04-15T16:45:04.998Z</time></trkpt><trkpt lat="44.5809911157365" lon="7.90914868925159"><ele>225.0</ele><time>2026-04-15T16:45:05.998Z</time></trkpt><trkpt lat="44.581040810547925" lon="7.909081687116855"><ele>225.00000000000003</ele><time>2026-04-15T16:45:06.998Z</time></trkpt><trkpt lat="44.58108201325213" lon="7.908978939680819"><ele>225.00000000000003</ele><time>2026-04-15T16:45:07.998Z</time></trkpt><trkpt lat="44.58108787178208" lon="7.908832418869914"><ele>225.0</ele><time>2026-04-15T16:45:08.998Z</time></trkpt><trkpt lat="44.581173252853155" lon="7.908699880281017"><ele>225.0</ele><time>2026-04-15T16:45:09.998Z</time></trkpt><trkpt lat="44.58124123866113" lon="7.908560731694688"><ele>225.0</ele><time>2026-04-15T16:45:10.998Z</time></trkpt><trkpt lat="44.58133780329788" lon="7.908436007472918"><ele>225.0</ele><time>2026-04-15T16:45:11.998Z</time></trkpt><trkpt lat="44.58144488556618" lon="7.908301388679321"><ele>224.33333333333331</ele><time>2026-04-15T16:45:12.998Z</time></trkpt><trkpt lat="44.5815617041546" lon="7.908176978026081"><ele>223.66666666666666</ele><time>2026-04-15T16:45:13.998Z</time></trkpt><trkpt lat="44.58167326815721" lon="7.908039321893507"><ele>223.0</ele><time>2026-04-15T16:45:14.998Z</time></trkpt><trkpt lat="44.581795591213336" lon="7.9078827941368255"><ele>223.0</ele><time>2026-04-15T16:45:15.998Z</time></trkpt><trkpt lat="44.58190315604292" lon="7.907717623437904"><ele>223.0</ele><time>2026-04-15T16:45:16.998Z</time></trkpt><trkpt lat="44.58200774610101" lon="7.9075387709737495"><ele>223.0</ele><time>2026-04-15T16:45:17.998Z</time></trkpt><trkpt lat="44.58211401681664" lon="7.907356571335641"><ele>223.66666666666666</ele><time>2026-04-15T16:45:18.998Z</time></trkpt><trkpt lat="44.58221908883321" lon="7.907162114024352"><ele>224.33333333333331</ele><time>2026-04-15T16:45:19.998Z</time></trkpt><trkpt lat="44.58231834115638" lon="7.906972440377408"><ele>225.0</ele><time>2026-04-15T16:45:21Z</time></trkpt><trkpt lat="44.58241567495612" lon="7.906800215469225"><ele>224.66666666666669</ele><time>2026-04-15T16:45:22Z</time></trkpt><trkpt lat="44.58252439174763" lon="7.90662029339261"><ele>224.33333333333334</ele><time>2026-04-15T16:45:23Z</time></trkpt><trkpt lat="44.58260740046438" lon="7.906432538084935"><ele>224.0</ele><time>2026-04-15T16:45:24Z</time></trkpt><trkpt lat="44.58270872317899" lon="7.906253816560907"><ele>224.0</ele><time>2026-04-15T16:45:25Z</time></trkpt><trkpt lat="44.582811058278246" lon="7.906066257256714"><ele>224.0</ele><time>2026-04-15T16:45:26Z</time></trkpt><trkpt lat="44.58290889061314" lon="7.905885592960141"><ele>224.0</ele><time>2026-04-15T16:45:27Z</time></trkpt><trkpt lat="44.58299688771831" lon="7.9057050338516"><ele>224.66666666666669</ele><time>2026-04-15T16:45:28Z</time></trkpt><trkpt lat="44.583088235296444" lon="7.905527207220741"><ele>225.33333333333331</ele><time>2026-04-15T16:45:29Z</time></trkpt><trkpt lat="44.58318299286214" lon="7.905346658939086"><ele>226.0</ele><time>2026-04-15T16:45:30Z</time></trkpt><trkpt lat="44.58327474333067" lon="7.905172305554602"><ele>225.66666666666666</ele><time>2026-04-15T16:45:31Z</time></trkpt><trkpt lat="44.58337490179618" lon="7.904983281247906"><ele>225.33333333333331</ele><time>2026-04-15T16:45:32Z</time></trkpt><trkpt lat="44.58347627751569" lon="7.9047917505805865"><ele>225.0</ele><time>2026-04-15T16:45:33Z</time></trkpt><trkpt lat="44.58357193421336" lon="7.9046009740459136"><ele>225.0</ele><time>2026-04-15T16:45:34Z</time></trkpt><trkpt lat="44.58367110706021" lon="7.904408178730966"><ele>225.0</ele><time>2026-04-15T16:45:35Z</time></trkpt><trkpt lat="44.583773954754534" lon="7.904213676010028"><ele>225.0</ele><time>2026-04-15T16:45:36Z</time></trkpt><trkpt lat="44.58386775005111" lon="7.904038988681747"><ele>226.66666666666669</ele><time>2026-04-15T16:45:37Z</time></trkpt><trkpt lat="44.58395864841462" lon="7.903839054599345"><ele>228.33333333333334</ele><time>2026-04-15T16:45:38Z</time></trkpt><trkpt lat="44.584056116385504" lon="7.903651182678335"><ele>230.0</ele><time>2026-04-15T16:45:39Z</time></trkpt><trkpt lat="44.58416172314133" lon="7.9034704448282636"><ele>228.66666666666669</ele><time>2026-04-15T16:45:40Z</time></trkpt><trkpt lat="44.584243921495194" lon="7.903283992243593"><ele>227.33333333333331</ele><time>2026-04-15T16:45:41Z</time></trkpt><trkpt lat="44.58434135638986" lon="7.903100581494654"><ele>226.0</ele><time>2026-04-15T16:45:42Z</time></trkpt><trkpt lat="44.584450262923426" lon="7.902922273311679"><ele>227.33333333333331</ele><time>2026-04-15T16:45:43Z</time></trkpt><trkpt lat="44.58453842325875" lon="7.90274802552994"><ele>228.66666666666669</ele><time>2026-04-15T16:45:44Z</time></trkpt><trkpt lat="44.58463538422975" lon="7.902574673704669"><ele>230.0</ele><time>2026-04-15T16:45:45Z</time></trkpt><trkpt lat="44.58473835002985" lon="7.9023909139258635"><ele>230.0</ele><time>2026-04-15T16:45:46Z</time></trkpt><trkpt lat="44.58484100113698" lon="7.902203782047626"><ele>230.0</ele><time>2026-04-15T16:45:47Z</time></trkpt><trkpt lat="44.58494083932496" lon="7.902028990573028"><ele>230.0</ele><time>2026-04-15T16:45:48Z</time></trkpt><trkpt lat="44.58505060624301" lon="7.901840142930485"><ele>229.66666666666669</ele><time>2026-04-15T16:45:49Z</time></trkpt><trkpt lat="44.58514869387304" lon="7.90166835236246"><ele>229.33333333333331</ele><time>2026-04-15T16:45:50Z</time></trkpt><trkpt lat="44.585242261898635" lon="7.901512888307853"><ele>229.0</ele><time>2026-04-15T16:45:51Z</time></trkpt><trkpt lat="44.585347729617716" lon="7.901345015184022"><ele>228.5</ele><time>2026-04-15T16:45:52Z</time></trkpt><trkpt lat="44.585432047897335" lon="7.901188748506157"><ele>228.0</ele><time>2026-04-15T16:45:53Z</time></trkpt><trkpt lat="44.58553161803946" lon="7.9010400439886"><ele>227.5</ele><time>2026-04-15T16:45:54Z</time></trkpt><trkpt lat="44.58561139774756" lon="7.900896576742534"><ele>227.0</ele><time>2026-04-15T16:45:55Z</time></trkpt><trkpt lat="44.58570479567472" lon="7.90073963143024"><ele>226.5</ele><time>2026-04-15T16:45:56Z</time></trkpt><trkpt lat="44.58578580560238" lon="7.900580856532334"><ele>226.0</ele><time>2026-04-15T16:45:57Z</time></trkpt><trkpt lat="44.58586597849347" lon="7.900427687685406"><ele>225.5</ele><time>2026-04-15T16:45:58Z</time></trkpt><trkpt lat="44.58594910755296" lon="7.900276186759113"><ele>225.0</ele><time>2026-04-15T16:45:59Z</time></trkpt><trkpt lat="44.58604161748824" lon="7.900125275850275"><ele>224.5</ele><time>2026-04-15T16:46:00Z</time></trkpt><trkpt lat="44.586121260980086" lon="7.899976419228974"><ele>224.0</ele><time>2026-04-15T16:46:01Z</time></trkpt><trkpt lat="44.586210075979366" lon="7.899823537103827"><ele>223.5</ele><time>2026-04-15T16:46:02Z</time></trkpt><trkpt lat="44.58630593348221" lon="7.899659531025763"><ele>223.0</ele><time>2026-04-15T16:46:03Z</time></trkpt><trkpt lat="44.58638715170668" lon="7.8995034306984255"><ele>222.33333333333331</ele><time>2026-04-15T16:46:04Z</time></trkpt><trkpt lat="44.586470981280904" lon="7.89932466000634"><ele>221.66666666666669</ele><time>2026-04-15T16:46:04.999Z</time></trkpt><trkpt lat="44.58656300332193" lon="7.8991653057623905"><ele>221.0</ele><time>2026-04-15T16:46:05.999Z</time></trkpt><trkpt lat="44.58666140770509" lon="7.899002183678171"><ele>221.0</ele><time>2026-04-15T16:46:06.999Z</time></trkpt><trkpt lat="44.586747952439474" lon="7.898853825847777"><ele>221.0</ele><time>2026-04-15T16:46:07.999Z</time></trkpt><trkpt lat="44.586842245727865" lon="7.8987009624816285"><ele>221.0</ele><time>2026-04-15T16:46:08.999Z</time></trkpt><trkpt lat="44.58694377912031" lon="7.898520228738362"><ele>221.0</ele><time>2026-04-15T16:46:09.999Z</time></trkpt><trkpt lat="44.58704446056384" lon="7.898343890326917"><ele>221.0</ele><time>2026-04-15T16:46:10.999Z</time></trkpt><trkpt lat="44.58714143948369" lon="7.898173643997575"><ele>221.0</ele><time>2026-04-15T16:46:11.999Z</time></trkpt><trkpt lat="44.587229868326396" lon="7.898002735273104"><ele>221.0</ele><time>2026-04-15T16:46:12.999Z</time></trkpt><trkpt lat="44.587325303855195" lon="7.897818791081699"><ele>221.0</ele><time>2026-04-15T16:46:13.999Z</time></trkpt><trkpt lat="44.58741984556824" lon="7.897632779110111"><ele>221.0</ele><time>2026-04-15T16:46:14.999Z</time></trkpt><trkpt lat="44.58752996325483" lon="7.897452560245361"><ele>221.0</ele><time>2026-04-15T16:46:15.999Z</time></trkpt><trkpt lat="44.587633896355335" lon="7.897283527430121"><ele>221.0</ele><time>2026-04-15T16:46:16.999Z</time></trkpt><trkpt lat="44.58773860974546" lon="7.897114057690312"><ele>221.0</ele><time>2026-04-15T16:46:17.999Z</time></trkpt><trkpt lat="44.58782673233335" lon="7.896938133827526"><ele>221.0</ele><time>2026-04-15T16:46:18.999Z</time></trkpt><trkpt lat="44.58791758648279" lon="7.89676281177317"><ele>221.0</ele><time>2026-04-15T16:46:19.999Z</time></trkpt><trkpt lat="44.588028243143164" lon="7.896609371043619"><ele>221.0</ele><time>2026-04-15T16:46:20.999Z</time></trkpt><trkpt lat="44.588130664761486" lon="7.89646641373293"><ele>221.0</ele><time>2026-04-15T16:46:21.999Z</time></trkpt><trkpt lat="44.58822114414874" lon="7.896334584167591"><ele>221.0</ele><time>2026-04-15T16:46:22.999Z</time></trkpt><trkpt lat="44.588319237127045" lon="7.896198920935029"><ele>221.0</ele><time>2026-04-15T16:46:23.999Z</time></trkpt><trkpt lat="44.5883948394912" lon="7.896040216150884"><ele>221.0</ele><time>2026-04-15T16:46:24.999Z</time></trkpt><trkpt lat="44.588488108896044" lon="7.895856040196317"><ele>221.0</ele><time>2026-04-15T16:46:25.999Z</time></trkpt><trkpt lat="44.58859204472217" lon="7.895710094562001"><ele>221.0</ele><time>2026-04-15T16:46:26.999Z</time></trkpt><trkpt lat="44.58870341903558" lon="7.895559258639003"><ele>220.0</ele><time>2026-04-15T16:46:27.999Z</time></trkpt><trkpt lat="44.588823231755796" lon="7.8954165369806395"><ele>219.0</ele><time>2026-04-15T16:46:28.999Z</time></trkpt><trkpt lat="44.588955236322185" lon="7.895289873052"><ele>218.0</ele><time>2026-04-15T16:46:29.999Z</time></trkpt><trkpt lat="44.5890914914057" lon="7.895166578912531"><ele>217.66666666666669</ele><time>2026-04-15T16:46:30.999Z</time></trkpt><trkpt lat="44.589232261546876" lon="7.895030237912838"><ele>217.33333333333331</ele><time>2026-04-15T16:46:31.999Z</time></trkpt><trkpt lat="44.589387771290546" lon="7.894914847955151"><ele>217.0</ele><time>2026-04-15T16:46:32.999Z</time></trkpt><trkpt lat="44.5895444174256" lon="7.894819656807785"><ele>217.0</ele><time>2026-04-15T16:46:33.999Z</time></trkpt><trkpt lat="44.58970889875874" lon="7.894733907449287"><ele>217.0</ele><time>2026-04-15T16:46:34.999Z</time></trkpt><trkpt lat="44.58987233394947" lon="7.894655827891962"><ele>217.0</ele><time>2026-04-15T16:46:35.999Z</time></trkpt><trkpt lat="44.59002366167058" lon="7.89458513265406"><ele>217.0</ele><time>2026-04-15T16:46:36.999Z</time></trkpt><trkpt lat="44.59018591095974" lon="7.894528421793959"><ele>217.0</ele><time>2026-04-15T16:46:37.999Z</time></trkpt><trkpt lat="44.5903449827136" lon="7.894469051560482"><ele>217.0</ele><time>2026-04-15T16:46:38.999Z</time></trkpt><trkpt lat="44.5905057591582" lon="7.894422194611278"><ele>217.0</ele><time>2026-04-15T16:46:39.999Z</time></trkpt><trkpt lat="44.59067115851071" lon="7.894369373971352"><ele>217.0</ele><time>2026-04-15T16:46:40.999Z</time></trkpt><trkpt lat="44.59082966235379" lon="7.89434113254046"><ele>217.0</ele><time>2026-04-15T16:46:41.999Z</time></trkpt><trkpt lat="44.59098438531849" lon="7.894303247797879"><ele>217.0</ele><time>2026-04-15T16:46:42.999Z</time></trkpt><trkpt lat="44.59113975129958" lon="7.894250895839563"><ele>217.0</ele><time>2026-04-15T16:46:43.999Z</time></trkpt><trkpt lat="44.59129112823656" lon="7.894220058811159"><ele>217.0</ele><time>2026-04-15T16:46:44.999Z</time></trkpt><trkpt lat="44.5914493959519" lon="7.89418010325045"><ele>217.0</ele><time>2026-04-15T16:46:45.999Z</time></trkpt><trkpt lat="44.5915989097401" lon="7.894154072138348"><ele>217.0</ele><time>2026-04-15T16:46:46.999Z</time></trkpt><trkpt lat="44.59175082455938" lon="7.89412434093292"><ele>217.0</ele><time>2026-04-15T16:46:47.999Z</time></trkpt><trkpt lat="44.59188723918058" lon="7.894078475001212"><ele>217.0</ele><time>2026-04-15T16:46:48.999Z</time></trkpt><trkpt lat="44.59202480088763" lon="7.8940380688280305"><ele>216.75</ele><time>2026-04-15T16:46:49.999Z</time></trkpt><trkpt lat="44.592164649459676" lon="7.89401166932548"><ele>216.5</ele><time>2026-04-15T16:46:50.999Z</time></trkpt><trkpt lat="44.592288248083285" lon="7.893985767625156"><ele>216.25</ele><time>2026-04-15T16:46:51.999Z</time></trkpt><trkpt lat="44.59240354234627" lon="7.89397212896118"><ele>216.0</ele><time>2026-04-15T16:46:52.999Z</time></trkpt><trkpt lat="44.592522157977186" lon="7.893954032946447"><ele>216.0</ele><time>2026-04-15T16:46:53.999Z</time></trkpt><trkpt lat="44.592643394416434" lon="7.893940526843283"><ele>216.0</ele><time>2026-04-15T16:46:54.999Z</time></trkpt><trkpt lat="44.59277773284995" lon="7.893945762558447"><ele>216.0</ele><time>2026-04-15T16:46:55.999Z</time></trkpt><trkpt lat="44.59290514408773" lon="7.893960565039588"><ele>216.0</ele><time>2026-04-15T16:46:56.999Z</time></trkpt><trkpt lat="44.5930474485805" lon="7.893990824122003"><ele>216.25</ele><time>2026-04-15T16:46:57.999Z</time></trkpt><trkpt lat="44.59318867697017" lon="7.894024866812552"><ele>216.5</ele><time>2026-04-15T16:46:58.999Z</time></trkpt><trkpt lat="44.59332578442387" lon="7.894057035956244"><ele>216.75</ele><time>2026-04-15T16:46:59.999Z</time></trkpt><trkpt lat="44.59345871007216" lon="7.894094791945139"><ele>217.0</ele><time>2026-04-15T16:47:00.999Z</time></trkpt><trkpt lat="44.59358513227595" lon="7.894120245093029"><ele>216.5</ele><time>2026-04-15T16:47:01.999Z</time></trkpt><trkpt lat="44.59371260765893" lon="7.894130571845934"><ele>216.0</ele><time>2026-04-15T16:47:02.999Z</time></trkpt><trkpt lat="44.59384642709147" lon="7.894113383963679"><ele>215.5</ele><time>2026-04-15T16:47:03.999Z</time></trkpt><trkpt lat="44.593989009362836" lon="7.894092565192066"><ele>215.0</ele><time>2026-04-15T16:47:04.999Z</time></trkpt><trkpt lat="44.59413626759287" lon="7.894042124372051"><ele>215.0</ele><time>2026-04-15T16:47:05.999Z</time></trkpt><trkpt lat="44.594284343509315" lon="7.893968189813329"><ele>215.0</ele><time>2026-04-15T16:47:06.998Z</time></trkpt><trkpt lat="44.594434297876695" lon="7.893882248946637"><ele>215.0</ele><time>2026-04-15T16:47:07.998Z</time></trkpt><trkpt lat="44.594592545389" lon="7.893804818669293"><ele>216.25</ele><time>2026-04-15T16:47:08.998Z</time></trkpt><trkpt lat="44.59474121336281" lon="7.893723919576946"><ele>217.5</ele><time>2026-04-15T16:47:09.998Z</time></trkpt><trkpt lat="44.5948813222512" lon="7.893647315978297"><ele>218.75</ele><time>2026-04-15T16:47:10.998Z</time></trkpt><trkpt lat="44.59501007653127" lon="7.893577044092677"><ele>220.0</ele><time>2026-04-15T16:47:11.998Z</time></trkpt><trkpt lat="44.595136747269486" lon="7.893513841454017"><ele>220.0</ele><time>2026-04-15T16:47:12.998Z</time></trkpt><trkpt lat="44.595251702235544" lon="7.893463161476781"><ele>220.0</ele><time>2026-04-15T16:47:13.998Z</time></trkpt><trkpt lat="44.595353866298865" lon="7.893426244454611"><ele>220.0</ele><time>2026-04-15T16:47:14.998Z</time></trkpt><trkpt lat="44.59546798765253" lon="7.893392405535704"><ele>220.0</ele><time>2026-04-15T16:47:15.998Z</time></trkpt><trkpt lat="44.59558308614791" lon="7.89337687048888"><ele>220.4</ele><time>2026-04-15T16:47:16.998Z</time></trkpt><trkpt lat="44.595694282380755" lon="7.893370375690779"><ele>220.8</ele><time>2026-04-15T16:47:17.998Z</time></trkpt><trkpt lat="44.59582508374083" lon="7.893386467007295"><ele>221.2</ele><time>2026-04-15T16:47:18.998Z</time></trkpt><trkpt lat="44.59591258145716" lon="7.893411614812879"><ele>221.6</ele><time>2026-04-15T16:47:19.998Z</time></trkpt><trkpt lat="44.59602614781985" lon="7.893395597805488"><ele>222.0</ele><time>2026-04-15T16:47:20.998Z</time></trkpt><trkpt lat="44.5961422636236" lon="7.89337306984339"><ele>222.8</ele><time>2026-04-15T16:47:21.998Z</time></trkpt><trkpt lat="44.59626393176588" lon="7.893331801427453"><ele>223.6</ele><time>2026-04-15T16:47:22.998Z</time></trkpt><trkpt lat="44.596360507781924" lon="7.893290043025169"><ele>224.40000000000003</ele><time>2026-04-15T16:47:23.998Z</time></trkpt><trkpt lat="44.59646329490723" lon="7.893223497563918"><ele>225.20000000000002</ele><time>2026-04-15T16:47:24.998Z</time></trkpt><trkpt lat="44.59655135850805" lon="7.893145324020522"><ele>226.0</ele><time>2026-04-15T16:47:25.998Z</time></trkpt><trkpt lat="44.596630506244686" lon="7.89307602641368"><ele>226.0</ele><time>2026-04-15T16:47:27Z</time></trkpt><trkpt lat="44.59670643685659" lon="7.892975393320512"><ele>226.00000000000003</ele><time>2026-04-15T16:47:28Z</time></trkpt><trkpt lat="44.596763835368826" lon="7.892859088129562"><ele>226.00000000000003</ele><time>2026-04-15T16:47:29Z</time></trkpt><trkpt lat="44.59682500694424" lon="7.8927516220318905"><ele>226.0</ele><time>2026-04-15T16:47:30Z</time></trkpt><trkpt lat="44.59688948159384" lon="7.892626663847047"><ele>226.0</ele><time>2026-04-15T16:47:31Z</time></trkpt><trkpt lat="44.59693471479252" lon="7.892509455868552"><ele>225.99999999999997</ele><time>2026-04-15T16:47:32Z</time></trkpt><trkpt lat="44.596982905242285" lon="7.892400016776614"><ele>226.0</ele><time>2026-04-15T16:47:33Z</time></trkpt><trkpt lat="44.59702683663106" lon="7.892308580183803"><ele>226.0</ele><time>2026-04-15T16:47:34Z</time></trkpt><trkpt lat="44.597062525378796" lon="7.8922240842812466"><ele>226.0</ele><time>2026-04-15T16:47:35Z</time></trkpt><trkpt lat="44.597106274119504" lon="7.89214794672765"><ele>225.99999999999997</ele><time>2026-04-15T16:47:36Z</time></trkpt><trkpt lat="44.59720849521374" lon="7.892033539814989"><ele>226.0</ele><time>2026-04-15T16:47:38Z</time></trkpt><trkpt lat="44.597268919141726" lon="7.891979689925995"><ele>225.99999999999997</ele><time>2026-04-15T16:47:39Z</time></trkpt><trkpt lat="44.59733532383473" lon="7.891930105662599"><ele>226.0</ele><time>2026-04-15T16:47:40Z</time></trkpt><trkpt lat="44.59742985594462" lon="7.891785852418503"><ele>226.0</ele><time>2026-04-15T16:47:42Z</time></trkpt><trkpt lat="44.59744253882152" lon="7.891673535465422"><ele>226.0</ele><time>2026-04-15T16:47:43Z</time></trkpt><trkpt lat="44.59749148935533" lon="7.8916160821241474"><ele>225.99999999999997</ele><time>2026-04-15T16:47:44Z</time></trkpt><trkpt lat="44.59752524078046" lon="7.891521765287178"><ele>226.0</ele><time>2026-04-15T16:47:45Z</time></trkpt><trkpt lat="44.59765121848614" lon="7.891511332503063"><ele>225.4</ele><time>2026-04-15T16:47:46Z</time></trkpt><trkpt lat="44.59774472224973" lon="7.891457148406719"><ele>224.8</ele><time>2026-04-15T16:47:47Z</time></trkpt><trkpt lat="44.59782794733088" lon="7.8913818755330185"><ele>224.20000000000002</ele><time>2026-04-15T16:47:48Z</time></trkpt><trkpt lat="44.59789991877496" lon="7.891303305977037"><ele>223.60000000000002</ele><time>2026-04-15T16:47:49Z</time></trkpt><trkpt lat="44.59799585702751" lon="7.891196722995453"><ele>223.0</ele><time>2026-04-15T16:47:50Z</time></trkpt><trkpt lat="44.598070007137466" lon="7.891059632266429"><ele>222.0</ele><time>2026-04-15T16:47:51Z</time></trkpt><trkpt lat="44.59812465820732" lon="7.890913493482235"><ele>221.0</ele><time>2026-04-15T16:47:52Z</time></trkpt><trkpt lat="44.598194249125235" lon="7.890744839464902"><ele>220.0</ele><time>2026-04-15T16:47:53Z</time></trkpt><trkpt lat="44.59823509222686" lon="7.890562260638891"><ele>219.0</ele><time>2026-04-15T16:47:54Z</time></trkpt><trkpt lat="44.598265876490515" lon="7.890396921999615"><ele>219.0</ele><time>2026-04-15T16:47:55Z</time></trkpt><trkpt lat="44.59830584482484" lon="7.890217313550031"><ele>219.0</ele><time>2026-04-15T16:47:56Z</time></trkpt><trkpt lat="44.59833119339006" lon="7.89003372544474"><ele>219.0</ele><time>2026-04-15T16:47:57Z</time></trkpt><trkpt lat="44.5983569247821" lon="7.889857516804806"><ele>219.0</ele><time>2026-04-15T16:47:58Z</time></trkpt><trkpt lat="44.59837278818298" lon="7.8896786860435295"><ele>218.75</ele><time>2026-04-15T16:47:59Z</time></trkpt><trkpt lat="44.598386538179604" lon="7.889492676311535"><ele>218.5</ele><time>2026-04-15T16:48:00Z</time></trkpt><trkpt lat="44.598386189538" lon="7.889317164096246"><ele>218.25</ele><time>2026-04-15T16:48:01Z</time></trkpt><trkpt lat="44.598377748787854" lon="7.889138298429536"><ele>218.0</ele><time>2026-04-15T16:48:02Z</time></trkpt><trkpt lat="44.59836673996725" lon="7.888975645943605"><ele>217.25</ele><time>2026-04-15T16:48:03Z</time></trkpt><trkpt lat="44.59835648744261" lon="7.888796034428674"><ele>216.5</ele><time>2026-04-15T16:48:04Z</time></trkpt><trkpt lat="44.59835321256014" lon="7.88861179901969"><ele>215.75</ele><time>2026-04-15T16:48:05Z</time></trkpt><trkpt lat="44.59833601641126" lon="7.888421383903047"><ele>215.0</ele><time>2026-04-15T16:48:06Z</time></trkpt><trkpt lat="44.598316176073546" lon="7.888237878544439"><ele>214.25</ele><time>2026-04-15T16:48:07Z</time></trkpt><trkpt lat="44.598285994118434" lon="7.8880498995113335"><ele>213.5</ele><time>2026-04-15T16:48:08Z</time></trkpt><trkpt lat="44.59825732381342" lon="7.887855496296248"><ele>212.75</ele><time>2026-04-15T16:48:09Z</time></trkpt><trkpt lat="44.59821166862247" lon="7.887654649013221"><ele>212.0</ele><time>2026-04-15T16:48:10Z</time></trkpt><trkpt lat="44.59816769093588" lon="7.887441894380519"><ele>211.0</ele><time>2026-04-15T16:48:11Z</time></trkpt><trkpt lat="44.598124312019756" lon="7.887215561057376"><ele>210.0</ele><time>2026-04-15T16:48:11.999Z</time></trkpt><trkpt lat="44.59806651243348" lon="7.8870018406353"><ele>209.0</ele><time>2026-04-15T16:48:12.999Z</time></trkpt><trkpt lat="44.59802495875499" lon="7.886795544228008"><ele>208.5</ele><time>2026-04-15T16:48:13.999Z</time></trkpt><trkpt lat="44.59798269164173" lon="7.88660575495779"><ele>208.0</ele><time>2026-04-15T16:48:14.999Z</time></trkpt><trkpt lat="44.59794388997738" lon="7.886410118252733"><ele>207.5</ele><time>2026-04-15T16:48:15.999Z</time></trkpt><trkpt lat="44.597903857590765" lon="7.886219672810301"><ele>207.0</ele><time>2026-04-15T16:48:16.999Z</time></trkpt><trkpt lat="44.597867436211445" lon="7.886028941975526"><ele>207.75</ele><time>2026-04-15T16:48:17.999Z</time></trkpt><trkpt lat="44.59783827765422" lon="7.8858382415131345"><ele>208.5</ele><time>2026-04-15T16:48:18.999Z</time></trkpt><trkpt lat="44.59780647356805" lon="7.885654680569316"><ele>209.25</ele><time>2026-04-15T16:48:19.999Z</time></trkpt><trkpt lat="44.597784459814484" lon="7.885484704705632"><ele>210.0</ele><time>2026-04-15T16:48:20.999Z</time></trkpt><trkpt lat="44.59776053440517" lon="7.88529303527291"><ele>210.0</ele><time>2026-04-15T16:48:21.999Z</time></trkpt><trkpt lat="44.59774530258506" lon="7.885110614238818"><ele>210.0</ele><time>2026-04-15T16:48:22.999Z</time></trkpt><trkpt lat="44.59772652777378" lon="7.88491587569721"><ele>210.0</ele><time>2026-04-15T16:48:23.999Z</time></trkpt><trkpt lat="44.59771777349898" lon="7.884733789364471"><ele>210.0</ele><time>2026-04-15T16:48:24.999Z</time></trkpt><trkpt lat="44.59771213429056" lon="7.884555737859944"><ele>210.0</ele><time>2026-04-15T16:48:25.999Z</time></trkpt><trkpt lat="44.59772462598271" lon="7.884379898412298"><ele>210.0</ele><time>2026-04-15T16:48:26.999Z</time></trkpt><trkpt lat="44.59773449364185" lon="7.884209195617501"><ele>210.0</ele><time>2026-04-15T16:48:27.999Z</time></trkpt><trkpt lat="44.59772836463556" lon="7.8840238495947"><ele>210.0</ele><time>2026-04-15T16:48:28.999Z</time></trkpt><trkpt lat="44.59772953433365" lon="7.883844359270567"><ele>210.25</ele><time>2026-04-15T16:48:29.999Z</time></trkpt><trkpt lat="44.59773633340016" lon="7.883672642398884"><ele>210.5</ele><time>2026-04-15T16:48:30.999Z</time></trkpt><trkpt lat="44.59773955084383" lon="7.883499252259094"><ele>210.75</ele><time>2026-04-15T16:48:31.999Z</time></trkpt><trkpt lat="44.59774453013595" lon="7.883312261407367"><ele>211.0</ele><time>2026-04-15T16:48:32.999Z</time></trkpt><trkpt lat="44.597751316207614" lon="7.8831224564680635"><ele>211.0</ele><time>2026-04-15T16:48:33.999Z</time></trkpt><trkpt lat="44.59775888067078" lon="7.882946937144342"><ele>211.0</ele><time>2026-04-15T16:48:34.999Z</time></trkpt><trkpt lat="44.59776297952587" lon="7.882769416933833"><ele>211.0</ele><time>2026-04-15T16:48:35.999Z</time></trkpt><trkpt lat="44.59776894464535" lon="7.882597267002955"><ele>211.0</ele><time>2026-04-15T16:48:36.999Z</time></trkpt><trkpt lat="44.5977754945259" lon="7.882419517473874"><ele>211.5</ele><time>2026-04-15T16:48:37.999Z</time></trkpt><trkpt lat="44.59778359260862" lon="7.882248823156981"><ele>212.0</ele><time>2026-04-15T16:48:38.999Z</time></trkpt><trkpt lat="44.59779092710735" lon="7.882076031318081"><ele>212.5</ele><time>2026-04-15T16:48:39.999Z</time></trkpt><trkpt lat="44.597800476241524" lon="7.881913031241006"><ele>213.0</ele><time>2026-04-15T16:48:40.999Z</time></trkpt><trkpt lat="44.597805360023955" lon="7.881733133476509"><ele>213.0</ele><time>2026-04-15T16:48:41.999Z</time></trkpt><trkpt lat="44.597813365172954" lon="7.881572089234116"><ele>213.0</ele><time>2026-04-15T16:48:42.999Z</time></trkpt><trkpt lat="44.5978241798558" lon="7.881438846935278"><ele>213.0</ele><time>2026-04-15T16:48:43.999Z</time></trkpt><trkpt lat="44.59783407323923" lon="7.881326580267356"><ele>213.0</ele><time>2026-04-15T16:48:44.999Z</time></trkpt><trkpt lat="44.59784175352898" lon="7.881221417529709"><ele>213.0</ele><time>2026-04-15T16:48:45.999Z</time></trkpt><trkpt lat="44.59785823928353" lon="7.881119772188942"><ele>213.0</ele><time>2026-04-15T16:48:46.999Z</time></trkpt><trkpt lat="44.59787508994488" lon="7.881010449524906"><ele>213.2</ele><time>2026-04-15T16:48:47.999Z</time></trkpt><trkpt lat="44.59789966817612" lon="7.880887093479174"><ele>213.4</ele><time>2026-04-15T16:48:48.999Z</time></trkpt><trkpt lat="44.59794793323627" lon="7.88075333962801"><ele>213.59999999999997</ele><time>2026-04-15T16:48:49.999Z</time></trkpt><trkpt lat="44.598004151081966" lon="7.880631684986654"><ele>213.79999999999998</ele><time>2026-04-15T16:48:50.999Z</time></trkpt><trkpt lat="44.59807308966422" lon="7.880521484395648"><ele>214.0</ele><time>2026-04-15T16:48:51.999Z</time></trkpt><trkpt lat="44.59814299490475" lon="7.880433161079666"><ele>214.0</ele><time>2026-04-15T16:48:52.999Z</time></trkpt><trkpt lat="44.59822962284022" lon="7.880345110793234"><ele>213.99999999999997</ele><time>2026-04-15T16:48:53.999Z</time></trkpt><trkpt lat="44.59831659211553" lon="7.880257274067409"><ele>213.99999999999997</ele><time>2026-04-15T16:48:54.999Z</time></trkpt><trkpt lat="44.59839830105483" lon="7.880172205135344"><ele>214.0</ele><time>2026-04-15T16:48:55.999Z</time></trkpt><trkpt lat="44.598467244742636" lon="7.8800938677619765"><ele>214.0</ele><time>2026-04-15T16:48:56.999Z</time></trkpt><trkpt lat="44.59853867342307" lon="7.879999765108696"><ele>214.49999999999997</ele><time>2026-04-15T16:48:57.999Z</time></trkpt><trkpt lat="44.598583256795" lon="7.87989832231312"><ele>215.0</ele><time>2026-04-15T16:48:58.999Z</time></trkpt><trkpt lat="44.598606415987035" lon="7.879785628495926"><ele>215.5</ele><time>2026-04-15T16:48:59.999Z</time></trkpt><trkpt lat="44.59862100821243" lon="7.879663952071104"><ele>216.0</ele><time>2026-04-15T16:49:00.999Z</time></trkpt><trkpt lat="44.598619409322254" lon="7.879535351880541"><ele>216.49999999999997</ele><time>2026-04-15T16:49:01.999Z</time></trkpt><trkpt lat="44.59859828247981" lon="7.879404116546989"><ele>217.0</ele><time>2026-04-15T16:49:02.999Z</time></trkpt><trkpt lat="44.598577107809604" lon="7.879286883069074"><ele>217.99999999999997</ele><time>2026-04-15T16:49:03.999Z</time></trkpt><trkpt lat="44.598545374503956" lon="7.879179701900787"><ele>219.0</ele><time>2026-04-15T16:49:04.999Z</time></trkpt><trkpt lat="44.598481607067974" lon="7.8791060108882345"><ele>220.0</ele><time>2026-04-15T16:49:05.999Z</time></trkpt><trkpt lat="44.59841380409551" lon="7.8790355755508585"><ele>221.0</ele><time>2026-04-15T16:49:06.999Z</time></trkpt><trkpt lat="44.598333285588204" lon="7.878991807397633"><ele>221.99999999999997</ele><time>2026-04-15T16:49:07.999Z</time></trkpt><trkpt lat="44.59825579629329" lon="7.878984841184584"><ele>223.0</ele><time>2026-04-15T16:49:08.999Z</time></trkpt><trkpt lat="44.5981750667202" lon="7.879005123143875"><ele>223.0</ele><time>2026-04-15T16:49:09.999Z</time></trkpt><trkpt lat="44.59805820533322" lon="7.879056728037919"><ele>223.0</ele><time>2026-04-15T16:49:10.999Z</time></trkpt><trkpt lat="44.597936027500914" lon="7.879145390168202"><ele>223.0</ele><time>2026-04-15T16:49:11.999Z</time></trkpt><trkpt lat="44.59782958222582" lon="7.879212514032914"><ele>223.0</ele><time>2026-04-15T16:49:12.999Z</time></trkpt><trkpt lat="44.59773076419244" lon="7.879272464775511"><ele>223.5</ele><time>2026-04-15T16:49:13.998Z</time></trkpt><trkpt lat="44.597621110827184" lon="7.879342293049827"><ele>224.0</ele><time>2026-04-15T16:49:14.998Z</time></trkpt><trkpt lat="44.59751289059608" lon="7.879445202114377"><ele>224.5</ele><time>2026-04-15T16:49:15.998Z</time></trkpt><trkpt lat="44.59740205930661" lon="7.879566052986978"><ele>225.0</ele><time>2026-04-15T16:49:16.998Z</time></trkpt><trkpt lat="44.59731768927526" lon="7.879657296733256"><ele>225.0</ele><time>2026-04-15T16:49:17.998Z</time></trkpt><trkpt lat="44.59723471514274" lon="7.879738008349846"><ele>225.0</ele><time>2026-04-15T16:49:18.998Z</time></trkpt><trkpt lat="44.59715749493345" lon="7.8798057812529425"><ele>225.0</ele><time>2026-04-15T16:49:19.998Z</time></trkpt><trkpt lat="44.597073423616855" lon="7.879858036799133"><ele>225.0</ele><time>2026-04-15T16:49:20.998Z</time></trkpt><trkpt lat="44.596968374788155" lon="7.879885045049127"><ele>225.0</ele><time>2026-04-15T16:49:21.998Z</time></trkpt><trkpt lat="44.59686020096324" lon="7.879862236581667"><ele>227.0</ele><time>2026-04-15T16:49:22.998Z</time></trkpt><trkpt lat="44.596756008216666" lon="7.879859408177526"><ele>229.0</ele><time>2026-04-15T16:49:23.998Z</time></trkpt><trkpt lat="44.59663008048048" lon="7.879840368412109"><ele>231.0</ele><time>2026-04-15T16:49:24.998Z</time></trkpt><trkpt lat="44.59651647894131" lon="7.87982318736869"><ele>233.0</ele><time>2026-04-15T16:49:25.998Z</time></trkpt><trkpt lat="44.596389403865345" lon="7.879813555319345"><ele>233.0</ele><time>2026-04-15T16:49:26.998Z</time></trkpt><trkpt lat="44.59626331213364" lon="7.879834095457782"><ele>233.0</ele><time>2026-04-15T16:49:27.998Z</time></trkpt><trkpt lat="44.5961363134952" lon="7.879900171517708"><ele>233.0</ele><time>2026-04-15T16:49:28.998Z</time></trkpt><trkpt lat="44.59600547307635" lon="7.879951701388198"><ele>233.0</ele><time>2026-04-15T16:49:29.998Z</time></trkpt><trkpt lat="44.59586010247041" lon="7.880022910087254"><ele>236.0</ele><time>2026-04-15T16:49:30.998Z</time></trkpt><trkpt lat="44.595722946399555" lon="7.880088637291392"><ele>239.0</ele><time>2026-04-15T16:49:31.998Z</time></trkpt><trkpt lat="44.59557842300322" lon="7.880127572966923"><ele>242.0</ele><time>2026-04-15T16:49:33Z</time></trkpt><trkpt lat="44.59542247711825" lon="7.88021174862696"><ele>239.0</ele><time>2026-04-15T16:49:34Z</time></trkpt><trkpt lat="44.59526331965053" lon="7.880251850705627"><ele>236.0</ele><time>2026-04-15T16:49:35Z</time></trkpt><trkpt lat="44.59512610398901" lon="7.880331068844974"><ele>233.0</ele><time>2026-04-15T16:49:36Z</time></trkpt><trkpt lat="44.594988382582905" lon="7.880384191863333"><ele>233.0</ele><time>2026-04-15T16:49:37Z</time></trkpt><trkpt lat="44.59485383471474" lon="7.880430013155475"><ele>233.0</ele><time>2026-04-15T16:49:38Z</time></trkpt><trkpt lat="44.59473269663477" lon="7.8804770889114035"><ele>233.0</ele><time>2026-04-15T16:49:39Z</time></trkpt><trkpt lat="44.59462423634782" lon="7.880504009013959"><ele>233.0</ele><time>2026-04-15T16:49:40Z</time></trkpt><trkpt lat="44.594513070948814" lon="7.880558891078904"><ele>235.4</ele><time>2026-04-15T16:49:41Z</time></trkpt><trkpt lat="44.594400852838106" lon="7.880589002889957"><ele>237.8</ele><time>2026-04-15T16:49:42Z</time></trkpt><trkpt lat="44.59429908783056" lon="7.880611619055277"><ele>240.2</ele><time>2026-04-15T16:49:43Z</time></trkpt><trkpt lat="44.59421884398514" lon="7.880606728164586"><ele>242.6</ele><time>2026-04-15T16:49:44Z</time></trkpt><trkpt lat="44.594135665115886" lon="7.880618855064675"><ele>245.0</ele><time>2026-04-15T16:49:45Z</time></trkpt><trkpt lat="44.59405309466509" lon="7.880630893257502"><ele>245.0</ele><time>2026-04-15T16:49:46Z</time></trkpt><trkpt lat="44.5939831115468" lon="7.880640441364669"><ele>245.0</ele><time>2026-04-15T16:49:47Z</time></trkpt><trkpt lat="44.5939179313607" lon="7.880648214622741"><ele>245.0</ele><time>2026-04-15T16:49:48Z</time></trkpt><trkpt lat="44.59382085686376" lon="7.880654600565719"><ele>245.0</ele><time>2026-04-15T16:49:50Z</time></trkpt><trkpt lat="44.59371129569021" lon="7.880661343859673"><ele>245.0</ele><time>2026-04-15T16:49:52Z</time></trkpt><trkpt lat="44.59365578681075" lon="7.880522432947296"><ele>245.2</ele><time>2026-04-15T16:49:54Z</time></trkpt><trkpt lat="44.593581370634546" lon="7.880360693831614"><ele>245.4</ele><time>2026-04-15T16:49:56Z</time></trkpt><trkpt lat="44.59355366530328" lon="7.880244624371645"><ele>245.60000000000002</ele><time>2026-04-15T16:49:57Z</time></trkpt><trkpt lat="44.59351350332409" lon="7.880122965040411"><ele>245.8</ele><time>2026-04-15T16:49:58Z</time></trkpt><trkpt lat="44.593474990024156" lon="7.880000741682773"><ele>246.0</ele><time>2026-04-15T16:49:59Z</time></trkpt><trkpt lat="44.59343253809741" lon="7.8798711026687265"><ele>247.4</ele><time>2026-04-15T16:50:00Z</time></trkpt><trkpt lat="44.59340980040715" lon="7.87975553429619"><ele>248.8</ele><time>2026-04-15T16:50:01Z</time></trkpt><trkpt lat="44.59338904213928" lon="7.879632989012426"><ele>250.20000000000002</ele><time>2026-04-15T16:50:02Z</time></trkpt><trkpt lat="44.59338405837508" lon="7.879496027014297"><ele>251.60000000000002</ele><time>2026-04-15T16:50:03Z</time></trkpt><trkpt lat="44.59339063823528" lon="7.87937465031172"><ele>253.0</ele><time>2026-04-15T16:50:04Z</time></trkpt><trkpt lat="44.59341260134808" lon="7.879237865257498"><ele>254.25</ele><time>2026-04-15T16:50:05Z</time></trkpt><trkpt lat="44.59343318121959" lon="7.879091127157327"><ele>255.5</ele><time>2026-04-15T16:50:06Z</time></trkpt><trkpt lat="44.59345838526576" lon="7.878938430801752"><ele>256.75</ele><time>2026-04-15T16:50:07Z</time></trkpt><trkpt lat="44.59348432527003" lon="7.878788220755943"><ele>258.0</ele><time>2026-04-15T16:50:08Z</time></trkpt><trkpt lat="44.593517485084774" lon="7.878620215634557"><ele>258.0</ele><time>2026-04-15T16:50:09Z</time></trkpt><trkpt lat="44.59355289659637" lon="7.878459854398699"><ele>258.0</ele><time>2026-04-15T16:50:10Z</time></trkpt><trkpt lat="44.59359546930108" lon="7.87829223004448"><ele>258.0</ele><time>2026-04-15T16:50:11Z</time></trkpt><trkpt lat="44.59362896784944" lon="7.878129895425605"><ele>258.0</ele><time>2026-04-15T16:50:12Z</time></trkpt><trkpt lat="44.59365918008662" lon="7.877957140924386"><ele>263.6</ele><time>2026-04-15T16:50:13Z</time></trkpt><trkpt lat="44.59369291135795" lon="7.877803520231011"><ele>269.20000000000005</ele><time>2026-04-15T16:50:14Z</time></trkpt><trkpt lat="44.5937262869229" lon="7.877665937540877"><ele>274.8</ele><time>2026-04-15T16:50:15Z</time></trkpt><trkpt lat="44.59375588460286" lon="7.877524191440125"><ele>280.40000000000003</ele><time>2026-04-15T16:50:16Z</time></trkpt><trkpt lat="44.59378573171088" lon="7.877369873757959"><ele>286.0</ele><time>2026-04-15T16:50:16.999Z</time></trkpt><trkpt lat="44.59381365087633" lon="7.877241932718727"><ele>286.0</ele><time>2026-04-15T16:50:17.999Z</time></trkpt><trkpt lat="44.59383765508883" lon="7.877129269119268"><ele>286.0</ele><time>2026-04-15T16:50:18.999Z</time></trkpt><trkpt lat="44.59385132485332" lon="7.877010968093356"><ele>286.0</ele><time>2026-04-15T16:50:19.999Z</time></trkpt><trkpt lat="44.593868781960346" lon="7.876906396457876"><ele>286.0</ele><time>2026-04-15T16:50:20.999Z</time></trkpt><trkpt lat="44.59389255926112" lon="7.87680668075445"><ele>286.0</ele><time>2026-04-15T16:50:21.999Z</time></trkpt><trkpt lat="44.5939355098279" lon="7.876697651286451"><ele>286.0</ele><time>2026-04-15T16:50:23.999Z</time></trkpt><trkpt lat="44.594024806502254" lon="7.8766682614959365"><ele>286.0</ele><time>2026-04-15T16:50:25.999Z</time></trkpt><trkpt lat="44.59405150827814" lon="7.8768140510374955"><ele>286.0</ele><time>2026-04-15T16:50:27.999Z</time></trkpt><trkpt lat="44.59404687750198" lon="7.876908226237037"><ele>286.0</ele><time>2026-04-15T16:50:28.999Z</time></trkpt><trkpt lat="44.59405716497963" lon="7.877050830881628"><ele>286.0</ele><time>2026-04-15T16:50:29.999Z</time></trkpt><trkpt lat="44.5940679298959" lon="7.877179296082728"><ele>286.0</ele><time>2026-04-15T16:50:30.999Z</time></trkpt><trkpt lat="44.594079863805746" lon="7.877325575231358"><ele>286.0</ele><time>2026-04-15T16:50:31.999Z</time></trkpt><trkpt lat="44.59409269725562" lon="7.8774835852801495"><ele>286.0</ele><time>2026-04-15T16:50:32.999Z</time></trkpt><trkpt lat="44.594106620413655" lon="7.877655012617364"><ele>286.0</ele><time>2026-04-15T16:50:33.999Z</time></trkpt><trkpt lat="44.59412149575271" lon="7.8778381633204155"><ele>286.0</ele><time>2026-04-15T16:50:34.999Z</time></trkpt><trkpt lat="44.59413523852958" lon="7.8780115688869765"><ele>286.0</ele><time>2026-04-15T16:50:35.999Z</time></trkpt><trkpt lat="44.59414659459017" lon="7.878157145859289"><ele>286.0</ele><time>2026-04-15T16:50:36.999Z</time></trkpt><trkpt lat="44.594169044878974" lon="7.878280269105021"><ele>286.0</ele><time>2026-04-15T16:50:37.999Z</time></trkpt><trkpt lat="44.59417768966902" lon="7.878396291647852"><ele>286.0</ele><time>2026-04-15T16:50:38.999Z</time></trkpt><trkpt lat="44.59418767298474" lon="7.878509333628378"><ele>286.0</ele><time>2026-04-15T16:50:39.999Z</time></trkpt><trkpt lat="44.59419679821068" lon="7.878606282737943"><ele>286.0</ele><time>2026-04-15T16:50:40.999Z</time></trkpt><trkpt lat="44.5942213458991" lon="7.878751362427707"><ele>284.3333333333333</ele><time>2026-04-15T16:50:42.999Z</time></trkpt><trkpt lat="44.59427597833233" lon="7.878846585334336"><ele>282.66666666666663</ele><time>2026-04-15T16:50:44.999Z</time></trkpt><trkpt lat="44.594355401529846" lon="7.878837220943543"><ele>281.0</ele><time>2026-04-15T16:50:46.999Z</time></trkpt><trkpt lat="44.594394951512875" lon="7.8787477727097235"><ele>279.3333333333333</ele><time>2026-04-15T16:50:47.999Z</time></trkpt><trkpt lat="44.59442516248528" lon="7.878653445011093"><ele>277.6666666666667</ele><time>2026-04-15T16:50:48.999Z</time></trkpt><trkpt lat="44.59444747236056" lon="7.878551432849161"><ele>276.0</ele><time>2026-04-15T16:50:49.999Z</time></trkpt><trkpt lat="44.59446104880971" lon="7.878450231434723"><ele>278.5</ele><time>2026-04-15T16:50:50.999Z</time></trkpt><trkpt lat="44.59445575372593" lon="7.878322406238301"><ele>281.0</ele><time>2026-04-15T16:50:51.999Z</time></trkpt><trkpt lat="44.5944486699673" lon="7.878150752938614"><ele>283.5</ele><time>2026-04-15T16:50:52.999Z</time></trkpt><trkpt lat="44.594448465033096" lon="7.877975108377996"><ele>286.0</ele><time>2026-04-15T16:50:53.999Z</time></trkpt><trkpt lat="44.594465252033785" lon="7.877799627949512"><ele>286.0</ele><time>2026-04-15T16:50:54.999Z</time></trkpt><trkpt lat="44.59448903723443" lon="7.877645061113086"><ele>286.0</ele><time>2026-04-15T16:50:55.999Z</time></trkpt><trkpt lat="44.59452246311701" lon="7.877477151577803"><ele>286.0</ele><time>2026-04-15T16:50:56.999Z</time></trkpt><trkpt lat="44.594552341343274" lon="7.877307616454943"><ele>286.0</ele><time>2026-04-15T16:50:57.999Z</time></trkpt><trkpt lat="44.59457069516433" lon="7.877167786329091"><ele>289.8333333333333</ele><time>2026-04-15T16:50:58.999Z</time></trkpt><trkpt lat="44.59460420060439" lon="7.877049313682435"><ele>293.66666666666663</ele><time>2026-04-15T16:50:59.999Z</time></trkpt><trkpt lat="44.59460929604049" lon="7.876939626768916"><ele>297.5</ele><time>2026-04-15T16:51:00.999Z</time></trkpt><trkpt lat="44.59463331029949" lon="7.876829853608034"><ele>301.3333333333333</ele><time>2026-04-15T16:51:01.999Z</time></trkpt><trkpt lat="44.59464715890122" lon="7.87671502797274"><ele>305.1666666666667</ele><time>2026-04-15T16:51:02.999Z</time></trkpt><trkpt lat="44.5946540562022" lon="7.8765952853234"><ele>309.0</ele><time>2026-04-15T16:51:03.999Z</time></trkpt><trkpt lat="44.59464068477629" lon="7.876463092319268"><ele>309.75</ele><time>2026-04-15T16:51:04.999Z</time></trkpt><trkpt lat="44.59460640173515" lon="7.876332577049967"><ele>310.5</ele><time>2026-04-15T16:51:05.999Z</time></trkpt><trkpt lat="44.59456182788075" lon="7.876196460338017"><ele>311.25</ele><time>2026-04-15T16:51:06.999Z</time></trkpt><trkpt lat="44.59450747167505" lon="7.876036952434893"><ele>312.0</ele><time>2026-04-15T16:51:07.999Z</time></trkpt><trkpt lat="44.59446211617722" lon="7.875879041626286"><ele>309.6</ele><time>2026-04-15T16:51:08.999Z</time></trkpt><trkpt lat="44.59440603016881" lon="7.875741826118258"><ele>307.2</ele><time>2026-04-15T16:51:09.999Z</time></trkpt><trkpt lat="44.59436972514633" lon="7.875584337205197"><ele>304.8</ele><time>2026-04-15T16:51:10.999Z</time></trkpt><trkpt lat="44.59434441409165" lon="7.875447813634375"><ele>302.4</ele><time>2026-04-15T16:51:11.999Z</time></trkpt><trkpt lat="44.5943271958117" lon="7.87532614148304"><ele>300.0</ele><time>2026-04-15T16:51:12.999Z</time></trkpt><trkpt lat="44.59432336090125" lon="7.875172137875792"><ele>301.5</ele><time>2026-04-15T16:51:13.999Z</time></trkpt><trkpt lat="44.59431791807017" lon="7.875031482429505"><ele>303.0</ele><time>2026-04-15T16:51:14.999Z</time></trkpt><trkpt lat="44.59431547157707" lon="7.8749093211359975"><ele>304.5</ele><time>2026-04-15T16:51:15.999Z</time></trkpt><trkpt lat="44.594308123192846" lon="7.874806381616148"><ele>306.0</ele><time>2026-04-15T16:51:16.999Z</time></trkpt><trkpt lat="44.59429917334352" lon="7.874700261563643"><ele>307.5</ele><time>2026-04-15T16:51:17.999Z</time></trkpt><trkpt lat="44.59428638682314" lon="7.874581279810349"><ele>309.0</ele><time>2026-04-15T16:51:18.999Z</time></trkpt><trkpt lat="44.59427039280216" lon="7.874443630332107"><ele>309.0</ele><time>2026-04-15T16:51:19.998Z</time></trkpt><trkpt lat="44.59425930373853" lon="7.874317269709192"><ele>309.0</ele><time>2026-04-15T16:51:20.998Z</time></trkpt><trkpt lat="44.59423525335986" lon="7.874199173333701"><ele>309.0</ele><time>2026-04-15T16:51:21.998Z</time></trkpt><trkpt lat="44.59422101041636" lon="7.874085246447774"><ele>309.0</ele><time>2026-04-15T16:51:22.998Z</time></trkpt><trkpt lat="44.59420506830918" lon="7.873968817484182"><ele>309.0</ele><time>2026-04-15T16:51:23.998Z</time></trkpt><trkpt lat="44.59419856405026" lon="7.873785922015033"><ele>310.4</ele><time>2026-04-15T16:51:25.998Z</time></trkpt><trkpt lat="44.59420411041447" lon="7.873664839443987"><ele>311.79999999999995</ele><time>2026-04-15T16:51:26.998Z</time></trkpt><trkpt lat="44.59423119147078" lon="7.873541763230812"><ele>313.20000000000005</ele><time>2026-04-15T16:51:27.998Z</time></trkpt><trkpt lat="44.594230562245194" lon="7.873409308203352"><ele>314.6</ele><time>2026-04-15T16:51:28.998Z</time></trkpt><trkpt lat="44.59426588999028" lon="7.873299787524921"><ele>316.0</ele><time>2026-04-15T16:51:29.998Z</time></trkpt><trkpt lat="44.59428809330501" lon="7.873174151309701"><ele>317.16666666666663</ele><time>2026-04-15T16:51:30.998Z</time></trkpt><trkpt lat="44.594307236716524" lon="7.873053074451122"><ele>318.3333333333333</ele><time>2026-04-15T16:51:31.998Z</time></trkpt><trkpt lat="44.59431310239827" lon="7.872934232885792"><ele>319.5</ele><time>2026-04-15T16:51:32.998Z</time></trkpt><trkpt lat="44.59433073715773" lon="7.872836516222153"><ele>320.6666666666667</ele><time>2026-04-15T16:51:33.998Z</time></trkpt><trkpt lat="44.59433556541329" lon="7.872742955206859"><ele>321.83333333333337</ele><time>2026-04-15T16:51:34.998Z</time></trkpt><trkpt lat="44.59434448950255" lon="7.872650335749441"><ele>323.0</ele><time>2026-04-15T16:51:35.998Z</time></trkpt><trkpt lat="44.59438866404887" lon="7.872479492989616"><ele>323.5</ele><time>2026-04-15T16:51:37.998Z</time></trkpt><trkpt lat="44.59439033730341" lon="7.872381533435712"><ele>324.0</ele><time>2026-04-15T16:51:39Z</time></trkpt><trkpt lat="44.594378912553346" lon="7.872285112717383"><ele>324.5</ele><time>2026-04-15T16:51:40Z</time></trkpt><trkpt lat="44.594378324817335" lon="7.872171394928655"><ele>325.0</ele><time>2026-04-15T16:51:41Z</time></trkpt><trkpt lat="44.59438399925529" lon="7.872035055241246"><ele>325.5</ele><time>2026-04-15T16:51:42Z</time></trkpt><trkpt lat="44.59439077060932" lon="7.871928100264924"><ele>326.0</ele><time>2026-04-15T16:51:43Z</time></trkpt><trkpt lat="44.59438226168899" lon="7.871818199590067"><ele>326.6</ele><time>2026-04-15T16:51:44Z</time></trkpt><trkpt lat="44.59437885679804" lon="7.871632993451856"><ele>327.20000000000005</ele><time>2026-04-15T16:51:46Z</time></trkpt><trkpt lat="44.594330190592245" lon="7.871503973969599"><ele>327.79999999999995</ele><time>2026-04-15T16:51:47Z</time></trkpt><trkpt lat="44.59431517952024" lon="7.871314538745199"><ele>328.4</ele><time>2026-04-15T16:51:48Z</time></trkpt><trkpt lat="44.594282670834495" lon="7.871222882928171"><ele>329.0</ele><time>2026-04-15T16:51:49Z</time></trkpt><trkpt lat="44.594282730759545" lon="7.871133391759798"><ele>329.0</ele><time>2026-04-15T16:51:50Z</time></trkpt><trkpt lat="44.594309620855775" lon="7.870995215300325"><ele>329.0</ele><time>2026-04-15T16:51:52Z</time></trkpt><trkpt lat="44.59430352830206" lon="7.870894913244464"><ele>329.0</ele><time>2026-04-15T16:51:53Z</time></trkpt><trkpt lat="44.594284498603635" lon="7.870756541297474"><ele>329.0</ele><time>2026-04-15T16:51:55Z</time></trkpt><trkpt lat="44.5942826350772" lon="7.870580207505246"><ele>329.0</ele><time>2026-04-15T16:51:57Z</time></trkpt><trkpt lat="44.59428215923057" lon="7.87048649128156"><ele>328.79999999999995</ele><time>2026-04-15T16:51:58Z</time></trkpt><trkpt lat="44.59428143396371" lon="7.870343649891588"><ele>328.59999999999997</ele><time>2026-04-15T16:51:59Z</time></trkpt><trkpt lat="44.594276107261685" lon="7.870215840151993"><ele>328.4</ele><time>2026-04-15T16:52:00Z</time></trkpt><trkpt lat="44.594268667402105" lon="7.870021974353576"><ele>328.2</ele><time>2026-04-15T16:52:02Z</time></trkpt><trkpt lat="44.59425741652077" lon="7.869896279012909"><ele>328.0</ele><time>2026-04-15T16:52:03Z</time></trkpt><trkpt lat="44.594248206252566" lon="7.869790959008676"><ele>328.0</ele><time>2026-04-15T16:52:04Z</time></trkpt><trkpt lat="44.59422300786856" lon="7.869624080762841"><ele>328.0</ele><time>2026-04-15T16:52:06Z</time></trkpt><trkpt lat="44.5942117806512" lon="7.869529020939648"><ele>328.0</ele><time>2026-04-15T16:52:07Z</time></trkpt><trkpt lat="44.59420799468448" lon="7.869431915625866"><ele>328.0</ele><time>2026-04-15T16:52:10Z</time></trkpt><trkpt lat="44.59416603110143" lon="7.869275187153883"><ele>328.0</ele><time>2026-04-15T16:52:12Z</time></trkpt><trkpt lat="44.59410367181824" lon="7.869176061295711"><ele>327.8333333333333</ele><time>2026-04-15T16:52:13Z</time></trkpt><trkpt lat="44.594016404942685" lon="7.869076185190421"><ele>327.66666666666663</ele><time>2026-04-15T16:52:15Z</time></trkpt><trkpt lat="44.59392677360042" lon="7.869001111575644"><ele>327.5</ele><time>2026-04-15T16:52:17Z</time></trkpt><trkpt lat="44.59386657254997" lon="7.868950520144091"><ele>327.3333333333333</ele><time>2026-04-15T16:52:18Z</time></trkpt><trkpt lat="44.5938019035126" lon="7.86890169759137"><ele>327.1666666666667</ele><time>2026-04-15T16:52:19Z</time></trkpt><trkpt lat="44.593719713208266" lon="7.8688710908266275"><ele>327.0</ele><time>2026-04-15T16:52:20Z</time></trkpt><trkpt lat="44.59363113967807" lon="7.86881297844136"><ele>327.0</ele><time>2026-04-15T16:52:21Z</time></trkpt><trkpt lat="44.59355690576274" lon="7.868747113176986"><ele>327.0</ele><time>2026-04-15T16:52:22Z</time></trkpt><trkpt lat="44.5934669634834" lon="7.868670259148735"><ele>327.0</ele><time>2026-04-15T16:52:23Z</time></trkpt><trkpt lat="44.59338881103067" lon="7.868603313844831"><ele>327.0</ele><time>2026-04-15T16:52:23.999Z</time></trkpt><trkpt lat="44.59330974665553" lon="7.868541764486995"><ele>327.0</ele><time>2026-04-15T16:52:24.999Z</time></trkpt><trkpt lat="44.593216205520754" lon="7.868488253036072"><ele>327.0</ele><time>2026-04-15T16:52:25.999Z</time></trkpt><trkpt lat="44.59313597648394" lon="7.86842072351575"><ele>327.0</ele><time>2026-04-15T16:52:26.999Z</time></trkpt><trkpt lat="44.59305934015023" lon="7.868355791322861"><ele>327.0</ele><time>2026-04-15T16:52:27.999Z</time></trkpt><trkpt lat="44.592980968809414" lon="7.868311554872297"><ele>327.0</ele><time>2026-04-15T16:52:28.999Z</time></trkpt><trkpt lat="44.592901925957825" lon="7.868265760262098"><ele>327.0</ele><time>2026-04-15T16:52:29.999Z</time></trkpt><trkpt lat="44.59283376130522" lon="7.868202583832775"><ele>327.0</ele><time>2026-04-15T16:52:30.999Z</time></trkpt><trkpt lat="44.592766546804725" lon="7.8681409957244135"><ele>327.20000000000005</ele><time>2026-04-15T16:52:31.999Z</time></trkpt><trkpt lat="44.59268945397768" lon="7.868078961810622"><ele>327.4</ele><time>2026-04-15T16:52:32.999Z</time></trkpt><trkpt lat="44.59260386890919" lon="7.8680242356923875"><ele>327.6</ele><time>2026-04-15T16:52:33.999Z</time></trkpt><trkpt lat="44.592516489114644" lon="7.867967853715856"><ele>327.79999999999995</ele><time>2026-04-15T16:52:34.999Z</time></trkpt><trkpt lat="44.592423564180585" lon="7.867917475911042"><ele>328.0</ele><time>2026-04-15T16:52:35.999Z</time></trkpt><trkpt lat="44.59235465796713" lon="7.867848613377801"><ele>328.0</ele><time>2026-04-15T16:52:36.999Z</time></trkpt><trkpt lat="44.59224828518157" lon="7.867782302049011"><ele>328.0</ele><time>2026-04-15T16:52:37.999Z</time></trkpt><trkpt lat="44.59216331045401" lon="7.867715405499775"><ele>328.0</ele><time>2026-04-15T16:52:38.999Z</time></trkpt><trkpt lat="44.5920750356194" lon="7.867646282967165"><ele>328.0</ele><time>2026-04-15T16:52:39.999Z</time></trkpt><trkpt lat="44.59197665004401" lon="7.867578829807008"><ele>328.0</ele><time>2026-04-15T16:52:40.999Z</time></trkpt><trkpt lat="44.59187859184764" lon="7.867514177462697"><ele>328.2</ele><time>2026-04-15T16:52:41.999Z</time></trkpt><trkpt lat="44.59180212855414" lon="7.867444672780068"><ele>328.4</ele><time>2026-04-15T16:52:42.999Z</time></trkpt><trkpt lat="44.591721040839325" lon="7.8673754949217365"><ele>328.59999999999997</ele><time>2026-04-15T16:52:43.999Z</time></trkpt><trkpt lat="44.59165387198797" lon="7.867315721484186"><ele>328.79999999999995</ele><time>2026-04-15T16:52:44.999Z</time></trkpt><trkpt lat="44.5915767320194" lon="7.867252111218106"><ele>329.0</ele><time>2026-04-15T16:52:45.999Z</time></trkpt><trkpt lat="44.5914898128094" lon="7.867187082426627"><ele>329.0</ele><time>2026-04-15T16:52:46.999Z</time></trkpt><trkpt lat="44.59139447433986" lon="7.8671174496641045"><ele>329.0</ele><time>2026-04-15T16:52:47.999Z</time></trkpt><trkpt lat="44.591320298038816" lon="7.867034573033704"><ele>329.0</ele><time>2026-04-15T16:52:48.999Z</time></trkpt><trkpt lat="44.591233552918375" lon="7.86697359238485"><ele>329.0</ele><time>2026-04-15T16:52:49.999Z</time></trkpt><trkpt lat="44.59113169141401" lon="7.866899930533611"><ele>329.0</ele><time>2026-04-15T16:52:50.999Z</time></trkpt><trkpt lat="44.59104149849728" lon="7.866827590809237"><ele>329.0</ele><time>2026-04-15T16:52:51.999Z</time></trkpt><trkpt lat="44.590957921350004" lon="7.866761036984678"><ele>329.0</ele><time>2026-04-15T16:52:52.999Z</time></trkpt><trkpt lat="44.59087092154171" lon="7.866700359055493"><ele>329.0</ele><time>2026-04-15T16:52:53.999Z</time></trkpt><trkpt lat="44.59080028539812" lon="7.86663329105419"><ele>329.0</ele><time>2026-04-15T16:52:54.999Z</time></trkpt><trkpt lat="44.59071490948949" lon="7.866572223418968"><ele>329.0</ele><time>2026-04-15T16:52:55.999Z</time></trkpt><trkpt lat="44.590630791026626" lon="7.866502278829092"><ele>329.0</ele><time>2026-04-15T16:52:56.999Z</time></trkpt><trkpt lat="44.59054966093363" lon="7.866441574690725"><ele>329.0</ele><time>2026-04-15T16:52:57.999Z</time></trkpt><trkpt lat="44.590463434420585" lon="7.866379553696855"><ele>329.0</ele><time>2026-04-15T16:52:58.999Z</time></trkpt><trkpt lat="44.59038022661392" lon="7.866315700624806"><ele>329.0</ele><time>2026-04-15T16:52:59.999Z</time></trkpt><trkpt lat="44.59029418910032" lon="7.8662517759030415"><ele>329.0</ele><time>2026-04-15T16:53:00.999Z</time></trkpt><trkpt lat="44.590209620815365" lon="7.866188131536369"><ele>329.0</ele><time>2026-04-15T16:53:01.999Z</time></trkpt><trkpt lat="44.590128621367576" lon="7.866134188013387"><ele>329.0</ele><time>2026-04-15T16:53:02.999Z</time></trkpt><trkpt lat="44.59004656954142" lon="7.866070753055872"><ele>329.0</ele><time>2026-04-15T16:53:03.999Z</time></trkpt><trkpt lat="44.589966295827764" lon="7.866007399404767"><ele>329.0</ele><time>2026-04-15T16:53:04.999Z</time></trkpt><trkpt lat="44.58987775844415" lon="7.8659364867959685"><ele>329.0</ele><time>2026-04-15T16:53:05.999Z</time></trkpt><trkpt lat="44.58978925131087" lon="7.865865520001873"><ele>329.0</ele><time>2026-04-15T16:53:06.999Z</time></trkpt><trkpt lat="44.58969550997388" lon="7.865797682859573"><ele>329.0</ele><time>2026-04-15T16:53:07.999Z</time></trkpt><trkpt lat="44.58960398346025" lon="7.865735054870633"><ele>329.0</ele><time>2026-04-15T16:53:08.999Z</time></trkpt><trkpt lat="44.58950784404439" lon="7.865666112868694"><ele>329.0</ele><time>2026-04-15T16:53:09.999Z</time></trkpt><trkpt lat="44.58943341408429" lon="7.865595776157926"><ele>329.0</ele><time>2026-04-15T16:53:10.999Z</time></trkpt><trkpt lat="44.58935106180776" lon="7.865532460165322"><ele>329.0</ele><time>2026-04-15T16:53:11.999Z</time></trkpt><trkpt lat="44.58926846731722" lon="7.865471540284644"><ele>329.0</ele><time>2026-04-15T16:53:12.999Z</time></trkpt><trkpt lat="44.5891810733191" lon="7.865407774942425"><ele>329.0</ele><time>2026-04-15T16:53:13.999Z</time></trkpt><trkpt lat="44.589088618125636" lon="7.865340327625744"><ele>329.0</ele><time>2026-04-15T16:53:14.999Z</time></trkpt><trkpt lat="44.58900027741796" lon="7.865268744094568"><ele>329.0</ele><time>2026-04-15T16:53:15.999Z</time></trkpt><trkpt lat="44.5889060437808" lon="7.865206324055159"><ele>329.0</ele><time>2026-04-15T16:53:16.999Z</time></trkpt><trkpt lat="44.58881592892926" lon="7.865132184270714"><ele>329.0</ele><time>2026-04-15T16:53:17.999Z</time></trkpt><trkpt lat="44.58872110606409" lon="7.865061378470677"><ele>329.0</ele><time>2026-04-15T16:53:18.999Z</time></trkpt><trkpt lat="44.588629390492436" lon="7.864989325717925"><ele>329.0</ele><time>2026-04-15T16:53:19.999Z</time></trkpt><trkpt lat="44.58852672466112" lon="7.864917218670873"><ele>329.0</ele><time>2026-04-15T16:53:20.999Z</time></trkpt><trkpt lat="44.58843498577685" lon="7.8648445935196065"><ele>329.2</ele><time>2026-04-15T16:53:21.999Z</time></trkpt><trkpt lat="44.58833713833591" lon="7.864775070934583"><ele>329.4</ele><time>2026-04-15T16:53:22.999Z</time></trkpt><trkpt lat="44.588240985202766" lon="7.864701272032163"><ele>329.6</ele><time>2026-04-15T16:53:23.999Z</time></trkpt><trkpt lat="44.58814289904629" lon="7.864630164250511"><ele>329.8</ele><time>2026-04-15T16:53:24.999Z</time></trkpt><trkpt lat="44.58805328585918" lon="7.864560579461001"><ele>330.0</ele><time>2026-04-15T16:53:25.999Z</time></trkpt><trkpt lat="44.587964368439245" lon="7.864489437686483"><ele>330.0</ele><time>2026-04-15T16:53:26.998Z</time></trkpt><trkpt lat="44.58786775305622" lon="7.864420658702967"><ele>330.0</ele><time>2026-04-15T16:53:27.998Z</time></trkpt><trkpt lat="44.58777138717623" lon="7.864353267441339"><ele>330.0</ele><time>2026-04-15T16:53:28.998Z</time></trkpt><trkpt lat="44.58767643338073" lon="7.864275298354554"><ele>330.0</ele><time>2026-04-15T16:53:29.998Z</time></trkpt><trkpt lat="44.58758531913759" lon="7.864196281702188"><ele>330.0</ele><time>2026-04-15T16:53:30.998Z</time></trkpt><trkpt lat="44.58749009434317" lon="7.864125384010257"><ele>330.2</ele><time>2026-04-15T16:53:31.998Z</time></trkpt><trkpt lat="44.58739126519832" lon="7.8640668545975245"><ele>330.4</ele><time>2026-04-15T16:53:32.998Z</time></trkpt><trkpt lat="44.587303147765354" lon="7.864002662231785"><ele>330.6</ele><time>2026-04-15T16:53:33.998Z</time></trkpt><trkpt lat="44.58720670190382" lon="7.863925475778608"><ele>330.8</ele><time>2026-04-15T16:53:34.998Z</time></trkpt><trkpt lat="44.58711336686646" lon="7.863850285539163"><ele>331.0</ele><time>2026-04-15T16:53:35.998Z</time></trkpt><trkpt lat="44.58702677191357" lon="7.863783970608493"><ele>331.0</ele><time>2026-04-15T16:53:36.998Z</time></trkpt><trkpt lat="44.58693305343857" lon="7.8637141772244155"><ele>331.0</ele><time>2026-04-15T16:53:37.998Z</time></trkpt><trkpt lat="44.58684227370106" lon="7.863649939422334"><ele>331.0</ele><time>2026-04-15T16:53:38.998Z</time></trkpt><trkpt lat="44.58674888951063" lon="7.863578771938863"><ele>331.0</ele><time>2026-04-15T16:53:39.998Z</time></trkpt><trkpt lat="44.58665703359174" lon="7.863506770514949"><ele>331.0</ele><time>2026-04-15T16:53:40.998Z</time></trkpt><trkpt lat="44.5865745469204" lon="7.863439778965979"><ele>331.0</ele><time>2026-04-15T16:53:41.998Z</time></trkpt><trkpt lat="44.586493664985326" lon="7.863371542026033"><ele>331.0</ele><time>2026-04-15T16:53:42.998Z</time></trkpt><trkpt lat="44.58640581227513" lon="7.863304687224064"><ele>331.0</ele><time>2026-04-15T16:53:43.998Z</time></trkpt><trkpt lat="44.5863198004231" lon="7.863228866260875"><ele>331.0</ele><time>2026-04-15T16:53:45Z</time></trkpt><trkpt lat="44.58622410245463" lon="7.863155418018972"><ele>331.0</ele><time>2026-04-15T16:53:46Z</time></trkpt><trkpt lat="44.58613182835379" lon="7.863082210801184"><ele>330.6</ele><time>2026-04-15T16:53:47Z</time></trkpt><trkpt lat="44.586033168403816" lon="7.863009464690251"><ele>330.20000000000005</ele><time>2026-04-15T16:53:48Z</time></trkpt><trkpt lat="44.58594169415351" lon="7.862938478271449"><ele>329.79999999999995</ele><time>2026-04-15T16:53:49Z</time></trkpt><trkpt lat="44.585855104384024" lon="7.862860418803017"><ele>329.4</ele><time>2026-04-15T16:53:50Z</time></trkpt><trkpt lat="44.58576378028267" lon="7.862794192261842"><ele>329.0</ele><time>2026-04-15T16:53:51Z</time></trkpt><trkpt lat="44.58566681192781" lon="7.8627252963431555"><ele>329.0</ele><time>2026-04-15T16:53:52Z</time></trkpt><trkpt lat="44.5855725988593" lon="7.862658261962397"><ele>329.0</ele><time>2026-04-15T16:53:53Z</time></trkpt><trkpt lat="44.58548005179502" lon="7.8625663874009355"><ele>329.0</ele><time>2026-04-15T16:53:54Z</time></trkpt><trkpt lat="44.58538017213949" lon="7.862488283560666"><ele>329.0</ele><time>2026-04-15T16:53:55Z</time></trkpt><trkpt lat="44.585279169308826" lon="7.862413521282687"><ele>329.0</ele><time>2026-04-15T16:53:56Z</time></trkpt><trkpt lat="44.585179447342526" lon="7.862345893220126"><ele>329.0</ele><time>2026-04-15T16:53:57Z</time></trkpt><trkpt lat="44.58508451372026" lon="7.862278570000999"><ele>329.0</ele><time>2026-04-15T16:53:58Z</time></trkpt><trkpt lat="44.58499540430224" lon="7.86218696242425"><ele>329.0</ele><time>2026-04-15T16:53:59Z</time></trkpt><trkpt lat="44.58489783054524" lon="7.862112347192495"><ele>329.0</ele><time>2026-04-15T16:54:00Z</time></trkpt><trkpt lat="44.5847939808382" lon="7.862055885758985"><ele>329.0</ele><time>2026-04-15T16:54:01Z</time></trkpt><trkpt lat="44.584702791912235" lon="7.861960508787517"><ele>329.0</ele><time>2026-04-15T16:54:02Z</time></trkpt><trkpt lat="44.58460717130836" lon="7.861887885334753"><ele>329.0</ele><time>2026-04-15T16:54:03Z</time></trkpt><trkpt lat="44.58450575360335" lon="7.861811563929128"><ele>329.0</ele><time>2026-04-15T16:54:04Z</time></trkpt><trkpt lat="44.584403881452" lon="7.861734850250081"><ele>329.0</ele><time>2026-04-15T16:54:05Z</time></trkpt><trkpt lat="44.58430254043062" lon="7.861652280992542"><ele>329.2</ele><time>2026-04-15T16:54:06Z</time></trkpt><trkpt lat="44.58419969024321" lon="7.86157450999982"><ele>329.4</ele><time>2026-04-15T16:54:07Z</time></trkpt><trkpt lat="44.58410305120044" lon="7.861498470570094"><ele>329.6</ele><time>2026-04-15T16:54:08Z</time></trkpt><trkpt lat="44.58401000519475" lon="7.861432221950716"><ele>329.8</ele><time>2026-04-15T16:54:09Z</time></trkpt><trkpt lat="44.58391785794383" lon="7.8613664323485954"><ele>330.0</ele><time>2026-04-15T16:54:10Z</time></trkpt><trkpt lat="44.58382190722598" lon="7.861291979994526"><ele>330.0</ele><time>2026-04-15T16:54:11Z</time></trkpt><trkpt lat="44.58372666531962" lon="7.86121838471369"><ele>330.0</ele><time>2026-04-15T16:54:12Z</time></trkpt><trkpt lat="44.5836327003733" lon="7.861146927654007"><ele>330.0</ele><time>2026-04-15T16:54:13Z</time></trkpt><trkpt lat="44.583539777485726" lon="7.861076926284315"><ele>330.0</ele><time>2026-04-15T16:54:14Z</time></trkpt><trkpt lat="44.58344350642526" lon="7.861005523282906"><ele>330.0</ele><time>2026-04-15T16:54:15Z</time></trkpt><trkpt lat="44.58334613080926" lon="7.860932989499899"><ele>330.4</ele><time>2026-04-15T16:54:16Z</time></trkpt><trkpt lat="44.583251854513165" lon="7.860860449412174"><ele>330.8</ele><time>2026-04-15T16:54:17Z</time></trkpt><trkpt lat="44.58315869254396" lon="7.860786657959874"><ele>331.20000000000005</ele><time>2026-04-15T16:54:18Z</time></trkpt><trkpt lat="44.5830678847283" lon="7.860717462262634"><ele>331.6</ele><time>2026-04-15T16:54:19Z</time></trkpt><trkpt lat="44.58298217128945" lon="7.860651687123416"><ele>332.0</ele><time>2026-04-15T16:54:20Z</time></trkpt><trkpt lat="44.58289748643435" lon="7.860586217570765"><ele>332.0</ele><time>2026-04-15T16:54:21Z</time></trkpt><trkpt lat="44.58280585008888" lon="7.860522400897105"><ele>332.0</ele><time>2026-04-15T16:54:22Z</time></trkpt><trkpt lat="44.5827107362078" lon="7.860450542039372"><ele>332.0</ele><time>2026-04-15T16:54:23Z</time></trkpt><trkpt lat="44.582617289116875" lon="7.860384159828845"><ele>332.0</ele><time>2026-04-15T16:54:24Z</time></trkpt><trkpt lat="44.582527144124356" lon="7.860314976214845"><ele>332.0</ele><time>2026-04-15T16:54:25Z</time></trkpt><trkpt lat="44.58243053704213" lon="7.8602403614280485"><ele>332.0</ele><time>2026-04-15T16:54:26Z</time></trkpt><trkpt lat="44.582340304156624" lon="7.860145058976979"><ele>332.0</ele><time>2026-04-15T16:54:27Z</time></trkpt><trkpt lat="44.582233633872306" lon="7.86008946192705"><ele>332.0</ele><time>2026-04-15T16:54:28Z</time></trkpt><trkpt lat="44.5821372758537" lon="7.8600118864239565"><ele>332.0</ele><time>2026-04-15T16:54:29Z</time></trkpt><trkpt lat="44.58203456371231" lon="7.859929981756219"><ele>332.0</ele><time>2026-04-15T16:54:30Z</time></trkpt><trkpt lat="44.58193685832706" lon="7.85985548952267"><ele>332.0</ele><time>2026-04-15T16:54:30.999Z</time></trkpt><trkpt lat="44.58183932861785" lon="7.859780784809101"><ele>332.0</ele><time>2026-04-15T16:54:31.999Z</time></trkpt><trkpt lat="44.58174208523783" lon="7.859703139850265"><ele>332.0</ele><time>2026-04-15T16:54:32.999Z</time></trkpt><trkpt lat="44.5816416289893" lon="7.8596238565390975"><ele>332.0</ele><time>2026-04-15T16:54:33.999Z</time></trkpt><trkpt lat="44.58154394376642" lon="7.859550749013502"><ele>332.0</ele><time>2026-04-15T16:54:34.999Z</time></trkpt><trkpt lat="44.581441266032265" lon="7.859472014816235"><ele>332.0</ele><time>2026-04-15T16:54:35.999Z</time></trkpt><trkpt lat="44.58133714866763" lon="7.859395180047543"><ele>332.0</ele><time>2026-04-15T16:54:36.999Z</time></trkpt><trkpt lat="44.58120770843927" lon="7.859296501406312"><ele>332.0</ele><time>2026-04-15T16:54:37.999Z</time></trkpt><trkpt lat="44.58108850141057" lon="7.859201475566543"><ele>332.0</ele><time>2026-04-15T16:54:38.999Z</time></trkpt><trkpt lat="44.580960234023316" lon="7.859108943455872"><ele>332.0</ele><time>2026-04-15T16:54:39.999Z</time></trkpt><trkpt lat="44.58082668262923" lon="7.858998807058346"><ele>332.0</ele><time>2026-04-15T16:54:40.999Z</time></trkpt><trkpt lat="44.580686863601706" lon="7.858892062376891"><ele>332.0</ele><time>2026-04-15T16:54:41.999Z</time></trkpt><trkpt lat="44.580546523962425" lon="7.858781377073476"><ele>332.0</ele><time>2026-04-15T16:54:42.999Z</time></trkpt><trkpt lat="44.58040217680799" lon="7.858680636707218"><ele>332.0</ele><time>2026-04-15T16:54:43.999Z</time></trkpt><trkpt lat="44.5802639235067" lon="7.858549651867396"><ele>332.33333333333337</ele><time>2026-04-15T16:54:44.999Z</time></trkpt><trkpt lat="44.58010983808903" lon="7.858430056040754"><ele>332.6666666666667</ele><time>2026-04-15T16:54:45.999Z</time></trkpt><trkpt lat="44.57994993124887" lon="7.858305941759745"><ele>333.0</ele><time>2026-04-15T16:54:46.999Z</time></trkpt><trkpt lat="44.579790356696044" lon="7.858182085668551"><ele>333.0</ele><time>2026-04-15T16:54:47.999Z</time></trkpt><trkpt lat="44.57963953696822" lon="7.858062885653639"><ele>333.0</ele><time>2026-04-15T16:54:48.999Z</time></trkpt><trkpt lat="44.579484678862144" lon="7.857941955375959"><ele>333.0</ele><time>2026-04-15T16:54:49.999Z</time></trkpt><trkpt lat="44.57933053988169" lon="7.857824913004913"><ele>333.0</ele><time>2026-04-15T16:54:50.999Z</time></trkpt><trkpt lat="44.57917511950722" lon="7.857706897654007"><ele>333.0</ele><time>2026-04-15T16:54:51.999Z</time></trkpt><trkpt lat="44.579015073966104" lon="7.857585370264315"><ele>333.0</ele><time>2026-04-15T16:54:52.999Z</time></trkpt><trkpt lat="44.578854270383374" lon="7.857461914881644"><ele>333.0</ele><time>2026-04-15T16:54:53.999Z</time></trkpt><trkpt lat="44.57868953275822" lon="7.857334989731356"><ele>333.0</ele><time>2026-04-15T16:54:54.999Z</time></trkpt><trkpt lat="44.57852935178776" lon="7.857211575267775"><ele>333.0</ele><time>2026-04-15T16:54:55.999Z</time></trkpt><trkpt lat="44.57836327049677" lon="7.857083614819295"><ele>333.0</ele><time>2026-04-15T16:54:56.999Z</time></trkpt><trkpt lat="44.57820840655593" lon="7.8569642970730165"><ele>333.0</ele><time>2026-04-15T16:54:57.999Z</time></trkpt><trkpt lat="44.578059339950904" lon="7.856868685757792"><ele>333.0</ele><time>2026-04-15T16:54:58.999Z</time></trkpt><trkpt lat="44.5779272774452" lon="7.85674769602939"><ele>332.75</ele><time>2026-04-15T16:54:59.999Z</time></trkpt><trkpt lat="44.577785078296685" lon="7.856661668487091"><ele>332.5</ele><time>2026-04-15T16:55:00.999Z</time></trkpt><trkpt lat="44.577658487547026" lon="7.856557544974381"><ele>332.25</ele><time>2026-04-15T16:55:01.999Z</time></trkpt><trkpt lat="44.577542482727516" lon="7.856464361755807"><ele>332.0</ele><time>2026-04-15T16:55:02.999Z</time></trkpt><trkpt lat="44.57743412008511" lon="7.856369093985979"><ele>332.0</ele><time>2026-04-15T16:55:03.999Z</time></trkpt><trkpt lat="44.57733038944096" lon="7.856275698102407"><ele>332.0</ele><time>2026-04-15T16:55:04.999Z</time></trkpt><trkpt lat="44.57723006837943" lon="7.856177080412276"><ele>332.0</ele><time>2026-04-15T16:55:05.999Z</time></trkpt><trkpt lat="44.57713128588347" lon="7.856072621736655"><ele>332.0</ele><time>2026-04-15T16:55:06.999Z</time></trkpt><trkpt lat="44.577035809788875" lon="7.855958356730502"><ele>332.5</ele><time>2026-04-15T16:55:07.999Z</time></trkpt><trkpt lat="44.57694618510155" lon="7.855835127814118"><ele>333.0</ele><time>2026-04-15T16:55:08.999Z</time></trkpt><trkpt lat="44.57686076405929" lon="7.855703903541224"><ele>333.5</ele><time>2026-04-15T16:55:09.999Z</time></trkpt><trkpt lat="44.57677512156304" lon="7.855562966315825"><ele>334.0</ele><time>2026-04-15T16:55:10.999Z</time></trkpt><trkpt lat="44.57669746751639" lon="7.855410772753108"><ele>334.0</ele><time>2026-04-15T16:55:11.999Z</time></trkpt><trkpt lat="44.5766216211853" lon="7.855246905356201"><ele>334.0</ele><time>2026-04-15T16:55:12.999Z</time></trkpt><trkpt lat="44.57655161729735" lon="7.855083803590788"><ele>334.0</ele><time>2026-04-15T16:55:13.999Z</time></trkpt><trkpt lat="44.57648193653526" lon="7.854902874203431"><ele>334.0</ele><time>2026-04-15T16:55:14.999Z</time></trkpt><trkpt lat="44.57641369959601" lon="7.85472586939089"><ele>334.25</ele><time>2026-04-15T16:55:15.999Z</time></trkpt><trkpt lat="44.576348342094946" lon="7.854551275043268"><ele>334.5</ele><time>2026-04-15T16:55:16.999Z</time></trkpt><trkpt lat="44.576277336301345" lon="7.854373166787025"><ele>334.75</ele><time>2026-04-15T16:55:17.999Z</time></trkpt><trkpt lat="44.576211877753984" lon="7.854195634215115"><ele>335.0</ele><time>2026-04-15T16:55:18.999Z</time></trkpt><trkpt lat="44.57614480776684" lon="7.854017879493713"><ele>335.0</ele><time>2026-04-15T16:55:19.999Z</time></trkpt><trkpt lat="44.57608422784368" lon="7.853856356371075"><ele>335.0</ele><time>2026-04-15T16:55:20.999Z</time></trkpt><trkpt lat="44.57602167950872" lon="7.853695464753601"><ele>335.0</ele><time>2026-04-15T16:55:21.999Z</time></trkpt><trkpt lat="44.5759568779816" lon="7.8535260974492695"><ele>335.0</ele><time>2026-04-15T16:55:22.999Z</time></trkpt><trkpt lat="44.57589260702929" lon="7.85336231121909"><ele>334.75</ele><time>2026-04-15T16:55:23.999Z</time></trkpt><trkpt lat="44.57582994179309" lon="7.853200757148494"><ele>334.5</ele><time>2026-04-15T16:55:24.999Z</time></trkpt><trkpt lat="44.57576254529932" lon="7.853037478954434"><ele>334.25</ele><time>2026-04-15T16:55:25.999Z</time></trkpt><trkpt lat="44.575698246493715" lon="7.852876373439785"><ele>334.0</ele><time>2026-04-15T16:55:26.999Z</time></trkpt><trkpt lat="44.575634562895004" lon="7.852712264256087"><ele>334.5</ele><time>2026-04-15T16:55:27.999Z</time></trkpt><trkpt lat="44.575573385524194" lon="7.852548642216752"><ele>335.0</ele><time>2026-04-15T16:55:28.999Z</time></trkpt><trkpt lat="44.57551829854839" lon="7.852388359587188"><ele>335.5</ele><time>2026-04-15T16:55:29.999Z</time></trkpt><trkpt lat="44.57546047092541" lon="7.852241073394012"><ele>336.0</ele><time>2026-04-15T16:55:30.999Z</time></trkpt><trkpt lat="44.57540569406398" lon="7.852093561968795"><ele>336.25</ele><time>2026-04-15T16:55:31.999Z</time></trkpt><trkpt lat="44.57534583022281" lon="7.851950414100208"><ele>336.5</ele><time>2026-04-15T16:55:32.998Z</time></trkpt><trkpt lat="44.575287285010795" lon="7.851802394006362"><ele>336.75</ele><time>2026-04-15T16:55:33.998Z</time></trkpt><trkpt lat="44.57523233517471" lon="7.851652743668621"><ele>337.0</ele><time>2026-04-15T16:55:34.998Z</time></trkpt><trkpt lat="44.57517330432229" lon="7.8515014936528535"><ele>337.25</ele><time>2026-04-15T16:55:35.998Z</time></trkpt><trkpt lat="44.575116266689506" lon="7.851356994088459"><ele>337.5</ele><time>2026-04-15T16:55:36.998Z</time></trkpt><trkpt lat="44.57505770668708" lon="7.851216245023815"><ele>337.75</ele><time>2026-04-15T16:55:37.998Z</time></trkpt><trkpt lat="44.57500343240901" lon="7.8510748848033876"><ele>338.0</ele><time>2026-04-15T16:55:38.998Z</time></trkpt><trkpt lat="44.5749417828293" lon="7.850920338387851"><ele>338.25</ele><time>2026-04-15T16:55:39.998Z</time></trkpt><trkpt lat="44.57488541438625" lon="7.850772193372551"><ele>338.5</ele><time>2026-04-15T16:55:40.998Z</time></trkpt><trkpt lat="44.57482914367696" lon="7.850623328058739"><ele>338.75</ele><time>2026-04-15T16:55:41.998Z</time></trkpt><trkpt lat="44.57477368935691" lon="7.8504681684228945"><ele>339.0</ele><time>2026-04-15T16:55:42.998Z</time></trkpt><trkpt lat="44.57471198745081" lon="7.8503134784553605"><ele>339.0</ele><time>2026-04-15T16:55:43.998Z</time></trkpt><trkpt lat="44.57464853665515" lon="7.8501531314877955"><ele>339.0</ele><time>2026-04-15T16:55:44.998Z</time></trkpt><trkpt lat="44.574588594649136" lon="7.85000697661582"><ele>339.0</ele><time>2026-04-15T16:55:45.998Z</time></trkpt><trkpt lat="44.57452304833903" lon="7.849853620827546"><ele>339.0</ele><time>2026-04-15T16:55:46.998Z</time></trkpt><trkpt lat="44.57446145163494" lon="7.849694945108845"><ele>338.75</ele><time>2026-04-15T16:55:47.998Z</time></trkpt><trkpt lat="44.57439838908895" lon="7.84954372802083"><ele>338.5</ele><time>2026-04-15T16:55:48.998Z</time></trkpt><trkpt lat="44.57433608937161" lon="7.849386446437493"><ele>338.25</ele><time>2026-04-15T16:55:49.998Z</time></trkpt><trkpt lat="44.574274506422086" lon="7.849232723871263"><ele>338.0</ele><time>2026-04-15T16:55:51Z</time></trkpt><trkpt lat="44.574217110682675" lon="7.849085867572304"><ele>338.0</ele><time>2026-04-15T16:55:52Z</time></trkpt><trkpt lat="44.57416198403557" lon="7.84894930302388"><ele>338.0</ele><time>2026-04-15T16:55:53Z</time></trkpt><trkpt lat="44.57411436858693" lon="7.84881517599302"><ele>338.0</ele><time>2026-04-15T16:55:54Z</time></trkpt><trkpt lat="44.574065507729834" lon="7.848684872861718"><ele>338.0</ele><time>2026-04-15T16:55:55Z</time></trkpt><trkpt lat="44.574021200076125" lon="7.84856881273373"><ele>338.0</ele><time>2026-04-15T16:55:56Z</time></trkpt><trkpt lat="44.57397889589445" lon="7.848460562671822"><ele>337.8571428571429</ele><time>2026-04-15T16:55:57Z</time></trkpt><trkpt lat="44.57394107180169" lon="7.848359101028357"><ele>337.7142857142857</ele><time>2026-04-15T16:55:58Z</time></trkpt><trkpt lat="44.57391032283226" lon="7.8482658860377414"><ele>337.57142857142856</ele><time>2026-04-15T16:55:59Z</time></trkpt><trkpt lat="44.573888629857784" lon="7.848166029307137"><ele>337.42857142857144</ele><time>2026-04-15T16:56:00Z</time></trkpt><trkpt lat="44.57388442599916" lon="7.848070327001631"><ele>337.2857142857143</ele><time>2026-04-15T16:56:01Z</time></trkpt><trkpt lat="44.573900595390846" lon="7.847963325995841"><ele>337.14285714285717</ele><time>2026-04-15T16:56:02Z</time></trkpt><trkpt lat="44.57392554361262" lon="7.847867460943731"><ele>337.0</ele><time>2026-04-15T16:56:03Z</time></trkpt><trkpt lat="44.57394466815652" lon="7.847781752917449"><ele>337.0</ele><time>2026-04-15T16:56:04Z</time></trkpt><trkpt lat="44.57395433857763" lon="7.8476892506797205"><ele>337.0</ele><time>2026-04-15T16:56:05Z</time></trkpt><trkpt lat="44.57394877157091" lon="7.847593352323696"><ele>337.0</ele><time>2026-04-15T16:56:06Z</time></trkpt><trkpt lat="44.573887570973596" lon="7.84746096661476"><ele>337.0</ele><time>2026-04-15T16:56:08Z</time></trkpt><trkpt lat="44.57382512921074" lon="7.847433372677047"><ele>337.0</ele><time>2026-04-15T16:56:09Z</time></trkpt><trkpt lat="44.57374610929617" lon="7.847446047339613"><ele>337.0</ele><time>2026-04-15T16:56:10Z</time></trkpt><trkpt lat="44.57365477699681" lon="7.847464026961487"><ele>337.0</ele><time>2026-04-15T16:56:11Z</time></trkpt><trkpt lat="44.57355863244406" lon="7.847438978816559"><ele>337.0</ele><time>2026-04-15T16:56:12Z</time></trkpt><trkpt lat="44.57345637399041" lon="7.8473798153665735"><ele>337.0</ele><time>2026-04-15T16:56:13Z</time></trkpt><trkpt lat="44.573347290606726" lon="7.847307362610232"><ele>337.0</ele><time>2026-04-15T16:56:14Z</time></trkpt><trkpt lat="44.57322753290699" lon="7.847238325511826"><ele>337.0</ele><time>2026-04-15T16:56:15Z</time></trkpt><trkpt lat="44.57309753428502" lon="7.847160926512407"><ele>337.0</ele><time>2026-04-15T16:56:16Z</time></trkpt><trkpt lat="44.57296100297334" lon="7.84708370961102"><ele>337.0</ele><time>2026-04-15T16:56:17Z</time></trkpt><trkpt lat="44.57281520947011" lon="7.8470037211901955"><ele>337.0</ele><time>2026-04-15T16:56:18Z</time></trkpt><trkpt lat="44.57266162870384" lon="7.846916489836079"><ele>337.66666666666663</ele><time>2026-04-15T16:56:19Z</time></trkpt><trkpt lat="44.57249288859624" lon="7.846831106622729"><ele>338.3333333333333</ele><time>2026-04-15T16:56:20Z</time></trkpt><trkpt lat="44.57231683134118" lon="7.846742673965988"><ele>339.0</ele><time>2026-04-15T16:56:21Z</time></trkpt><trkpt lat="44.57214151630939" lon="7.846655719118243"><ele>338.3333333333333</ele><time>2026-04-15T16:56:22Z</time></trkpt><trkpt lat="44.571965615984595" lon="7.846569138243627"><ele>337.66666666666663</ele><time>2026-04-15T16:56:23Z</time></trkpt><trkpt lat="44.57178329225049" lon="7.846482379328754"><ele>337.0</ele><time>2026-04-15T16:56:24Z</time></trkpt><trkpt lat="44.571587032957154" lon="7.846388203490124"><ele>337.0</ele><time>2026-04-15T16:56:25Z</time></trkpt><trkpt lat="44.57139026168979" lon="7.846289553300302"><ele>337.0</ele><time>2026-04-15T16:56:26Z</time></trkpt><trkpt lat="44.57119431333532" lon="7.846195351010083"><ele>337.0</ele><time>2026-04-15T16:56:27Z</time></trkpt><trkpt lat="44.5709852292972" lon="7.846084252551821"><ele>337.3333333333333</ele><time>2026-04-15T16:56:28Z</time></trkpt><trkpt lat="44.57080273728662" lon="7.845993305547977"><ele>337.6666666666667</ele><time>2026-04-15T16:56:29Z</time></trkpt><trkpt lat="44.570618349030916" lon="7.845903287249801"><ele>338.0</ele><time>2026-04-15T16:56:30Z</time></trkpt><trkpt lat="44.57043215426949" lon="7.845804871222873"><ele>338.6666666666667</ele><time>2026-04-15T16:56:31Z</time></trkpt><trkpt lat="44.57025271577795" lon="7.845710305089612"><ele>339.3333333333333</ele><time>2026-04-15T16:56:32Z</time></trkpt><trkpt lat="44.57007834354741" lon="7.845612087876121"><ele>340.0</ele><time>2026-04-15T16:56:33Z</time></trkpt><trkpt lat="44.5698965961517" lon="7.845533963948883"><ele>340.0</ele><time>2026-04-15T16:56:34Z</time></trkpt><trkpt lat="44.56971815079558" lon="7.845437384833308"><ele>340.0</ele><time>2026-04-15T16:56:35Z</time></trkpt><trkpt lat="44.56953961745869" lon="7.845328418901202"><ele>340.0</ele><time>2026-04-15T16:56:36Z</time></trkpt><trkpt lat="44.569367380274585" lon="7.845228654694252"><ele>340.3333333333333</ele><time>2026-04-15T16:56:36.999Z</time></trkpt><trkpt lat="44.56919443868831" lon="7.845126715891492"><ele>340.6666666666667</ele><time>2026-04-15T16:56:37.999Z</time></trkpt><trkpt lat="44.56901228852302" lon="7.845028448766128"><ele>341.0</ele><time>2026-04-15T16:56:38.999Z</time></trkpt><trkpt lat="44.56883572194132" lon="7.84492582725137"><ele>340.0</ele><time>2026-04-15T16:56:39.999Z</time></trkpt><trkpt lat="44.568659971409694" lon="7.844810677455786"><ele>339.0</ele><time>2026-04-15T16:56:40.999Z</time></trkpt><trkpt lat="44.5684875131713" lon="7.8447027509831"><ele>338.0</ele><time>2026-04-15T16:56:41.999Z</time></trkpt><trkpt lat="44.568312565755335" lon="7.844601239532294"><ele>338.0</ele><time>2026-04-15T16:56:42.999Z</time></trkpt><trkpt lat="44.56814210020638" lon="7.844496019140989"><ele>338.0</ele><time>2026-04-15T16:56:43.999Z</time></trkpt><trkpt lat="44.567973001696004" lon="7.844394340692707"><ele>338.0</ele><time>2026-04-15T16:56:44.999Z</time></trkpt><trkpt lat="44.567806151166586" lon="7.8442985554576765"><ele>338.33333333333337</ele><time>2026-04-15T16:56:45.999Z</time></trkpt><trkpt lat="44.56763863921655" lon="7.844194580625016"><ele>338.6666666666667</ele><time>2026-04-15T16:56:46.999Z</time></trkpt><trkpt lat="44.56747306820685" lon="7.844093404912843"><ele>339.0</ele><time>2026-04-15T16:56:47.999Z</time></trkpt><trkpt lat="44.56731442893925" lon="7.844012021234859"><ele>339.0</ele><time>2026-04-15T16:56:48.999Z</time></trkpt><trkpt lat="44.567154417424874" lon="7.843899174240414"><ele>339.0</ele><time>2026-04-15T16:56:49.999Z</time></trkpt><trkpt lat="44.566984482303006" lon="7.84379875046774"><ele>339.0</ele><time>2026-04-15T16:56:50.999Z</time></trkpt><trkpt lat="44.566818399385156" lon="7.843699616526415"><ele>339.3333333333333</ele><time>2026-04-15T16:56:51.999Z</time></trkpt><trkpt lat="44.56664438758003" lon="7.843595749898128"><ele>339.66666666666663</ele><time>2026-04-15T16:56:52.999Z</time></trkpt><trkpt lat="44.56647026040512" lon="7.843491814415347"><ele>340.0</ele><time>2026-04-15T16:56:53.999Z</time></trkpt><trkpt lat="44.566280617004836" lon="7.843400641099272"><ele>339.3333333333333</ele><time>2026-04-15T16:56:54.999Z</time></trkpt><trkpt lat="44.56610756325052" lon="7.84329373299674"><ele>338.6666666666667</ele><time>2026-04-15T16:56:55.999Z</time></trkpt><trkpt lat="44.565936598432536" lon="7.84319436008878"><ele>338.0</ele><time>2026-04-15T16:56:56.999Z</time></trkpt><trkpt lat="44.56577436474873" lon="7.843074436047899"><ele>338.0</ele><time>2026-04-15T16:56:57.999Z</time></trkpt><trkpt lat="44.56560734748007" lon="7.842974012303471"><ele>338.0</ele><time>2026-04-15T16:56:58.999Z</time></trkpt><trkpt lat="44.56543393989792" lon="7.842869746228881"><ele>338.0</ele><time>2026-04-15T16:56:59.999Z</time></trkpt><trkpt lat="44.56526162668745" lon="7.842766556504797"><ele>338.6666666666667</ele><time>2026-04-15T16:57:00.999Z</time></trkpt><trkpt lat="44.56509962868212" lon="7.842669775194416"><ele>339.3333333333333</ele><time>2026-04-15T16:57:01.999Z</time></trkpt><trkpt lat="44.56493632432806" lon="7.842572213461443"><ele>340.0</ele><time>2026-04-15T16:57:02.999Z</time></trkpt><trkpt lat="44.56477358652614" lon="7.84247499018251"><ele>340.0</ele><time>2026-04-15T16:57:03.999Z</time></trkpt><trkpt lat="44.56461264631408" lon="7.842378840823299"><ele>340.0</ele><time>2026-04-15T16:57:04.999Z</time></trkpt><trkpt lat="44.56445988198129" lon="7.842287575920116"><ele>340.0</ele><time>2026-04-15T16:57:05.999Z</time></trkpt><trkpt lat="44.564304850703515" lon="7.84219495670317"><ele>340.0</ele><time>2026-04-15T16:57:06.999Z</time></trkpt><trkpt lat="44.56415145400036" lon="7.842103314344396"><ele>340.0</ele><time>2026-04-15T16:57:07.999Z</time></trkpt><trkpt lat="44.56399426194696" lon="7.8420320697653825"><ele>340.0</ele><time>2026-04-15T16:57:08.999Z</time></trkpt><trkpt lat="44.563841602355694" lon="7.84194181421078"><ele>340.0</ele><time>2026-04-15T16:57:09.999Z</time></trkpt><trkpt lat="44.563693601427325" lon="7.841828719969255"><ele>340.0</ele><time>2026-04-15T16:57:10.999Z</time></trkpt><trkpt lat="44.56353772820487" lon="7.841735279419119"><ele>340.0</ele><time>2026-04-15T16:57:11.999Z</time></trkpt><trkpt lat="44.56337939561816" lon="7.841640364563702"><ele>340.0</ele><time>2026-04-15T16:57:12.999Z</time></trkpt><trkpt lat="44.56322094120119" lon="7.841545765145606"><ele>340.0</ele><time>2026-04-15T16:57:13.999Z</time></trkpt><trkpt lat="44.56305999881057" lon="7.841449936867849"><ele>340.0</ele><time>2026-04-15T16:57:14.999Z</time></trkpt><trkpt lat="44.56289510705265" lon="7.84135175702644"><ele>340.3333333333333</ele><time>2026-04-15T16:57:15.999Z</time></trkpt><trkpt lat="44.562729542709306" lon="7.841253176727491"><ele>340.6666666666667</ele><time>2026-04-15T16:57:16.999Z</time></trkpt><trkpt lat="44.56256263449421" lon="7.8411537962623745"><ele>341.0</ele><time>2026-04-15T16:57:17.999Z</time></trkpt><trkpt lat="44.56239594731277" lon="7.841054260857706"><ele>341.0</ele><time>2026-04-15T16:57:18.999Z</time></trkpt><trkpt lat="44.562226699040565" lon="7.840952785165794"><ele>341.0</ele><time>2026-04-15T16:57:19.999Z</time></trkpt><trkpt lat="44.56205437486542" lon="7.840849465266063"><ele>341.0</ele><time>2026-04-15T16:57:20.999Z</time></trkpt><trkpt lat="44.561884739765084" lon="7.840747757639818"><ele>341.0</ele><time>2026-04-15T16:57:21.999Z</time></trkpt><trkpt lat="44.56171917307845" lon="7.840648489288231"><ele>341.0</ele><time>2026-04-15T16:57:22.999Z</time></trkpt><trkpt lat="44.561553066138245" lon="7.840548897043899"><ele>341.0</ele><time>2026-04-15T16:57:23.999Z</time></trkpt><trkpt lat="44.56138860550953" lon="7.840450346446738"><ele>341.0</ele><time>2026-04-15T16:57:24.999Z</time></trkpt><trkpt lat="44.56122262034127" lon="7.840351482136058"><ele>341.0</ele><time>2026-04-15T16:57:25.999Z</time></trkpt><trkpt lat="44.5610604223246" lon="7.840255174983291"><ele>341.0</ele><time>2026-04-15T16:57:26.999Z</time></trkpt><trkpt lat="44.56089332400174" lon="7.840157254251039"><ele>341.6666666666667</ele><time>2026-04-15T16:57:27.999Z</time></trkpt><trkpt lat="44.56072718278822" lon="7.840059894372129"><ele>342.3333333333333</ele><time>2026-04-15T16:57:28.999Z</time></trkpt><trkpt lat="44.56055890339631" lon="7.839961281515352"><ele>343.0</ele><time>2026-04-15T16:57:29.999Z</time></trkpt><trkpt lat="44.56039234475182" lon="7.839863677603265"><ele>342.66666666666663</ele><time>2026-04-15T16:57:30.999Z</time></trkpt><trkpt lat="44.56022743999142" lon="7.839765795344554"><ele>342.3333333333333</ele><time>2026-04-15T16:57:31.999Z</time></trkpt><trkpt lat="44.56006437265721" lon="7.839667220015148"><ele>342.0</ele><time>2026-04-15T16:57:32.999Z</time></trkpt><trkpt lat="44.55989472677849" lon="7.8395625760133"><ele>342.0</ele><time>2026-04-15T16:57:33.999Z</time></trkpt><trkpt lat="44.55972601419941" lon="7.8394579399603375"><ele>342.0</ele><time>2026-04-15T16:57:34.999Z</time></trkpt><trkpt lat="44.55955175729811" lon="7.839354415745339"><ele>342.0</ele><time>2026-04-15T16:57:35.999Z</time></trkpt><trkpt lat="44.55937664257988" lon="7.839250613247122"><ele>341.6666666666667</ele><time>2026-04-15T16:57:36.999Z</time></trkpt><trkpt lat="44.55920208590099" lon="7.839147141536791"><ele>341.33333333333337</ele><time>2026-04-15T16:57:37.999Z</time></trkpt><trkpt lat="44.55902043569207" lon="7.8390392045287145"><ele>341.0</ele><time>2026-04-15T16:57:38.999Z</time></trkpt><trkpt lat="44.55884128841479" lon="7.83893269941917"><ele>341.33333333333337</ele><time>2026-04-15T16:57:39.998Z</time></trkpt><trkpt lat="44.55866070625314" lon="7.838825341293465"><ele>341.6666666666667</ele><time>2026-04-15T16:57:40.998Z</time></trkpt><trkpt lat="44.5584763958993" lon="7.8387156558204305"><ele>342.0</ele><time>2026-04-15T16:57:41.998Z</time></trkpt><trkpt lat="44.558294676153054" lon="7.838605966616815"><ele>342.0</ele><time>2026-04-15T16:57:42.998Z</time></trkpt><trkpt lat="44.55811019041558" lon="7.8384946058887675"><ele>342.0</ele><time>2026-04-15T16:57:43.998Z</time></trkpt><trkpt lat="44.55792549878264" lon="7.838383120891743"><ele>342.0</ele><time>2026-04-15T16:57:44.998Z</time></trkpt><trkpt lat="44.55774128218626" lon="7.838273029332083"><ele>342.0</ele><time>2026-04-15T16:57:45.998Z</time></trkpt><trkpt lat="44.55755052817651" lon="7.838159274885212"><ele>342.0</ele><time>2026-04-15T16:57:46.998Z</time></trkpt><trkpt lat="44.55736544482936" lon="7.838048902055168"><ele>342.0</ele><time>2026-04-15T16:57:47.998Z</time></trkpt><trkpt lat="44.55717614289162" lon="7.837936013542521"><ele>342.0</ele><time>2026-04-15T16:57:48.998Z</time></trkpt><trkpt lat="44.556989309098306" lon="7.837824596855058"><ele>342.0</ele><time>2026-04-15T16:57:49.998Z</time></trkpt><trkpt lat="44.55680424849413" lon="7.837714237598675"><ele>342.0</ele><time>2026-04-15T16:57:50.998Z</time></trkpt><trkpt lat="44.556616169023" lon="7.837602078091711"><ele>342.0</ele><time>2026-04-15T16:57:51.998Z</time></trkpt><trkpt lat="44.5564310417215" lon="7.837491679058211"><ele>342.0</ele><time>2026-04-15T16:57:52.998Z</time></trkpt><trkpt lat="44.55624919327666" lon="7.837383235356166"><ele>342.0</ele><time>2026-04-15T16:57:53.998Z</time></trkpt><trkpt lat="44.55606466575709" lon="7.837273194007249"><ele>342.6666666666667</ele><time>2026-04-15T16:57:54.998Z</time></trkpt><trkpt lat="44.55588870079376" lon="7.83716825881281"><ele>343.33333333333337</ele><time>2026-04-15T16:57:55.998Z</time></trkpt><trkpt lat="44.55572400719269" lon="7.837070045330816"><ele>344.0</ele><time>2026-04-15T16:57:57Z</time></trkpt><trkpt lat="44.55556946662234" lon="7.836977886420115"><ele>344.0</ele><time>2026-04-15T16:57:58Z</time></trkpt><trkpt lat="44.55541460094037" lon="7.836910699113663"><ele>344.0</ele><time>2026-04-15T16:57:59Z</time></trkpt><trkpt lat="44.55528456024449" lon="7.836807984979541"><ele>344.0</ele><time>2026-04-15T16:58:00Z</time></trkpt><trkpt lat="44.55514870473342" lon="7.8367507148720525"><ele>344.0</ele><time>2026-04-15T16:58:01Z</time></trkpt><trkpt lat="44.55502010196164" lon="7.8366720887659715"><ele>344.0</ele><time>2026-04-15T16:58:02Z</time></trkpt><trkpt lat="44.554901451725854" lon="7.836597510986281"><ele>344.0</ele><time>2026-04-15T16:58:03Z</time></trkpt><trkpt lat="44.55478589091975" lon="7.836527076182223"><ele>344.0</ele><time>2026-04-15T16:58:04Z</time></trkpt><trkpt lat="44.5546763671515" lon="7.836461880536804"><ele>344.0</ele><time>2026-04-15T16:58:05Z</time></trkpt><trkpt lat="44.55456671103355" lon="7.836391625789747"><ele>344.0</ele><time>2026-04-15T16:58:06Z</time></trkpt><trkpt lat="44.55446142114342" lon="7.836328848538572"><ele>344.0</ele><time>2026-04-15T16:58:07Z</time></trkpt><trkpt lat="44.55435497693073" lon="7.836268603605671"><ele>344.0</ele><time>2026-04-15T16:58:08Z</time></trkpt><trkpt lat="44.55425331618125" lon="7.836205861621749"><ele>344.25</ele><time>2026-04-15T16:58:09Z</time></trkpt><trkpt lat="44.55414340923751" lon="7.836137308738024"><ele>344.5</ele><time>2026-04-15T16:58:10Z</time></trkpt><trkpt lat="44.55403860541657" lon="7.83608413691407"><ele>344.75</ele><time>2026-04-15T16:58:11Z</time></trkpt><trkpt lat="44.55393917483625" lon="7.836025102608689"><ele>345.0</ele><time>2026-04-15T16:58:12Z</time></trkpt><trkpt lat="44.55383510581515" lon="7.835965783916474"><ele>345.0</ele><time>2026-04-15T16:58:13Z</time></trkpt><trkpt lat="44.553730980488176" lon="7.8359071338006805"><ele>345.0</ele><time>2026-04-15T16:58:14Z</time></trkpt><trkpt lat="44.55362864473293" lon="7.8358482878966775"><ele>345.0</ele><time>2026-04-15T16:58:15Z</time></trkpt><trkpt lat="44.55353117701825" lon="7.835765152978769"><ele>345.0</ele><time>2026-04-15T16:58:16Z</time></trkpt><trkpt lat="44.553423880897654" lon="7.835701188684774"><ele>345.25</ele><time>2026-04-15T16:58:17Z</time></trkpt><trkpt lat="44.55331670498858" lon="7.83566231801471"><ele>345.5</ele><time>2026-04-15T16:58:18Z</time></trkpt><trkpt lat="44.55321260503102" lon="7.8355930123390145"><ele>345.75</ele><time>2026-04-15T16:58:19Z</time></trkpt><trkpt lat="44.553104052592644" lon="7.835524142831124"><ele>346.0</ele><time>2026-04-15T16:58:20Z</time></trkpt><trkpt lat="44.55300291501734" lon="7.835466151235856"><ele>346.0</ele><time>2026-04-15T16:58:21Z</time></trkpt><trkpt lat="44.5528968097179" lon="7.835403003284652"><ele>346.0</ele><time>2026-04-15T16:58:22Z</time></trkpt><trkpt lat="44.55279416930995" lon="7.83534024748257"><ele>346.0</ele><time>2026-04-15T16:58:23Z</time></trkpt><trkpt lat="44.55269111147298" lon="7.835277620489684"><ele>346.0</ele><time>2026-04-15T16:58:24Z</time></trkpt><trkpt lat="44.55259013734" lon="7.8352162220249335"><ele>346.0</ele><time>2026-04-15T16:58:25Z</time></trkpt><trkpt lat="44.55248875524358" lon="7.835155555604971"><ele>346.0</ele><time>2026-04-15T16:58:26Z</time></trkpt><trkpt lat="44.552385976354806" lon="7.835096700977284"><ele>346.0</ele><time>2026-04-15T16:58:27Z</time></trkpt><trkpt lat="44.55229323890218" lon="7.835042154273716"><ele>346.0</ele><time>2026-04-15T16:58:28Z</time></trkpt><trkpt lat="44.55219601709141" lon="7.834981005437725"><ele>346.0</ele><time>2026-04-15T16:58:29Z</time></trkpt><trkpt lat="44.55209682542731" lon="7.834912913783967"><ele>345.6</ele><time>2026-04-15T16:58:30Z</time></trkpt><trkpt lat="44.55200464519069" lon="7.834846337711089"><ele>345.20000000000005</ele><time>2026-04-15T16:58:31Z</time></trkpt><trkpt lat="44.55191559572312" lon="7.834780448140129"><ele>344.79999999999995</ele><time>2026-04-15T16:58:32Z</time></trkpt><trkpt lat="44.551826939339385" lon="7.83471794754101"><ele>344.4</ele><time>2026-04-15T16:58:33Z</time></trkpt><trkpt lat="44.55173781418363" lon="7.834652067876316"><ele>344.0</ele><time>2026-04-15T16:58:34Z</time></trkpt><trkpt lat="44.551656983614116" lon="7.834588165448519"><ele>344.0</ele><time>2026-04-15T16:58:35Z</time></trkpt><trkpt lat="44.5515804973222" lon="7.834535012808544"><ele>344.0</ele><time>2026-04-15T16:58:36Z</time></trkpt><trkpt lat="44.551506063130915" lon="7.834487462325152"><ele>344.0</ele><time>2026-04-15T16:58:37Z</time></trkpt><trkpt lat="44.55143489260539" lon="7.834445833963885"><ele>344.0</ele><time>2026-04-15T16:58:38Z</time></trkpt><trkpt lat="44.55136309965929" lon="7.834412038453661"><ele>344.0</ele><time>2026-04-15T16:58:39Z</time></trkpt><trkpt lat="44.551293306682396" lon="7.834386688590001"><ele>344.0</ele><time>2026-04-15T16:58:40Z</time></trkpt><trkpt lat="44.55122487415975" lon="7.834383234654772"><ele>344.1666666666667</ele><time>2026-04-15T16:58:41Z</time></trkpt><trkpt lat="44.55115927028929" lon="7.8343896443647925"><ele>344.33333333333337</ele><time>2026-04-15T16:58:41.999Z</time></trkpt><trkpt lat="44.55109636984335" lon="7.834399636028322"><ele>344.5</ele><time>2026-04-15T16:58:42.999Z</time></trkpt><trkpt lat="44.55103096666286" lon="7.834427761569038"><ele>344.6666666666667</ele><time>2026-04-15T16:58:43.999Z</time></trkpt><trkpt lat="44.55096131327238" lon="7.834468375727684"><ele>344.8333333333333</ele><time>2026-04-15T16:58:44.999Z</time></trkpt><trkpt lat="44.55087639063053" lon="7.834501118229462"><ele>345.0</ele><time>2026-04-15T16:58:45.999Z</time></trkpt><trkpt lat="44.55079427628911" lon="7.834566789480666"><ele>345.0</ele><time>2026-04-15T16:58:46.999Z</time></trkpt><trkpt lat="44.55070305615385" lon="7.834641067494311"><ele>345.0</ele><time>2026-04-15T16:58:47.999Z</time></trkpt><trkpt lat="44.5506176439662" lon="7.834716050248013"><ele>345.0</ele><time>2026-04-15T16:58:48.999Z</time></trkpt><trkpt lat="44.55053289919166" lon="7.834793434459418"><ele>345.0</ele><time>2026-04-15T16:58:49.999Z</time></trkpt><trkpt lat="44.55044949330217" lon="7.834873363462255"><ele>345.0</ele><time>2026-04-15T16:58:50.999Z</time></trkpt><trkpt lat="44.55036854505233" lon="7.834954258970891"><ele>344.8</ele><time>2026-04-15T16:58:51.999Z</time></trkpt><trkpt lat="44.550291059535326" lon="7.835040559010975"><ele>344.6</ele><time>2026-04-15T16:58:52.999Z</time></trkpt><trkpt lat="44.550220118799906" lon="7.835128262471166"><ele>344.4</ele><time>2026-04-15T16:58:53.999Z</time></trkpt><trkpt lat="44.55015599880979" lon="7.835224908382843"><ele>344.2</ele><time>2026-04-15T16:58:54.999Z</time></trkpt><trkpt lat="44.550091012319115" lon="7.835330414367122"><ele>344.0</ele><time>2026-04-15T16:58:55.999Z</time></trkpt><trkpt lat="44.55003599695945" lon="7.835430422834877"><ele>343.4</ele><time>2026-04-15T16:58:56.999Z</time></trkpt><trkpt lat="44.54998764289387" lon="7.835532458491073"><ele>342.79999999999995</ele><time>2026-04-15T16:58:57.999Z</time></trkpt><trkpt lat="44.549946289099736" lon="7.8356418089167486"><ele>342.20000000000005</ele><time>2026-04-15T16:58:58.999Z</time></trkpt><trkpt lat="44.54991837530455" lon="7.835770082854174"><ele>341.6</ele><time>2026-04-15T16:58:59.999Z</time></trkpt><trkpt lat="44.54989718844167" lon="7.835937752704991"><ele>341.0</ele><time>2026-04-15T16:59:00.999Z</time></trkpt><trkpt lat="44.549897031920274" lon="7.836093928919486"><ele>340.4</ele><time>2026-04-15T16:59:01.999Z</time></trkpt><trkpt lat="44.54987886338058" lon="7.836243098022975"><ele>339.8</ele><time>2026-04-15T16:59:02.999Z</time></trkpt><trkpt lat="44.54986080033291" lon="7.836389549763903"><ele>339.2</ele><time>2026-04-15T16:59:03.999Z</time></trkpt><trkpt lat="44.54985462933362" lon="7.836525847680903"><ele>338.59999999999997</ele><time>2026-04-15T16:59:04.999Z</time></trkpt><trkpt lat="44.549854831073326" lon="7.836671539773589"><ele>338.0</ele><time>2026-04-15T16:59:05.999Z</time></trkpt><trkpt lat="44.54984854694187" lon="7.836797093133354"><ele>337.0</ele><time>2026-04-15T16:59:06.999Z</time></trkpt><trkpt lat="44.54984033565544" lon="7.8369390821119"><ele>336.0</ele><time>2026-04-15T16:59:07.999Z</time></trkpt><trkpt lat="44.54982312076894" lon="7.837101401065236"><ele>335.0</ele><time>2026-04-15T16:59:08.999Z</time></trkpt><trkpt lat="44.54981082815766" lon="7.837229334545348"><ele>334.0</ele><time>2026-04-15T16:59:09.999Z</time></trkpt><trkpt lat="44.54979884315222" lon="7.837358105345445"><ele>333.0</ele><time>2026-04-15T16:59:10.999Z</time></trkpt><trkpt lat="44.54978992520463" lon="7.837546452680056"><ele>332.0</ele><time>2026-04-15T16:59:12.999Z</time></trkpt><trkpt lat="44.549794838819004" lon="7.837643897258879"><ele>331.0</ele><time>2026-04-15T16:59:13.999Z</time></trkpt><trkpt lat="44.549813725850704" lon="7.837768148166739"><ele>330.0</ele><time>2026-04-15T16:59:14.999Z</time></trkpt><trkpt lat="44.54985438689723" lon="7.837890747732349"><ele>329.0</ele><time>2026-04-15T16:59:15.999Z</time></trkpt><trkpt lat="44.549913031248856" lon="7.8380044677991485"><ele>328.0</ele><time>2026-04-15T16:59:16.999Z</time></trkpt><trkpt lat="44.54998502536513" lon="7.838099501406147"><ele>328.0</ele><time>2026-04-15T16:59:17.999Z</time></trkpt><trkpt lat="44.55003957049971" lon="7.838184054259891"><ele>328.0</ele><time>2026-04-15T16:59:18.999Z</time></trkpt><trkpt lat="44.5501031359796" lon="7.838292702852926"><ele>328.0</ele><time>2026-04-15T16:59:20.999Z</time></trkpt><trkpt lat="44.55011031293514" lon="7.838426191369449"><ele>328.0</ele><time>2026-04-15T16:59:22.999Z</time></trkpt><trkpt lat="44.55003416633318" lon="7.8385121032652725"><ele>328.0</ele><time>2026-04-15T16:59:24.999Z</time></trkpt><trkpt lat="44.54991100112212" lon="7.838439501904283"><ele>328.0</ele><time>2026-04-15T16:59:26.999Z</time></trkpt><trkpt lat="44.549835359344044" lon="7.83838796662514"><ele>328.0</ele><time>2026-04-15T16:59:27.999Z</time></trkpt><trkpt lat="44.54974618273053" lon="7.838319014698746"><ele>328.0</ele><time>2026-04-15T16:59:28.999Z</time></trkpt><trkpt lat="44.54964076193037" lon="7.83824109198407"><ele>328.0</ele><time>2026-04-15T16:59:29.999Z</time></trkpt><trkpt lat="44.54955187143555" lon="7.838184269862879"><ele>328.0</ele><time>2026-04-15T16:59:30.999Z</time></trkpt><trkpt lat="44.549465204321315" lon="7.83813503316502"><ele>326.66666666666663</ele><time>2026-04-15T16:59:31.999Z</time></trkpt><trkpt lat="44.54937947276481" lon="7.838093618335107"><ele>325.3333333333333</ele><time>2026-04-15T16:59:32.999Z</time></trkpt><trkpt lat="44.54929775226542" lon="7.838059147764471"><ele>324.0</ele><time>2026-04-15T16:59:33.999Z</time></trkpt><trkpt lat="44.54920974571164" lon="7.838035651741928"><ele>322.6666666666667</ele><time>2026-04-15T16:59:34.999Z</time></trkpt><trkpt lat="44.549130074656375" lon="7.8380246713964095"><ele>321.33333333333337</ele><time>2026-04-15T16:59:35.999Z</time></trkpt><trkpt lat="44.549030086866914" lon="7.838018820686449"><ele>320.0</ele><time>2026-04-15T16:59:36.999Z</time></trkpt><trkpt lat="44.54891739484439" lon="7.838013659631617"><ele>320.0</ele><time>2026-04-15T16:59:37.999Z</time></trkpt><trkpt lat="44.54881297289233" lon="7.838010435541472"><ele>320.0</ele><time>2026-04-15T16:59:38.999Z</time></trkpt><trkpt lat="44.54871959589705" lon="7.8380075524671025"><ele>320.0</ele><time>2026-04-15T16:59:39.999Z</time></trkpt><trkpt lat="44.54861359495029" lon="7.838007182791338"><ele>320.0</ele><time>2026-04-15T16:59:40.999Z</time></trkpt><trkpt lat="44.548506856251294" lon="7.838006750784169"><ele>320.0</ele><time>2026-04-15T16:59:41.999Z</time></trkpt><trkpt lat="44.54839556698968" lon="7.838006300353535"><ele>318.6</ele><time>2026-04-15T16:59:42.999Z</time></trkpt><trkpt lat="44.548281165758716" lon="7.838006802496629"><ele>317.2</ele><time>2026-04-15T16:59:43.999Z</time></trkpt><trkpt lat="44.5481718956678" lon="7.838007244743099"><ele>315.8</ele><time>2026-04-15T16:59:44.998Z</time></trkpt><trkpt lat="44.5480613818656" lon="7.838008091801059"><ele>314.4</ele><time>2026-04-15T16:59:45.998Z</time></trkpt><trkpt lat="44.54794955431012" lon="7.83801107945244"><ele>313.0</ele><time>2026-04-15T16:59:46.998Z</time></trkpt><trkpt lat="44.5478333046395" lon="7.8380141852468475"><ele>311.6</ele><time>2026-04-15T16:59:47.998Z</time></trkpt><trkpt lat="44.54771941615664" lon="7.838017227954892"><ele>310.20000000000005</ele><time>2026-04-15T16:59:48.998Z</time></trkpt><trkpt lat="44.54760804870849" lon="7.838018320000483"><ele>308.8</ele><time>2026-04-15T16:59:49.998Z</time></trkpt><trkpt lat="44.54751057291524" lon="7.838018160479064"><ele>307.40000000000003</ele><time>2026-04-15T16:59:50.998Z</time></trkpt><trkpt lat="44.54740720531223" lon="7.838015313343944"><ele>306.0</ele><time>2026-04-15T16:59:51.998Z</time></trkpt><trkpt lat="44.547296122179894" lon="7.838012253705096"><ele>306.0</ele><time>2026-04-15T16:59:52.998Z</time></trkpt><trkpt lat="44.54719061071193" lon="7.838009347527692"><ele>306.0</ele><time>2026-04-15T16:59:53.998Z</time></trkpt><trkpt lat="44.547085886536316" lon="7.838006463044883"><ele>306.0</ele><time>2026-04-15T16:59:54.998Z</time></trkpt><trkpt lat="44.54697933816159" lon="7.838002341383486"><ele>306.0</ele><time>2026-04-15T16:59:55.998Z</time></trkpt><trkpt lat="44.54687547342525" lon="7.837995025552638"><ele>306.0</ele><time>2026-04-15T16:59:56.998Z</time></trkpt><trkpt lat="44.546786574978675" lon="7.837983938220645"><ele>307.6</ele><time>2026-04-15T16:59:57.998Z</time></trkpt><trkpt lat="44.54669614219448" lon="7.837968749434174"><ele>309.20000000000005</ele><time>2026-04-15T16:59:58.998Z</time></trkpt><trkpt lat="44.54660047926026" lon="7.837947847383008"><ele>310.79999999999995</ele><time>2026-04-15T16:59:59.998Z</time></trkpt><trkpt lat="44.54651242517908" lon="7.8379265854670015"><ele>312.4</ele><time>2026-04-15T17:00:00.998Z</time></trkpt><trkpt lat="44.54641837622111" lon="7.837901357958811"><ele>314.0</ele><time>2026-04-15T17:00:01.998Z</time></trkpt><trkpt lat="44.54630844470017" lon="7.8378922169448195"><ele>314.0</ele><time>2026-04-15T17:00:03Z</time></trkpt><trkpt lat="44.54621491113152" lon="7.837838148944464"><ele>314.0</ele><time>2026-04-15T17:00:04Z</time></trkpt><trkpt lat="44.546109174565544" lon="7.837802961711369"><ele>314.0</ele><time>2026-04-15T17:00:05Z</time></trkpt><trkpt lat="44.54601372392029" lon="7.8377711974403415"><ele>314.0</ele><time>2026-04-15T17:00:06Z</time></trkpt><trkpt lat="44.54591204497613" lon="7.83776058411501"><ele>314.0</ele><time>2026-04-15T17:00:07Z</time></trkpt><trkpt lat="44.54580973167393" lon="7.837704419857083"><ele>314.4</ele><time>2026-04-15T17:00:08Z</time></trkpt><trkpt lat="44.54572239417216" lon="7.837664496949633"><ele>314.79999999999995</ele><time>2026-04-15T17:00:09Z</time></trkpt><trkpt lat="44.54563112988926" lon="7.837599175643882"><ele>315.20000000000005</ele><time>2026-04-15T17:00:10Z</time></trkpt><trkpt lat="44.545541541601196" lon="7.837515953359056"><ele>315.6</ele><time>2026-04-15T17:00:11Z</time></trkpt><trkpt lat="44.545453660545604" lon="7.837430321084923"><ele>316.0</ele><time>2026-04-15T17:00:12Z</time></trkpt><trkpt lat="44.54535826170561" lon="7.837327795060035"><ele>316.8</ele><time>2026-04-15T17:00:13Z</time></trkpt><trkpt lat="44.54526178045377" lon="7.837241299007884"><ele>317.6</ele><time>2026-04-15T17:00:14Z</time></trkpt><trkpt lat="44.54517374619966" lon="7.837164845489725"><ele>318.4</ele><time>2026-04-15T17:00:15Z</time></trkpt><trkpt lat="44.54507954742614" lon="7.837103722168068"><ele>319.2</ele><time>2026-04-15T17:00:16Z</time></trkpt><trkpt lat="44.54498188978504" lon="7.837053523986424"><ele>320.0</ele><time>2026-04-15T17:00:17Z</time></trkpt><trkpt lat="44.54488519017913" lon="7.83700497281941"><ele>320.0</ele><time>2026-04-15T17:00:18Z</time></trkpt><trkpt lat="44.54477555875174" lon="7.836955829821244"><ele>320.0</ele><time>2026-04-15T17:00:19Z</time></trkpt><trkpt lat="44.544677366473664" lon="7.836914338171604"><ele>320.0</ele><time>2026-04-15T17:00:20Z</time></trkpt><trkpt lat="44.544573429637275" lon="7.836889470753705"><ele>320.0</ele><time>2026-04-15T17:00:21Z</time></trkpt><trkpt lat="44.54445106770156" lon="7.8368910321835035"><ele>320.0</ele><time>2026-04-15T17:00:22Z</time></trkpt><trkpt lat="44.54432231618101" lon="7.836869076769302"><ele>319.0</ele><time>2026-04-15T17:00:23Z</time></trkpt><trkpt lat="44.5441925981834" lon="7.8368704767946324"><ele>318.0</ele><time>2026-04-15T17:00:24Z</time></trkpt><trkpt lat="44.54406550681682" lon="7.83687152199358"><ele>317.0</ele><time>2026-04-15T17:00:25Z</time></trkpt><trkpt lat="44.54396572235794" lon="7.836888161927859"><ele>316.0</ele><time>2026-04-15T17:00:26Z</time></trkpt><trkpt lat="44.543876255741495" lon="7.836879521845364"><ele>315.0</ele><time>2026-04-15T17:00:27Z</time></trkpt><trkpt lat="44.54378807824028" lon="7.836869108225184"><ele>315.5</ele><time>2026-04-15T17:00:28Z</time></trkpt><trkpt lat="44.543710729702894" lon="7.836866106550091"><ele>316.0</ele><time>2026-04-15T17:00:29Z</time></trkpt><trkpt lat="44.543643062644705" lon="7.836853492725634"><ele>316.5</ele><time>2026-04-15T17:00:30Z</time></trkpt><trkpt lat="44.54354879673089" lon="7.836766323895853"><ele>317.0</ele><time>2026-04-15T17:00:32Z</time></trkpt><trkpt lat="44.543474727104886" lon="7.836652198092574"><ele>317.5</ele><time>2026-04-15T17:00:34Z</time></trkpt><trkpt lat="44.54344295033745" lon="7.836558073979351"><ele>318.0</ele><time>2026-04-15T17:00:35Z</time></trkpt><trkpt lat="44.54340068100809" lon="7.8364371556233365"><ele>318.0</ele><time>2026-04-15T17:00:36Z</time></trkpt><trkpt lat="44.543420249087085" lon="7.836269441351769"><ele>318.0</ele><time>2026-04-15T17:00:37Z</time></trkpt><trkpt lat="44.543417815318556" lon="7.836120541289478"><ele>318.0</ele><time>2026-04-15T17:00:38Z</time></trkpt><trkpt lat="44.54345873200349" lon="7.835958309184939"><ele>318.0</ele><time>2026-04-15T17:00:39Z</time></trkpt><trkpt lat="44.543484532227325" lon="7.835783124388192"><ele>318.75</ele><time>2026-04-15T17:00:40Z</time></trkpt><trkpt lat="44.54351679294734" lon="7.835613907058717"><ele>319.5</ele><time>2026-04-15T17:00:41Z</time></trkpt><trkpt lat="44.54355553405523" lon="7.835430060304067"><ele>320.25</ele><time>2026-04-15T17:00:42Z</time></trkpt><trkpt lat="44.54358283714982" lon="7.835257696734557"><ele>321.0</ele><time>2026-04-15T17:00:43Z</time></trkpt><trkpt lat="44.54361284185428" lon="7.835078403703665"><ele>321.0</ele><time>2026-04-15T17:00:44Z</time></trkpt><trkpt lat="44.54364222339511" lon="7.834911028693083"><ele>321.0</ele><time>2026-04-15T17:00:45Z</time></trkpt><trkpt lat="44.54366679458868" lon="7.834740202661441"><ele>321.0</ele><time>2026-04-15T17:00:46Z</time></trkpt><trkpt lat="44.54369651066089" lon="7.8345782757647475"><ele>321.0</ele><time>2026-04-15T17:00:47Z</time></trkpt><trkpt lat="44.54372866953212" lon="7.834412455782345"><ele>327.0</ele><time>2026-04-15T17:00:47.999Z</time></trkpt><trkpt lat="44.543754558109626" lon="7.834242438358179"><ele>333.0</ele><time>2026-04-15T17:00:48.999Z</time></trkpt><trkpt lat="44.543776520081146" lon="7.8340679210139"><ele>339.0</ele><time>2026-04-15T17:00:49.999Z</time></trkpt><trkpt lat="44.543795177542336" lon="7.833913507353276"><ele>345.0</ele><time>2026-04-15T17:00:50.999Z</time></trkpt><trkpt lat="44.543818869840905" lon="7.833757760341794"><ele>345.0</ele><time>2026-04-15T17:00:51.999Z</time></trkpt><trkpt lat="44.54382999670677" lon="7.833601028851181"><ele>345.0</ele><time>2026-04-15T17:00:52.999Z</time></trkpt><trkpt lat="44.543828676659956" lon="7.8334493189634"><ele>345.0</ele><time>2026-04-15T17:00:53.999Z</time></trkpt><trkpt lat="44.54383117891786" lon="7.833291796081187"><ele>345.0</ele><time>2026-04-15T17:00:54.999Z</time></trkpt><trkpt lat="44.54382848908651" lon="7.833141188254617"><ele>345.0</ele><time>2026-04-15T17:00:55.999Z</time></trkpt><trkpt lat="44.5438255276216" lon="7.832996039075554"><ele>345.8</ele><time>2026-04-15T17:00:56.999Z</time></trkpt><trkpt lat="44.543823498191344" lon="7.832855810761654"><ele>346.6</ele><time>2026-04-15T17:00:57.999Z</time></trkpt><trkpt lat="44.54382078967492" lon="7.832710190652534"><ele>347.4</ele><time>2026-04-15T17:00:58.999Z</time></trkpt><trkpt lat="44.543826047909356" lon="7.832555915525519"><ele>348.2</ele><time>2026-04-15T17:00:59.999Z</time></trkpt><trkpt lat="44.54381654963704" lon="7.832388473839317"><ele>349.0</ele><time>2026-04-15T17:01:00.999Z</time></trkpt><trkpt lat="44.5438000986646" lon="7.832240589716968"><ele>348.6</ele><time>2026-04-15T17:01:01.999Z</time></trkpt><trkpt lat="44.54378798301393" lon="7.832104444576079"><ele>348.2</ele><time>2026-04-15T17:01:02.999Z</time></trkpt><trkpt lat="44.54375603966621" lon="7.8319633409084854"><ele>347.8</ele><time>2026-04-15T17:01:03.999Z</time></trkpt><trkpt lat="44.543716514364036" lon="7.831817149517208"><ele>347.40000000000003</ele><time>2026-04-15T17:01:04.999Z</time></trkpt><trkpt lat="44.54367677138662" lon="7.831696208548733"><ele>347.0</ele><time>2026-04-15T17:01:05.999Z</time></trkpt><trkpt lat="44.5436284287468" lon="7.831564397306098"><ele>347.0</ele><time>2026-04-15T17:01:06.999Z</time></trkpt><trkpt lat="44.543579341314434" lon="7.831405457216488"><ele>347.0</ele><time>2026-04-15T17:01:07.999Z</time></trkpt><trkpt lat="44.54353579524016" lon="7.8312478192568395"><ele>347.0</ele><time>2026-04-15T17:01:08.999Z</time></trkpt><trkpt lat="44.54349318057211" lon="7.831105796285593"><ele>347.0</ele><time>2026-04-15T17:01:09.999Z</time></trkpt><trkpt lat="44.54345373076939" lon="7.830976448607926"><ele>347.20000000000005</ele><time>2026-04-15T17:01:10.999Z</time></trkpt><trkpt lat="44.54341302236062" lon="7.830825879784254"><ele>347.4</ele><time>2026-04-15T17:01:11.999Z</time></trkpt><trkpt lat="44.54337429253268" lon="7.830683807811902"><ele>347.6</ele><time>2026-04-15T17:01:12.999Z</time></trkpt><trkpt lat="44.5433295885781" lon="7.830562050549991"><ele>347.79999999999995</ele><time>2026-04-15T17:01:13.999Z</time></trkpt><trkpt lat="44.54328200982405" lon="7.830442538346681"><ele>348.0</ele><time>2026-04-15T17:01:14.999Z</time></trkpt><trkpt lat="44.543225582216195" lon="7.830311791114995"><ele>348.0</ele><time>2026-04-15T17:01:15.999Z</time></trkpt><trkpt lat="44.54316959643489" lon="7.830193171087641"><ele>348.0</ele><time>2026-04-15T17:01:16.999Z</time></trkpt><trkpt lat="44.54311819565002" lon="7.830089733901391"><ele>348.0</ele><time>2026-04-15T17:01:17.999Z</time></trkpt><trkpt lat="44.54306360542505" lon="7.8299905718099465"><ele>348.0</ele><time>2026-04-15T17:01:18.999Z</time></trkpt><trkpt lat="44.54300424570842" lon="7.829888361210575"><ele>348.0</ele><time>2026-04-15T17:01:19.999Z</time></trkpt><trkpt lat="44.54295041531422" lon="7.829775756579151"><ele>348.2</ele><time>2026-04-15T17:01:20.999Z</time></trkpt><trkpt lat="44.54290055247708" lon="7.829673143738288"><ele>348.4</ele><time>2026-04-15T17:01:21.999Z</time></trkpt><trkpt lat="44.54285169178149" lon="7.829554623986977"><ele>348.59999999999997</ele><time>2026-04-15T17:01:22.999Z</time></trkpt><trkpt lat="44.54280229787181" lon="7.829433220033174"><ele>348.79999999999995</ele><time>2026-04-15T17:01:23.999Z</time></trkpt><trkpt lat="44.54276083256323" lon="7.829303074818433"><ele>349.0</ele><time>2026-04-15T17:01:24.999Z</time></trkpt><trkpt lat="44.54272836230504" lon="7.829171044314749"><ele>349.2</ele><time>2026-04-15T17:01:25.999Z</time></trkpt><trkpt lat="44.54269706662122" lon="7.829019643790534"><ele>349.4</ele><time>2026-04-15T17:01:26.999Z</time></trkpt><trkpt lat="44.54267670392247" lon="7.82886499711677"><ele>349.6</ele><time>2026-04-15T17:01:27.999Z</time></trkpt><trkpt lat="44.54265655752291" lon="7.828719733162507"><ele>349.8</ele><time>2026-04-15T17:01:28.999Z</time></trkpt><trkpt lat="44.54262770532827" lon="7.8285668850329175"><ele>350.0</ele><time>2026-04-15T17:01:29.999Z</time></trkpt><trkpt lat="44.542607998726474" lon="7.828428844378813"><ele>350.2</ele><time>2026-04-15T17:01:30.999Z</time></trkpt><trkpt lat="44.542590100787045" lon="7.828293082185556"><ele>350.4</ele><time>2026-04-15T17:01:31.999Z</time></trkpt><trkpt lat="44.54258092396933" lon="7.828149133503997"><ele>350.6</ele><time>2026-04-15T17:01:32.999Z</time></trkpt><trkpt lat="44.542568899623575" lon="7.828021086518626"><ele>350.8</ele><time>2026-04-15T17:01:33.999Z</time></trkpt><trkpt lat="44.542567678215704" lon="7.827899694790428"><ele>351.0</ele><time>2026-04-15T17:01:34.999Z</time></trkpt><trkpt lat="44.54257909352855" lon="7.827787975600381"><ele>351.0</ele><time>2026-04-15T17:01:35.999Z</time></trkpt><trkpt lat="44.54259716610307" lon="7.8276898205982"><ele>351.0</ele><time>2026-04-15T17:01:36.999Z</time></trkpt><trkpt lat="44.54264467634496" lon="7.827541175450621"><ele>351.0</ele><time>2026-04-15T17:01:38.999Z</time></trkpt><trkpt lat="44.54269640876329" lon="7.827487339377728"><ele>351.0</ele><time>2026-04-15T17:01:40.999Z</time></trkpt><trkpt lat="44.54274720275351" lon="7.827382877042262"><ele>351.0</ele><time>2026-04-15T17:01:42.999Z</time></trkpt><trkpt lat="44.54283598430638" lon="7.827362529672015"><ele>351.0</ele><time>2026-04-15T17:01:43.999Z</time></trkpt><trkpt lat="44.54290993828328" lon="7.827243872498136"><ele>351.0</ele><time>2026-04-15T17:01:45.999Z</time></trkpt><trkpt lat="44.54288854119409" lon="7.827093256411644"><ele>351.0</ele><time>2026-04-15T17:01:47.999Z</time></trkpt><trkpt lat="44.54286320666906" lon="7.826986329638293"><ele>351.0</ele><time>2026-04-15T17:01:49.998Z</time></trkpt><trkpt lat="44.54273782601272" lon="7.826988525937337"><ele>351.0</ele><time>2026-04-15T17:01:50.998Z</time></trkpt><trkpt lat="44.542631343610445" lon="7.8270613728916585"><ele>351.0</ele><time>2026-04-15T17:01:52.998Z</time></trkpt><trkpt lat="44.54256911658583" lon="7.827133367279008"><ele>351.20000000000005</ele><time>2026-04-15T17:01:53.998Z</time></trkpt><trkpt lat="44.54250639361838" lon="7.827188542273839"><ele>351.40000000000003</ele><time>2026-04-15T17:01:54.998Z</time></trkpt><trkpt lat="44.542371055947534" lon="7.82717934264899"><ele>351.6</ele><time>2026-04-15T17:01:56.998Z</time></trkpt><trkpt lat="44.54228025831552" lon="7.827154256719876"><ele>351.8</ele><time>2026-04-15T17:01:57.998Z</time></trkpt><trkpt lat="44.54218421456584" lon="7.82712699316042"><ele>352.0</ele><time>2026-04-15T17:01:58.998Z</time></trkpt><trkpt lat="44.54208597454873" lon="7.827099326101216"><ele>352.0</ele><time>2026-04-15T17:01:59.998Z</time></trkpt><trkpt lat="44.5419861827431" lon="7.8270707367078085"><ele>352.0</ele><time>2026-04-15T17:02:00.998Z</time></trkpt><trkpt lat="44.54188348709235" lon="7.8270638592087245"><ele>352.0</ele><time>2026-04-15T17:02:01.998Z</time></trkpt><trkpt lat="44.54177139756872" lon="7.827030629894905"><ele>352.0</ele><time>2026-04-15T17:02:02.998Z</time></trkpt><trkpt lat="44.541664208382635" lon="7.827000068990329"><ele>352.0</ele><time>2026-04-15T17:02:03.998Z</time></trkpt><trkpt lat="44.54157082566641" lon="7.826950742997275"><ele>352.0</ele><time>2026-04-15T17:02:04.998Z</time></trkpt><trkpt lat="44.54147641180188" lon="7.826923126396135"><ele>352.0</ele><time>2026-04-15T17:02:05.998Z</time></trkpt><trkpt lat="44.54137034562726" lon="7.826893177335329"><ele>352.0</ele><time>2026-04-15T17:02:06.998Z</time></trkpt><trkpt lat="44.5412620192333" lon="7.826862563177953"><ele>352.0</ele><time>2026-04-15T17:02:07.998Z</time></trkpt><trkpt lat="44.54115589601766" lon="7.8268335353307705"><ele>352.0</ele><time>2026-04-15T17:02:09Z</time></trkpt><trkpt lat="44.54105176787905" lon="7.826804678162682"><ele>351.8</ele><time>2026-04-15T17:02:10Z</time></trkpt><trkpt lat="44.54094713570771" lon="7.826775681312751"><ele>351.6</ele><time>2026-04-15T17:02:11Z</time></trkpt><trkpt lat="44.54084480505924" lon="7.826747322285955"><ele>351.40000000000003</ele><time>2026-04-15T17:02:12Z</time></trkpt><trkpt lat="44.54073429242217" lon="7.826716695770013"><ele>351.20000000000005</ele><time>2026-04-15T17:02:13Z</time></trkpt><trkpt lat="44.54063491478815" lon="7.826689155118084"><ele>351.0</ele><time>2026-04-15T17:02:14Z</time></trkpt><trkpt lat="44.540531849703676" lon="7.82666059255178"><ele>351.0</ele><time>2026-04-15T17:02:15Z</time></trkpt><trkpt lat="44.540426999495516" lon="7.82663153509914"><ele>351.0</ele><time>2026-04-15T17:02:16Z</time></trkpt><trkpt lat="44.54032259367712" lon="7.826602081883966"><ele>351.0</ele><time>2026-04-15T17:02:17Z</time></trkpt><trkpt lat="44.54021724259692" lon="7.826572558143598"><ele>351.0</ele><time>2026-04-15T17:02:18Z</time></trkpt><trkpt lat="44.54010749939346" lon="7.826541803543918"><ele>351.0</ele><time>2026-04-15T17:02:19Z</time></trkpt><trkpt lat="44.54000412810125" lon="7.826512834622941"><ele>351.0</ele><time>2026-04-15T17:02:20Z</time></trkpt><trkpt lat="44.539898601671574" lon="7.826483261746905"><ele>351.0</ele><time>2026-04-15T17:02:21Z</time></trkpt><trkpt lat="44.53979222885564" lon="7.826453451665459"><ele>351.0</ele><time>2026-04-15T17:02:22Z</time></trkpt><trkpt lat="44.539685130912936" lon="7.826423438383552"><ele>351.0</ele><time>2026-04-15T17:02:23Z</time></trkpt><trkpt lat="44.53958125797837" lon="7.826394328756809"><ele>351.0</ele><time>2026-04-15T17:02:24Z</time></trkpt><trkpt lat="44.53947806255325" lon="7.826365757963467"><ele>351.0</ele><time>2026-04-15T17:02:25Z</time></trkpt><trkpt lat="44.53937437674244" lon="7.826336941649816"><ele>351.0</ele><time>2026-04-15T17:02:26Z</time></trkpt><trkpt lat="44.53926604744399" lon="7.82630902626251"><ele>351.0</ele><time>2026-04-15T17:02:27Z</time></trkpt><trkpt lat="44.539156871516255" lon="7.826280143742962"><ele>351.0</ele><time>2026-04-15T17:02:28Z</time></trkpt><trkpt lat="44.53904876118015" lon="7.826251541265685"><ele>351.0</ele><time>2026-04-15T17:02:29Z</time></trkpt><trkpt lat="44.538938053480905" lon="7.826222251616238"><ele>351.0</ele><time>2026-04-15T17:02:30Z</time></trkpt><trkpt lat="44.5388115853739" lon="7.8262857769844905"><ele>351.0</ele><time>2026-04-15T17:02:31Z</time></trkpt><trkpt lat="44.538703781649865" lon="7.826253155485302"><ele>351.0</ele><time>2026-04-15T17:02:32Z</time></trkpt><trkpt lat="44.53859894366462" lon="7.826221431265464"><ele>351.0</ele><time>2026-04-15T17:02:33Z</time></trkpt><trkpt lat="44.53849962232312" lon="7.826191376516786"><ele>351.20000000000005</ele><time>2026-04-15T17:02:34Z</time></trkpt><trkpt lat="44.53839931505848" lon="7.826162359479784"><ele>351.40000000000003</ele><time>2026-04-15T17:02:35Z</time></trkpt><trkpt lat="44.538298145833316" lon="7.82611197021036"><ele>351.6</ele><time>2026-04-15T17:02:36Z</time></trkpt><trkpt lat="44.53820932188667" lon="7.826105060331898"><ele>351.8</ele><time>2026-04-15T17:02:37Z</time></trkpt><trkpt lat="44.53810863486009" lon="7.826082541022205"><ele>352.0</ele><time>2026-04-15T17:02:38Z</time></trkpt><trkpt lat="44.53799283045379" lon="7.826041189771543"><ele>352.0</ele><time>2026-04-15T17:02:39Z</time></trkpt><trkpt lat="44.53788613046633" lon="7.82600996493928"><ele>352.0</ele><time>2026-04-15T17:02:40Z</time></trkpt><trkpt lat="44.537779232777666" lon="7.825975934040788"><ele>352.0</ele><time>2026-04-15T17:02:41Z</time></trkpt><trkpt lat="44.5376727412973" lon="7.825944823677096"><ele>352.0</ele><time>2026-04-15T17:02:42Z</time></trkpt><trkpt lat="44.53757652663779" lon="7.825917428051922"><ele>352.0</ele><time>2026-04-15T17:02:43Z</time></trkpt><trkpt lat="44.53747369899541" lon="7.825887448367447"><ele>351.8</ele><time>2026-04-15T17:02:44Z</time></trkpt><trkpt lat="44.537369425593994" lon="7.8258556051503545"><ele>351.6</ele><time>2026-04-15T17:02:45Z</time></trkpt><trkpt lat="44.537260972076304" lon="7.825830499191763"><ele>351.40000000000003</ele><time>2026-04-15T17:02:46Z</time></trkpt><trkpt lat="44.53716036343462" lon="7.825730060712849"><ele>351.20000000000005</ele><time>2026-04-15T17:02:47Z</time></trkpt><trkpt lat="44.53705497701852" lon="7.825701021967957"><ele>351.0</ele><time>2026-04-15T17:02:48Z</time></trkpt><trkpt lat="44.53693970113813" lon="7.825669240559037"><ele>350.5</ele><time>2026-04-15T17:02:49Z</time></trkpt><trkpt lat="44.5368233948263" lon="7.82563717504902"><ele>350.0</ele><time>2026-04-15T17:02:50Z</time></trkpt><trkpt lat="44.53670240451449" lon="7.825603818156184"><ele>349.5</ele><time>2026-04-15T17:02:51Z</time></trkpt><trkpt lat="44.536578605031124" lon="7.825569686820724"><ele>349.0</ele><time>2026-04-15T17:02:52Z</time></trkpt><trkpt lat="44.536454962520246" lon="7.825535598734724"><ele>349.0</ele><time>2026-04-15T17:02:53Z</time></trkpt><trkpt lat="44.53633039688825" lon="7.8255238616273"><ele>349.0</ele><time>2026-04-15T17:02:54Z</time></trkpt><trkpt lat="44.53620814764245" lon="7.825481789128155"><ele>349.0</ele><time>2026-04-15T17:02:54.999Z</time></trkpt><trkpt lat="44.53608127190768" lon="7.825445370647257"><ele>349.0</ele><time>2026-04-15T17:02:55.999Z</time></trkpt><trkpt lat="44.53594846064167" lon="7.825406805929732"><ele>349.5</ele><time>2026-04-15T17:02:56.999Z</time></trkpt><trkpt lat="44.53581439046597" lon="7.825371169274967"><ele>350.0</ele><time>2026-04-15T17:02:57.999Z</time></trkpt><trkpt lat="44.535676280999695" lon="7.825334349332469"><ele>350.5</ele><time>2026-04-15T17:02:58.999Z</time></trkpt><trkpt lat="44.535538683140025" lon="7.825300945038117"><ele>351.0</ele><time>2026-04-15T17:02:59.999Z</time></trkpt><trkpt lat="44.53541019590516" lon="7.825266562291316"><ele>350.75</ele><time>2026-04-15T17:03:00.999Z</time></trkpt><trkpt lat="44.53527564224586" lon="7.825231126115506"><ele>350.5</ele><time>2026-04-15T17:03:01.999Z</time></trkpt><trkpt lat="44.53514332524049" lon="7.825175154697539"><ele>350.25</ele><time>2026-04-15T17:03:02.999Z</time></trkpt><trkpt lat="44.535009130490344" lon="7.825138921835805"><ele>350.0</ele><time>2026-04-15T17:03:03.999Z</time></trkpt><trkpt lat="44.53487636499433" lon="7.825107121790194"><ele>350.25</ele><time>2026-04-15T17:03:04.999Z</time></trkpt><trkpt lat="44.53474273157934" lon="7.825069065678245"><ele>350.5</ele><time>2026-04-15T17:03:05.999Z</time></trkpt><trkpt lat="44.53460655325821" lon="7.825028936948884"><ele>350.75</ele><time>2026-04-15T17:03:06.999Z</time></trkpt><trkpt lat="44.53447054577155" lon="7.824996009314862"><ele>351.0</ele><time>2026-04-15T17:03:07.999Z</time></trkpt><trkpt lat="44.53432727557673" lon="7.824958000576428"><ele>351.0</ele><time>2026-04-15T17:03:08.999Z</time></trkpt><trkpt lat="44.53418337216323" lon="7.8249198280760535"><ele>351.0</ele><time>2026-04-15T17:03:09.999Z</time></trkpt><trkpt lat="44.534030640040356" lon="7.82487740959313"><ele>351.0</ele><time>2026-04-15T17:03:10.999Z</time></trkpt><trkpt lat="44.53387927983824" lon="7.82483895706288"><ele>351.0</ele><time>2026-04-15T17:03:11.999Z</time></trkpt><trkpt lat="44.533728087219025" lon="7.824796474505192"><ele>351.0</ele><time>2026-04-15T17:03:12.999Z</time></trkpt><trkpt lat="44.533582662369895" lon="7.82475524791754"><ele>351.0</ele><time>2026-04-15T17:03:13.999Z</time></trkpt><trkpt lat="44.53343397549826" lon="7.824714333206689"><ele>351.0</ele><time>2026-04-15T17:03:14.999Z</time></trkpt><trkpt lat="44.53328380751172" lon="7.824672437994026"><ele>351.0</ele><time>2026-04-15T17:03:15.999Z</time></trkpt><trkpt lat="44.533136863810526" lon="7.824611912097365"><ele>351.0</ele><time>2026-04-15T17:03:16.999Z</time></trkpt><trkpt lat="44.53298293462556" lon="7.824569806140776"><ele>351.0</ele><time>2026-04-15T17:03:17.999Z</time></trkpt><trkpt lat="44.53283781185235" lon="7.824532047874859"><ele>351.0</ele><time>2026-04-15T17:03:18.999Z</time></trkpt><trkpt lat="44.532691026693264" lon="7.824491586986883"><ele>351.0</ele><time>2026-04-15T17:03:19.999Z</time></trkpt><trkpt lat="44.53254022606881" lon="7.824451190813289"><ele>351.0</ele><time>2026-04-15T17:03:20.999Z</time></trkpt><trkpt lat="44.53238826184482" lon="7.824410152873305"><ele>351.0</ele><time>2026-04-15T17:03:21.999Z</time></trkpt><trkpt lat="44.532234163249015" lon="7.824367840103748"><ele>351.0</ele><time>2026-04-15T17:03:22.999Z</time></trkpt><trkpt lat="44.532079093058115" lon="7.824326409451369"><ele>351.0</ele><time>2026-04-15T17:03:23.999Z</time></trkpt><trkpt lat="44.53192150110992" lon="7.8242805300954075"><ele>351.0</ele><time>2026-04-15T17:03:24.999Z</time></trkpt><trkpt lat="44.53176583438456" lon="7.824232596016927"><ele>351.0</ele><time>2026-04-15T17:03:25.999Z</time></trkpt><trkpt lat="44.53161396941994" lon="7.824183650088331"><ele>351.0</ele><time>2026-04-15T17:03:26.999Z</time></trkpt><trkpt lat="44.531460929331416" lon="7.824143224326572"><ele>351.0</ele><time>2026-04-15T17:03:27.999Z</time></trkpt><trkpt lat="44.531300448202735" lon="7.824093363110423"><ele>351.0</ele><time>2026-04-15T17:03:28.999Z</time></trkpt><trkpt lat="44.531141788500506" lon="7.824049090984996"><ele>350.6666666666667</ele><time>2026-04-15T17:03:29.999Z</time></trkpt><trkpt lat="44.53098652130373" lon="7.824008181683344"><ele>350.33333333333337</ele><time>2026-04-15T17:03:30.999Z</time></trkpt><trkpt lat="44.530828830293046" lon="7.823970781703176"><ele>350.0</ele><time>2026-04-15T17:03:31.999Z</time></trkpt><trkpt lat="44.53066075258299" lon="7.823922700562712"><ele>350.0</ele><time>2026-04-15T17:03:32.999Z</time></trkpt><trkpt lat="44.530489561531525" lon="7.823874889141662"><ele>350.0</ele><time>2026-04-15T17:03:33.999Z</time></trkpt><trkpt lat="44.530312227209954" lon="7.823838689154273"><ele>350.0</ele><time>2026-04-15T17:03:34.999Z</time></trkpt><trkpt lat="44.53011911254205" lon="7.823790410814363"><ele>350.0</ele><time>2026-04-15T17:03:35.999Z</time></trkpt><trkpt lat="44.529923117242" lon="7.823735113783144"><ele>350.0</ele><time>2026-04-15T17:03:36.999Z</time></trkpt><trkpt lat="44.529722731524245" lon="7.823678471075877"><ele>350.0</ele><time>2026-04-15T17:03:37.999Z</time></trkpt><trkpt lat="44.52951870718864" lon="7.823619651550569"><ele>350.0</ele><time>2026-04-15T17:03:38.999Z</time></trkpt><trkpt lat="44.52931238942171" lon="7.8235599767400625"><ele>350.0</ele><time>2026-04-15T17:03:39.999Z</time></trkpt><trkpt lat="44.52909977666694" lon="7.823506818197237"><ele>350.0</ele><time>2026-04-15T17:03:40.999Z</time></trkpt><trkpt lat="44.528877489423905" lon="7.8234443480758005"><ele>348.5</ele><time>2026-04-15T17:03:41.999Z</time></trkpt><trkpt lat="44.528639698401676" lon="7.823376432754568"><ele>347.0</ele><time>2026-04-15T17:03:42.999Z</time></trkpt><trkpt lat="44.52839933842507" lon="7.823314209744843"><ele>347.0</ele><time>2026-04-15T17:03:43.999Z</time></trkpt><trkpt lat="44.52816567635455" lon="7.823252461704156"><ele>347.0</ele><time>2026-04-15T17:03:44.999Z</time></trkpt><trkpt lat="44.52793581306367" lon="7.823186388528152"><ele>346.6666666666667</ele><time>2026-04-15T17:03:45.999Z</time></trkpt><trkpt lat="44.527722112552496" lon="7.823125150507349"><ele>346.3333333333333</ele><time>2026-04-15T17:03:46.999Z</time></trkpt><trkpt lat="44.52752156747478" lon="7.823070524714563"><ele>346.0</ele><time>2026-04-15T17:03:47.999Z</time></trkpt><trkpt lat="44.52733725796216" lon="7.823023131573834"><ele>346.0</ele><time>2026-04-15T17:03:48.999Z</time></trkpt><trkpt lat="44.52716938001738" lon="7.82295359393687"><ele>346.0</ele><time>2026-04-15T17:03:49.999Z</time></trkpt><trkpt lat="44.52698613209448" lon="7.8229269545410585"><ele>346.0</ele><time>2026-04-15T17:03:50.999Z</time></trkpt><trkpt lat="44.52682749957419" lon="7.822861373178204"><ele>346.66666666666663</ele><time>2026-04-15T17:03:51.999Z</time></trkpt><trkpt lat="44.52666848258572" lon="7.822841231249473"><ele>347.3333333333333</ele><time>2026-04-15T17:03:52.999Z</time></trkpt><trkpt lat="44.526517620863835" lon="7.822790355696827"><ele>348.0</ele><time>2026-04-15T17:03:53.999Z</time></trkpt><trkpt lat="44.526376401480626" lon="7.822720633759346"><ele>348.0</ele><time>2026-04-15T17:03:54.999Z</time></trkpt><trkpt lat="44.52624018423715" lon="7.822668863650556"><ele>348.0</ele><time>2026-04-15T17:03:55.999Z</time></trkpt><trkpt lat="44.5260973513356" lon="7.8226204501553385"><ele>348.0</ele><time>2026-04-15T17:03:56.999Z</time></trkpt><trkpt lat="44.52597199984148" lon="7.822526806035185"><ele>348.0</ele><time>2026-04-15T17:03:57.998Z</time></trkpt><trkpt lat="44.525849275011694" lon="7.822402868333889"><ele>348.5</ele><time>2026-04-15T17:03:58.998Z</time></trkpt><trkpt lat="44.52573891582185" lon="7.822268813407172"><ele>349.0</ele><time>2026-04-15T17:03:59.998Z</time></trkpt><trkpt lat="44.52563148496627" lon="7.822140176729991"><ele>349.5</ele><time>2026-04-15T17:04:00.998Z</time></trkpt><trkpt lat="44.52553275749252" lon="7.821962023539677"><ele>350.0</ele><time>2026-04-15T17:04:01.998Z</time></trkpt><trkpt lat="44.52542499609892" lon="7.821779779158395"><ele>356.33333333333337</ele><time>2026-04-15T17:04:02.998Z</time></trkpt><trkpt lat="44.525320243643776" lon="7.8216050965337685"><ele>362.6666666666667</ele><time>2026-04-15T17:04:03.998Z</time></trkpt><trkpt lat="44.52520662978552" lon="7.821420796404277"><ele>369.0</ele><time>2026-04-15T17:04:04.998Z</time></trkpt><trkpt lat="44.52508803822454" lon="7.821237270663339"><ele>369.0</ele><time>2026-04-15T17:04:05.998Z</time></trkpt><trkpt lat="44.524969339516" lon="7.821043440074895"><ele>369.0</ele><time>2026-04-15T17:04:06.998Z</time></trkpt><trkpt lat="44.52484968596968" lon="7.8208424734753095"><ele>369.0</ele><time>2026-04-15T17:04:07.998Z</time></trkpt><trkpt lat="44.52472622695228" lon="7.820630432388468"><ele>371.0</ele><time>2026-04-15T17:04:08.998Z</time></trkpt><trkpt lat="44.5246159176375" lon="7.820440200960137"><ele>373.0</ele><time>2026-04-15T17:04:09.998Z</time></trkpt><trkpt lat="44.524511782441316" lon="7.820265655037319"><ele>375.0</ele><time>2026-04-15T17:04:10.998Z</time></trkpt><trkpt lat="44.52441589205696" lon="7.820108286012643"><ele>375.0</ele><time>2026-04-15T17:04:11.998Z</time></trkpt><trkpt lat="44.52432753820126" lon="7.819956815792302"><ele>375.0</ele><time>2026-04-15T17:04:12.998Z</time></trkpt><trkpt lat="44.52423870354728" lon="7.819812046962458"><ele>375.0</ele><time>2026-04-15T17:04:13.998Z</time></trkpt><trkpt lat="44.52415099717321" lon="7.819674648887912"><ele>375.0</ele><time>2026-04-15T17:04:15Z</time></trkpt><trkpt lat="44.524066432029706" lon="7.819538387451691"><ele>375.0</ele><time>2026-04-15T17:04:16Z</time></trkpt><trkpt lat="44.52397325282014" lon="7.819408834443851"><ele>375.0</ele><time>2026-04-15T17:04:17Z</time></trkpt><trkpt lat="44.523873783498345" lon="7.819286115280177"><ele>375.0</ele><time>2026-04-15T17:04:18Z</time></trkpt><trkpt lat="44.52376747137041" lon="7.819180868503127"><ele>375.0</ele><time>2026-04-15T17:04:19Z</time></trkpt><trkpt lat="44.523666944401945" lon="7.819091871228923"><ele>376.5</ele><time>2026-04-15T17:04:20Z</time></trkpt><trkpt lat="44.52356463295536" lon="7.819017956110008"><ele>378.0</ele><time>2026-04-15T17:04:21Z</time></trkpt><trkpt lat="44.52344534447805" lon="7.818956309100332"><ele>379.5</ele><time>2026-04-15T17:04:22Z</time></trkpt><trkpt lat="44.52331893675571" lon="7.818923696140483"><ele>381.0</ele><time>2026-04-15T17:04:23Z</time></trkpt><trkpt lat="44.5231786154551" lon="7.818929245599581"><ele>381.0</ele><time>2026-04-15T17:04:24Z</time></trkpt><trkpt lat="44.52302628491275" lon="7.818915774386586"><ele>381.0</ele><time>2026-04-15T17:04:25Z</time></trkpt><trkpt lat="44.522864320213735" lon="7.818900737546573"><ele>381.0</ele><time>2026-04-15T17:04:26Z</time></trkpt><trkpt lat="44.522696978467806" lon="7.818892197807289"><ele>382.33333333333337</ele><time>2026-04-15T17:04:27Z</time></trkpt><trkpt lat="44.522523286376064" lon="7.81888493936107"><ele>383.6666666666667</ele><time>2026-04-15T17:04:28Z</time></trkpt><trkpt lat="44.52237697306719" lon="7.81888235584639"><ele>385.0</ele><time>2026-04-15T17:04:29Z</time></trkpt><trkpt lat="44.522208529883116" lon="7.8188657630953315"><ele>386.33333333333337</ele><time>2026-04-15T17:04:30Z</time></trkpt><trkpt lat="44.522028515952634" lon="7.818849712795872"><ele>387.66666666666663</ele><time>2026-04-15T17:04:31Z</time></trkpt><trkpt lat="44.521869893184835" lon="7.818838398546647"><ele>389.0</ele><time>2026-04-15T17:04:32Z</time></trkpt><trkpt lat="44.52172181005789" lon="7.818823450290735"><ele>389.0</ele><time>2026-04-15T17:04:33Z</time></trkpt><trkpt lat="44.5215895442417" lon="7.818824008807166"><ele>389.0</ele><time>2026-04-15T17:04:34Z</time></trkpt><trkpt lat="44.521458846878225" lon="7.818827498327025"><ele>389.0</ele><time>2026-04-15T17:04:35Z</time></trkpt><trkpt lat="44.521312904079316" lon="7.818815618833361"><ele>389.0</ele><time>2026-04-15T17:04:36Z</time></trkpt><trkpt lat="44.52116536317915" lon="7.818804558986852"><ele>389.75</ele><time>2026-04-15T17:04:37Z</time></trkpt><trkpt lat="44.521037683790496" lon="7.818798890074424"><ele>390.5</ele><time>2026-04-15T17:04:38Z</time></trkpt><trkpt lat="44.520917815114615" lon="7.818799720460932"><ele>391.25</ele><time>2026-04-15T17:04:39Z</time></trkpt><trkpt lat="44.52079678818412" lon="7.818798667905064"><ele>392.0</ele><time>2026-04-15T17:04:40Z</time></trkpt><trkpt lat="44.52068742922112" lon="7.818796444778934"><ele>391.99999999999994</ele><time>2026-04-15T17:04:41Z</time></trkpt><trkpt lat="44.52059297182962" lon="7.81879553729322"><ele>392.0</ele><time>2026-04-15T17:04:42Z</time></trkpt><trkpt lat="44.520509135416184" lon="7.818790573639215"><ele>392.0</ele><time>2026-04-15T17:04:43Z</time></trkpt><trkpt lat="44.52042508639898" lon="7.81877875796032"><ele>392.0</ele><time>2026-04-15T17:04:44Z</time></trkpt><trkpt lat="44.52033764969885" lon="7.818751797032374"><ele>391.99999999999994</ele><time>2026-04-15T17:04:45Z</time></trkpt><trkpt lat="44.520258643502814" lon="7.8187035433163885"><ele>392.0</ele><time>2026-04-15T17:04:46Z</time></trkpt><trkpt lat="44.52017052738445" lon="7.81865169025998"><ele>391.75</ele><time>2026-04-15T17:04:47Z</time></trkpt><trkpt lat="44.52006460157772" lon="7.818598267717453"><ele>391.5</ele><time>2026-04-15T17:04:48Z</time></trkpt><trkpt lat="44.51994372973521" lon="7.818520726997063"><ele>391.25</ele><time>2026-04-15T17:04:49Z</time></trkpt><trkpt lat="44.519838274212375" lon="7.818466203057004"><ele>391.0</ele><time>2026-04-15T17:04:50Z</time></trkpt><trkpt lat="44.519724091135" lon="7.818430718771185"><ele>391.0</ele><time>2026-04-15T17:04:51Z</time></trkpt><trkpt lat="44.51963005413164" lon="7.8183584903122885"><ele>391.0</ele><time>2026-04-15T17:04:52Z</time></trkpt><trkpt lat="44.51952700085986" lon="7.818304386489555"><ele>391.0</ele><time>2026-04-15T17:04:53Z</time></trkpt><trkpt lat="44.51942117858624" lon="7.818248828842038"><ele>391.0</ele><time>2026-04-15T17:04:54Z</time></trkpt><trkpt lat="44.51931048590272" lon="7.818215521728093"><ele>391.0</ele><time>2026-04-15T17:04:55Z</time></trkpt><trkpt lat="44.51920945885965" lon="7.818159838726635"><ele>392.0</ele><time>2026-04-15T17:04:56Z</time></trkpt><trkpt lat="44.51910892637787" lon="7.81808489362314"><ele>393.0</ele><time>2026-04-15T17:04:57Z</time></trkpt><trkpt lat="44.519002182705805" lon="7.818029669810181"><ele>394.0</ele><time>2026-04-15T17:04:58Z</time></trkpt><trkpt lat="44.51889527209209" lon="7.817974592321181"><ele>395.0</ele><time>2026-04-15T17:04:59Z</time></trkpt><trkpt lat="44.518790242429745" lon="7.817920483883325"><ele>395.6</ele><time>2026-04-15T17:05:00Z</time></trkpt><trkpt lat="44.518687600941306" lon="7.817867605762603"><ele>396.2</ele><time>2026-04-15T17:05:00.999Z</time></trkpt><trkpt lat="44.51858179543562" lon="7.8178145384930975"><ele>396.79999999999995</ele><time>2026-04-15T17:05:01.999Z</time></trkpt><trkpt lat="44.518482033611" lon="7.817764905903195"><ele>397.4</ele><time>2026-04-15T17:05:02.999Z</time></trkpt><trkpt lat="44.518367576465735" lon="7.8177135204597885"><ele>398.0</ele><time>2026-04-15T17:05:03.999Z</time></trkpt><trkpt lat="44.518242861234086" lon="7.81767884377826"><ele>398.0</ele><time>2026-04-15T17:05:04.999Z</time></trkpt><trkpt lat="44.51814087809926" lon="7.817638835378903"><ele>398.0</ele><time>2026-04-15T17:05:05.999Z</time></trkpt><trkpt lat="44.51804727779516" lon="7.817610086684068"><ele>398.0</ele><time>2026-04-15T17:05:06.999Z</time></trkpt><trkpt lat="44.51795002644249" lon="7.817581197516195"><ele>398.0</ele><time>2026-04-15T17:05:07.999Z</time></trkpt><trkpt lat="44.51784351588725" lon="7.817557066938766"><ele>398.0</ele><time>2026-04-15T17:05:08.999Z</time></trkpt><trkpt lat="44.51773006024674" lon="7.817549537829851"><ele>398.5</ele><time>2026-04-15T17:05:09.999Z</time></trkpt><trkpt lat="44.517615457324844" lon="7.817545583662895"><ele>399.0</ele><time>2026-04-15T17:05:10.999Z</time></trkpt><trkpt lat="44.51748825992014" lon="7.817545960476105"><ele>399.5</ele><time>2026-04-15T17:05:11.999Z</time></trkpt><trkpt lat="44.5173630693301" lon="7.817548537735601"><ele>400.0</ele><time>2026-04-15T17:05:12.999Z</time></trkpt><trkpt lat="44.517250821922225" lon="7.817523534688978"><ele>400.0</ele><time>2026-04-15T17:05:13.999Z</time></trkpt><trkpt lat="44.517150345783286" lon="7.8175150773323265"><ele>400.0</ele><time>2026-04-15T17:05:14.999Z</time></trkpt><trkpt lat="44.51704658606451" lon="7.817502872089015"><ele>400.0</ele><time>2026-04-15T17:05:15.999Z</time></trkpt><trkpt lat="44.516942720904794" lon="7.817483929454638"><ele>400.0</ele><time>2026-04-15T17:05:16.999Z</time></trkpt><trkpt lat="44.51683495838588" lon="7.817476509110467"><ele>400.0</ele><time>2026-04-15T17:05:17.999Z</time></trkpt><trkpt lat="44.5167228600409" lon="7.817438425251516"><ele>400.0</ele><time>2026-04-15T17:05:18.999Z</time></trkpt><trkpt lat="44.516621365797654" lon="7.817405906380498"><ele>400.0</ele><time>2026-04-15T17:05:19.999Z</time></trkpt><trkpt lat="44.516521691991024" lon="7.817370597411703"><ele>400.0</ele><time>2026-04-15T17:05:20.999Z</time></trkpt><trkpt lat="44.51642344902929" lon="7.81732571790823"><ele>400.0</ele><time>2026-04-15T17:05:21.999Z</time></trkpt><trkpt lat="44.5163270690204" lon="7.8172920013743905"><ele>400.0</ele><time>2026-04-15T17:05:22.999Z</time></trkpt><trkpt lat="44.51623305417925" lon="7.817259338490646"><ele>399.8</ele><time>2026-04-15T17:05:23.999Z</time></trkpt><trkpt lat="44.51613754718714" lon="7.817224884004051"><ele>399.6</ele><time>2026-04-15T17:05:24.999Z</time></trkpt><trkpt lat="44.51603207918927" lon="7.817194509895918"><ele>399.4</ele><time>2026-04-15T17:05:25.999Z</time></trkpt><trkpt lat="44.51591947946152" lon="7.817170312014656"><ele>399.2</ele><time>2026-04-15T17:05:26.999Z</time></trkpt><trkpt lat="44.51580737340911" lon="7.817156010761722"><ele>399.0</ele><time>2026-04-15T17:05:27.999Z</time></trkpt><trkpt lat="44.51569844995907" lon="7.817145941992951"><ele>399.0</ele><time>2026-04-15T17:05:28.999Z</time></trkpt><trkpt lat="44.51559212914162" lon="7.817155460981652"><ele>399.0</ele><time>2026-04-15T17:05:29.999Z</time></trkpt><trkpt lat="44.5154800429815" lon="7.817165412395063"><ele>399.0</ele><time>2026-04-15T17:05:30.999Z</time></trkpt><trkpt lat="44.51535529612391" lon="7.817160693208424"><ele>399.0</ele><time>2026-04-15T17:05:31.999Z</time></trkpt><trkpt lat="44.515229911810124" lon="7.817168975976356"><ele>398.5</ele><time>2026-04-15T17:05:32.999Z</time></trkpt><trkpt lat="44.51511657426512" lon="7.817176765858407"><ele>398.0</ele><time>2026-04-15T17:05:33.999Z</time></trkpt><trkpt lat="44.51498988442818" lon="7.817185471308479"><ele>397.5</ele><time>2026-04-15T17:05:34.999Z</time></trkpt><trkpt lat="44.51485704163151" lon="7.817195598600347"><ele>397.0</ele><time>2026-04-15T17:05:35.999Z</time></trkpt><trkpt lat="44.51471103878843" lon="7.817206979381582"><ele>396.33333333333337</ele><time>2026-04-15T17:05:36.999Z</time></trkpt><trkpt lat="44.51455755209495" lon="7.817218943550746"><ele>395.66666666666663</ele><time>2026-04-15T17:05:37.999Z</time></trkpt><trkpt lat="44.51440292918848" lon="7.817230996292479"><ele>395.0</ele><time>2026-04-15T17:05:38.999Z</time></trkpt><trkpt lat="44.51423689629436" lon="7.817243938410869"><ele>395.0</ele><time>2026-04-15T17:05:39.999Z</time></trkpt><trkpt lat="44.51405978285095" lon="7.817257744256163"><ele>395.0</ele><time>2026-04-15T17:05:40.999Z</time></trkpt><trkpt lat="44.51387153916277" lon="7.817272417689523"><ele>395.0</ele><time>2026-04-15T17:05:41.999Z</time></trkpt><trkpt lat="44.51368431952164" lon="7.817287011315633"><ele>395.66666666666663</ele><time>2026-04-15T17:05:42.999Z</time></trkpt><trkpt lat="44.51349586095229" lon="7.817301929485456"><ele>396.33333333333337</ele><time>2026-04-15T17:05:43.999Z</time></trkpt><trkpt lat="44.513295861929286" lon="7.817318270485699"><ele>397.0</ele><time>2026-04-15T17:05:44.999Z</time></trkpt><trkpt lat="44.51309129980671" lon="7.8173349735667665"><ele>396.6666666666667</ele><time>2026-04-15T17:05:45.999Z</time></trkpt><trkpt lat="44.51287392586726" lon="7.817352722774994"><ele>396.33333333333337</ele><time>2026-04-15T17:05:46.999Z</time></trkpt><trkpt lat="44.5126645174253" lon="7.817369821563251"><ele>396.0</ele><time>2026-04-15T17:05:47.999Z</time></trkpt><trkpt lat="44.512471371204036" lon="7.817385592501818"><ele>396.0</ele><time>2026-04-15T17:05:48.999Z</time></trkpt><trkpt lat="44.51228128527338" lon="7.817401113554649"><ele>396.0</ele><time>2026-04-15T17:05:49.999Z</time></trkpt><trkpt lat="44.512105418358104" lon="7.817414589834877"><ele>396.0</ele><time>2026-04-15T17:05:50.999Z</time></trkpt><trkpt lat="44.5119421378323" lon="7.817425857329017"><ele>396.0</ele><time>2026-04-15T17:05:51.999Z</time></trkpt><trkpt lat="44.511778844770326" lon="7.817437125693968"><ele>396.0</ele><time>2026-04-15T17:05:52.999Z</time></trkpt><trkpt lat="44.51161769959707" lon="7.817448245841588"><ele>396.0</ele><time>2026-04-15T17:05:53.999Z</time></trkpt><trkpt lat="44.511449196040644" lon="7.817459873769027"><ele>396.0</ele><time>2026-04-15T17:05:54.999Z</time></trkpt><trkpt lat="44.51128179138765" lon="7.817471425861016"><ele>396.0</ele><time>2026-04-15T17:05:55.999Z</time></trkpt><trkpt lat="44.51110906315125" lon="7.817483993147192"><ele>396.0</ele><time>2026-04-15T17:05:56.999Z</time></trkpt><trkpt lat="44.51092895334701" lon="7.817497190173087"><ele>396.33333333333337</ele><time>2026-04-15T17:05:57.999Z</time></trkpt><trkpt lat="44.51074244630536" lon="7.817511581823837"><ele>396.6666666666667</ele><time>2026-04-15T17:05:58.999Z</time></trkpt><trkpt lat="44.510560601912424" lon="7.8175270623535535"><ele>397.0</ele><time>2026-04-15T17:05:59.999Z</time></trkpt><trkpt lat="44.5103751130901" lon="7.817542855042612"><ele>397.33333333333337</ele><time>2026-04-15T17:06:00.999Z</time></trkpt><trkpt lat="44.510186072700684" lon="7.817558948180001"><ele>397.66666666666663</ele><time>2026-04-15T17:06:01.999Z</time></trkpt><trkpt lat="44.509989565445736" lon="7.8175755104458595"><ele>398.0</ele><time>2026-04-15T17:06:02.998Z</time></trkpt><trkpt lat="44.509791968273255" lon="7.81759105952047"><ele>398.0</ele><time>2026-04-15T17:06:03.998Z</time></trkpt><trkpt lat="44.50959555832332" lon="7.817606515180151"><ele>398.0</ele><time>2026-04-15T17:06:04.998Z</time></trkpt><trkpt lat="44.509391128660674" lon="7.817622601907244"><ele>398.0</ele><time>2026-04-15T17:06:05.998Z</time></trkpt><trkpt lat="44.50918611473676" lon="7.817638734625301"><ele>398.66666666666663</ele><time>2026-04-15T17:06:06.998Z</time></trkpt><trkpt lat="44.508974970691824" lon="7.817655223535366"><ele>399.33333333333337</ele><time>2026-04-15T17:06:07.998Z</time></trkpt><trkpt lat="44.50876227818149" lon="7.817671200526985"><ele>400.0</ele><time>2026-04-15T17:06:08.998Z</time></trkpt><trkpt lat="44.5085627098455" lon="7.817686191667155"><ele>400.33333333333337</ele><time>2026-04-15T17:06:09.998Z</time></trkpt><trkpt lat="44.50835089951867" lon="7.817702102386746"><ele>400.66666666666663</ele><time>2026-04-15T17:06:10.998Z</time></trkpt><trkpt lat="44.50814578161281" lon="7.817717510394728"><ele>401.0</ele><time>2026-04-15T17:06:11.998Z</time></trkpt><trkpt lat="44.507957151673736" lon="7.817731679868185"><ele>401.0</ele><time>2026-04-15T17:06:12.998Z</time></trkpt><trkpt lat="44.507766689940205" lon="7.81774598692284"><ele>401.0</ele><time>2026-04-15T17:06:13.998Z</time></trkpt><trkpt lat="44.50757908891233" lon="7.81776007909672"><ele>401.0</ele><time>2026-04-15T17:06:14.998Z</time></trkpt><trkpt lat="44.507390313196645" lon="7.817774259514276"><ele>401.0</ele><time>2026-04-15T17:06:15.998Z</time></trkpt><trkpt lat="44.50720523373605" lon="7.817788162278796"><ele>401.0</ele><time>2026-04-15T17:06:16.998Z</time></trkpt><trkpt lat="44.507017969564394" lon="7.817802229145424"><ele>401.0</ele><time>2026-04-15T17:06:17.998Z</time></trkpt><trkpt lat="44.50682641744138" lon="7.81781661813233"><ele>401.3333333333333</ele><time>2026-04-15T17:06:18.998Z</time></trkpt><trkpt lat="44.506629280260704" lon="7.817831998510866"><ele>401.66666666666663</ele><time>2026-04-15T17:06:19.998Z</time></trkpt><trkpt lat="44.50642550155146" lon="7.817848194144227"><ele>402.0</ele><time>2026-04-15T17:06:21Z</time></trkpt><trkpt lat="44.50621851644359" lon="7.817864644603222"><ele>402.33333333333337</ele><time>2026-04-15T17:06:22Z</time></trkpt><trkpt lat="44.50600896257166" lon="7.817881408388274"><ele>402.6666666666667</ele><time>2026-04-15T17:06:23Z</time></trkpt><trkpt lat="44.505796200263866" lon="7.817899229904267"><ele>403.0</ele><time>2026-04-15T17:06:24Z</time></trkpt><trkpt lat="44.50558129016931" lon="7.817917233257069"><ele>402.33333333333337</ele><time>2026-04-15T17:06:25Z</time></trkpt><trkpt lat="44.505359835040835" lon="7.81793578290541"><ele>401.66666666666663</ele><time>2026-04-15T17:06:26Z</time></trkpt><trkpt lat="44.50513315111946" lon="7.817954770537557"><ele>401.0</ele><time>2026-04-15T17:06:27Z</time></trkpt><trkpt lat="44.504897594644746" lon="7.817974501357624"><ele>401.0</ele><time>2026-04-15T17:06:28Z</time></trkpt><trkpt lat="44.50466587798074" lon="7.817992066174535"><ele>401.0</ele><time>2026-04-15T17:06:29Z</time></trkpt><trkpt lat="44.50442618194575" lon="7.818009744803295"><ele>401.0</ele><time>2026-04-15T17:06:30Z</time></trkpt><trkpt lat="44.50419070193164" lon="7.818026354331407"><ele>401.0</ele><time>2026-04-15T17:06:31Z</time></trkpt><trkpt lat="44.50395469477934" lon="7.818042566020799"><ele>401.0</ele><time>2026-04-15T17:06:32Z</time></trkpt><trkpt lat="44.50371475858356" lon="7.818059393789376"><ele>401.0</ele><time>2026-04-15T17:06:33Z</time></trkpt><trkpt lat="44.50347753010743" lon="7.818077072233389"><ele>401.0</ele><time>2026-04-15T17:06:34Z</time></trkpt><trkpt lat="44.50323480950046" lon="7.818097516757124"><ele>401.0</ele><time>2026-04-15T17:06:35Z</time></trkpt><trkpt lat="44.50300404452509" lon="7.818117233312948"><ele>401.3333333333333</ele><time>2026-04-15T17:06:36Z</time></trkpt><trkpt lat="44.50277683309061" lon="7.81813664627188"><ele>401.66666666666663</ele><time>2026-04-15T17:06:37Z</time></trkpt><trkpt lat="44.50256348401722" lon="7.818173296842664"><ele>402.0</ele><time>2026-04-15T17:06:38Z</time></trkpt><trkpt lat="44.50237103212567" lon="7.8181901343275655"><ele>402.0</ele><time>2026-04-15T17:06:39Z</time></trkpt><trkpt lat="44.502194695158174" lon="7.818203396251646"><ele>402.0</ele><time>2026-04-15T17:06:40Z</time></trkpt><trkpt lat="44.50202576278947" lon="7.8182173918616655"><ele>402.0</ele><time>2026-04-15T17:06:41Z</time></trkpt><trkpt lat="44.50186382227526" lon="7.81822965743416"><ele>402.25</ele><time>2026-04-15T17:06:42Z</time></trkpt><trkpt lat="44.50170610289888" lon="7.8182342084050225"><ele>402.5</ele><time>2026-04-15T17:06:43Z</time></trkpt><trkpt lat="44.50155616386688" lon="7.818243330887109"><ele>402.75</ele><time>2026-04-15T17:06:44Z</time></trkpt><trkpt lat="44.5014182261954" lon="7.818249363665791"><ele>403.0</ele><time>2026-04-15T17:06:45Z</time></trkpt><trkpt lat="44.50128003697991" lon="7.818255452357593"><ele>403.25</ele><time>2026-04-15T17:06:46Z</time></trkpt><trkpt lat="44.50115203798814" lon="7.818259146192996"><ele>403.5</ele><time>2026-04-15T17:06:47Z</time></trkpt><trkpt lat="44.50103562965726" lon="7.818259649875604"><ele>403.75</ele><time>2026-04-15T17:06:48Z</time></trkpt><trkpt lat="44.50092804949317" lon="7.818247381738302"><ele>404.0</ele><time>2026-04-15T17:06:49Z</time></trkpt><trkpt lat="44.50082942157912" lon="7.818224929039759"><ele>404.0</ele><time>2026-04-15T17:06:50Z</time></trkpt><trkpt lat="44.50072522666297" lon="7.818149773644961"><ele>404.0</ele><time>2026-04-15T17:06:51Z</time></trkpt><trkpt lat="44.500604239415686" lon="7.818102384138974"><ele>404.0</ele><time>2026-04-15T17:06:52Z</time></trkpt><trkpt lat="44.50048314525747" lon="7.817993461582662"><ele>404.0</ele><time>2026-04-15T17:06:53Z</time></trkpt><trkpt lat="44.50035039537151" lon="7.817892708940195"><ele>404.0</ele><time>2026-04-15T17:06:54Z</time></trkpt><trkpt lat="44.500202621419064" lon="7.817789961380572"><ele>404.0</ele><time>2026-04-15T17:06:55Z</time></trkpt><trkpt lat="44.50005580561849" lon="7.817689808248521"><ele>404.0</ele><time>2026-04-15T17:06:56Z</time></trkpt><trkpt lat="44.49990038778427" lon="7.817575267000216"><ele>404.0</ele><time>2026-04-15T17:06:57Z</time></trkpt><trkpt lat="44.49973295876361" lon="7.817457511875048"><ele>404.0</ele><time>2026-04-15T17:06:58Z</time></trkpt><trkpt lat="44.499559245438164" lon="7.817335449016278"><ele>404.0</ele><time>2026-04-15T17:06:59Z</time></trkpt><trkpt lat="44.499386326984485" lon="7.817208206324324"><ele>404.0</ele><time>2026-04-15T17:07:00Z</time></trkpt><trkpt lat="44.49920970909585" lon="7.817078845582642"><ele>404.0</ele><time>2026-04-15T17:07:01Z</time></trkpt><trkpt lat="44.499026383884654" lon="7.816947927319657"><ele>404.0</ele><time>2026-04-15T17:07:02Z</time></trkpt><trkpt lat="44.498841364661324" lon="7.816811296925164"><ele>404.0</ele><time>2026-04-15T17:07:03Z</time></trkpt><trkpt lat="44.49865185535371" lon="7.816676476844692"><ele>404.0</ele><time>2026-04-15T17:07:04Z</time></trkpt><trkpt lat="44.49845421580359" lon="7.816535094606603"><ele>404.0</ele><time>2026-04-15T17:07:05Z</time></trkpt><trkpt lat="44.49825328182159" lon="7.816392635309049"><ele>404.0</ele><time>2026-04-15T17:07:06Z</time></trkpt><trkpt lat="44.498051172193236" lon="7.816251329911892"><ele>404.0</ele><time>2026-04-15T17:07:06.999Z</time></trkpt><trkpt lat="44.497872801493926" lon="7.8161148537184815"><ele>404.0</ele><time>2026-04-15T17:07:07.999Z</time></trkpt><trkpt lat="44.49770248046537" lon="7.815989051003776"><ele>404.3333333333333</ele><time>2026-04-15T17:07:08.999Z</time></trkpt><trkpt lat="44.49752752338191" lon="7.815847074020681"><ele>404.66666666666663</ele><time>2026-04-15T17:07:09.999Z</time></trkpt><trkpt lat="44.49733993281496" lon="7.815711187773704"><ele>405.0</ele><time>2026-04-15T17:07:10.999Z</time></trkpt><trkpt lat="44.49714709705476" lon="7.815594125094376"><ele>405.66666666666663</ele><time>2026-04-15T17:07:11.999Z</time></trkpt><trkpt lat="44.496981611986726" lon="7.815451628851074"><ele>406.3333333333333</ele><time>2026-04-15T17:07:12.999Z</time></trkpt><trkpt lat="44.49682199187667" lon="7.815336003598846"><ele>407.0</ele><time>2026-04-15T17:07:13.999Z</time></trkpt><trkpt lat="44.49666142827651" lon="7.815219695125349"><ele>406.66666666666663</ele><time>2026-04-15T17:07:14.999Z</time></trkpt><trkpt lat="44.49651033552943" lon="7.815110270427081"><ele>406.33333333333337</ele><time>2026-04-15T17:07:15.999Z</time></trkpt><trkpt lat="44.49636325280507" lon="7.815005042639056"><ele>406.0</ele><time>2026-04-15T17:07:16.999Z</time></trkpt><trkpt lat="44.49623184703032" lon="7.814911030667277"><ele>406.0</ele><time>2026-04-15T17:07:17.999Z</time></trkpt><trkpt lat="44.496101413987915" lon="7.814817714737485"><ele>406.0</ele><time>2026-04-15T17:07:18.999Z</time></trkpt><trkpt lat="44.495965437861784" lon="7.814720611344805"><ele>406.0</ele><time>2026-04-15T17:07:19.999Z</time></trkpt><trkpt lat="44.49582800658799" lon="7.81464599925912"><ele>406.0</ele><time>2026-04-15T17:07:20.999Z</time></trkpt><trkpt lat="44.495692071791844" lon="7.814549061944197"><ele>406.0</ele><time>2026-04-15T17:07:21.999Z</time></trkpt><trkpt lat="44.49555749924218" lon="7.8144509223388"><ele>406.0</ele><time>2026-04-15T17:07:22.999Z</time></trkpt><trkpt lat="44.49542656503332" lon="7.814358832480847"><ele>406.0</ele><time>2026-04-15T17:07:23.999Z</time></trkpt><trkpt lat="44.49528957474232" lon="7.814261720149237"><ele>406.0</ele><time>2026-04-15T17:07:24.999Z</time></trkpt><trkpt lat="44.4951565874315" lon="7.814161799149115"><ele>406.0</ele><time>2026-04-15T17:07:25.999Z</time></trkpt><trkpt lat="44.49501252381782" lon="7.814053492278023"><ele>406.0</ele><time>2026-04-15T17:07:26.999Z</time></trkpt><trkpt lat="44.494889786469564" lon="7.813965755826704"><ele>406.0</ele><time>2026-04-15T17:07:27.999Z</time></trkpt><trkpt lat="44.494761196765936" lon="7.813875168720687"><ele>406.0</ele><time>2026-04-15T17:07:28.999Z</time></trkpt><trkpt lat="44.49464106860808" lon="7.8137629474930606"><ele>406.0</ele><time>2026-04-15T17:07:29.999Z</time></trkpt><trkpt lat="44.494521804048205" lon="7.81367758007583"><ele>406.0</ele><time>2026-04-15T17:07:30.999Z</time></trkpt><trkpt lat="44.49441058834448" lon="7.813597579545647"><ele>406.0</ele><time>2026-04-15T17:07:31.999Z</time></trkpt><trkpt lat="44.49429276591024" lon="7.813511553434647"><ele>406.0</ele><time>2026-04-15T17:07:32.999Z</time></trkpt><trkpt lat="44.4941641591712" lon="7.813447839262082"><ele>406.0</ele><time>2026-04-15T17:07:33.999Z</time></trkpt><trkpt lat="44.49404103278281" lon="7.813349119685813"><ele>406.0</ele><time>2026-04-15T17:07:34.999Z</time></trkpt><trkpt lat="44.493923456869055" lon="7.8132639316644035"><ele>406.0</ele><time>2026-04-15T17:07:35.999Z</time></trkpt><trkpt lat="44.49380343933134" lon="7.813178625365644"><ele>406.0</ele><time>2026-04-15T17:07:36.999Z</time></trkpt><trkpt lat="44.49368086466528" lon="7.8130905005215485"><ele>406.0</ele><time>2026-04-15T17:07:37.999Z</time></trkpt><trkpt lat="44.49355377313686" lon="7.812998370836414"><ele>406.0</ele><time>2026-04-15T17:07:38.999Z</time></trkpt><trkpt lat="44.49342233693389" lon="7.812907397329848"><ele>406.0</ele><time>2026-04-15T17:07:39.999Z</time></trkpt><trkpt lat="44.49328664900385" lon="7.812813697969123"><ele>406.0</ele><time>2026-04-15T17:07:40.999Z</time></trkpt><trkpt lat="44.49315636924951" lon="7.812719234187571"><ele>406.0</ele><time>2026-04-15T17:07:41.999Z</time></trkpt><trkpt lat="44.49303425718275" lon="7.812627865872984"><ele>406.0</ele><time>2026-04-15T17:07:42.999Z</time></trkpt><trkpt lat="44.49291039769008" lon="7.812537875690709"><ele>406.25</ele><time>2026-04-15T17:07:43.999Z</time></trkpt><trkpt lat="44.4927871259973" lon="7.812443678498511"><ele>406.5</ele><time>2026-04-15T17:07:44.999Z</time></trkpt><trkpt lat="44.49266475588697" lon="7.812358363555161"><ele>406.75</ele><time>2026-04-15T17:07:45.999Z</time></trkpt><trkpt lat="44.492542147924325" lon="7.8122712608288065"><ele>407.0</ele><time>2026-04-15T17:07:46.999Z</time></trkpt><trkpt lat="44.4924232215513" lon="7.812184210553734"><ele>407.0</ele><time>2026-04-15T17:07:47.999Z</time></trkpt><trkpt lat="44.49231634366919" lon="7.812106522408522"><ele>407.0</ele><time>2026-04-15T17:07:48.999Z</time></trkpt><trkpt lat="44.49221753039188" lon="7.812033275192343"><ele>407.0</ele><time>2026-04-15T17:07:49.999Z</time></trkpt><trkpt lat="44.492129947130714" lon="7.811970435199734"><ele>407.0</ele><time>2026-04-15T17:07:50.999Z</time></trkpt><trkpt lat="44.49204669820975" lon="7.811912519041148"><ele>407.0</ele><time>2026-04-15T17:07:51.999Z</time></trkpt><trkpt lat="44.49197413683778" lon="7.811862536377759"><ele>406.99999999999994</ele><time>2026-04-15T17:07:52.999Z</time></trkpt><trkpt lat="44.491910801877054" lon="7.811814094112842"><ele>407.0</ele><time>2026-04-15T17:07:53.999Z</time></trkpt><trkpt lat="44.491819297114915" lon="7.811734414121291"><ele>407.0</ele><time>2026-04-15T17:07:55.999Z</time></trkpt><trkpt lat="44.491751827187656" lon="7.811672787448442"><ele>407.0</ele><time>2026-04-15T17:07:57.999Z</time></trkpt><trkpt lat="44.491682435007974" lon="7.8116221326024"><ele>406.99999999999994</ele><time>2026-04-15T17:07:58.999Z</time></trkpt><trkpt lat="44.49160139551451" lon="7.8115867957588545"><ele>407.0</ele><time>2026-04-15T17:07:59.999Z</time></trkpt><trkpt lat="44.49150074582546" lon="7.81156432314256"><ele>407.0</ele><time>2026-04-15T17:08:00.999Z</time></trkpt><trkpt lat="44.4913913565247" lon="7.811541108238827"><ele>407.0</ele><time>2026-04-15T17:08:01.999Z</time></trkpt><trkpt lat="44.491268602707905" lon="7.811500600733833"><ele>407.0</ele><time>2026-04-15T17:08:02.999Z</time></trkpt><trkpt lat="44.49113994346988" lon="7.811446062212236"><ele>407.0</ele><time>2026-04-15T17:08:03.999Z</time></trkpt><trkpt lat="44.49100175309744" lon="7.811387862682556"><ele>407.0</ele><time>2026-04-15T17:08:04.999Z</time></trkpt><trkpt lat="44.49085560414065" lon="7.811333913995284"><ele>407.0</ele><time>2026-04-15T17:08:05.999Z</time></trkpt><trkpt lat="44.49068247282827" lon="7.811244577333568"><ele>407.0</ele><time>2026-04-15T17:08:06.999Z</time></trkpt><trkpt lat="44.490515494751165" lon="7.811178636969686"><ele>407.0</ele><time>2026-04-15T17:08:07.999Z</time></trkpt><trkpt lat="44.490339097868244" lon="7.811108977009984"><ele>407.0</ele><time>2026-04-15T17:08:08.998Z</time></trkpt><trkpt lat="44.49015198589321" lon="7.811035085684447"><ele>407.0</ele><time>2026-04-15T17:08:09.998Z</time></trkpt><trkpt lat="44.489964351099076" lon="7.810976960452032"><ele>407.3333333333333</ele><time>2026-04-15T17:08:10.998Z</time></trkpt><trkpt lat="44.48977931311886" lon="7.810900182293226"><ele>407.66666666666663</ele><time>2026-04-15T17:08:11.998Z</time></trkpt><trkpt lat="44.48958637142196" lon="7.81082159674422"><ele>408.0</ele><time>2026-04-15T17:08:12.998Z</time></trkpt><trkpt lat="44.48937499984865" lon="7.810737929472915"><ele>408.0</ele><time>2026-04-15T17:08:13.998Z</time></trkpt><trkpt lat="44.4891700331123" lon="7.810651978619633"><ele>408.0</ele><time>2026-04-15T17:08:14.998Z</time></trkpt><trkpt lat="44.48897486444499" lon="7.810584796666911"><ele>408.0</ele><time>2026-04-15T17:08:15.998Z</time></trkpt><trkpt lat="44.48878745992399" lon="7.8105035360266655"><ele>408.33333333333337</ele><time>2026-04-15T17:08:16.998Z</time></trkpt><trkpt lat="44.48860472716557" lon="7.810442041916925"><ele>408.6666666666667</ele><time>2026-04-15T17:08:17.998Z</time></trkpt><trkpt lat="44.48842033273709" lon="7.810354159168435"><ele>409.0</ele><time>2026-04-15T17:08:18.998Z</time></trkpt><trkpt lat="44.488228007459476" lon="7.810300939568347"><ele>409.0</ele><time>2026-04-15T17:08:19.998Z</time></trkpt><trkpt lat="44.48805585668003" lon="7.8102334419786645"><ele>409.0</ele><time>2026-04-15T17:08:20.998Z</time></trkpt><trkpt lat="44.48788665019769" lon="7.81014673172709"><ele>409.0</ele><time>2026-04-15T17:08:21.998Z</time></trkpt><trkpt lat="44.487713868503896" lon="7.810079470556021"><ele>408.6666666666667</ele><time>2026-04-15T17:08:22.998Z</time></trkpt><trkpt lat="44.48754513659901" lon="7.8100125102936175"><ele>408.33333333333337</ele><time>2026-04-15T17:08:23.998Z</time></trkpt><trkpt lat="44.48737873182128" lon="7.80994735090158"><ele>408.0</ele><time>2026-04-15T17:08:24.998Z</time></trkpt><trkpt lat="44.487222181953484" lon="7.809886457295614"><ele>408.5</ele><time>2026-04-15T17:08:25.998Z</time></trkpt><trkpt lat="44.487069300806716" lon="7.809848032414247"><ele>409.0</ele><time>2026-04-15T17:08:27Z</time></trkpt><trkpt lat="44.48692058668984" lon="7.809793139846837"><ele>409.5</ele><time>2026-04-15T17:08:28Z</time></trkpt><trkpt lat="44.48679105384713" lon="7.809718790177832"><ele>410.0</ele><time>2026-04-15T17:08:29Z</time></trkpt><trkpt lat="44.486655392972146" lon="7.809666122720121"><ele>410.0</ele><time>2026-04-15T17:08:30Z</time></trkpt><trkpt lat="44.486521187999266" lon="7.809614022269983"><ele>410.0</ele><time>2026-04-15T17:08:31Z</time></trkpt><trkpt lat="44.48638648533877" lon="7.809561726783191"><ele>410.0</ele><time>2026-04-15T17:08:32Z</time></trkpt><trkpt lat="44.486241145436246" lon="7.80950530160439"><ele>410.0</ele><time>2026-04-15T17:08:33Z</time></trkpt><trkpt lat="44.486099508965886" lon="7.809450314219987"><ele>410.0</ele><time>2026-04-15T17:08:34Z</time></trkpt><trkpt lat="44.485951054130844" lon="7.809414339019577"><ele>410.0</ele><time>2026-04-15T17:08:35Z</time></trkpt><trkpt lat="44.485809718386804" lon="7.809359227212102"><ele>410.0</ele><time>2026-04-15T17:08:36Z</time></trkpt><trkpt lat="44.485664892052235" lon="7.809303797816455"><ele>410.0</ele><time>2026-04-15T17:08:37Z</time></trkpt><trkpt lat="44.485519481766154" lon="7.809242840303857"><ele>410.3333333333333</ele><time>2026-04-15T17:08:38Z</time></trkpt><trkpt lat="44.485376292570514" lon="7.809168046421558"><ele>410.66666666666663</ele><time>2026-04-15T17:08:39Z</time></trkpt><trkpt lat="44.485225291303465" lon="7.809108649280102"><ele>411.0</ele><time>2026-04-15T17:08:40Z</time></trkpt><trkpt lat="44.485073323840794" lon="7.809048444134161"><ele>411.0</ele><time>2026-04-15T17:08:41Z</time></trkpt><trkpt lat="44.484916575469555" lon="7.808986363388734"><ele>411.0</ele><time>2026-04-15T17:08:42Z</time></trkpt><trkpt lat="44.484762455953366" lon="7.808926220654508"><ele>411.0</ele><time>2026-04-15T17:08:43Z</time></trkpt><trkpt lat="44.48460592274287" lon="7.808866074380594"><ele>411.33333333333337</ele><time>2026-04-15T17:08:44Z</time></trkpt><trkpt lat="44.4844469018232" lon="7.8088245577434705"><ele>411.6666666666667</ele><time>2026-04-15T17:08:45Z</time></trkpt><trkpt lat="44.484295231630064" lon="7.808767702912794"><ele>412.0</ele><time>2026-04-15T17:08:46Z</time></trkpt><trkpt lat="44.48415248786472" lon="7.808689656375155"><ele>412.0</ele><time>2026-04-15T17:08:47Z</time></trkpt><trkpt lat="44.48401453871679" lon="7.808635795712866"><ele>412.0</ele><time>2026-04-15T17:08:48Z</time></trkpt><trkpt lat="44.48387854241968" lon="7.8085826975033035"><ele>412.0</ele><time>2026-04-15T17:08:49Z</time></trkpt><trkpt lat="44.48374122730359" lon="7.808529084387256"><ele>412.0</ele><time>2026-04-15T17:08:50Z</time></trkpt><trkpt lat="44.48360998112522" lon="7.808500619491574"><ele>412.0</ele><time>2026-04-15T17:08:51Z</time></trkpt><trkpt lat="44.48349825038718" lon="7.808457640590754"><ele>412.0</ele><time>2026-04-15T17:08:52Z</time></trkpt><trkpt lat="44.48339110155498" lon="7.808392381789213"><ele>412.0</ele><time>2026-04-15T17:08:53Z</time></trkpt><trkpt lat="44.48327957832704" lon="7.8083659781290295"><ele>412.0</ele><time>2026-04-15T17:08:54Z</time></trkpt><trkpt lat="44.48319201273651" lon="7.808323204609731"><ele>412.0</ele><time>2026-04-15T17:08:55Z</time></trkpt><trkpt lat="44.483105965764324" lon="7.80828994621422"><ele>412.00000000000006</ele><time>2026-04-15T17:08:56Z</time></trkpt><trkpt lat="44.4830344152007" lon="7.808257137914596"><ele>412.0</ele><time>2026-04-15T17:08:57Z</time></trkpt><trkpt lat="44.482964011001506" lon="7.8082239676257394"><ele>412.0</ele><time>2026-04-15T17:08:58Z</time></trkpt><trkpt lat="44.48287228847678" lon="7.808193222795819"><ele>412.0</ele><time>2026-04-15T17:09:00Z</time></trkpt><trkpt lat="44.48285195435336" lon="7.8081085444916845"><ele>412.00000000000006</ele><time>2026-04-15T17:09:07Z</time></trkpt><trkpt lat="44.482910054345595" lon="7.808144691488692"><ele>412.0</ele><time>2026-04-15T17:09:13.999Z</time></trkpt><trkpt lat="44.48300945870528" lon="7.808097236530903"><ele>412.00000000000006</ele><time>2026-04-15T17:10:07.999Z</time></trkpt><trkpt lat="44.48306953108363" lon="7.808044086879483"><ele>412.0</ele><time>2026-04-15T17:10:16.998Z</time></trkpt><trkpt lat="44.483009199676246" lon="7.808086233641894"><ele>412.0</ele><time>2026-04-15T17:17:09Z</time></trkpt><trkpt lat="44.483015382225766" lon="7.807998260424817"><ele>412.0</ele><time>2026-04-15T17:18:54.998Z</time></trkpt><trkpt lat="44.48292182130192" lon="7.807994106127662"><ele>412.00000000000006</ele><time>2026-04-15T17:18:57Z</time></trkpt><trkpt lat="44.48283924065155" lon="7.808012981149408"><ele>412.0</ele><time>2026-04-15T17:18:59Z</time></trkpt><trkpt lat="44.48275467162197" lon="7.808042407984885"><ele>412.0</ele><time>2026-04-15T17:19:01Z</time></trkpt><trkpt lat="44.48268783891114" lon="7.808065444511859"><ele>412.0</ele><time>2026-04-15T17:19:03Z</time></trkpt><trkpt lat="44.482483285219296" lon="7.808071479456995"><ele>412.0</ele><time>2026-04-15T17:19:11Z</time></trkpt><trkpt lat="44.48240663982724" lon="7.808021396885256"><ele>412.0</ele><time>2026-04-15T17:19:12Z</time></trkpt><trkpt lat="44.48231448098356" lon="7.807993872670855"><ele>412.0</ele><time>2026-04-15T17:19:13Z</time></trkpt><trkpt lat="44.48221852785839" lon="7.807956462984855"><ele>412.0</ele><time>2026-04-15T17:19:14Z</time></trkpt><trkpt lat="44.48209392684497" lon="7.80791341793475"><ele>412.0</ele><time>2026-04-15T17:19:15Z</time></trkpt><trkpt lat="44.481972263931006" lon="7.807860968897992"><ele>412.0</ele><time>2026-04-15T17:19:16Z</time></trkpt><trkpt lat="44.48184259164074" lon="7.807810866569354"><ele>412.6666666666667</ele><time>2026-04-15T17:19:17Z</time></trkpt><trkpt lat="44.48170742734015" lon="7.8077500194921425"><ele>413.33333333333337</ele><time>2026-04-15T17:19:18Z</time></trkpt><trkpt lat="44.48154652269304" lon="7.8077035900647695"><ele>414.0</ele><time>2026-04-15T17:19:19Z</time></trkpt><trkpt lat="44.48140250102809" lon="7.807635262206169"><ele>414.0</ele><time>2026-04-15T17:19:20Z</time></trkpt><trkpt lat="44.48127391816868" lon="7.8075738967281065"><ele>414.0</ele><time>2026-04-15T17:19:21Z</time></trkpt><trkpt lat="44.481137854803045" lon="7.807540299195323"><ele>414.0</ele><time>2026-04-15T17:19:22Z</time></trkpt><trkpt lat="44.481021029574954" lon="7.807485512461471"><ele>414.0</ele><time>2026-04-15T17:19:23Z</time></trkpt><trkpt lat="44.480892926110315" lon="7.807453620645217"><ele>413.75</ele><time>2026-04-15T17:19:24Z</time></trkpt><trkpt lat="44.48077360192802" lon="7.807403658399568"><ele>413.5</ele><time>2026-04-15T17:19:25Z</time></trkpt><trkpt lat="44.480666024221236" lon="7.807364333585102"><ele>413.25</ele><time>2026-04-15T17:19:26Z</time></trkpt><trkpt lat="44.48056730833616" lon="7.807306191151204"><ele>413.0</ele><time>2026-04-15T17:19:27Z</time></trkpt><trkpt lat="44.48045544119756" lon="7.807280920108589"><ele>413.0</ele><time>2026-04-15T17:19:28Z</time></trkpt><trkpt lat="44.4803462160957" lon="7.807245809793121"><ele>413.0</ele><time>2026-04-15T17:19:29Z</time></trkpt><trkpt lat="44.48025844570187" lon="7.807209524508588"><ele>413.0</ele><time>2026-04-15T17:19:30Z</time></trkpt><trkpt lat="44.480163962450575" lon="7.8071720793898045"><ele>413.0</ele><time>2026-04-15T17:19:31Z</time></trkpt><trkpt lat="44.48008853647413" lon="7.807153748842993"><ele>413.0</ele><time>2026-04-15T17:19:32Z</time></trkpt><trkpt lat="44.48000660462642" lon="7.807140561973952"><ele>413.0</ele><time>2026-04-15T17:19:33Z</time></trkpt><trkpt lat="44.47990326087837" lon="7.8071261068486315"><ele>413.0</ele><time>2026-04-15T17:19:33.999Z</time></trkpt><trkpt lat="44.47979030757376" lon="7.807123095223317"><ele>413.0</ele><time>2026-04-15T17:19:34.999Z</time></trkpt><trkpt lat="44.47968711894701" lon="7.8071359619107294"><ele>413.0</ele><time>2026-04-15T17:19:35.999Z</time></trkpt><trkpt lat="44.479581181662056" lon="7.807155824874719"><ele>413.0</ele><time>2026-04-15T17:19:36.999Z</time></trkpt><trkpt lat="44.47948042392936" lon="7.807190395094834"><ele>413.0</ele><time>2026-04-15T17:19:37.999Z</time></trkpt><trkpt lat="44.47939958841451" lon="7.807247772285805"><ele>413.0</ele><time>2026-04-15T17:19:38.999Z</time></trkpt><trkpt lat="44.47931493371707" lon="7.807310686251154"><ele>413.0</ele><time>2026-04-15T17:19:39.999Z</time></trkpt><trkpt lat="44.479230880751444" lon="7.807382249376324"><ele>413.0</ele><time>2026-04-15T17:19:40.999Z</time></trkpt><trkpt lat="44.479148508612695" lon="7.807446253806906"><ele>413.0</ele><time>2026-04-15T17:19:41.999Z</time></trkpt><trkpt lat="44.47905239224046" lon="7.807539643658527"><ele>413.0</ele><time>2026-04-15T17:19:42.999Z</time></trkpt><trkpt lat="44.478969732381316" lon="7.807646477546375"><ele>413.0</ele><time>2026-04-15T17:19:43.999Z</time></trkpt><trkpt lat="44.478887945916725" lon="7.807811048203065"><ele>413.0</ele><time>2026-04-15T17:19:44.999Z</time></trkpt><trkpt lat="44.478785352767936" lon="7.807968367110994"><ele>413.0</ele><time>2026-04-15T17:19:45.999Z</time></trkpt><trkpt lat="44.478681006938444" lon="7.80812848163668"><ele>412.66666666666663</ele><time>2026-04-15T17:19:46.999Z</time></trkpt><trkpt lat="44.47858276575764" lon="7.808299085569376"><ele>412.33333333333337</ele><time>2026-04-15T17:19:47.999Z</time></trkpt><trkpt lat="44.47846877071811" lon="7.808490591809835"><ele>412.0</ele><time>2026-04-15T17:19:48.999Z</time></trkpt><trkpt lat="44.4783634776563" lon="7.808691706855339"><ele>411.33333333333337</ele><time>2026-04-15T17:19:49.999Z</time></trkpt><trkpt lat="44.47825424995668" lon="7.8088969474995285"><ele>410.66666666666663</ele><time>2026-04-15T17:19:50.999Z</time></trkpt><trkpt lat="44.47812750520974" lon="7.809110085064358"><ele>410.0</ele><time>2026-04-15T17:19:51.999Z</time></trkpt><trkpt lat="44.47801737236784" lon="7.809296641442225"><ele>410.66666666666663</ele><time>2026-04-15T17:19:52.999Z</time></trkpt><trkpt lat="44.47791104341933" lon="7.809481555251676"><ele>411.33333333333337</ele><time>2026-04-15T17:19:53.999Z</time></trkpt><trkpt lat="44.47779489879962" lon="7.809676540910119"><ele>412.0</ele><time>2026-04-15T17:19:54.999Z</time></trkpt><trkpt lat="44.477675599678605" lon="7.809883519083341"><ele>412.0</ele><time>2026-04-15T17:19:55.999Z</time></trkpt><trkpt lat="44.47755226918807" lon="7.810097942382452"><ele>412.0</ele><time>2026-04-15T17:19:56.999Z</time></trkpt><trkpt lat="44.47743996800322" lon="7.810286619349815"><ele>412.0</ele><time>2026-04-15T17:19:57.999Z</time></trkpt><trkpt lat="44.47732337640168" lon="7.810484198727015"><ele>411.6666666666667</ele><time>2026-04-15T17:19:58.999Z</time></trkpt><trkpt lat="44.47719985424039" lon="7.81068693841309"><ele>411.33333333333337</ele><time>2026-04-15T17:19:59.999Z</time></trkpt><trkpt lat="44.47707630058293" lon="7.810893291690958"><ele>411.0</ele><time>2026-04-15T17:20:00.999Z</time></trkpt><trkpt lat="44.47694899235568" lon="7.811105379665742"><ele>411.0</ele><time>2026-04-15T17:20:01.999Z</time></trkpt><trkpt lat="44.47683307313039" lon="7.811317404920788"><ele>411.0</ele><time>2026-04-15T17:20:02.999Z</time></trkpt><trkpt lat="44.47670542057568" lon="7.811529339098408"><ele>411.0</ele><time>2026-04-15T17:20:03.999Z</time></trkpt><trkpt lat="44.47657634176144" lon="7.81173982789088"><ele>411.0</ele><time>2026-04-15T17:20:04.999Z</time></trkpt><trkpt lat="44.47645071038714" lon="7.811963364675909"><ele>411.0</ele><time>2026-04-15T17:20:05.999Z</time></trkpt><trkpt lat="44.476323123997545" lon="7.8121826932900476"><ele>411.0</ele><time>2026-04-15T17:20:06.999Z</time></trkpt><trkpt lat="44.47620625244862" lon="7.812387980283888"><ele>411.0</ele><time>2026-04-15T17:20:07.999Z</time></trkpt><trkpt lat="44.476077986163894" lon="7.812576524610538"><ele>411.0</ele><time>2026-04-15T17:20:08.999Z</time></trkpt><trkpt lat="44.47597528372723" lon="7.812762364078169"><ele>411.0</ele><time>2026-04-15T17:20:09.999Z</time></trkpt><trkpt lat="44.47587200841178" lon="7.812925543961773"><ele>410.66666666666663</ele><time>2026-04-15T17:20:10.999Z</time></trkpt><trkpt lat="44.47575534959816" lon="7.813104756968366"><ele>410.3333333333333</ele><time>2026-04-15T17:20:11.999Z</time></trkpt><trkpt lat="44.47564751132934" lon="7.813278131512413"><ele>410.0</ele><time>2026-04-15T17:20:12.999Z</time></trkpt><trkpt lat="44.47554349010051" lon="7.813447678008644"><ele>410.0</ele><time>2026-04-15T17:20:13.999Z</time></trkpt><trkpt lat="44.47544699679455" lon="7.813618336496436"><ele>410.0</ele><time>2026-04-15T17:20:14.999Z</time></trkpt><trkpt lat="44.4753478065421" lon="7.813767008349676"><ele>410.0</ele><time>2026-04-15T17:20:15.999Z</time></trkpt><trkpt lat="44.47524316126136" lon="7.81391360656447"><ele>410.0</ele><time>2026-04-15T17:20:16.999Z</time></trkpt><trkpt lat="44.4751295851603" lon="7.814057674573999"><ele>410.3333333333333</ele><time>2026-04-15T17:20:17.999Z</time></trkpt><trkpt lat="44.47500594096875" lon="7.814189419103344"><ele>410.66666666666663</ele><time>2026-04-15T17:20:18.999Z</time></trkpt><trkpt lat="44.474869180938214" lon="7.814314423223292"><ele>411.0</ele><time>2026-04-15T17:20:19.999Z</time></trkpt><trkpt lat="44.47472446659949" lon="7.814458810492379"><ele>410.66666666666663</ele><time>2026-04-15T17:20:20.999Z</time></trkpt><trkpt lat="44.474587392720125" lon="7.814594034285573"><ele>410.3333333333333</ele><time>2026-04-15T17:20:21.999Z</time></trkpt><trkpt lat="44.47445733729355" lon="7.8147286038768655"><ele>410.0</ele><time>2026-04-15T17:20:22.999Z</time></trkpt><trkpt lat="44.47431955662417" lon="7.814849834946162"><ele>410.0</ele><time>2026-04-15T17:20:23.999Z</time></trkpt><trkpt lat="44.474186579669514" lon="7.8149749186943165"><ele>410.0</ele><time>2026-04-15T17:20:24.999Z</time></trkpt><trkpt lat="44.47404992725873" lon="7.815113851362618"><ele>410.0</ele><time>2026-04-15T17:20:25.999Z</time></trkpt><trkpt lat="44.47390421273219" lon="7.815246303347952"><ele>410.66666666666663</ele><time>2026-04-15T17:20:26.999Z</time></trkpt><trkpt lat="44.47376209474425" lon="7.815380693592162"><ele>411.33333333333337</ele><time>2026-04-15T17:20:27.999Z</time></trkpt><trkpt lat="44.473638588734715" lon="7.815503865373961"><ele>412.0</ele><time>2026-04-15T17:20:28.999Z</time></trkpt><trkpt lat="44.47351310730889" lon="7.815633103912163"><ele>412.0</ele><time>2026-04-15T17:20:29.999Z</time></trkpt><trkpt lat="44.473378462492406" lon="7.815762941514166"><ele>412.0</ele><time>2026-04-15T17:20:30.999Z</time></trkpt><trkpt lat="44.47324227813831" lon="7.815895051837775"><ele>412.0</ele><time>2026-04-15T17:20:31.999Z</time></trkpt><trkpt lat="44.47311076975628" lon="7.816030006590509"><ele>412.0</ele><time>2026-04-15T17:20:32.999Z</time></trkpt><trkpt lat="44.47297648304525" lon="7.816164002871714"><ele>412.0</ele><time>2026-04-15T17:20:33.999Z</time></trkpt><trkpt lat="44.472850293033076" lon="7.816293829928957"><ele>412.0</ele><time>2026-04-15T17:20:34.999Z</time></trkpt><trkpt lat="44.47271863974619" lon="7.8164205584979225"><ele>412.0</ele><time>2026-04-15T17:20:35.999Z</time></trkpt><trkpt lat="44.47258947539727" lon="7.8165558503670995"><ele>412.0</ele><time>2026-04-15T17:20:36.999Z</time></trkpt><trkpt lat="44.47245480125757" lon="7.816696915682606"><ele>412.0</ele><time>2026-04-15T17:20:37.999Z</time></trkpt><trkpt lat="44.47232079843988" lon="7.816841382076258"><ele>412.0</ele><time>2026-04-15T17:20:38.999Z</time></trkpt><trkpt lat="44.47219663657273" lon="7.816973752911879"><ele>412.0</ele><time>2026-04-15T17:20:39.999Z</time></trkpt><trkpt lat="44.47206222737839" lon="7.817107612118069"><ele>412.0</ele><time>2026-04-15T17:20:40.999Z</time></trkpt><trkpt lat="44.471917860978074" lon="7.817224651431926"><ele>412.0</ele><time>2026-04-15T17:20:41.999Z</time></trkpt><trkpt lat="44.471786138033025" lon="7.81736752637396"><ele>412.0</ele><time>2026-04-15T17:20:42.999Z</time></trkpt><trkpt lat="44.47165466244894" lon="7.817476011484147"><ele>412.0</ele><time>2026-04-15T17:20:43.999Z</time></trkpt><trkpt lat="44.471530032705786" lon="7.817623810332361"><ele>411.0</ele><time>2026-04-15T17:20:44.999Z</time></trkpt><trkpt lat="44.47139421594119" lon="7.817742613792588"><ele>410.0</ele><time>2026-04-15T17:20:45.999Z</time></trkpt><trkpt lat="44.47125495200918" lon="7.817854144133242"><ele>409.0</ele><time>2026-04-15T17:20:46.999Z</time></trkpt><trkpt lat="44.47111624130297" lon="7.817983485673922"><ele>408.6666666666667</ele><time>2026-04-15T17:20:47.999Z</time></trkpt><trkpt lat="44.470972735399826" lon="7.818127660979951"><ele>408.33333333333337</ele><time>2026-04-15T17:20:48.999Z</time></trkpt><trkpt lat="44.47082930944672" lon="7.81826670147563"><ele>408.0</ele><time>2026-04-15T17:20:49.998Z</time></trkpt><trkpt lat="44.47068246210695" lon="7.818413385350887"><ele>408.0</ele><time>2026-04-15T17:20:50.998Z</time></trkpt><trkpt lat="44.4705408054524" lon="7.8185600761168494"><ele>408.0</ele><time>2026-04-15T17:20:51.998Z</time></trkpt><trkpt lat="44.47038828176666" lon="7.8187078070988045"><ele>408.0</ele><time>2026-04-15T17:20:52.998Z</time></trkpt><trkpt lat="44.47024093545516" lon="7.818861183115538"><ele>407.66666666666663</ele><time>2026-04-15T17:20:53.998Z</time></trkpt><trkpt lat="44.47010444276112" lon="7.818997188428709"><ele>407.3333333333333</ele><time>2026-04-15T17:20:54.998Z</time></trkpt><trkpt lat="44.469956723751615" lon="7.819137691998699"><ele>407.0</ele><time>2026-04-15T17:20:55.998Z</time></trkpt><trkpt lat="44.46982503021887" lon="7.819282862970385"><ele>407.3333333333333</ele><time>2026-04-15T17:20:56.998Z</time></trkpt><trkpt lat="44.46966803571241" lon="7.819416310296974"><ele>407.66666666666663</ele><time>2026-04-15T17:20:57.998Z</time></trkpt><trkpt lat="44.469521472876465" lon="7.819555759748568"><ele>408.0</ele><time>2026-04-15T17:20:58.998Z</time></trkpt><trkpt lat="44.46937985048532" lon="7.81970045917757"><ele>408.33333333333337</ele><time>2026-04-15T17:20:59.998Z</time></trkpt><trkpt lat="44.469234861028056" lon="7.819846861621258"><ele>408.6666666666667</ele><time>2026-04-15T17:21:00.998Z</time></trkpt><trkpt lat="44.46907863679" lon="7.8199965490807815"><ele>409.0</ele><time>2026-04-15T17:21:01.998Z</time></trkpt><trkpt lat="44.46892440654365" lon="7.820146569041941"><ele>408.6666666666667</ele><time>2026-04-15T17:21:03Z</time></trkpt><trkpt lat="44.468766963987456" lon="7.820300523179821"><ele>408.33333333333337</ele><time>2026-04-15T17:21:04Z</time></trkpt><trkpt lat="44.46861671099509" lon="7.820456304197967"><ele>408.0</ele><time>2026-04-15T17:21:05Z</time></trkpt><trkpt lat="44.468474311798175" lon="7.820600528040499"><ele>408.0</ele><time>2026-04-15T17:21:06Z</time></trkpt><trkpt lat="44.4683398360629" lon="7.820735623276811"><ele>408.0</ele><time>2026-04-15T17:21:07Z</time></trkpt><trkpt lat="44.46820914882945" lon="7.8208663761950925"><ele>408.0</ele><time>2026-04-15T17:21:08Z</time></trkpt><trkpt lat="44.46808758613125" lon="7.820994795192556"><ele>408.0</ele><time>2026-04-15T17:21:09Z</time></trkpt><trkpt lat="44.46795981335879" lon="7.821106864130992"><ele>408.0</ele><time>2026-04-15T17:21:10Z</time></trkpt><trkpt lat="44.46784343975091" lon="7.821226705142085"><ele>408.0</ele><time>2026-04-15T17:21:11Z</time></trkpt><trkpt lat="44.46773798179702" lon="7.82134438679682"><ele>408.0</ele><time>2026-04-15T17:21:12Z</time></trkpt><trkpt lat="44.46762089631544" lon="7.8214510678924425"><ele>408.0</ele><time>2026-04-15T17:21:13Z</time></trkpt><trkpt lat="44.46751691461229" lon="7.821553631305125"><ele>408.0</ele><time>2026-04-15T17:21:14Z</time></trkpt><trkpt lat="44.467407838237634" lon="7.821647320974151"><ele>408.0</ele><time>2026-04-15T17:21:15Z</time></trkpt><trkpt lat="44.467301861328785" lon="7.821741131438806"><ele>408.0</ele><time>2026-04-15T17:21:16Z</time></trkpt><trkpt lat="44.467198762212334" lon="7.821834374728877"><ele>407.79999999999995</ele><time>2026-04-15T17:21:17Z</time></trkpt><trkpt lat="44.467094636528564" lon="7.82192364667257"><ele>407.6</ele><time>2026-04-15T17:21:18Z</time></trkpt><trkpt lat="44.46700021223364" lon="7.822010981609204"><ele>407.4</ele><time>2026-04-15T17:21:19Z</time></trkpt><trkpt lat="44.4669188653329" lon="7.822083287274744"><ele>407.20000000000005</ele><time>2026-04-15T17:21:20Z</time></trkpt><trkpt lat="44.46683646944701" lon="7.822161321448404"><ele>407.0</ele><time>2026-04-15T17:21:21Z</time></trkpt><trkpt lat="44.466754220679995" lon="7.8222422061316115"><ele>407.0</ele><time>2026-04-15T17:21:22Z</time></trkpt><trkpt lat="44.4666780135471" lon="7.822314111289324"><ele>407.0</ele><time>2026-04-15T17:21:23Z</time></trkpt><trkpt lat="44.4666005767676" lon="7.822399747197166"><ele>407.0</ele><time>2026-04-15T17:21:24Z</time></trkpt><trkpt lat="44.4665214533835" lon="7.822479529894298"><ele>407.0</ele><time>2026-04-15T17:21:25Z</time></trkpt><trkpt lat="44.46644602840387" lon="7.822563106508462"><ele>407.0</ele><time>2026-04-15T17:21:26Z</time></trkpt><trkpt lat="44.46637620764922" lon="7.822632094426686"><ele>406.16666666666663</ele><time>2026-04-15T17:21:27Z</time></trkpt><trkpt lat="44.46629980267729" lon="7.822689789015224"><ele>405.3333333333333</ele><time>2026-04-15T17:21:28Z</time></trkpt><trkpt lat="44.46621517877985" lon="7.822741200991673"><ele>404.5</ele><time>2026-04-15T17:21:29Z</time></trkpt><trkpt lat="44.466132695234776" lon="7.822787501593415"><ele>403.66666666666663</ele><time>2026-04-15T17:21:30Z</time></trkpt><trkpt lat="44.466049850810165" lon="7.822820243980558"><ele>402.8333333333333</ele><time>2026-04-15T17:21:31Z</time></trkpt><trkpt lat="44.46596837092595" lon="7.822845994465929"><ele>402.0</ele><time>2026-04-15T17:21:32Z</time></trkpt><trkpt lat="44.465892541448866" lon="7.822876300117466"><ele>400.0</ele><time>2026-04-15T17:21:33Z</time></trkpt><trkpt lat="44.46582111645474" lon="7.822902014222179"><ele>398.0</ele><time>2026-04-15T17:21:34Z</time></trkpt><trkpt lat="44.46575724812818" lon="7.822928633344099"><ele>396.0</ele><time>2026-04-15T17:21:35Z</time></trkpt><trkpt lat="44.46564939386395" lon="7.822963177078071"><ele>394.0</ele><time>2026-04-15T17:21:37Z</time></trkpt><trkpt lat="44.46545071865237" lon="7.823167509161411"><ele>392.33333333333337</ele><time>2026-04-15T17:21:51Z</time></trkpt><trkpt lat="44.46538891378339" lon="7.823195118454076"><ele>390.6666666666667</ele><time>2026-04-15T17:21:52Z</time></trkpt><trkpt lat="44.46532592127831" lon="7.82322160082549"><ele>389.0</ele><time>2026-04-15T17:21:53Z</time></trkpt><trkpt lat="44.4652159123555" lon="7.82327285592105"><ele>387.33333333333337</ele><time>2026-04-15T17:21:54.999Z</time></trkpt><trkpt lat="44.465133217058785" lon="7.823304711555909"><ele>385.6666666666667</ele><time>2026-04-15T17:21:55.999Z</time></trkpt><trkpt lat="44.46505903911689" lon="7.823330461744711"><ele>384.0</ele><time>2026-04-15T17:21:56.999Z</time></trkpt><trkpt lat="44.46498065774814" lon="7.823369025683869"><ele>384.0</ele><time>2026-04-15T17:21:57.999Z</time></trkpt><trkpt lat="44.46487204608568" lon="7.823408038987514"><ele>384.0</ele><time>2026-04-15T17:21:58.999Z</time></trkpt><trkpt lat="44.46477595674014" lon="7.823441922158396"><ele>384.0</ele><time>2026-04-15T17:21:59.999Z</time></trkpt><trkpt lat="44.46467952739514" lon="7.823469170699157"><ele>384.0</ele><time>2026-04-15T17:22:00.999Z</time></trkpt><trkpt lat="44.46458569794788" lon="7.8234892295193905"><ele>384.0</ele><time>2026-04-15T17:22:01.999Z</time></trkpt><trkpt lat="44.464489527554555" lon="7.823509281676702"><ele>383.2</ele><time>2026-04-15T17:22:02.999Z</time></trkpt><trkpt lat="44.464389465622396" lon="7.823516121760646"><ele>382.4</ele><time>2026-04-15T17:22:03.999Z</time></trkpt><trkpt lat="44.46429183748413" lon="7.823501508280466"><ele>381.6</ele><time>2026-04-15T17:22:04.999Z</time></trkpt><trkpt lat="44.46418623328436" lon="7.823505823019049"><ele>380.8</ele><time>2026-04-15T17:22:05.999Z</time></trkpt><trkpt lat="44.464075865879195" lon="7.8235307561563605"><ele>380.0</ele><time>2026-04-15T17:22:06.999Z</time></trkpt><trkpt lat="44.463969995648924" lon="7.823527270950463"><ele>380.0</ele><time>2026-04-15T17:22:07.999Z</time></trkpt><trkpt lat="44.46386572288147" lon="7.823524217767124"><ele>380.0</ele><time>2026-04-15T17:22:08.999Z</time></trkpt><trkpt lat="44.46375439355576" lon="7.823526375675996"><ele>380.0</ele><time>2026-04-15T17:22:09.999Z</time></trkpt><trkpt lat="44.46364874808254" lon="7.823527978411688"><ele>380.0</ele><time>2026-04-15T17:22:10.999Z</time></trkpt><trkpt lat="44.46354771648268" lon="7.82353974720025"><ele>380.0</ele><time>2026-04-15T17:22:11.999Z</time></trkpt><trkpt lat="44.4634534076316" lon="7.8235409210984175"><ele>380.0</ele><time>2026-04-15T17:22:12.999Z</time></trkpt><trkpt lat="44.46334363945209" lon="7.823536651531305"><ele>380.0</ele><time>2026-04-15T17:22:13.999Z</time></trkpt><trkpt lat="44.46326045559415" lon="7.823563575231515"><ele>380.0</ele><time>2026-04-15T17:22:14.999Z</time></trkpt><trkpt lat="44.46315663433444" lon="7.823545580301554"><ele>380.0</ele><time>2026-04-15T17:22:15.999Z</time></trkpt><trkpt lat="44.46305887844885" lon="7.823549008411663"><ele>380.0</ele><time>2026-04-15T17:22:16.999Z</time></trkpt><trkpt lat="44.462955445281075" lon="7.82357492000487"><ele>379.6</ele><time>2026-04-15T17:22:17.999Z</time></trkpt><trkpt lat="44.462850465230325" lon="7.823575144260441"><ele>379.2</ele><time>2026-04-15T17:22:18.999Z</time></trkpt><trkpt lat="44.462742168176995" lon="7.823577328754944"><ele>378.79999999999995</ele><time>2026-04-15T17:22:19.999Z</time></trkpt><trkpt lat="44.46264606596983" lon="7.82358304613901"><ele>378.4</ele><time>2026-04-15T17:22:20.999Z</time></trkpt><trkpt lat="44.462535831265676" lon="7.823584309421815"><ele>378.0</ele><time>2026-04-15T17:22:21.999Z</time></trkpt><trkpt lat="44.46243753239048" lon="7.823571000009087"><ele>378.0</ele><time>2026-04-15T17:22:22.999Z</time></trkpt><trkpt lat="44.46231889984488" lon="7.823575549737099"><ele>378.0</ele><time>2026-04-15T17:22:23.999Z</time></trkpt><trkpt lat="44.46221976692971" lon="7.823601992366647"><ele>378.0</ele><time>2026-04-15T17:22:24.999Z</time></trkpt><trkpt lat="44.462106614033594" lon="7.823596085153956"><ele>378.0</ele><time>2026-04-15T17:22:25.999Z</time></trkpt><trkpt lat="44.46200570650664" lon="7.823596430536415"><ele>378.0</ele><time>2026-04-15T17:22:26.999Z</time></trkpt><trkpt lat="44.46191129258536" lon="7.823602494403353"><ele>378.0</ele><time>2026-04-15T17:22:27.999Z</time></trkpt><trkpt lat="44.46181837527342" lon="7.823605452737945"><ele>378.0</ele><time>2026-04-15T17:22:28.999Z</time></trkpt><trkpt lat="44.46173061360832" lon="7.823612225301901"><ele>378.0</ele><time>2026-04-15T17:22:29.999Z</time></trkpt><trkpt lat="44.46164830788883" lon="7.823620620394982"><ele>378.0</ele><time>2026-04-15T17:22:30.999Z</time></trkpt><trkpt lat="44.46157225697908" lon="7.823624159250449"><ele>378.0</ele><time>2026-04-15T17:22:31.999Z</time></trkpt><trkpt lat="44.461504532154414" lon="7.823621587911463"><ele>378.0</ele><time>2026-04-15T17:22:32.999Z</time></trkpt><trkpt lat="44.46138783992888" lon="7.823622626085204"><ele>378.0</ele><time>2026-04-15T17:22:34.999Z</time></trkpt><trkpt lat="44.46130033213902" lon="7.823603786966535"><ele>378.0</ele><time>2026-04-15T17:22:37.999Z</time></trkpt><trkpt lat="44.46120361255409" lon="7.823616882240484"><ele>378.0</ele><time>2026-04-15T17:22:39.999Z</time></trkpt><trkpt lat="44.46113099489164" lon="7.823712858699554"><ele>378.0</ele><time>2026-04-15T17:22:41.999Z</time></trkpt><trkpt lat="44.46114081552676" lon="7.823864133930762"><ele>378.0</ele><time>2026-04-15T17:22:43.999Z</time></trkpt><trkpt lat="44.4611857269342" lon="7.823945488048552"><ele>378.0</ele><time>2026-04-15T17:22:44.999Z</time></trkpt><trkpt lat="44.46125408671519" lon="7.824028227133739"><ele>378.0</ele><time>2026-04-15T17:22:45.999Z</time></trkpt><trkpt lat="44.46132339086672" lon="7.82411452236626"><ele>378.0</ele><time>2026-04-15T17:22:46.999Z</time></trkpt><trkpt lat="44.46141107589875" lon="7.824237335815891"><ele>378.0</ele><time>2026-04-15T17:22:47.999Z</time></trkpt><trkpt lat="44.46147568167932" lon="7.8244122862038505"><ele>378.0</ele><time>2026-04-15T17:22:48.999Z</time></trkpt><trkpt lat="44.46154585744289" lon="7.824588350771421"><ele>377.6666666666667</ele><time>2026-04-15T17:22:49.999Z</time></trkpt><trkpt lat="44.461620588963655" lon="7.824771825260765"><ele>377.33333333333337</ele><time>2026-04-15T17:22:50.999Z</time></trkpt><trkpt lat="44.46170446000846" lon="7.824973386781075"><ele>377.0</ele><time>2026-04-15T17:22:51.999Z</time></trkpt><trkpt lat="44.46179146169401" lon="7.82517893849486"><ele>376.33333333333337</ele><time>2026-04-15T17:22:52.999Z</time></trkpt><trkpt lat="44.461880546199794" lon="7.825391803315441"><ele>375.6666666666667</ele><time>2026-04-15T17:22:53.999Z</time></trkpt><trkpt lat="44.46197952998501" lon="7.825613161663306"><ele>375.0</ele><time>2026-04-15T17:22:54.999Z</time></trkpt><trkpt lat="44.46208438617367" lon="7.825843617116623"><ele>374.3333333333333</ele><time>2026-04-15T17:22:55.999Z</time></trkpt><trkpt lat="44.46218744978202" lon="7.82605583314981"><ele>373.66666666666663</ele><time>2026-04-15T17:22:56.999Z</time></trkpt><trkpt lat="44.462304429319836" lon="7.82627600137903"><ele>373.0</ele><time>2026-04-15T17:22:57.999Z</time></trkpt><trkpt lat="44.462433551090044" lon="7.826490543187349"><ele>373.0</ele><time>2026-04-15T17:22:58.999Z</time></trkpt><trkpt lat="44.4625593843191" lon="7.8267027011991255"><ele>373.0</ele><time>2026-04-15T17:22:59.999Z</time></trkpt><trkpt lat="44.46269040383159" lon="7.826927014595148"><ele>373.0</ele><time>2026-04-15T17:23:00.999Z</time></trkpt><trkpt lat="44.462832497059516" lon="7.827150245221371"><ele>374.0</ele><time>2026-04-15T17:23:01.999Z</time></trkpt><trkpt lat="44.46296912162416" lon="7.827369546622432"><ele>375.0</ele><time>2026-04-15T17:23:02.999Z</time></trkpt><trkpt lat="44.46310703884046" lon="7.827592420159119"><ele>376.0</ele><time>2026-04-15T17:23:03.999Z</time></trkpt><trkpt lat="44.463248586425365" lon="7.827810510121048"><ele>376.0</ele><time>2026-04-15T17:23:04.999Z</time></trkpt><trkpt lat="44.463390581534924" lon="7.828034201806154"><ele>376.0</ele><time>2026-04-15T17:23:05.999Z</time></trkpt><trkpt lat="44.46353655218496" lon="7.828254700399626"><ele>376.0</ele><time>2026-04-15T17:23:06.999Z</time></trkpt><trkpt lat="44.46367815471588" lon="7.828482585613485"><ele>376.0</ele><time>2026-04-15T17:23:07.998Z</time></trkpt><trkpt lat="44.46381964283246" lon="7.828702214996926"><ele>376.0</ele><time>2026-04-15T17:23:09Z</time></trkpt><trkpt lat="44.46394947234233" lon="7.828912701456317"><ele>376.0</ele><time>2026-04-15T17:23:10Z</time></trkpt><trkpt lat="44.46407185095039" lon="7.829115375462601"><ele>376.0</ele><time>2026-04-15T17:23:11Z</time></trkpt><trkpt lat="44.46419708273726" lon="7.829320461325988"><ele>376.0</ele><time>2026-04-15T17:23:12Z</time></trkpt><trkpt lat="44.46432150292584" lon="7.82951540565933"><ele>376.0</ele><time>2026-04-15T17:23:13Z</time></trkpt><trkpt lat="44.46444539559631" lon="7.829704928882448"><ele>376.0</ele><time>2026-04-15T17:23:14Z</time></trkpt><trkpt lat="44.46456591566468" lon="7.829909132940202"><ele>376.0</ele><time>2026-04-15T17:23:15Z</time></trkpt><trkpt lat="44.464689834409526" lon="7.830102965253601"><ele>376.0</ele><time>2026-04-15T17:23:16Z</time></trkpt><trkpt lat="44.46481344030366" lon="7.830299568557135"><ele>375.3333333333333</ele><time>2026-04-15T17:23:17Z</time></trkpt><trkpt lat="44.46493771119302" lon="7.830491095709158"><ele>374.6666666666667</ele><time>2026-04-15T17:23:18Z</time></trkpt><trkpt lat="44.46505435913787" lon="7.830669040058172"><ele>374.0</ele><time>2026-04-15T17:23:19Z</time></trkpt><trkpt lat="44.4651683551424" lon="7.830850801170754"><ele>373.6666666666667</ele><time>2026-04-15T17:23:20Z</time></trkpt><trkpt lat="44.46528690292126" lon="7.831032602719108"><ele>373.3333333333333</ele><time>2026-04-15T17:23:21Z</time></trkpt><trkpt lat="44.46540433712861" lon="7.831215684637188"><ele>373.0</ele><time>2026-04-15T17:23:22Z</time></trkpt><trkpt lat="44.4655188174249" lon="7.831399132622002"><ele>373.66666666666663</ele><time>2026-04-15T17:23:23Z</time></trkpt><trkpt lat="44.465629494137" lon="7.831578093832289"><ele>374.3333333333333</ele><time>2026-04-15T17:23:24Z</time></trkpt><trkpt lat="44.46573814374791" lon="7.83176035971988"><ele>375.0</ele><time>2026-04-15T17:23:25Z</time></trkpt><trkpt lat="44.465845945074825" lon="7.831931858299698"><ele>375.0</ele><time>2026-04-15T17:23:26Z</time></trkpt><trkpt lat="44.46594872876312" lon="7.8320997980161335"><ele>375.0</ele><time>2026-04-15T17:23:27Z</time></trkpt><trkpt lat="44.466050175615685" lon="7.832262281826288"><ele>375.0</ele><time>2026-04-15T17:23:28Z</time></trkpt><trkpt lat="44.46615209323743" lon="7.832425431918881"><ele>375.0</ele><time>2026-04-15T17:23:29Z</time></trkpt><trkpt lat="44.46626895660384" lon="7.832602305101333"><ele>375.0</ele><time>2026-04-15T17:23:30Z</time></trkpt><trkpt lat="44.466379767571354" lon="7.832788079755194"><ele>375.0</ele><time>2026-04-15T17:23:31Z</time></trkpt><trkpt lat="44.46648605312831" lon="7.832954107284081"><ele>374.3333333333333</ele><time>2026-04-15T17:23:32Z</time></trkpt><trkpt lat="44.46659393802081" lon="7.833117848818774"><ele>373.66666666666663</ele><time>2026-04-15T17:23:33Z</time></trkpt><trkpt lat="44.466701779599" lon="7.833282834100758"><ele>373.0</ele><time>2026-04-15T17:23:34Z</time></trkpt><trkpt lat="44.46681279306653" lon="7.833466499296836"><ele>373.0</ele><time>2026-04-15T17:23:35Z</time></trkpt><trkpt lat="44.466936973260125" lon="7.8336581161541545"><ele>373.0</ele><time>2026-04-15T17:23:36Z</time></trkpt><trkpt lat="44.46705572284099" lon="7.8338531605237325"><ele>373.0</ele><time>2026-04-15T17:23:37Z</time></trkpt><trkpt lat="44.4671823764407" lon="7.834062343565902"><ele>373.0</ele><time>2026-04-15T17:23:38Z</time></trkpt><trkpt lat="44.46731462796934" lon="7.834277466706212"><ele>373.0</ele><time>2026-04-15T17:23:39Z</time></trkpt><trkpt lat="44.4674502290279" lon="7.834500506534134"><ele>373.0</ele><time>2026-04-15T17:23:40Z</time></trkpt><trkpt lat="44.46758692527639" lon="7.834721474073322"><ele>373.0</ele><time>2026-04-15T17:23:41Z</time></trkpt><trkpt lat="44.46773037161614" lon="7.83495320911733"><ele>373.0</ele><time>2026-04-15T17:23:42Z</time></trkpt><trkpt lat="44.46787583804415" lon="7.835194299070812"><ele>373.0</ele><time>2026-04-15T17:23:43Z</time></trkpt><trkpt lat="44.46802071977496" lon="7.835392117473394"><ele>373.0</ele><time>2026-04-15T17:23:44Z</time></trkpt><trkpt lat="44.46815750600302" lon="7.835594595825957"><ele>373.0</ele><time>2026-04-15T17:23:45Z</time></trkpt><trkpt lat="44.4683001398561" lon="7.835818742038663"><ele>373.0</ele><time>2026-04-15T17:23:46Z</time></trkpt><trkpt lat="44.46843770239834" lon="7.8360439216563895"><ele>373.0</ele><time>2026-04-15T17:23:47Z</time></trkpt><trkpt lat="44.46858179578086" lon="7.836274491916685"><ele>373.0</ele><time>2026-04-15T17:23:48Z</time></trkpt><trkpt lat="44.46872539334644" lon="7.83650885630391"><ele>373.0</ele><time>2026-04-15T17:23:49Z</time></trkpt><trkpt lat="44.46886229844775" lon="7.8367289845934005"><ele>372.3333333333333</ele><time>2026-04-15T17:23:50Z</time></trkpt><trkpt lat="44.46899257498416" lon="7.836943556711667"><ele>371.6666666666667</ele><time>2026-04-15T17:23:51Z</time></trkpt><trkpt lat="44.46912136749658" lon="7.837156588730386"><ele>371.0</ele><time>2026-04-15T17:23:52Z</time></trkpt><trkpt lat="44.469245048976894" lon="7.8373676532603085"><ele>371.0</ele><time>2026-04-15T17:23:53Z</time></trkpt><trkpt lat="44.46938040459339" lon="7.837583448644518"><ele>371.0</ele><time>2026-04-15T17:23:54Z</time></trkpt><trkpt lat="44.46951689701067" lon="7.837797064381389"><ele>371.0</ele><time>2026-04-15T17:23:55Z</time></trkpt><trkpt lat="44.46964933370563" lon="7.838009288829146"><ele>371.0</ele><time>2026-04-15T17:23:56Z</time></trkpt><trkpt lat="44.46977905869486" lon="7.838227562048363"><ele>371.0</ele><time>2026-04-15T17:23:57Z</time></trkpt><trkpt lat="44.46990779664937" lon="7.8384587331256075"><ele>371.0</ele><time>2026-04-15T17:23:58Z</time></trkpt><trkpt lat="44.47003602937015" lon="7.838682771702655"><ele>371.0</ele><time>2026-04-15T17:23:59Z</time></trkpt><trkpt lat="44.47015517332329" lon="7.838916165728696"><ele>371.0</ele><time>2026-04-15T17:24:00Z</time></trkpt><trkpt lat="44.47027068916727" lon="7.839156548481496"><ele>371.0</ele><time>2026-04-15T17:24:01Z</time></trkpt><trkpt lat="44.470387725964486" lon="7.839400484193701"><ele>371.0</ele><time>2026-04-15T17:24:02Z</time></trkpt><trkpt lat="44.47049682795633" lon="7.839656484415933"><ele>371.0</ele><time>2026-04-15T17:24:03Z</time></trkpt><trkpt lat="44.47059131323359" lon="7.839931352049674"><ele>371.0</ele><time>2026-04-15T17:24:04Z</time></trkpt><trkpt lat="44.47067389327418" lon="7.840195163521061"><ele>370.6666666666667</ele><time>2026-04-15T17:24:04.999Z</time></trkpt><trkpt lat="44.47075371113251" lon="7.840462064189151"><ele>370.3333333333333</ele><time>2026-04-15T17:24:05.999Z</time></trkpt><trkpt lat="44.47082749370039" lon="7.840721728720559"><ele>370.0</ele><time>2026-04-15T17:24:06.999Z</time></trkpt><trkpt lat="44.47089488353994" lon="7.840988805427381"><ele>369.66666666666663</ele><time>2026-04-15T17:24:07.999Z</time></trkpt><trkpt lat="44.470947859047484" lon="7.841243400951294"><ele>369.3333333333333</ele><time>2026-04-15T17:24:08.999Z</time></trkpt><trkpt lat="44.4709935717079" lon="7.841508452219341"><ele>369.0</ele><time>2026-04-15T17:24:09.999Z</time></trkpt><trkpt lat="44.471038402406165" lon="7.8417652804137825"><ele>369.0</ele><time>2026-04-15T17:24:10.999Z</time></trkpt><trkpt lat="44.471068769006095" lon="7.84203301002424"><ele>369.0</ele><time>2026-04-15T17:24:11.999Z</time></trkpt><trkpt lat="44.47109736851308" lon="7.842281205902055"><ele>369.0</ele><time>2026-04-15T17:24:12.999Z</time></trkpt><trkpt lat="44.47112908914054" lon="7.842531158572058"><ele>368.6666666666667</ele><time>2026-04-15T17:24:13.999Z</time></trkpt><trkpt lat="44.47116178597641" lon="7.842777897608221"><ele>368.33333333333337</ele><time>2026-04-15T17:24:14.999Z</time></trkpt><trkpt lat="44.47118996217159" lon="7.8430465232832995"><ele>368.0</ele><time>2026-04-15T17:24:15.999Z</time></trkpt><trkpt lat="44.47120926153184" lon="7.843304291164524"><ele>368.33333333333337</ele><time>2026-04-15T17:24:16.999Z</time></trkpt><trkpt lat="44.47124199803435" lon="7.843531599825508"><ele>368.6666666666667</ele><time>2026-04-15T17:24:17.999Z</time></trkpt><trkpt lat="44.47126713522222" lon="7.84377037984718"><ele>369.0</ele><time>2026-04-15T17:24:18.999Z</time></trkpt><trkpt lat="44.47129652234916" lon="7.843987941507409"><ele>369.0</ele><time>2026-04-15T17:24:19.999Z</time></trkpt><trkpt lat="44.47133381539691" lon="7.844197718010947"><ele>369.0</ele><time>2026-04-15T17:24:20.999Z</time></trkpt><trkpt lat="44.47136822383457" lon="7.844408129491036"><ele>369.0</ele><time>2026-04-15T17:24:21.999Z</time></trkpt><trkpt lat="44.47141377705786" lon="7.8446107445875635"><ele>368.6666666666667</ele><time>2026-04-15T17:24:22.999Z</time></trkpt><trkpt lat="44.47147531677852" lon="7.844813359963086"><ele>368.33333333333337</ele><time>2026-04-15T17:24:23.999Z</time></trkpt><trkpt lat="44.47154998444203" lon="7.845013053468023"><ele>368.0</ele><time>2026-04-15T17:24:24.999Z</time></trkpt><trkpt lat="44.47163073903272" lon="7.8452119404446945"><ele>367.6666666666667</ele><time>2026-04-15T17:24:25.999Z</time></trkpt><trkpt lat="44.47171587380476" lon="7.845392671661814"><ele>367.3333333333333</ele><time>2026-04-15T17:24:26.999Z</time></trkpt><trkpt lat="44.47180679433804" lon="7.845580392921688"><ele>367.0</ele><time>2026-04-15T17:24:27.999Z</time></trkpt><trkpt lat="44.47189538661952" lon="7.845768623328307"><ele>367.0</ele><time>2026-04-15T17:24:28.999Z</time></trkpt><trkpt lat="44.471978079187636" lon="7.845944745827307"><ele>367.0</ele><time>2026-04-15T17:24:29.999Z</time></trkpt><trkpt lat="44.47205797820273" lon="7.846125191220345"><ele>367.0</ele><time>2026-04-15T17:24:30.999Z</time></trkpt><trkpt lat="44.4721327701859" lon="7.8462880555643775"><ele>367.0</ele><time>2026-04-15T17:24:31.999Z</time></trkpt><trkpt lat="44.47220891852298" lon="7.8464488210313075"><ele>367.0</ele><time>2026-04-15T17:24:32.999Z</time></trkpt><trkpt lat="44.472279462670166" lon="7.846604580236044"><ele>367.0</ele><time>2026-04-15T17:24:33.999Z</time></trkpt><trkpt lat="44.47234086799122" lon="7.846747712731993"><ele>367.0</ele><time>2026-04-15T17:24:34.999Z</time></trkpt><trkpt lat="44.47240523812651" lon="7.84689123855737"><ele>367.0</ele><time>2026-04-15T17:24:35.999Z</time></trkpt><trkpt lat="44.47246750925355" lon="7.847051371121162"><ele>367.0</ele><time>2026-04-15T17:24:36.999Z</time></trkpt><trkpt lat="44.47251840914474" lon="7.84721784277513"><ele>367.0</ele><time>2026-04-15T17:24:37.999Z</time></trkpt><trkpt lat="44.472565394124224" lon="7.84738525197572"><ele>367.0</ele><time>2026-04-15T17:24:38.999Z</time></trkpt><trkpt lat="44.47261052839069" lon="7.847553223649576"><ele>367.0</ele><time>2026-04-15T17:24:39.999Z</time></trkpt><trkpt lat="44.47264872436909" lon="7.847720949670332"><ele>367.5</ele><time>2026-04-15T17:24:40.999Z</time></trkpt><trkpt lat="44.47269083501244" lon="7.847898197446985"><ele>368.0</ele><time>2026-04-15T17:24:41.999Z</time></trkpt><trkpt lat="44.472725251089194" lon="7.8480599991343905"><ele>368.5</ele><time>2026-04-15T17:24:42.999Z</time></trkpt><trkpt lat="44.47276024207712" lon="7.848220197172906"><ele>369.0</ele><time>2026-04-15T17:24:43.999Z</time></trkpt><trkpt lat="44.47279908839401" lon="7.848379186531733"><ele>369.0</ele><time>2026-04-15T17:24:44.999Z</time></trkpt><trkpt lat="44.472841780397886" lon="7.848535950936132"><ele>369.0</ele><time>2026-04-15T17:24:45.999Z</time></trkpt><trkpt lat="44.47287808222156" lon="7.848684618329032"><ele>369.0</ele><time>2026-04-15T17:24:46.999Z</time></trkpt><trkpt lat="44.47291057859765" lon="7.848817063689267"><ele>369.0</ele><time>2026-04-15T17:24:47.999Z</time></trkpt><trkpt lat="44.47294285422361" lon="7.848953836281136"><ele>369.0</ele><time>2026-04-15T17:24:48.999Z</time></trkpt><trkpt lat="44.472975942060884" lon="7.849091856397224"><ele>369.25</ele><time>2026-04-15T17:24:49.999Z</time></trkpt><trkpt lat="44.473006310957736" lon="7.849235425089261"><ele>369.5</ele><time>2026-04-15T17:24:50.999Z</time></trkpt><trkpt lat="44.4730401070415" lon="7.849386991114711"><ele>369.75</ele><time>2026-04-15T17:24:51.999Z</time></trkpt><trkpt lat="44.47308083373431" lon="7.849536848402469"><ele>370.0</ele><time>2026-04-15T17:24:52.999Z</time></trkpt><trkpt lat="44.47312201513318" lon="7.849689781965636"><ele>370.0</ele><time>2026-04-15T17:24:53.999Z</time></trkpt><trkpt lat="44.47316511265663" lon="7.849855940117795"><ele>370.0</ele><time>2026-04-15T17:24:54.999Z</time></trkpt><trkpt lat="44.473211219182765" lon="7.850044848384859"><ele>370.0</ele><time>2026-04-15T17:24:55.999Z</time></trkpt><trkpt lat="44.47324270397648" lon="7.850216162935959"><ele>370.0</ele><time>2026-04-15T17:24:56.999Z</time></trkpt><trkpt lat="44.473275488606824" lon="7.850374308613559"><ele>370.0</ele><time>2026-04-15T17:24:57.999Z</time></trkpt><trkpt lat="44.473300851982984" lon="7.850548961011045"><ele>370.0</ele><time>2026-04-15T17:24:58.999Z</time></trkpt><trkpt lat="44.473331542749435" lon="7.850718866980254"><ele>370.0</ele><time>2026-04-15T17:24:59.999Z</time></trkpt><trkpt lat="44.47336236744739" lon="7.850893298927481"><ele>370.0</ele><time>2026-04-15T17:25:00.999Z</time></trkpt><trkpt lat="44.4733938544771" lon="7.851058054028496"><ele>370.0</ele><time>2026-04-15T17:25:01.999Z</time></trkpt><trkpt lat="44.473421687282915" lon="7.851218248229697"><ele>370.0</ele><time>2026-04-15T17:25:02.999Z</time></trkpt><trkpt lat="44.473450530631794" lon="7.851377698875243"><ele>370.0</ele><time>2026-04-15T17:25:03.999Z</time></trkpt><trkpt lat="44.473479415322" lon="7.851549131974507"><ele>370.0</ele><time>2026-04-15T17:25:04.999Z</time></trkpt><trkpt lat="44.47350686532766" lon="7.851719581156005"><ele>369.5</ele><time>2026-04-15T17:25:05.999Z</time></trkpt><trkpt lat="44.47353804779752" lon="7.851892414772427"><ele>369.0</ele><time>2026-04-15T17:25:06.999Z</time></trkpt><trkpt lat="44.47356955483052" lon="7.852067222425749"><ele>368.5</ele><time>2026-04-15T17:25:07.999Z</time></trkpt><trkpt lat="44.47359071287717" lon="7.852250613407413"><ele>368.0</ele><time>2026-04-15T17:25:08.999Z</time></trkpt><trkpt lat="44.47361596083691" lon="7.8524187572025745"><ele>368.0</ele><time>2026-04-15T17:25:09.999Z</time></trkpt><trkpt lat="44.47364685528045" lon="7.852585377148441"><ele>368.0</ele><time>2026-04-15T17:25:10.999Z</time></trkpt><trkpt lat="44.4736732755796" lon="7.852756461452748"><ele>368.0</ele><time>2026-04-15T17:25:11.999Z</time></trkpt><trkpt lat="44.473701259072826" lon="7.852942486497695"><ele>368.0</ele><time>2026-04-15T17:25:12.999Z</time></trkpt><trkpt lat="44.47372515046118" lon="7.853117644667027"><ele>368.0</ele><time>2026-04-15T17:25:13.999Z</time></trkpt><trkpt lat="44.47373733946846" lon="7.853296584288479"><ele>368.0</ele><time>2026-04-15T17:25:15Z</time></trkpt><trkpt lat="44.47376172493512" lon="7.853472895594665"><ele>368.0</ele><time>2026-04-15T17:25:16Z</time></trkpt><trkpt lat="44.47377775819785" lon="7.853652098309722"><ele>368.0</ele><time>2026-04-15T17:25:17Z</time></trkpt><trkpt lat="44.47379660780408" lon="7.853829651083819"><ele>368.0</ele><time>2026-04-15T17:25:18Z</time></trkpt><trkpt lat="44.473815034457594" lon="7.854008997803257"><ele>368.0</ele><time>2026-04-15T17:25:19Z</time></trkpt><trkpt lat="44.47382638673226" lon="7.854195365788053"><ele>368.0</ele><time>2026-04-15T17:25:20Z</time></trkpt><trkpt lat="44.4738339295184" lon="7.8543715262157745"><ele>368.0</ele><time>2026-04-15T17:25:21Z</time></trkpt><trkpt lat="44.47383947187384" lon="7.854549516370685"><ele>368.0</ele><time>2026-04-15T17:25:22Z</time></trkpt><trkpt lat="44.47384715609913" lon="7.854730229765936"><ele>368.0</ele><time>2026-04-15T17:25:23Z</time></trkpt><trkpt lat="44.47385306240652" lon="7.854914521907307"><ele>368.0</ele><time>2026-04-15T17:25:24Z</time></trkpt><trkpt lat="44.47385720862192" lon="7.855090425046162"><ele>368.0</ele><time>2026-04-15T17:25:25Z</time></trkpt><trkpt lat="44.47386604620668" lon="7.855267349782313"><ele>368.0</ele><time>2026-04-15T17:25:26Z</time></trkpt><trkpt lat="44.473873570324365" lon="7.855448112564866"><ele>368.0</ele><time>2026-04-15T17:25:27Z</time></trkpt><trkpt lat="44.473884829289844" lon="7.855628036319747"><ele>368.0</ele><time>2026-04-15T17:25:28Z</time></trkpt><trkpt lat="44.473893637992525" lon="7.85580820427252"><ele>368.0</ele><time>2026-04-15T17:25:29Z</time></trkpt><trkpt lat="44.47390118356445" lon="7.8559908097158555"><ele>367.75</ele><time>2026-04-15T17:25:30Z</time></trkpt><trkpt lat="44.47391289963817" lon="7.85617567542616"><ele>367.5</ele><time>2026-04-15T17:25:31Z</time></trkpt><trkpt lat="44.473920735892314" lon="7.856360240366847"><ele>367.25</ele><time>2026-04-15T17:25:32Z</time></trkpt><trkpt lat="44.47392987735861" lon="7.856543159906957"><ele>367.0</ele><time>2026-04-15T17:25:33Z</time></trkpt><trkpt lat="44.47393593226194" lon="7.856721630737405"><ele>366.75</ele><time>2026-04-15T17:25:34Z</time></trkpt><trkpt lat="44.47394296558896" lon="7.856905510816546"><ele>366.5</ele><time>2026-04-15T17:25:35Z</time></trkpt><trkpt lat="44.47394714319657" lon="7.857094333819559"><ele>366.25</ele><time>2026-04-15T17:25:36Z</time></trkpt><trkpt lat="44.47395658574013" lon="7.857278045187748"><ele>366.0</ele><time>2026-04-15T17:25:37Z</time></trkpt><trkpt lat="44.473968746901505" lon="7.857464167316481"><ele>365.75</ele><time>2026-04-15T17:25:38Z</time></trkpt><trkpt lat="44.47397706969796" lon="7.8576562550411655"><ele>365.5</ele><time>2026-04-15T17:25:39Z</time></trkpt><trkpt lat="44.473984969261174" lon="7.857839352230958"><ele>365.25</ele><time>2026-04-15T17:25:40Z</time></trkpt><trkpt lat="44.47399139713247" lon="7.858016123020084"><ele>365.0</ele><time>2026-04-15T17:25:41Z</time></trkpt><trkpt lat="44.473999485583995" lon="7.858193515405521"><ele>365.0</ele><time>2026-04-15T17:25:42Z</time></trkpt><trkpt lat="44.47400623471548" lon="7.858368382255658"><ele>365.0</ele><time>2026-04-15T17:25:43Z</time></trkpt><trkpt lat="44.47401769619617" lon="7.858547778356529"><ele>365.0</ele><time>2026-04-15T17:25:44Z</time></trkpt><trkpt lat="44.474024729527024" lon="7.8587314589544786"><ele>365.0</ele><time>2026-04-15T17:25:45Z</time></trkpt><trkpt lat="44.47403382830161" lon="7.8589111659809445"><ele>365.0</ele><time>2026-04-15T17:25:46Z</time></trkpt><trkpt lat="44.474047216063134" lon="7.859091311911536"><ele>365.0</ele><time>2026-04-15T17:25:47Z</time></trkpt><trkpt lat="44.474059421801044" lon="7.859267690791274"><ele>365.0</ele><time>2026-04-15T17:25:48Z</time></trkpt><trkpt lat="44.47407294175713" lon="7.8594347655823436"><ele>365.0</ele><time>2026-04-15T17:25:49Z</time></trkpt><trkpt lat="44.474094993785215" lon="7.859603329828626"><ele>365.0</ele><time>2026-04-15T17:25:50Z</time></trkpt><trkpt lat="44.474123093277" lon="7.859769555177057"><ele>365.0</ele><time>2026-04-15T17:25:51Z</time></trkpt><trkpt lat="44.474156714284334" lon="7.8599349682058826"><ele>365.0</ele><time>2026-04-15T17:25:52Z</time></trkpt><trkpt lat="44.474194359546395" lon="7.860106004467201"><ele>365.0</ele><time>2026-04-15T17:25:53Z</time></trkpt><trkpt lat="44.474234246926116" lon="7.860271899193146"><ele>364.75</ele><time>2026-04-15T17:25:54Z</time></trkpt><trkpt lat="44.47428091326888" lon="7.860439158593033"><ele>364.5</ele><time>2026-04-15T17:25:55Z</time></trkpt><trkpt lat="44.47433405148345" lon="7.860603231061819"><ele>364.25</ele><time>2026-04-15T17:25:56Z</time></trkpt><trkpt lat="44.47438480143775" lon="7.860763633107641"><ele>364.0</ele><time>2026-04-15T17:25:57Z</time></trkpt><trkpt lat="44.47443548825848" lon="7.860914054079533"><ele>364.0</ele><time>2026-04-15T17:25:58Z</time></trkpt><trkpt lat="44.47450048580199" lon="7.8610694475538505"><ele>364.0</ele><time>2026-04-15T17:25:59Z</time></trkpt><trkpt lat="44.474564734664" lon="7.861220484278564"><ele>364.0</ele><time>2026-04-15T17:26:00Z</time></trkpt><trkpt lat="44.47463621241459" lon="7.861361674698501"><ele>364.0</ele><time>2026-04-15T17:26:01Z</time></trkpt><trkpt lat="44.47470937878709" lon="7.861496282396611"><ele>364.0</ele><time>2026-04-15T17:26:02Z</time></trkpt><trkpt lat="44.47479053330424" lon="7.861631972392136"><ele>364.0</ele><time>2026-04-15T17:26:03Z</time></trkpt><trkpt lat="44.47488138314366" lon="7.861794366074184"><ele>364.0</ele><time>2026-04-15T17:26:04Z</time></trkpt><trkpt lat="44.474959945029106" lon="7.86191930817723"><ele>364.0</ele><time>2026-04-15T17:26:05Z</time></trkpt><trkpt lat="44.47503383180965" lon="7.862033406536871"><ele>364.0</ele><time>2026-04-15T17:26:06Z</time></trkpt><trkpt lat="44.47511933317674" lon="7.8621499870138445"><ele>364.0</ele><time>2026-04-15T17:26:07Z</time></trkpt><trkpt lat="44.47520526838052" lon="7.86227065665971"><ele>364.0</ele><time>2026-04-15T17:26:08Z</time></trkpt><trkpt lat="44.47528329753342" lon="7.862388987681453"><ele>364.0</ele><time>2026-04-15T17:26:09Z</time></trkpt><trkpt lat="44.475363041579094" lon="7.862508312343143"><ele>364.2</ele><time>2026-04-15T17:26:10Z</time></trkpt><trkpt lat="44.475442408776466" lon="7.862626130377627"><ele>364.4</ele><time>2026-04-15T17:26:10.999Z</time></trkpt><trkpt lat="44.475523305823025" lon="7.862740708608207"><ele>364.6</ele><time>2026-04-15T17:26:11.999Z</time></trkpt><trkpt lat="44.47559395377013" lon="7.862853116700596"><ele>364.8</ele><time>2026-04-15T17:26:12.999Z</time></trkpt><trkpt lat="44.47567042617819" lon="7.862963017913718"><ele>365.0</ele><time>2026-04-15T17:26:13.999Z</time></trkpt><trkpt lat="44.475746289869605" lon="7.863069044640278"><ele>365.0</ele><time>2026-04-15T17:26:14.999Z</time></trkpt><trkpt lat="44.47582248795026" lon="7.863181682043347"><ele>365.0</ele><time>2026-04-15T17:26:15.999Z</time></trkpt><trkpt lat="44.47590574593297" lon="7.86329403336266"><ele>365.0</ele><time>2026-04-15T17:26:16.999Z</time></trkpt><trkpt lat="44.475986372568315" lon="7.863405801891471"><ele>365.0</ele><time>2026-04-15T17:26:17.999Z</time></trkpt><trkpt lat="44.47606123968599" lon="7.863512996277407"><ele>365.0</ele><time>2026-04-15T17:26:18.999Z</time></trkpt><trkpt lat="44.47613347448598" lon="7.863623924315486"><ele>365.0</ele><time>2026-04-15T17:26:19.999Z</time></trkpt><trkpt lat="44.47620220777602" lon="7.863737268660324"><ele>365.0</ele><time>2026-04-15T17:26:20.999Z</time></trkpt><trkpt lat="44.47627763920232" lon="7.86384960427909"><ele>365.0</ele><time>2026-04-15T17:26:21.999Z</time></trkpt><trkpt lat="44.47635357865534" lon="7.863950153736175"><ele>365.0</ele><time>2026-04-15T17:26:22.999Z</time></trkpt><trkpt lat="44.47642446568393" lon="7.864057371813702"><ele>365.0</ele><time>2026-04-15T17:26:23.999Z</time></trkpt><trkpt lat="44.47649844925148" lon="7.864174112929378"><ele>365.0</ele><time>2026-04-15T17:26:24.999Z</time></trkpt><trkpt lat="44.4765731712016" lon="7.864277789213933"><ele>365.0</ele><time>2026-04-15T17:26:25.999Z</time></trkpt><trkpt lat="44.47664685013341" lon="7.864382874470142"><ele>365.0</ele><time>2026-04-15T17:26:26.999Z</time></trkpt><trkpt lat="44.47671903404196" lon="7.8644796383675795"><ele>365.0</ele><time>2026-04-15T17:26:27.999Z</time></trkpt><trkpt lat="44.47678447276129" lon="7.86458083743365"><ele>365.0</ele><time>2026-04-15T17:26:28.999Z</time></trkpt><trkpt lat="44.47684873043145" lon="7.864675688214219"><ele>364.8</ele><time>2026-04-15T17:26:29.999Z</time></trkpt><trkpt lat="44.47691565347555" lon="7.864783510957035"><ele>364.6</ele><time>2026-04-15T17:26:30.999Z</time></trkpt><trkpt lat="44.47697164895891" lon="7.864876556267293"><ele>364.4</ele><time>2026-04-15T17:26:31.999Z</time></trkpt><trkpt lat="44.477024380576374" lon="7.864977326841013"><ele>364.2</ele><time>2026-04-15T17:26:32.999Z</time></trkpt><trkpt lat="44.47707841498035" lon="7.865080144274353"><ele>364.0</ele><time>2026-04-15T17:26:33.999Z</time></trkpt><trkpt lat="44.47713318378506" lon="7.865186406616415"><ele>364.0</ele><time>2026-04-15T17:26:34.999Z</time></trkpt><trkpt lat="44.477176036374274" lon="7.865316592711686"><ele>364.0</ele><time>2026-04-15T17:26:35.999Z</time></trkpt><trkpt lat="44.47721746340796" lon="7.865446631668321"><ele>364.0</ele><time>2026-04-15T17:26:36.999Z</time></trkpt><trkpt lat="44.47725362735519" lon="7.865561928896736"><ele>364.0</ele><time>2026-04-15T17:26:37.999Z</time></trkpt><trkpt lat="44.47727445297297" lon="7.8656867100675045"><ele>364.0</ele><time>2026-04-15T17:26:38.999Z</time></trkpt><trkpt lat="44.477298690182224" lon="7.865819102738013"><ele>364.0</ele><time>2026-04-15T17:26:39.999Z</time></trkpt><trkpt lat="44.47735106446478" lon="7.865939812414579"><ele>364.0</ele><time>2026-04-15T17:26:40.999Z</time></trkpt><trkpt lat="44.47735787481476" lon="7.86607822714419"><ele>364.0</ele><time>2026-04-15T17:26:41.999Z</time></trkpt><trkpt lat="44.477387047890375" lon="7.866192545870089"><ele>364.0</ele><time>2026-04-15T17:26:42.999Z</time></trkpt><trkpt lat="44.477411103542686" lon="7.866302783312779"><ele>364.0</ele><time>2026-04-15T17:26:43.999Z</time></trkpt><trkpt lat="44.47743342785722" lon="7.866416184354686"><ele>364.0</ele><time>2026-04-15T17:26:44.999Z</time></trkpt><trkpt lat="44.47745926653366" lon="7.866540555436756"><ele>364.0</ele><time>2026-04-15T17:26:45.999Z</time></trkpt><trkpt lat="44.47747614840306" lon="7.866672173239473"><ele>364.0</ele><time>2026-04-15T17:26:46.999Z</time></trkpt><trkpt lat="44.477503810572955" lon="7.866787428560342"><ele>364.0</ele><time>2026-04-15T17:26:47.999Z</time></trkpt><trkpt lat="44.47753034591664" lon="7.866899654603877"><ele>364.0</ele><time>2026-04-15T17:26:48.999Z</time></trkpt><trkpt lat="44.47755015854497" lon="7.867019152751963"><ele>364.0</ele><time>2026-04-15T17:26:49.999Z</time></trkpt><trkpt lat="44.47757415224913" lon="7.867113486136667"><ele>364.0</ele><time>2026-04-15T17:26:50.999Z</time></trkpt><trkpt lat="44.47759627993647" lon="7.867217901232669"><ele>364.0</ele><time>2026-04-15T17:26:51.999Z</time></trkpt><trkpt lat="44.477617979555276" lon="7.867320019202288"><ele>364.0</ele><time>2026-04-15T17:26:52.999Z</time></trkpt><trkpt lat="44.47765074382497" lon="7.86740803266173"><ele>364.0</ele><time>2026-04-15T17:26:53.999Z</time></trkpt><trkpt lat="44.47766121178261" lon="7.867515008308122"><ele>364.0</ele><time>2026-04-15T17:26:54.999Z</time></trkpt><trkpt lat="44.47768737410968" lon="7.867611196872708"><ele>364.0</ele><time>2026-04-15T17:26:55.999Z</time></trkpt><trkpt lat="44.477718874461154" lon="7.867704631205708"><ele>364.0</ele><time>2026-04-15T17:26:56.999Z</time></trkpt><trkpt lat="44.477723910788384" lon="7.867798676457809"><ele>363.66666666666663</ele><time>2026-04-15T17:26:57.999Z</time></trkpt><trkpt lat="44.47775154712157" lon="7.86787884677166"><ele>363.3333333333333</ele><time>2026-04-15T17:26:58.999Z</time></trkpt><trkpt lat="44.47780046473921" lon="7.868042596301697"><ele>363.0</ele><time>2026-04-15T17:27:00.999Z</time></trkpt><trkpt lat="44.47782211874081" lon="7.868135574147359"><ele>362.6666666666667</ele><time>2026-04-15T17:27:01.999Z</time></trkpt><trkpt lat="44.47784227891747" lon="7.868233894981955"><ele>362.33333333333337</ele><time>2026-04-15T17:27:02.999Z</time></trkpt><trkpt lat="44.477865717658204" lon="7.868316133108165"><ele>362.0</ele><time>2026-04-15T17:27:03.999Z</time></trkpt><trkpt lat="44.47788733024617" lon="7.8684060302698"><ele>362.0</ele><time>2026-04-15T17:27:04.999Z</time></trkpt><trkpt lat="44.47791029905911" lon="7.868500350642827"><ele>362.0</ele><time>2026-04-15T17:27:05.999Z</time></trkpt><trkpt lat="44.477937930199104" lon="7.8685912039644865"><ele>362.0</ele><time>2026-04-15T17:27:06.999Z</time></trkpt><trkpt lat="44.47795183074576" lon="7.868689815099147"><ele>362.0</ele><time>2026-04-15T17:27:07.999Z</time></trkpt><trkpt lat="44.47796688058681" lon="7.8687803460257575"><ele>362.0</ele><time>2026-04-15T17:27:08.999Z</time></trkpt><trkpt lat="44.47798614917503" lon="7.868869524320568"><ele>362.0</ele><time>2026-04-15T17:27:09.999Z</time></trkpt><trkpt lat="44.47800379001427" lon="7.868971882763551"><ele>362.0</ele><time>2026-04-15T17:27:10.999Z</time></trkpt><trkpt lat="44.478025128477356" lon="7.8690651232855915"><ele>362.0</ele><time>2026-04-15T17:27:11.999Z</time></trkpt><trkpt lat="44.47804180933277" lon="7.869160215920957"><ele>362.0</ele><time>2026-04-15T17:27:12.999Z</time></trkpt><trkpt lat="44.478087808312544" lon="7.86931814076214"><ele>362.0</ele><time>2026-04-15T17:27:14.999Z</time></trkpt><trkpt lat="44.47812328878215" lon="7.869485260043815"><ele>362.0</ele><time>2026-04-15T17:27:16.998Z</time></trkpt><trkpt lat="44.47814259619191" lon="7.869604897622725"><ele>362.0</ele><time>2026-04-15T17:27:17.998Z</time></trkpt><trkpt lat="44.47817206423833" lon="7.869717038739863"><ele>362.0</ele><time>2026-04-15T17:27:18.998Z</time></trkpt><trkpt lat="44.47820282179117" lon="7.86982116839394"><ele>362.0</ele><time>2026-04-15T17:27:19.998Z</time></trkpt><trkpt lat="44.47822660304051" lon="7.869934542883128"><ele>362.0</ele><time>2026-04-15T17:27:21Z</time></trkpt><trkpt lat="44.47824892529525" lon="7.87004453170145"><ele>362.0</ele><time>2026-04-15T17:27:22Z</time></trkpt><trkpt lat="44.47827055391022" lon="7.87015996910361"><ele>362.0</ele><time>2026-04-15T17:27:23Z</time></trkpt><trkpt lat="44.47828786212344" lon="7.8702602308838365"><ele>362.0</ele><time>2026-04-15T17:27:24Z</time></trkpt><trkpt lat="44.47830882755688" lon="7.870348485038824"><ele>362.20000000000005</ele><time>2026-04-15T17:27:25Z</time></trkpt><trkpt lat="44.47834657795826" lon="7.870501227022161"><ele>362.4</ele><time>2026-04-15T17:27:27Z</time></trkpt><trkpt lat="44.478385197877536" lon="7.870644858012124"><ele>362.6</ele><time>2026-04-15T17:27:29Z</time></trkpt><trkpt lat="44.478423307206185" lon="7.870781873666643"><ele>362.79999999999995</ele><time>2026-04-15T17:27:31Z</time></trkpt><trkpt lat="44.47845715946007" lon="7.870931705570355"><ele>363.0</ele><time>2026-04-15T17:27:33Z</time></trkpt><trkpt lat="44.478491975238164" lon="7.8710120335494365"><ele>363.1428571428571</ele><time>2026-04-15T17:27:34Z</time></trkpt><trkpt lat="44.47851343693718" lon="7.871100310853771"><ele>363.2857142857143</ele><time>2026-04-15T17:27:35Z</time></trkpt><trkpt lat="44.47853944508451" lon="7.871195511554102"><ele>363.42857142857144</ele><time>2026-04-15T17:27:36Z</time></trkpt><trkpt lat="44.478565393643095" lon="7.871282487471337"><ele>363.57142857142856</ele><time>2026-04-15T17:27:37Z</time></trkpt><trkpt lat="44.47859048482597" lon="7.871365148555568"><ele>363.7142857142857</ele><time>2026-04-15T17:27:38Z</time></trkpt><trkpt lat="44.47861802566359" lon="7.8714577589663035"><ele>363.85714285714283</ele><time>2026-04-15T17:27:39Z</time></trkpt><trkpt lat="44.47864693842568" lon="7.871561665920324"><ele>364.0</ele><time>2026-04-15T17:27:40Z</time></trkpt><trkpt lat="44.478677852963045" lon="7.871692991748596"><ele>364.0</ele><time>2026-04-15T17:27:41Z</time></trkpt><trkpt lat="44.478716178749714" lon="7.87181063907888"><ele>364.0</ele><time>2026-04-15T17:27:42Z</time></trkpt><trkpt lat="44.47874859109465" lon="7.871919476875134"><ele>364.0</ele><time>2026-04-15T17:27:43Z</time></trkpt><trkpt lat="44.47877712351886" lon="7.8720074236004045"><ele>364.0</ele><time>2026-04-15T17:27:44Z</time></trkpt><trkpt lat="44.47882801312462" lon="7.8721512973408165"><ele>364.0</ele><time>2026-04-15T17:27:46Z</time></trkpt><trkpt lat="44.47885703398405" lon="7.872248206511545"><ele>364.0</ele><time>2026-04-15T17:27:47Z</time></trkpt><trkpt lat="44.47888190921392" lon="7.872332618037904"><ele>364.0</ele><time>2026-04-15T17:27:48Z</time></trkpt><trkpt lat="44.47890890845857" lon="7.87243169817277"><ele>364.0</ele><time>2026-04-15T17:27:49Z</time></trkpt><trkpt lat="44.47896420230712" lon="7.872625274770698"><ele>364.0</ele><time>2026-04-15T17:27:51Z</time></trkpt><trkpt lat="44.479006017789224" lon="7.872781978706576"><ele>364.0</ele><time>2026-04-15T17:27:53Z</time></trkpt><trkpt lat="44.47903450997246" lon="7.872866443488894"><ele>364.0</ele><time>2026-04-15T17:27:54Z</time></trkpt><trkpt lat="44.47905928162455" lon="7.872955621871557"><ele>364.0</ele><time>2026-04-15T17:27:55Z</time></trkpt><trkpt lat="44.479091121782986" lon="7.873058534153699"><ele>364.0</ele><time>2026-04-15T17:27:56Z</time></trkpt><trkpt lat="44.47911569143812" lon="7.873145482745696"><ele>364.0</ele><time>2026-04-15T17:27:57Z</time></trkpt><trkpt lat="44.479150717094704" lon="7.873231321807515"><ele>364.0</ele><time>2026-04-15T17:27:58Z</time></trkpt><trkpt lat="44.479177127984656" lon="7.873322098916205"><ele>364.0</ele><time>2026-04-15T17:27:59Z</time></trkpt><trkpt lat="44.479203201591936" lon="7.873408518226682"><ele>364.0</ele><time>2026-04-15T17:28:00Z</time></trkpt><trkpt lat="44.479220291813355" lon="7.8735155904905225"><ele>364.0</ele><time>2026-04-15T17:28:01Z</time></trkpt><trkpt lat="44.47925263393686" lon="7.8735967796694"><ele>363.7142857142857</ele><time>2026-04-15T17:28:02Z</time></trkpt><trkpt lat="44.47928253899311" lon="7.873677958455372"><ele>363.42857142857144</ele><time>2026-04-15T17:28:03Z</time></trkpt><trkpt lat="44.479313970215586" lon="7.8737619564829116"><ele>363.1428571428571</ele><time>2026-04-15T17:28:04Z</time></trkpt><trkpt lat="44.47933259910719" lon="7.873856040309858"><ele>362.8571428571429</ele><time>2026-04-15T17:28:05Z</time></trkpt><trkpt lat="44.47935423562618" lon="7.873943214136633"><ele>362.57142857142856</ele><time>2026-04-15T17:28:06Z</time></trkpt><trkpt lat="44.47937115560118" lon="7.87405529852325"><ele>362.2857142857143</ele><time>2026-04-15T17:28:07Z</time></trkpt><trkpt lat="44.47938700395631" lon="7.874157958594018"><ele>362.0</ele><time>2026-04-15T17:28:08Z</time></trkpt><trkpt lat="44.47940047455259" lon="7.874271700145577"><ele>361.83333333333337</ele><time>2026-04-15T17:28:09Z</time></trkpt><trkpt lat="44.47940940094208" lon="7.874386585278285"><ele>361.6666666666667</ele><time>2026-04-15T17:28:10Z</time></trkpt><trkpt lat="44.47942111766973" lon="7.874493128357678"><ele>361.5</ele><time>2026-04-15T17:28:11Z</time></trkpt><trkpt lat="44.479433939945615" lon="7.874596256661752"><ele>361.3333333333333</ele><time>2026-04-15T17:28:12Z</time></trkpt><trkpt lat="44.479444126214496" lon="7.874694542207242"><ele>361.16666666666663</ele><time>2026-04-15T17:28:13Z</time></trkpt><trkpt lat="44.47946990504808" lon="7.874888601253378"><ele>361.0</ele><time>2026-04-15T17:28:14.999Z</time></trkpt><trkpt lat="44.479479996801594" lon="7.875023195874579"><ele>361.0</ele><time>2026-04-15T17:28:15.999Z</time></trkpt><trkpt lat="44.479485573826295" lon="7.87514657283316"><ele>361.0</ele><time>2026-04-15T17:28:16.999Z</time></trkpt><trkpt lat="44.47948531636477" lon="7.875270343941467"><ele>361.0</ele><time>2026-04-15T17:28:17.999Z</time></trkpt><trkpt lat="44.47948317656395" lon="7.8753682559370235"><ele>361.0</ele><time>2026-04-15T17:28:18.999Z</time></trkpt><trkpt lat="44.47948241302859" lon="7.875480178166739"><ele>361.0</ele><time>2026-04-15T17:28:19.999Z</time></trkpt><trkpt lat="44.479477730588194" lon="7.875590993867322"><ele>361.0</ele><time>2026-04-15T17:28:20.999Z</time></trkpt><trkpt lat="44.47947052893136" lon="7.87570641506769"><ele>361.0</ele><time>2026-04-15T17:28:21.999Z</time></trkpt><trkpt lat="44.47946331220201" lon="7.8758107241616395"><ele>361.0</ele><time>2026-04-15T17:28:22.999Z</time></trkpt><trkpt lat="44.47945670614806" lon="7.875909103247489"><ele>361.0</ele><time>2026-04-15T17:28:23.999Z</time></trkpt><trkpt lat="44.47945112300787" lon="7.875999811863286"><ele>361.0</ele><time>2026-04-15T17:28:24.999Z</time></trkpt><trkpt lat="44.47944150338595" lon="7.87615570426361"><ele>361.0</ele><time>2026-04-15T17:28:26.999Z</time></trkpt><trkpt lat="44.47942706121813" lon="7.876319391804876"><ele>361.0</ele><time>2026-04-15T17:28:28.999Z</time></trkpt><trkpt lat="44.47942250306946" lon="7.876497048596146"><ele>361.0</ele><time>2026-04-15T17:28:30.999Z</time></trkpt><trkpt lat="44.479424763381544" lon="7.8765937963073345"><ele>361.0</ele><time>2026-04-15T17:28:31.999Z</time></trkpt><trkpt lat="44.479429756035856" lon="7.876753426926018"><ele>361.0</ele><time>2026-04-15T17:28:33.999Z</time></trkpt><trkpt lat="44.47928012310071" lon="7.876786764232602"><ele>361.0</ele><time>2026-04-15T17:28:34.999Z</time></trkpt><trkpt lat="44.479265725121586" lon="7.8768732634025165"><ele>361.0</ele><time>2026-04-15T17:28:35.999Z</time></trkpt><trkpt lat="44.47932607245084" lon="7.8770693783346575"><ele>361.6</ele><time>2026-04-15T17:28:37.999Z</time></trkpt><trkpt lat="44.47926796821846" lon="7.877119637509566"><ele>362.20000000000005</ele><time>2026-04-15T17:28:38.999Z</time></trkpt><trkpt lat="44.4791691315985" lon="7.8772182030383915"><ele>362.79999999999995</ele><time>2026-04-15T17:28:40.999Z</time></trkpt><trkpt lat="44.479072999755076" lon="7.877336728506997"><ele>363.4</ele><time>2026-04-15T17:28:42.999Z</time></trkpt><trkpt lat="44.47902517890791" lon="7.877412893085339"><ele>364.0</ele><time>2026-04-15T17:28:43.999Z</time></trkpt><trkpt lat="44.478962604154475" lon="7.877534646221713"><ele>364.0</ele><time>2026-04-15T17:28:45.999Z</time></trkpt><trkpt lat="44.478909976572155" lon="7.877600478614671"><ele>364.0</ele><time>2026-04-15T17:28:47.999Z</time></trkpt><trkpt lat="44.478846165167255" lon="7.877606466486358"><ele>364.0</ele><time>2026-04-15T17:28:49.999Z</time></trkpt><trkpt lat="44.478738947425924" lon="7.877548366872953"><ele>364.0</ele><time>2026-04-15T17:28:51.999Z</time></trkpt><trkpt lat="44.47867168945915" lon="7.877495647920162"><ele>364.0</ele><time>2026-04-15T17:28:52.999Z</time></trkpt><trkpt lat="44.47860690737777" lon="7.87745646736568"><ele>364.0</ele><time>2026-04-15T17:28:53.999Z</time></trkpt><trkpt lat="44.47854336436957" lon="7.87742625028431"><ele>363.6</ele><time>2026-04-15T17:28:54.999Z</time></trkpt><trkpt lat="44.47847288899298" lon="7.877390781697914"><ele>363.2</ele><time>2026-04-15T17:28:55.999Z</time></trkpt><trkpt lat="44.478356117151634" lon="7.877317085403542"><ele>362.8</ele><time>2026-04-15T17:28:57.999Z</time></trkpt><trkpt lat="44.47829152591187" lon="7.877306096678315"><ele>362.40000000000003</ele><time>2026-04-15T17:28:58.999Z</time></trkpt><trkpt lat="44.47818885641395" lon="7.877277340397949"><ele>362.0</ele><time>2026-04-15T17:29:00.999Z</time></trkpt><trkpt lat="44.4781309856945" lon="7.8772022091614575"><ele>362.0</ele><time>2026-04-15T17:29:02.999Z</time></trkpt><trkpt lat="44.47812067032255" lon="7.877037035320373"><ele>362.0</ele><time>2026-04-15T17:29:04.999Z</time></trkpt><trkpt lat="44.4781532717903" lon="7.8769466545173366"><ele>362.0</ele><time>2026-04-15T17:29:05.999Z</time></trkpt><trkpt lat="44.478238293583956" lon="7.876896467336383"><ele>362.0</ele><time>2026-04-15T17:29:06.999Z</time></trkpt><trkpt lat="44.47821245624304" lon="7.876792931326905"><ele>362.0</ele><time>2026-04-15T17:29:07.999Z</time></trkpt><trkpt lat="44.478281601038034" lon="7.876662642459615"><ele>361.8</ele><time>2026-04-15T17:29:09.999Z</time></trkpt><trkpt lat="44.478296189166514" lon="7.876548181142943"><ele>361.6</ele><time>2026-04-15T17:29:10.999Z</time></trkpt><trkpt lat="44.478326434397964" lon="7.876419844550111"><ele>361.40000000000003</ele><time>2026-04-15T17:29:11.999Z</time></trkpt><trkpt lat="44.47832875114778" lon="7.8762756645873155"><ele>361.20000000000005</ele><time>2026-04-15T17:29:12.999Z</time></trkpt><trkpt lat="44.47834185674585" lon="7.87610549740217"><ele>361.0</ele><time>2026-04-15T17:29:13.999Z</time></trkpt><trkpt lat="44.478345989081774" lon="7.875929593350365"><ele>361.0</ele><time>2026-04-15T17:29:14.999Z</time></trkpt><trkpt lat="44.47833672868758" lon="7.8757704522350895"><ele>361.0</ele><time>2026-04-15T17:29:15.999Z</time></trkpt><trkpt lat="44.47832710165331" lon="7.875623353500911"><ele>361.0</ele><time>2026-04-15T17:29:16.998Z</time></trkpt><trkpt lat="44.478330899223955" lon="7.8754840099339924"><ele>361.0</ele><time>2026-04-15T17:29:17.998Z</time></trkpt><trkpt lat="44.4783309887367" lon="7.87539001458842"><ele>361.0</ele><time>2026-04-15T17:29:18.998Z</time></trkpt><trkpt lat="44.47832846218041" lon="7.875267811499784"><ele>361.0</ele><time>2026-04-15T17:29:20.998Z</time></trkpt><trkpt lat="44.47829687069847" lon="7.87515869023778"><ele>361.0</ele><time>2026-04-15T17:29:25.998Z</time></trkpt><trkpt lat="44.47830393540525" lon="7.875019518372245"><ele>361.0</ele><time>2026-04-15T17:29:32Z</time></trkpt><trkpt lat="44.47828883854175" lon="7.874932322724208"><ele>361.0</ele><time>2026-04-15T17:29:33Z</time></trkpt><trkpt lat="44.47829514397623" lon="7.874771544163895"><ele>361.0</ele><time>2026-04-15T17:29:35Z</time></trkpt><trkpt lat="44.47829025878726" lon="7.874674493465198"><ele>361.0</ele><time>2026-04-15T17:29:36Z</time></trkpt><trkpt lat="44.478283897898436" lon="7.874523959743003"><ele>361.0</ele><time>2026-04-15T17:29:38Z</time></trkpt><trkpt lat="44.47828701414826" lon="7.874432373770637"><ele>361.0</ele><time>2026-04-15T17:29:40Z</time></trkpt><trkpt lat="44.47837070121823" lon="7.874413795634379"><ele>361.0</ele><time>2026-04-15T17:29:42Z</time></trkpt><trkpt lat="44.478443266273416" lon="7.874400845373223"><ele>361.0</ele><time>2026-04-15T17:29:43Z</time></trkpt><trkpt lat="44.47856236380643" lon="7.874382504681152"><ele>361.0</ele><time>2026-04-15T17:29:45Z</time></trkpt><trkpt lat="44.47865878755026" lon="7.874357637430226"><ele>361.0</ele><time>2026-04-15T17:29:47Z</time></trkpt><trkpt lat="44.47872470714553" lon="7.87438656157238"><ele>361.0</ele><time>2026-04-15T17:29:49Z</time></trkpt><trkpt lat="44.47870236473529" lon="7.874495094848417"><ele>361.0</ele><time>2026-04-15T17:29:50Z</time></trkpt><trkpt lat="44.478865989792176" lon="7.874709202013626"><ele>361.0</ele><time>2026-04-15T17:29:52Z</time></trkpt><trkpt lat="44.47891168953602" lon="7.874550405898956"><ele>361.0</ele><time>2026-04-15T17:29:53Z</time></trkpt><trkpt lat="44.479015301679" lon="7.874551453015739"><ele>361.0</ele><time>2026-04-15T17:29:55Z</time></trkpt><trkpt lat="44.479083773074706" lon="7.874504150389799"><ele>361.0</ele><time>2026-04-15T17:29:57Z</time></trkpt><trkpt lat="44.47912950512575" lon="7.87442666411311"><ele>361.0</ele><time>2026-04-15T17:29:59Z</time></trkpt><trkpt lat="44.47914714839968" lon="7.874322918793553"><ele>361.0</ele><time>2026-04-15T17:30:01Z</time></trkpt><trkpt lat="44.47924248151539" lon="7.874259583878547"><ele>361.0</ele><time>2026-04-15T17:30:04Z</time></trkpt><trkpt lat="44.479324162281515" lon="7.8742662976715305"><ele>361.0</ele><time>2026-04-15T17:30:06Z</time></trkpt><trkpt lat="44.47938669211419" lon="7.8742549713905525"><ele>361.20000000000005</ele><time>2026-04-15T17:30:13Z</time></trkpt><trkpt lat="44.47945442994004" lon="7.874226191270169"><ele>361.40000000000003</ele><time>2026-04-15T17:30:44.999Z</time></trkpt><trkpt lat="44.479438694626275" lon="7.874034552591369"><ele>361.6</ele><time>2026-04-15T17:30:45.999Z</time></trkpt><trkpt lat="44.4794032113666" lon="7.873878042504762"><ele>361.8</ele><time>2026-04-15T17:30:47.999Z</time></trkpt><trkpt lat="44.47937515116676" lon="7.873743249152509"><ele>362.0</ele><time>2026-04-15T17:30:48.999Z</time></trkpt><trkpt lat="44.479335247537335" lon="7.873626705087787"><ele>362.0</ele><time>2026-04-15T17:30:49.999Z</time></trkpt><trkpt lat="44.47930943886221" lon="7.873535753892349"><ele>362.0</ele><time>2026-04-15T17:30:50.999Z</time></trkpt><trkpt lat="44.47927459796829" lon="7.873427604148167"><ele>362.0</ele><time>2026-04-15T17:30:51.999Z</time></trkpt><trkpt lat="44.47923362540617" lon="7.87330585395443"><ele>362.0</ele><time>2026-04-15T17:30:52.999Z</time></trkpt><trkpt lat="44.479196122673045" lon="7.873188221824696"><ele>362.0</ele><time>2026-04-15T17:30:53.999Z</time></trkpt><trkpt lat="44.47916214816303" lon="7.873084575515312"><ele>362.0</ele><time>2026-04-15T17:30:54.999Z</time></trkpt><trkpt lat="44.47912883359316" lon="7.872992149348251"><ele>362.33333333333337</ele><time>2026-04-15T17:30:55.999Z</time></trkpt><trkpt lat="44.47910273111092" lon="7.872893533635354"><ele>362.6666666666667</ele><time>2026-04-15T17:30:56.999Z</time></trkpt><trkpt lat="44.47907087532352" lon="7.872789596458111"><ele>363.0</ele><time>2026-04-15T17:30:57.999Z</time></trkpt><trkpt lat="44.479041898639906" lon="7.872677141527909"><ele>363.3333333333333</ele><time>2026-04-15T17:30:58.999Z</time></trkpt><trkpt lat="44.479013209711404" lon="7.8725616845241895"><ele>363.66666666666663</ele><time>2026-04-15T17:30:59.999Z</time></trkpt><trkpt lat="44.47896596478468" lon="7.872436170683613"><ele>364.0</ele><time>2026-04-15T17:31:00.999Z</time></trkpt><trkpt lat="44.47892583271986" lon="7.872300612044757"><ele>364.0</ele><time>2026-04-15T17:31:01.999Z</time></trkpt><trkpt lat="44.47888973089706" lon="7.8721792681919736"><ele>364.0</ele><time>2026-04-15T17:31:02.999Z</time></trkpt><trkpt lat="44.47885253110322" lon="7.872055664927063"><ele>364.0</ele><time>2026-04-15T17:31:03.999Z</time></trkpt><trkpt lat="44.478815183932426" lon="7.871931835370911"><ele>364.0</ele><time>2026-04-15T17:31:04.999Z</time></trkpt><trkpt lat="44.478780445751134" lon="7.871805894513502"><ele>364.0</ele><time>2026-04-15T17:31:05.999Z</time></trkpt><trkpt lat="44.478735480319486" lon="7.871668582777661"><ele>364.0</ele><time>2026-04-15T17:31:06.999Z</time></trkpt><trkpt lat="44.478696446149144" lon="7.8715493698765995"><ele>364.0</ele><time>2026-04-15T17:31:07.999Z</time></trkpt><trkpt lat="44.47865482987442" lon="7.87143678944718"><ele>364.0</ele><time>2026-04-15T17:31:08.999Z</time></trkpt><trkpt lat="44.478630551144256" lon="7.871329022174815"><ele>364.0</ele><time>2026-04-15T17:31:09.999Z</time></trkpt><trkpt lat="44.47860543081242" lon="7.871225000700326"><ele>364.0</ele><time>2026-04-15T17:31:10.999Z</time></trkpt><trkpt lat="44.47858496530578" lon="7.871134675072401"><ele>364.0</ele><time>2026-04-15T17:31:11.999Z</time></trkpt><trkpt lat="44.478574999694104" lon="7.870955324931692"><ele>363.79999999999995</ele><time>2026-04-15T17:31:13.998Z</time></trkpt><trkpt lat="44.478606938316034" lon="7.870843199901066"><ele>363.59999999999997</ele><time>2026-04-15T17:31:14.998Z</time></trkpt><trkpt lat="44.47865666669943" lon="7.870727769543584"><ele>363.4</ele><time>2026-04-15T17:31:15.998Z</time></trkpt><trkpt lat="44.478715599023744" lon="7.870609006892234"><ele>363.2</ele><time>2026-04-15T17:31:16.998Z</time></trkpt><trkpt lat="44.478767433273354" lon="7.870478644750071"><ele>363.0</ele><time>2026-04-15T17:31:17.998Z</time></trkpt><trkpt lat="44.4788242348275" lon="7.870357384531557"><ele>363.0</ele><time>2026-04-15T17:31:18.998Z</time></trkpt><trkpt lat="44.47887691982793" lon="7.87024737566944"><ele>363.0</ele><time>2026-04-15T17:31:19.998Z</time></trkpt><trkpt lat="44.47893127818326" lon="7.870176687352752"><ele>363.0</ele><time>2026-04-15T17:31:20.998Z</time></trkpt><trkpt lat="44.478984045718256" lon="7.870042586418543"><ele>363.0</ele><time>2026-04-15T17:31:22.998Z</time></trkpt><trkpt lat="44.47902348858602" lon="7.869959816428916"><ele>363.0</ele><time>2026-04-15T17:31:24.998Z</time></trkpt><trkpt lat="44.47908042698089" lon="7.869882172542312"><ele>363.0</ele><time>2026-04-15T17:31:27.998Z</time></trkpt><trkpt lat="44.4791603280639" lon="7.869981536218019"><ele>363.0</ele><time>2026-04-15T17:31:30.998Z</time></trkpt><trkpt lat="44.47926878897832" lon="7.870069760451382"><ele>363.0</ele><time>2026-04-15T17:31:33Z</time></trkpt><trkpt lat="44.479341602290354" lon="7.870132670481908"><ele>363.0</ele><time>2026-04-15T17:31:34Z</time></trkpt><trkpt lat="44.47941297848762" lon="7.870225586752776"><ele>363.0</ele><time>2026-04-15T17:31:35Z</time></trkpt><trkpt lat="44.47947888725051" lon="7.870290045244864"><ele>363.0</ele><time>2026-04-15T17:31:36Z</time></trkpt><trkpt lat="44.47954259898053" lon="7.870359172366117"><ele>363.0</ele><time>2026-04-15T17:31:37Z</time></trkpt><trkpt lat="44.47961340431373" lon="7.8704279602305185"><ele>363.0</ele><time>2026-04-15T17:31:38Z</time></trkpt><trkpt lat="44.47969495542659" lon="7.8705049899879205"><ele>363.0</ele><time>2026-04-15T17:31:39Z</time></trkpt><trkpt lat="44.47977875196899" lon="7.870586794687992"><ele>363.0</ele><time>2026-04-15T17:31:40Z</time></trkpt><trkpt lat="44.47986086331235" lon="7.870662590766987"><ele>363.0</ele><time>2026-04-15T17:31:41Z</time></trkpt><trkpt lat="44.47994845404122" lon="7.870744518515442"><ele>363.0</ele><time>2026-04-15T17:31:42Z</time></trkpt><trkpt lat="44.48004678312554" lon="7.870841972842981"><ele>363.0</ele><time>2026-04-15T17:31:43Z</time></trkpt><trkpt lat="44.480160616738" lon="7.870953790062239"><ele>363.0</ele><time>2026-04-15T17:31:44Z</time></trkpt><trkpt lat="44.48025841002981" lon="7.871060729272873"><ele>363.0</ele><time>2026-04-15T17:31:45Z</time></trkpt><trkpt lat="44.48034740563114" lon="7.871158663600072"><ele>363.0</ele><time>2026-04-15T17:31:46Z</time></trkpt><trkpt lat="44.48042697824564" lon="7.871267637610136"><ele>363.0</ele><time>2026-04-15T17:31:47Z</time></trkpt><trkpt lat="44.480498544198326" lon="7.87139557917352"><ele>363.0</ele><time>2026-04-15T17:31:48Z</time></trkpt><trkpt lat="44.48057001906513" lon="7.8715388094517"><ele>363.0</ele><time>2026-04-15T17:31:49Z</time></trkpt><trkpt lat="44.48062002173574" lon="7.871663816921558"><ele>363.0</ele><time>2026-04-15T17:31:50Z</time></trkpt><trkpt lat="44.48066384134678" lon="7.871781431988769"><ele>363.0</ele><time>2026-04-15T17:31:51Z</time></trkpt><trkpt lat="44.48069599706423" lon="7.871887867818196"><ele>363.0</ele><time>2026-04-15T17:31:52Z</time></trkpt><trkpt lat="44.48072353295229" lon="7.871973560670313"><ele>363.0</ele><time>2026-04-15T17:31:53Z</time></trkpt><trkpt lat="44.48076490964333" lon="7.87211096695886"><ele>363.0</ele><time>2026-04-15T17:31:55Z</time></trkpt><trkpt lat="44.48074534396333" lon="7.872201051775815"><ele>363.0</ele><time>2026-04-15T17:31:57Z</time></trkpt><trkpt lat="44.480642079846874" lon="7.872286207724219"><ele>363.0</ele><time>2026-04-15T17:31:59Z</time></trkpt><trkpt lat="44.48057459657025" lon="7.872307157319864"><ele>363.0</ele><time>2026-04-15T17:32:00Z</time></trkpt><trkpt lat="44.48049678820854" lon="7.8723452625155135"><ele>363.0</ele><time>2026-04-15T17:32:01Z</time></trkpt><trkpt lat="44.480429590153456" lon="7.872386717278337"><ele>363.0</ele><time>2026-04-15T17:32:02Z</time></trkpt><trkpt lat="44.48032277739577" lon="7.872442561297807"><ele>363.0</ele><time>2026-04-15T17:32:04Z</time></trkpt><trkpt lat="44.48024689002606" lon="7.872484247500063"><ele>363.0</ele><time>2026-04-15T17:32:06Z</time></trkpt><trkpt lat="44.48021228123325" lon="7.872728464929552"><ele>363.0</ele><time>2026-04-15T17:32:30.999Z</time></trkpt><trkpt lat="44.48023609633186" lon="7.8728339699689265"><ele>363.0</ele><time>2026-04-15T17:32:32.999Z</time></trkpt><trkpt lat="44.480249228702135" lon="7.872930535692241"><ele>363.0</ele><time>2026-04-15T17:32:35.016Z</time></trkpt><trkpt lat="44.47976454627311" lon="7.872894211004845"><ele>363.0</ele><time>2026-04-15T17:32:53.278Z</time></trkpt><trkpt lat="44.47984473592823" lon="7.8731927954547025"><ele>363.0</ele><time>2026-04-15T17:32:57.403Z</time></trkpt><trkpt lat="44.479739663953985" lon="7.87304832717022"><ele>363.0</ele><time>2026-04-15T17:33:15.013Z</time></trkpt><trkpt lat="44.479784010696214" lon="7.873115287818603"><ele>363.0</ele><time>2026-04-15T17:35:31.996Z</time></trkpt><trkpt lat="44.47961627512794" lon="7.872840027652047"><ele>363.0</ele><time>2026-04-15T17:35:42Z</time></trkpt><trkpt lat="44.479460478984734" lon="7.872835567510451"><ele>364.0</ele><time>2026-04-15T17:35:50Z</time></trkpt><trkpt lat="44.47950732159142" lon="7.872758647006082"><ele>364.0</ele><time>2026-04-15T17:36:11Z</time></trkpt><trkpt lat="44.47956793176318" lon="7.872728321421483"><ele>364.0</ele><time>2026-04-15T17:36:18Z</time></trkpt><trkpt lat="44.47965165380417" lon="7.872668284299785"><ele>363.0</ele><time>2026-04-15T17:39:08.999Z</time></trkpt></trkseg></trk></gpx>